<?xml version="1.0" encoding="UTF-8"?>
<gpx version="1.0" creator="Trackator" xmlns:xsi="http://www.w3.org/2001/XMLSchema-instance" xmlns="http://www.topografix.com/GPX/1/0" xmlns:topografix="http://www.topografix.com/GPX/Private/TopoGrafix/0/1" xsi:schemaLocation="http://www.topografix.com/GPX/1/0 http://www.topografix.com/GPX/1/0/gpx.xsd http://www.topografix.com/GPX/Private/TopoGrafix/0/1 http://www.topografix.com/GPX/Private/TopoGrafix/0/1/topografix.xsd">
<metadata>
<link href="http://www.trackalia.com/trackatorweb.php">
<text>Trackator</text>
</link>
</metadata>
<time>2017-12-17T10:19:43Z</time>
<trk>
<name>Track: </name>
<desc>4x4-SUV</desc>
<trkseg>
<trkpt lat="53.3477478" lon="18.4357970">
<ele>112</ele>
<time>2017-12-17T10:19:43Z</time>
</trkpt>
<trkpt lat="53.3477478" lon="18.4357970">
<ele>112</ele>
<time>2017-12-17T10:19:49Z</time>
</trkpt>
<trkpt lat="53.3477478" lon="18.4357970">
<ele>112</ele>
<time>2017-12-17T10:19:55Z</time>
</trkpt>
<trkpt lat="53.3477478" lon="18.4357970">
<ele>112</ele>
<time>2017-12-17T10:20:01Z</time>
</trkpt>
<trkpt lat="53.3477478" lon="18.4357970">
<ele>112</ele>
<time>2017-12-17T10:20:07Z</time>
</trkpt>
<trkpt lat="53.3477478" lon="18.4357970">
<ele>112</ele>
<time>2017-12-17T10:20:13Z</time>
</trkpt>
<trkpt lat="53.3477478" lon="18.4357970">
<ele>112</ele>
<time>2017-12-17T10:20:19Z</time>
</trkpt>
<trkpt lat="53.3477478" lon="18.4357970">
<ele>112</ele>
<time>2017-12-17T10:20:25Z</time>
</trkpt>
<trkpt lat="53.3477478" lon="18.4357970">
<ele>112</ele>
<time>2017-12-17T10:20:31Z</time>
</trkpt>
<trkpt lat="53.3477478" lon="18.4357970">
<ele>112</ele>
<time>2017-12-17T10:20:37Z</time>
</trkpt>
<trkpt lat="53.3477677" lon="18.4357669">
<ele>112</ele>
<time>2017-12-17T10:20:43Z</time>
</trkpt>
<trkpt lat="53.3477677" lon="18.4357669">
<ele>112</ele>
<time>2017-12-17T10:20:49Z</time>
</trkpt>
<trkpt lat="53.3477677" lon="18.4357669">
<ele>112</ele>
<time>2017-12-17T10:20:55Z</time>
</trkpt>
<trkpt lat="53.3477677" lon="18.4357669">
<ele>112</ele>
<time>2017-12-17T10:21:01Z</time>
</trkpt>
<trkpt lat="53.3477677" lon="18.4357669">
<ele>112</ele>
<time>2017-12-17T10:21:07Z</time>
</trkpt>
<trkpt lat="53.3477677" lon="18.4357669">
<ele>112</ele>
<time>2017-12-17T10:21:13Z</time>
</trkpt>
<trkpt lat="53.3477677" lon="18.4357669">
<ele>112</ele>
<time>2017-12-17T10:21:19Z</time>
</trkpt>
<trkpt lat="53.3477677" lon="18.4357669">
<ele>112</ele>
<time>2017-12-17T10:21:25Z</time>
</trkpt>
<trkpt lat="53.3477677" lon="18.4357669">
<ele>112</ele>
<time>2017-12-17T10:21:31Z</time>
</trkpt>
<trkpt lat="53.3477677" lon="18.4357669">
<ele>112</ele>
<time>2017-12-17T10:21:37Z</time>
</trkpt>
<trkpt lat="53.3477689" lon="18.4357609">
<ele>111</ele>
<time>2017-12-17T10:21:43Z</time>
</trkpt>
<trkpt lat="53.3477689" lon="18.4357609">
<ele>111</ele>
<time>2017-12-17T10:21:49Z</time>
</trkpt>
<trkpt lat="53.3477689" lon="18.4357609">
<ele>111</ele>
<time>2017-12-17T10:21:55Z</time>
</trkpt>
<trkpt lat="53.3477462" lon="18.4357659">
<ele>110</ele>
<time>2017-12-17T10:22:01Z</time>
</trkpt>
<trkpt lat="53.3476105" lon="18.4357198">
<ele>108</ele>
<time>2017-12-17T10:22:07Z</time>
</trkpt>
<trkpt lat="53.3473809" lon="18.4356729">
<ele>103</ele>
<time>2017-12-17T10:22:13Z</time>
</trkpt>
<trkpt lat="53.3470643" lon="18.4356846">
<ele>100</ele>
<time>2017-12-17T10:22:19Z</time>
</trkpt>
<trkpt lat="53.3468989" lon="18.4359965">
<ele>96</ele>
<time>2017-12-17T10:22:25Z</time>
</trkpt>
<trkpt lat="53.3468719" lon="18.4366253">
<ele>93</ele>
<time>2017-12-17T10:22:31Z</time>
</trkpt>
<trkpt lat="53.3469534" lon="18.4369549">
<ele>90</ele>
<time>2017-12-17T10:22:37Z</time>
</trkpt>
<trkpt lat="53.3472457" lon="18.4370841">
<ele>89</ele>
<time>2017-12-17T10:22:43Z</time>
</trkpt>
<trkpt lat="53.3475415" lon="18.4372692">
<ele>88</ele>
<time>2017-12-17T10:22:49Z</time>
</trkpt>
<trkpt lat="53.3478713" lon="18.4374612">
<ele>90</ele>
<time>2017-12-17T10:22:55Z</time>
</trkpt>
<trkpt lat="53.3483053" lon="18.4375938">
<ele>88</ele>
<time>2017-12-17T10:23:01Z</time>
</trkpt>
<trkpt lat="53.3487733" lon="18.4378270">
<ele>90</ele>
<time>2017-12-17T10:23:07Z</time>
</trkpt>
<trkpt lat="53.3490662" lon="18.4380761">
<ele>91</ele>
<time>2017-12-17T10:23:13Z</time>
</trkpt>
<trkpt lat="53.3491455" lon="18.4381929">
<ele>92</ele>
<time>2017-12-17T10:23:19Z</time>
</trkpt>
<trkpt lat="53.3490502" lon="18.4386570">
<ele>89</ele>
<time>2017-12-17T10:23:25Z</time>
</trkpt>
<trkpt lat="53.3488536" lon="18.4392724">
<ele>90</ele>
<time>2017-12-17T10:23:31Z</time>
</trkpt>
<trkpt lat="53.3486250" lon="18.4400832">
<ele>87</ele>
<time>2017-12-17T10:23:37Z</time>
</trkpt>
<trkpt lat="53.3483353" lon="18.4410011">
<ele>87</ele>
<time>2017-12-17T10:23:43Z</time>
</trkpt>
<trkpt lat="53.3479781" lon="18.4419160">
<ele>86</ele>
<time>2017-12-17T10:23:49Z</time>
</trkpt>
<trkpt lat="53.3475931" lon="18.4425970">
<ele>86</ele>
<time>2017-12-17T10:23:55Z</time>
</trkpt>
<trkpt lat="53.3474483" lon="18.4429247">
<ele>86</ele>
<time>2017-12-17T10:24:01Z</time>
</trkpt>
<trkpt lat="53.3474483" lon="18.4429247">
<ele>86</ele>
<time>2017-12-17T10:24:07Z</time>
</trkpt>
<trkpt lat="53.3473982" lon="18.4430790">
<ele>87</ele>
<time>2017-12-17T10:24:13Z</time>
</trkpt>
<trkpt lat="53.3472484" lon="18.4434431">
<ele>88</ele>
<time>2017-12-17T10:24:19Z</time>
</trkpt>
<trkpt lat="53.3470746" lon="18.4439621">
<ele>84</ele>
<time>2017-12-17T10:24:25Z</time>
</trkpt>
<trkpt lat="53.3469593" lon="18.4445853">
<ele>83</ele>
<time>2017-12-17T10:24:31Z</time>
</trkpt>
<trkpt lat="53.3471574" lon="18.4450056">
<ele>83</ele>
<time>2017-12-17T10:24:37Z</time>
</trkpt>
<trkpt lat="53.3471851" lon="18.4451211">
<ele>81</ele>
<time>2017-12-17T10:24:43Z</time>
</trkpt>
<trkpt lat="53.3473993" lon="18.4449235">
<ele>81</ele>
<time>2017-12-17T10:24:49Z</time>
</trkpt>
<trkpt lat="53.3476574" lon="18.4444865">
<ele>84</ele>
<time>2017-12-17T10:24:55Z</time>
</trkpt>
<trkpt lat="53.3479248" lon="18.4445046">
<ele>87</ele>
<time>2017-12-17T10:25:01Z</time>
</trkpt>
<trkpt lat="53.3482245" lon="18.4447850">
<ele>85</ele>
<time>2017-12-17T10:25:07Z</time>
</trkpt>
<trkpt lat="53.3486209" lon="18.4448928">
<ele>85</ele>
<time>2017-12-17T10:25:13Z</time>
</trkpt>
<trkpt lat="53.3488487" lon="18.4448059">
<ele>85</ele>
<time>2017-12-17T10:25:19Z</time>
</trkpt>
<trkpt lat="53.3487979" lon="18.4445950">
<ele>85</ele>
<time>2017-12-17T10:25:25Z</time>
</trkpt>
<trkpt lat="53.3486665" lon="18.4445811">
<ele>86</ele>
<time>2017-12-17T10:25:31Z</time>
</trkpt>
<trkpt lat="53.3486333" lon="18.4445708">
<ele>87</ele>
<time>2017-12-17T10:25:37Z</time>
</trkpt>
<trkpt lat="53.3486333" lon="18.4445708">
<ele>87</ele>
<time>2017-12-17T10:25:43Z</time>
</trkpt>
<trkpt lat="53.3486333" lon="18.4445708">
<ele>87</ele>
<time>2017-12-17T10:25:49Z</time>
</trkpt>
<trkpt lat="53.3486415" lon="18.4445472">
<ele>87</ele>
<time>2017-12-17T10:25:55Z</time>
</trkpt>
<trkpt lat="53.3486091" lon="18.4445454">
<ele>86</ele>
<time>2017-12-17T10:26:01Z</time>
</trkpt>
<trkpt lat="53.3485893" lon="18.4445399">
<ele>86</ele>
<time>2017-12-17T10:26:07Z</time>
</trkpt>
<trkpt lat="53.3485789" lon="18.4446047">
<ele>87</ele>
<time>2017-12-17T10:26:13Z</time>
</trkpt>
<trkpt lat="53.3485789" lon="18.4446047">
<ele>87</ele>
<time>2017-12-17T10:26:19Z</time>
</trkpt>
<trkpt lat="53.3485969" lon="18.4446334">
<ele>87</ele>
<time>2017-12-17T10:26:25Z</time>
</trkpt>
<trkpt lat="53.3485969" lon="18.4446334">
<ele>87</ele>
<time>2017-12-17T10:26:31Z</time>
</trkpt>
<trkpt lat="53.3485969" lon="18.4446334">
<ele>87</ele>
<time>2017-12-17T10:26:37Z</time>
</trkpt>
<trkpt lat="53.3485969" lon="18.4446334">
<ele>87</ele>
<time>2017-12-17T10:26:43Z</time>
</trkpt>
<trkpt lat="53.3485969" lon="18.4446334">
<ele>87</ele>
<time>2017-12-17T10:26:49Z</time>
</trkpt>
<trkpt lat="53.3485969" lon="18.4446334">
<ele>87</ele>
<time>2017-12-17T10:26:55Z</time>
</trkpt>
<trkpt lat="53.3485895" lon="18.4446559">
<ele>88</ele>
<time>2017-12-17T10:27:01Z</time>
</trkpt>
<trkpt lat="53.3485898" lon="18.4446633">
<ele>88</ele>
<time>2017-12-17T10:27:07Z</time>
</trkpt>
<trkpt lat="53.3485662" lon="18.4446669">
<ele>88</ele>
<time>2017-12-17T10:27:13Z</time>
</trkpt>
<trkpt lat="53.3485491" lon="18.4446968">
<ele>86</ele>
<time>2017-12-17T10:27:19Z</time>
</trkpt>
<trkpt lat="53.3485691" lon="18.4447081">
<ele>88</ele>
<time>2017-12-17T10:27:25Z</time>
</trkpt>
<trkpt lat="53.3485691" lon="18.4447081">
<ele>88</ele>
<time>2017-12-17T10:27:31Z</time>
</trkpt>
<trkpt lat="53.3485691" lon="18.4447081">
<ele>88</ele>
<time>2017-12-17T10:27:37Z</time>
</trkpt>
<trkpt lat="53.3485691" lon="18.4447081">
<ele>88</ele>
<time>2017-12-17T10:27:43Z</time>
</trkpt>
<trkpt lat="53.3485691" lon="18.4447081">
<ele>88</ele>
<time>2017-12-17T10:27:49Z</time>
</trkpt>
<trkpt lat="53.3485691" lon="18.4447081">
<ele>88</ele>
<time>2017-12-17T10:27:55Z</time>
</trkpt>
<trkpt lat="53.3485691" lon="18.4447081">
<ele>88</ele>
<time>2017-12-17T10:28:01Z</time>
</trkpt>
<trkpt lat="53.3485691" lon="18.4447081">
<ele>88</ele>
<time>2017-12-17T10:28:07Z</time>
</trkpt>
<trkpt lat="53.3485691" lon="18.4447081">
<ele>88</ele>
<time>2017-12-17T10:28:13Z</time>
</trkpt>
<trkpt lat="53.3485691" lon="18.4447081">
<ele>88</ele>
<time>2017-12-17T10:28:19Z</time>
</trkpt>
<trkpt lat="53.3485691" lon="18.4447081">
<ele>88</ele>
<time>2017-12-17T10:28:25Z</time>
</trkpt>
<trkpt lat="53.3485691" lon="18.4447081">
<ele>88</ele>
<time>2017-12-17T10:28:31Z</time>
</trkpt>
<trkpt lat="53.3485691" lon="18.4447081">
<ele>88</ele>
<time>2017-12-17T10:28:37Z</time>
</trkpt>
<trkpt lat="53.3485198" lon="18.4446124">
<ele>90</ele>
<time>2017-12-17T10:28:43Z</time>
</trkpt>
<trkpt lat="53.3485160" lon="18.4444079">
<ele>93</ele>
<time>2017-12-17T10:28:49Z</time>
</trkpt>
<trkpt lat="53.3485027" lon="18.4443322">
<ele>92</ele>
<time>2017-12-17T10:28:55Z</time>
</trkpt>
<trkpt lat="53.3485096" lon="18.4443167">
<ele>92</ele>
<time>2017-12-17T10:29:01Z</time>
</trkpt>
<trkpt lat="53.3485346" lon="18.4442581">
<ele>92</ele>
<time>2017-12-17T10:29:07Z</time>
</trkpt>
<trkpt lat="53.3485662" lon="18.4442492">
<ele>92</ele>
<time>2017-12-17T10:29:13Z</time>
</trkpt>
<trkpt lat="53.3485761" lon="18.4442644">
<ele>92</ele>
<time>2017-12-17T10:29:19Z</time>
</trkpt>
<trkpt lat="53.3485549" lon="18.4442985">
<ele>93</ele>
<time>2017-12-17T10:29:25Z</time>
</trkpt>
<trkpt lat="53.3485" lon="18.4447">
<ele>100</ele>
<time>2017-12-17T10:30:45Z</time>
</trkpt>
<trkpt lat="53.3485244" lon="18.4447079">
<ele>99</ele>
<time>2017-12-17T10:30:51Z</time>
</trkpt>
<trkpt lat="53.3485244" lon="18.4447079">
<ele>99</ele>
<time>2017-12-17T10:30:57Z</time>
</trkpt>
<trkpt lat="53.3485244" lon="18.4447079">
<ele>99</ele>
<time>2017-12-17T10:31:03Z</time>
</trkpt>
<trkpt lat="53.3485244" lon="18.4447079">
<ele>99</ele>
<time>2017-12-17T10:31:09Z</time>
</trkpt>
<trkpt lat="53.3485244" lon="18.4447079">
<ele>99</ele>
<time>2017-12-17T10:31:15Z</time>
</trkpt>
<trkpt lat="53.3485244" lon="18.4447079">
<ele>99</ele>
<time>2017-12-17T10:31:21Z</time>
</trkpt>
<trkpt lat="53.3485244" lon="18.4447079">
<ele>99</ele>
<time>2017-12-17T10:31:27Z</time>
</trkpt>
<trkpt lat="53.3485244" lon="18.4447079">
<ele>99</ele>
<time>2017-12-17T10:31:33Z</time>
</trkpt>
<trkpt lat="53.3485244" lon="18.4447079">
<ele>99</ele>
<time>2017-12-17T10:31:39Z</time>
</trkpt>
<trkpt lat="53.3485244" lon="18.4447079">
<ele>99</ele>
<time>2017-12-17T10:31:45Z</time>
</trkpt>
<trkpt lat="53.3485244" lon="18.4447079">
<ele>99</ele>
<time>2017-12-17T10:31:51Z</time>
</trkpt>
<trkpt lat="53.3485244" lon="18.4447079">
<ele>99</ele>
<time>2017-12-17T10:31:57Z</time>
</trkpt>
<trkpt lat="53.3485244" lon="18.4447079">
<ele>99</ele>
<time>2017-12-17T10:32:03Z</time>
</trkpt>
<trkpt lat="53.3485244" lon="18.4447079">
<ele>99</ele>
<time>2017-12-17T10:32:09Z</time>
</trkpt>
<trkpt lat="53.3485244" lon="18.4447079">
<ele>99</ele>
<time>2017-12-17T10:32:15Z</time>
</trkpt>
<trkpt lat="53.3485244" lon="18.4447079">
<ele>99</ele>
<time>2017-12-17T10:32:21Z</time>
</trkpt>
<trkpt lat="53.3485244" lon="18.4447079">
<ele>99</ele>
<time>2017-12-17T10:32:27Z</time>
</trkpt>
<trkpt lat="53.3485244" lon="18.4447079">
<ele>99</ele>
<time>2017-12-17T10:32:33Z</time>
</trkpt>
<trkpt lat="53.3485244" lon="18.4447079">
<ele>99</ele>
<time>2017-12-17T10:32:39Z</time>
</trkpt>
<trkpt lat="53.3485244" lon="18.4447079">
<ele>99</ele>
<time>2017-12-17T10:32:45Z</time>
</trkpt>
<trkpt lat="53.3485244" lon="18.4447079">
<ele>99</ele>
<time>2017-12-17T10:32:51Z</time>
</trkpt>
<trkpt lat="53.3485244" lon="18.4447079">
<ele>99</ele>
<time>2017-12-17T10:32:57Z</time>
</trkpt>
<trkpt lat="53.3485244" lon="18.4447079">
<ele>99</ele>
<time>2017-12-17T10:33:03Z</time>
</trkpt>
<trkpt lat="53.3485244" lon="18.4447079">
<ele>99</ele>
<time>2017-12-17T10:33:09Z</time>
</trkpt>
<trkpt lat="53.3485244" lon="18.4447079">
<ele>99</ele>
<time>2017-12-17T10:33:15Z</time>
</trkpt>
<trkpt lat="53.3485244" lon="18.4447079">
<ele>99</ele>
<time>2017-12-17T10:33:21Z</time>
</trkpt>
<trkpt lat="53.3485244" lon="18.4447079">
<ele>99</ele>
<time>2017-12-17T10:33:27Z</time>
</trkpt>
<trkpt lat="53.3485244" lon="18.4447079">
<ele>99</ele>
<time>2017-12-17T10:33:33Z</time>
</trkpt>
<trkpt lat="53.3485244" lon="18.4447079">
<ele>99</ele>
<time>2017-12-17T10:33:39Z</time>
</trkpt>
<trkpt lat="53.3485244" lon="18.4447079">
<ele>99</ele>
<time>2017-12-17T10:33:45Z</time>
</trkpt>
<trkpt lat="53.3485244" lon="18.4447079">
<ele>99</ele>
<time>2017-12-17T10:33:51Z</time>
</trkpt>
<trkpt lat="53.3484373" lon="18.4446129">
<ele>99</ele>
<time>2017-12-17T10:33:57Z</time>
</trkpt>
<trkpt lat="53.3483303" lon="18.4446451">
<ele>98</ele>
<time>2017-12-17T10:34:03Z</time>
</trkpt>
<trkpt lat="53.3482894" lon="18.4447453">
<ele>97</ele>
<time>2017-12-17T10:34:09Z</time>
</trkpt>
<trkpt lat="53.3483741" lon="18.4448829">
<ele>97</ele>
<time>2017-12-17T10:34:15Z</time>
</trkpt>
<trkpt lat="53.3486878" lon="18.4449090">
<ele>95</ele>
<time>2017-12-17T10:34:21Z</time>
</trkpt>
<trkpt lat="53.3490667" lon="18.4450295">
<ele>93</ele>
<time>2017-12-17T10:34:27Z</time>
</trkpt>
<trkpt lat="53.3493568" lon="18.4454982">
<ele>92</ele>
<time>2017-12-17T10:34:33Z</time>
</trkpt>
<trkpt lat="53.3496017" lon="18.4459892">
<ele>93</ele>
<time>2017-12-17T10:34:39Z</time>
</trkpt>
<trkpt lat="53.3499457" lon="18.4467225">
<ele>90</ele>
<time>2017-12-17T10:34:45Z</time>
</trkpt>
<trkpt lat="53.3503666" lon="18.4475658">
<ele>85</ele>
<time>2017-12-17T10:34:51Z</time>
</trkpt>
<trkpt lat="53.3508770" lon="18.4485153">
<ele>81</ele>
<time>2017-12-17T10:34:57Z</time>
</trkpt>
<trkpt lat="53.3514232" lon="18.4495109">
<ele>77</ele>
<time>2017-12-17T10:35:03Z</time>
</trkpt>
<trkpt lat="53.3517941" lon="18.4503801">
<ele>73</ele>
<time>2017-12-17T10:35:09Z</time>
</trkpt>
<trkpt lat="53.3519299" lon="18.4507571">
<ele>72</ele>
<time>2017-12-17T10:35:15Z</time>
</trkpt>
<trkpt lat="53.3519991" lon="18.4509762">
<ele>72</ele>
<time>2017-12-17T10:35:21Z</time>
</trkpt>
<trkpt lat="53.3523306" lon="18.4508469">
<ele>72</ele>
<time>2017-12-17T10:35:27Z</time>
</trkpt>
<trkpt lat="53.3528129" lon="18.4503812">
<ele>70</ele>
<time>2017-12-17T10:35:33Z</time>
</trkpt>
<trkpt lat="53.3533836" lon="18.4497051">
<ele>66</ele>
<time>2017-12-17T10:35:39Z</time>
</trkpt>
<trkpt lat="53.3540049" lon="18.4487967">
<ele>62</ele>
<time>2017-12-17T10:35:45Z</time>
</trkpt>
<trkpt lat="53.3546580" lon="18.4476650">
<ele>57</ele>
<time>2017-12-17T10:35:51Z</time>
</trkpt>
<trkpt lat="53.3553410" lon="18.4465271">
<ele>55</ele>
<time>2017-12-17T10:35:57Z</time>
</trkpt>
<trkpt lat="53.3560296" lon="18.4453674">
<ele>55</ele>
<time>2017-12-17T10:36:03Z</time>
</trkpt>
<trkpt lat="53.3567442" lon="18.4441680">
<ele>53</ele>
<time>2017-12-17T10:36:09Z</time>
</trkpt>
<trkpt lat="53.3574755" lon="18.4429360">
<ele>52</ele>
<time>2017-12-17T10:36:15Z</time>
</trkpt>
<trkpt lat="53.3582042" lon="18.4416935">
<ele>52</ele>
<time>2017-12-17T10:36:21Z</time>
</trkpt>
<trkpt lat="53.3589323" lon="18.4404450">
<ele>52</ele>
<time>2017-12-17T10:36:27Z</time>
</trkpt>
<trkpt lat="53.3596700" lon="18.4392072">
<ele>52</ele>
<time>2017-12-17T10:36:33Z</time>
</trkpt>
<trkpt lat="53.3603915" lon="18.4379934">
<ele>53</ele>
<time>2017-12-17T10:36:39Z</time>
</trkpt>
<trkpt lat="53.3611491" lon="18.4368080">
<ele>54</ele>
<time>2017-12-17T10:36:45Z</time>
</trkpt>
<trkpt lat="53.3620517" lon="18.4358542">
<ele>55</ele>
<time>2017-12-17T10:36:51Z</time>
</trkpt>
<trkpt lat="53.3629902" lon="18.4348813">
<ele>56</ele>
<time>2017-12-17T10:36:57Z</time>
</trkpt>
<trkpt lat="53.3639392" lon="18.4338919">
<ele>59</ele>
<time>2017-12-17T10:37:03Z</time>
</trkpt>
<trkpt lat="53.3649034" lon="18.4328834">
<ele>61</ele>
<time>2017-12-17T10:37:09Z</time>
</trkpt>
<trkpt lat="53.3658864" lon="18.4318663">
<ele>64</ele>
<time>2017-12-17T10:37:15Z</time>
</trkpt>
<trkpt lat="53.3668701" lon="18.4308514">
<ele>67</ele>
<time>2017-12-17T10:37:21Z</time>
</trkpt>
<trkpt lat="53.3678471" lon="18.4298331">
<ele>69</ele>
<time>2017-12-17T10:37:27Z</time>
</trkpt>
<trkpt lat="53.3688412" lon="18.4288056">
<ele>70</ele>
<time>2017-12-17T10:37:33Z</time>
</trkpt>
<trkpt lat="53.3698656" lon="18.4277603">
<ele>70</ele>
<time>2017-12-17T10:37:39Z</time>
</trkpt>
<trkpt lat="53.3709074" lon="18.4266991">
<ele>69</ele>
<time>2017-12-17T10:37:45Z</time>
</trkpt>
<trkpt lat="53.3719513" lon="18.4256295">
<ele>68</ele>
<time>2017-12-17T10:37:51Z</time>
</trkpt>
<trkpt lat="53.3729713" lon="18.4245618">
<ele>66</ele>
<time>2017-12-17T10:37:57Z</time>
</trkpt>
<trkpt lat="53.3740040" lon="18.4234907">
<ele>63</ele>
<time>2017-12-17T10:38:03Z</time>
</trkpt>
<trkpt lat="53.3750511" lon="18.4223963">
<ele>61</ele>
<time>2017-12-17T10:38:09Z</time>
</trkpt>
<trkpt lat="53.3761080" lon="18.4213120">
<ele>58</ele>
<time>2017-12-17T10:38:15Z</time>
</trkpt>
<trkpt lat="53.3771439" lon="18.4202430">
<ele>58</ele>
<time>2017-12-17T10:38:21Z</time>
</trkpt>
<trkpt lat="53.3781705" lon="18.4191789">
<ele>59</ele>
<time>2017-12-17T10:38:27Z</time>
</trkpt>
<trkpt lat="53.3791854" lon="18.4181218">
<ele>59</ele>
<time>2017-12-17T10:38:33Z</time>
</trkpt>
<trkpt lat="53.3801923" lon="18.4170691">
<ele>59</ele>
<time>2017-12-17T10:38:39Z</time>
</trkpt>
<trkpt lat="53.3812097" lon="18.4160075">
<ele>59</ele>
<time>2017-12-17T10:38:45Z</time>
</trkpt>
<trkpt lat="53.3822373" lon="18.4149369">
<ele>59</ele>
<time>2017-12-17T10:38:51Z</time>
</trkpt>
<trkpt lat="53.3832696" lon="18.4138601">
<ele>57</ele>
<time>2017-12-17T10:38:57Z</time>
</trkpt>
<trkpt lat="53.3843099" lon="18.4127830">
<ele>57</ele>
<time>2017-12-17T10:39:03Z</time>
</trkpt>
<trkpt lat="53.3853548" lon="18.4117077">
<ele>57</ele>
<time>2017-12-17T10:39:09Z</time>
</trkpt>
<trkpt lat="53.3863911" lon="18.4106446">
<ele>57</ele>
<time>2017-12-17T10:39:15Z</time>
</trkpt>
<trkpt lat="53.3874310" lon="18.4095814">
<ele>57</ele>
<time>2017-12-17T10:39:21Z</time>
</trkpt>
<trkpt lat="53.3884505" lon="18.4085264">
<ele>56</ele>
<time>2017-12-17T10:39:27Z</time>
</trkpt>
<trkpt lat="53.3894740" lon="18.4074669">
<ele>57</ele>
<time>2017-12-17T10:39:33Z</time>
</trkpt>
<trkpt lat="53.3905231" lon="18.4064320">
<ele>57</ele>
<time>2017-12-17T10:39:39Z</time>
</trkpt>
<trkpt lat="53.3915844" lon="18.4053537">
<ele>55</ele>
<time>2017-12-17T10:39:45Z</time>
</trkpt>
<trkpt lat="53.3926437" lon="18.4043016">
<ele>54</ele>
<time>2017-12-17T10:39:51Z</time>
</trkpt>
<trkpt lat="53.3937283" lon="18.4033682">
<ele>54</ele>
<time>2017-12-17T10:39:57Z</time>
</trkpt>
<trkpt lat="53.3948301" lon="18.4026259">
<ele>58</ele>
<time>2017-12-17T10:40:03Z</time>
</trkpt>
<trkpt lat="53.3959199" lon="18.4020283">
<ele>61</ele>
<time>2017-12-17T10:40:09Z</time>
</trkpt>
<trkpt lat="53.3969838" lon="18.4014585">
<ele>64</ele>
<time>2017-12-17T10:40:15Z</time>
</trkpt>
<trkpt lat="53.3980358" lon="18.4008819">
<ele>68</ele>
<time>2017-12-17T10:40:21Z</time>
</trkpt>
<trkpt lat="53.3990591" lon="18.4003263">
<ele>70</ele>
<time>2017-12-17T10:40:27Z</time>
</trkpt>
<trkpt lat="53.4000598" lon="18.3997545">
<ele>71</ele>
<time>2017-12-17T10:40:33Z</time>
</trkpt>
<trkpt lat="53.4010459" lon="18.3989858">
<ele>71</ele>
<time>2017-12-17T10:40:39Z</time>
</trkpt>
<trkpt lat="53.4019743" lon="18.3979545">
<ele>71</ele>
<time>2017-12-17T10:40:45Z</time>
</trkpt>
<trkpt lat="53.4028034" lon="18.3966998">
<ele>72</ele>
<time>2017-12-17T10:40:51Z</time>
</trkpt>
<trkpt lat="53.4035354" lon="18.3952855">
<ele>74</ele>
<time>2017-12-17T10:40:57Z</time>
</trkpt>
<trkpt lat="53.4042112" lon="18.3939818">
<ele>74</ele>
<time>2017-12-17T10:41:03Z</time>
</trkpt>
<trkpt lat="53.4048565" lon="18.3927140">
<ele>75</ele>
<time>2017-12-17T10:41:09Z</time>
</trkpt>
<trkpt lat="53.4055212" lon="18.3913999">
<ele>75</ele>
<time>2017-12-17T10:41:15Z</time>
</trkpt>
<trkpt lat="53.4061480" lon="18.3899454">
<ele>76</ele>
<time>2017-12-17T10:41:21Z</time>
</trkpt>
<trkpt lat="53.4066370" lon="18.3882807">
<ele>78</ele>
<time>2017-12-17T10:41:27Z</time>
</trkpt>
<trkpt lat="53.4070781" lon="18.3865195">
<ele>79</ele>
<time>2017-12-17T10:41:33Z</time>
</trkpt>
<trkpt lat="53.4075401" lon="18.3847305">
<ele>80</ele>
<time>2017-12-17T10:41:39Z</time>
</trkpt>
<trkpt lat="53.4079835" lon="18.3829643">
<ele>81</ele>
<time>2017-12-17T10:41:45Z</time>
</trkpt>
<trkpt lat="53.4084075" lon="18.3811862">
<ele>82</ele>
<time>2017-12-17T10:41:51Z</time>
</trkpt>
<trkpt lat="53.4088395" lon="18.3793488">
<ele>82</ele>
<time>2017-12-17T10:41:57Z</time>
</trkpt>
<trkpt lat="53.4093816" lon="18.3775316">
<ele>84</ele>
<time>2017-12-17T10:42:03Z</time>
</trkpt>
<trkpt lat="53.4100961" lon="18.3760127">
<ele>87</ele>
<time>2017-12-17T10:42:09Z</time>
</trkpt>
<trkpt lat="53.4108326" lon="18.3746554">
<ele>89</ele>
<time>2017-12-17T10:42:15Z</time>
</trkpt>
<trkpt lat="53.4115652" lon="18.3733220">
<ele>90</ele>
<time>2017-12-17T10:42:21Z</time>
</trkpt>
<trkpt lat="53.4122909" lon="18.3719193">
<ele>92</ele>
<time>2017-12-17T10:42:27Z</time>
</trkpt>
<trkpt lat="53.4128921" lon="18.3702990">
<ele>93</ele>
<time>2017-12-17T10:42:33Z</time>
</trkpt>
<trkpt lat="53.4133327" lon="18.3685393">
<ele>95</ele>
<time>2017-12-17T10:42:39Z</time>
</trkpt>
<trkpt lat="53.4136912" lon="18.3667084">
<ele>98</ele>
<time>2017-12-17T10:42:45Z</time>
</trkpt>
<trkpt lat="53.4140424" lon="18.3648914">
<ele>101</ele>
<time>2017-12-17T10:42:51Z</time>
</trkpt>
<trkpt lat="53.4145112" lon="18.3631735">
<ele>105</ele>
<time>2017-12-17T10:42:57Z</time>
</trkpt>
<trkpt lat="53.4151612" lon="18.3616355">
<ele>107</ele>
<time>2017-12-17T10:43:03Z</time>
</trkpt>
<trkpt lat="53.4159102" lon="18.3601743">
<ele>108</ele>
<time>2017-12-17T10:43:09Z</time>
</trkpt>
<trkpt lat="53.4166030" lon="18.3586851">
<ele>110</ele>
<time>2017-12-17T10:43:15Z</time>
</trkpt>
<trkpt lat="53.4171777" lon="18.3570801">
<ele>111</ele>
<time>2017-12-17T10:43:21Z</time>
</trkpt>
<trkpt lat="53.4175976" lon="18.3553811">
<ele>113</ele>
<time>2017-12-17T10:43:27Z</time>
</trkpt>
<trkpt lat="53.4178860" lon="18.3537087">
<ele>114</ele>
<time>2017-12-17T10:43:33Z</time>
</trkpt>
<trkpt lat="53.4181312" lon="18.3521458">
<ele>116</ele>
<time>2017-12-17T10:43:39Z</time>
</trkpt>
<trkpt lat="53.4183818" lon="18.3506557">
<ele>117</ele>
<time>2017-12-17T10:43:45Z</time>
</trkpt>
<trkpt lat="53.4185724" lon="18.3496689">
<ele>115</ele>
<time>2017-12-17T10:43:51Z</time>
</trkpt>
<trkpt lat="53.4186339" lon="18.3493612">
<ele>119</ele>
<time>2017-12-17T10:43:57Z</time>
</trkpt>
<trkpt lat="53.4187794" lon="18.3486449">
<ele>119</ele>
<time>2017-12-17T10:44:03Z</time>
</trkpt>
<trkpt lat="53.4190204" lon="18.3477054">
<ele>121</ele>
<time>2017-12-17T10:44:09Z</time>
</trkpt>
<trkpt lat="53.4193201" lon="18.3467235">
<ele>122</ele>
<time>2017-12-17T10:44:15Z</time>
</trkpt>
<trkpt lat="53.4196881" lon="18.3455893">
<ele>122</ele>
<time>2017-12-17T10:44:21Z</time>
</trkpt>
<trkpt lat="53.4201329" lon="18.3442595">
<ele>122</ele>
<time>2017-12-17T10:44:27Z</time>
</trkpt>
<trkpt lat="53.4205810" lon="18.3429003">
<ele>123</ele>
<time>2017-12-17T10:44:33Z</time>
</trkpt>
<trkpt lat="53.4210600" lon="18.3413954">
<ele>123</ele>
<time>2017-12-17T10:44:39Z</time>
</trkpt>
<trkpt lat="53.4215904" lon="18.3397398">
<ele>122</ele>
<time>2017-12-17T10:44:45Z</time>
</trkpt>
<trkpt lat="53.4221531" lon="18.3379837">
<ele>122</ele>
<time>2017-12-17T10:44:51Z</time>
</trkpt>
<trkpt lat="53.4227495" lon="18.3361252">
<ele>122</ele>
<time>2017-12-17T10:44:57Z</time>
</trkpt>
<trkpt lat="53.4233466" lon="18.3342304">
<ele>122</ele>
<time>2017-12-17T10:45:03Z</time>
</trkpt>
<trkpt lat="53.4239294" lon="18.3323846">
<ele>122</ele>
<time>2017-12-17T10:45:09Z</time>
</trkpt>
<trkpt lat="53.4244862" lon="18.3306445">
<ele>124</ele>
<time>2017-12-17T10:45:15Z</time>
</trkpt>
<trkpt lat="53.4250310" lon="18.3289454">
<ele>124</ele>
<time>2017-12-17T10:45:21Z</time>
</trkpt>
<trkpt lat="53.4255972" lon="18.3272203">
<ele>124</ele>
<time>2017-12-17T10:45:27Z</time>
</trkpt>
<trkpt lat="53.4261810" lon="18.3254588">
<ele>122</ele>
<time>2017-12-17T10:45:33Z</time>
</trkpt>
<trkpt lat="53.4267698" lon="18.3236228">
<ele>121</ele>
<time>2017-12-17T10:45:39Z</time>
</trkpt>
<trkpt lat="53.4273551" lon="18.3218185">
<ele>120</ele>
<time>2017-12-17T10:45:45Z</time>
</trkpt>
<trkpt lat="53.4279398" lon="18.3200184">
<ele>116</ele>
<time>2017-12-17T10:45:51Z</time>
</trkpt>
<trkpt lat="53.4285303" lon="18.3181788">
<ele>113</ele>
<time>2017-12-17T10:45:57Z</time>
</trkpt>
<trkpt lat="53.4291303" lon="18.3163600">
<ele>116</ele>
<time>2017-12-17T10:46:03Z</time>
</trkpt>
<trkpt lat="53.4296938" lon="18.3146243">
<ele>120</ele>
<time>2017-12-17T10:46:09Z</time>
</trkpt>
<trkpt lat="53.4302566" lon="18.3128844">
<ele>121</ele>
<time>2017-12-17T10:46:15Z</time>
</trkpt>
<trkpt lat="53.4307822" lon="18.3112804">
<ele>122</ele>
<time>2017-12-17T10:46:21Z</time>
</trkpt>
<trkpt lat="53.4312385" lon="18.3098804">
<ele>122</ele>
<time>2017-12-17T10:46:27Z</time>
</trkpt>
<trkpt lat="53.4316274" lon="18.3085792">
<ele>123</ele>
<time>2017-12-17T10:46:33Z</time>
</trkpt>
<trkpt lat="53.4320210" lon="18.3073295">
<ele>122</ele>
<time>2017-12-17T10:46:39Z</time>
</trkpt>
<trkpt lat="53.4324274" lon="18.3060711">
<ele>122</ele>
<time>2017-12-17T10:46:45Z</time>
</trkpt>
<trkpt lat="53.4328314" lon="18.3048071">
<ele>121</ele>
<time>2017-12-17T10:46:51Z</time>
</trkpt>
<trkpt lat="53.4332385" lon="18.3035326">
<ele>120</ele>
<time>2017-12-17T10:46:57Z</time>
</trkpt>
<trkpt lat="53.4336654" lon="18.3021988">
<ele>119</ele>
<time>2017-12-17T10:47:03Z</time>
</trkpt>
<trkpt lat="53.4341201" lon="18.3007465">
<ele>121</ele>
<time>2017-12-17T10:47:09Z</time>
</trkpt>
<trkpt lat="53.4345819" lon="18.2992882">
<ele>124</ele>
<time>2017-12-17T10:47:15Z</time>
</trkpt>
<trkpt lat="53.4350804" lon="18.2977476">
<ele>124</ele>
<time>2017-12-17T10:47:21Z</time>
</trkpt>
<trkpt lat="53.4356304" lon="18.2960879">
<ele>123</ele>
<time>2017-12-17T10:47:27Z</time>
</trkpt>
<trkpt lat="53.4362026" lon="18.2943592">
<ele>122</ele>
<time>2017-12-17T10:47:33Z</time>
</trkpt>
<trkpt lat="53.4367684" lon="18.2926243">
<ele>123</ele>
<time>2017-12-17T10:47:39Z</time>
</trkpt>
<trkpt lat="53.4373238" lon="18.2909220">
<ele>125</ele>
<time>2017-12-17T10:47:45Z</time>
</trkpt>
<trkpt lat="53.4378710" lon="18.2892236">
<ele>127</ele>
<time>2017-12-17T10:47:51Z</time>
</trkpt>
<trkpt lat="53.4384180" lon="18.2874911">
<ele>128</ele>
<time>2017-12-17T10:47:57Z</time>
</trkpt>
<trkpt lat="53.4389895" lon="18.2857619">
<ele>127</ele>
<time>2017-12-17T10:48:03Z</time>
</trkpt>
<trkpt lat="53.4395622" lon="18.2839601">
<ele>131</ele>
<time>2017-12-17T10:48:09Z</time>
</trkpt>
<trkpt lat="53.4401212" lon="18.2821954">
<ele>134</ele>
<time>2017-12-17T10:48:15Z</time>
</trkpt>
<trkpt lat="53.4406852" lon="18.2804405">
<ele>135</ele>
<time>2017-12-17T10:48:21Z</time>
</trkpt>
<trkpt lat="53.4412423" lon="18.2786383">
<ele>135</ele>
<time>2017-12-17T10:48:27Z</time>
</trkpt>
<trkpt lat="53.4418187" lon="18.2767729">
<ele>135</ele>
<time>2017-12-17T10:48:33Z</time>
</trkpt>
<trkpt lat="53.4424283" lon="18.2748835">
<ele>132</ele>
<time>2017-12-17T10:48:39Z</time>
</trkpt>
<trkpt lat="53.4430299" lon="18.2729858">
<ele>132</ele>
<time>2017-12-17T10:48:45Z</time>
</trkpt>
<trkpt lat="53.4436328" lon="18.2711245">
<ele>133</ele>
<time>2017-12-17T10:48:51Z</time>
</trkpt>
<trkpt lat="53.4442240" lon="18.2692249">
<ele>133</ele>
<time>2017-12-17T10:48:57Z</time>
</trkpt>
<trkpt lat="53.4447965" lon="18.2673040">
<ele>133</ele>
<time>2017-12-17T10:49:03Z</time>
</trkpt>
<trkpt lat="53.4453879" lon="18.2653436">
<ele>133</ele>
<time>2017-12-17T10:49:09Z</time>
</trkpt>
<trkpt lat="53.4459956" lon="18.2633944">
<ele>131</ele>
<time>2017-12-17T10:49:15Z</time>
</trkpt>
<trkpt lat="53.4466008" lon="18.2614347">
<ele>128</ele>
<time>2017-12-17T10:49:21Z</time>
</trkpt>
<trkpt lat="53.4469036" lon="18.2593385">
<ele>128</ele>
<time>2017-12-17T10:49:27Z</time>
</trkpt>
<trkpt lat="53.4471270" lon="18.2572635">
<ele>133</ele>
<time>2017-12-17T10:49:33Z</time>
</trkpt>
<trkpt lat="53.4473556" lon="18.2552812">
<ele>134</ele>
<time>2017-12-17T10:49:39Z</time>
</trkpt>
<trkpt lat="53.4476034" lon="18.2533076">
<ele>135</ele>
<time>2017-12-17T10:49:45Z</time>
</trkpt>
<trkpt lat="53.4479123" lon="18.2513694">
<ele>137</ele>
<time>2017-12-17T10:49:51Z</time>
</trkpt>
<trkpt lat="53.4482058" lon="18.2494288">
<ele>139</ele>
<time>2017-12-17T10:49:57Z</time>
</trkpt>
<trkpt lat="53.4484916" lon="18.2475676">
<ele>141</ele>
<time>2017-12-17T10:50:03Z</time>
</trkpt>
<trkpt lat="53.4487658" lon="18.2460345">
<ele>143</ele>
<time>2017-12-17T10:50:09Z</time>
</trkpt>
<trkpt lat="53.4489855" lon="18.2446342">
<ele>144</ele>
<time>2017-12-17T10:50:15Z</time>
</trkpt>
<trkpt lat="53.4491979" lon="18.2432074">
<ele>144</ele>
<time>2017-12-17T10:50:21Z</time>
</trkpt>
<trkpt lat="53.4494353" lon="18.2416871">
<ele>142</ele>
<time>2017-12-17T10:50:27Z</time>
</trkpt>
<trkpt lat="53.4497004" lon="18.2400422">
<ele>141</ele>
<time>2017-12-17T10:50:33Z</time>
</trkpt>
<trkpt lat="53.4499674" lon="18.2383397">
<ele>141</ele>
<time>2017-12-17T10:50:39Z</time>
</trkpt>
<trkpt lat="53.4502352" lon="18.2366009">
<ele>141</ele>
<time>2017-12-17T10:50:45Z</time>
</trkpt>
<trkpt lat="53.4505146" lon="18.2348077">
<ele>141</ele>
<time>2017-12-17T10:50:51Z</time>
</trkpt>
<trkpt lat="53.4508114" lon="18.2329353">
<ele>139</ele>
<time>2017-12-17T10:50:57Z</time>
</trkpt>
<trkpt lat="53.4511103" lon="18.2310236">
<ele>139</ele>
<time>2017-12-17T10:51:03Z</time>
</trkpt>
<trkpt lat="53.4513998" lon="18.2291567">
<ele>139</ele>
<time>2017-12-17T10:51:09Z</time>
</trkpt>
<trkpt lat="53.4516902" lon="18.2273257">
<ele>139</ele>
<time>2017-12-17T10:51:15Z</time>
</trkpt>
<trkpt lat="53.4519774" lon="18.2254980">
<ele>139</ele>
<time>2017-12-17T10:51:21Z</time>
</trkpt>
<trkpt lat="53.4522671" lon="18.2236364">
<ele>139</ele>
<time>2017-12-17T10:51:27Z</time>
</trkpt>
<trkpt lat="53.4525604" lon="18.2217472">
<ele>139</ele>
<time>2017-12-17T10:51:33Z</time>
</trkpt>
<trkpt lat="53.4528214" lon="18.2199035">
<ele>139</ele>
<time>2017-12-17T10:51:39Z</time>
</trkpt>
<trkpt lat="53.4529951" lon="18.2180386">
<ele>139</ele>
<time>2017-12-17T10:51:45Z</time>
</trkpt>
<trkpt lat="53.4531619" lon="18.2161867">
<ele>139</ele>
<time>2017-12-17T10:51:51Z</time>
</trkpt>
<trkpt lat="53.4533178" lon="18.2143194">
<ele>138</ele>
<time>2017-12-17T10:51:57Z</time>
</trkpt>
<trkpt lat="53.4534796" lon="18.2124333">
<ele>138</ele>
<time>2017-12-17T10:52:03Z</time>
</trkpt>
<trkpt lat="53.4536541" lon="18.2105356">
<ele>137</ele>
<time>2017-12-17T10:52:09Z</time>
</trkpt>
<trkpt lat="53.4538273" lon="18.2086262">
<ele>138</ele>
<time>2017-12-17T10:52:15Z</time>
</trkpt>
<trkpt lat="53.4540103" lon="18.2066690">
<ele>137</ele>
<time>2017-12-17T10:52:21Z</time>
</trkpt>
<trkpt lat="53.4541871" lon="18.2047291">
<ele>135</ele>
<time>2017-12-17T10:52:27Z</time>
</trkpt>
<trkpt lat="53.4545299" lon="18.2028984">
<ele>136</ele>
<time>2017-12-17T10:52:33Z</time>
</trkpt>
<trkpt lat="53.4551658" lon="18.2013035">
<ele>135</ele>
<time>2017-12-17T10:52:39Z</time>
</trkpt>
<trkpt lat="53.4557950" lon="18.1997123">
<ele>135</ele>
<time>2017-12-17T10:52:45Z</time>
</trkpt>
<trkpt lat="53.4564423" lon="18.1980883">
<ele>132</ele>
<time>2017-12-17T10:52:51Z</time>
</trkpt>
<trkpt lat="53.4570933" lon="18.1964632">
<ele>131</ele>
<time>2017-12-17T10:52:57Z</time>
</trkpt>
<trkpt lat="53.4577270" lon="18.1948825">
<ele>132</ele>
<time>2017-12-17T10:53:03Z</time>
</trkpt>
<trkpt lat="53.4583469" lon="18.1933544">
<ele>130</ele>
<time>2017-12-17T10:53:09Z</time>
</trkpt>
<trkpt lat="53.4589674" lon="18.1917935">
<ele>130</ele>
<time>2017-12-17T10:53:15Z</time>
</trkpt>
<trkpt lat="53.4596092" lon="18.1901780">
<ele>129</ele>
<time>2017-12-17T10:53:21Z</time>
</trkpt>
<trkpt lat="53.4602548" lon="18.1885913">
<ele>129</ele>
<time>2017-12-17T10:53:27Z</time>
</trkpt>
<trkpt lat="53.4608983" lon="18.1870028">
<ele>130</ele>
<time>2017-12-17T10:53:33Z</time>
</trkpt>
<trkpt lat="53.4615467" lon="18.1853971">
<ele>132</ele>
<time>2017-12-17T10:53:39Z</time>
</trkpt>
<trkpt lat="53.4622001" lon="18.1837967">
<ele>132</ele>
<time>2017-12-17T10:53:45Z</time>
</trkpt>
<trkpt lat="53.4628499" lon="18.1821948">
<ele>132</ele>
<time>2017-12-17T10:53:51Z</time>
</trkpt>
<trkpt lat="53.4635086" lon="18.1805622">
<ele>133</ele>
<time>2017-12-17T10:53:57Z</time>
</trkpt>
<trkpt lat="53.4641810" lon="18.1788576">
<ele>133</ele>
<time>2017-12-17T10:54:03Z</time>
</trkpt>
<trkpt lat="53.4648785" lon="18.1771283">
<ele>129</ele>
<time>2017-12-17T10:54:09Z</time>
</trkpt>
<trkpt lat="53.4656160" lon="18.1753235">
<ele>133</ele>
<time>2017-12-17T10:54:15Z</time>
</trkpt>
<trkpt lat="53.4663169" lon="18.1736185">
<ele>134</ele>
<time>2017-12-17T10:54:21Z</time>
</trkpt>
<trkpt lat="53.4669989" lon="18.1719191">
<ele>135</ele>
<time>2017-12-17T10:54:27Z</time>
</trkpt>
<trkpt lat="53.4677180" lon="18.1701901">
<ele>136</ele>
<time>2017-12-17T10:54:33Z</time>
</trkpt>
<trkpt lat="53.4683898" lon="18.1684931">
<ele>135</ele>
<time>2017-12-17T10:54:39Z</time>
</trkpt>
<trkpt lat="53.4690658" lon="18.1668170">
<ele>135</ele>
<time>2017-12-17T10:54:45Z</time>
</trkpt>
<trkpt lat="53.4697612" lon="18.1651310">
<ele>137</ele>
<time>2017-12-17T10:54:51Z</time>
</trkpt>
<trkpt lat="53.4704776" lon="18.1633981">
<ele>137</ele>
<time>2017-12-17T10:54:57Z</time>
</trkpt>
<trkpt lat="53.4712040" lon="18.1616493">
<ele>137</ele>
<time>2017-12-17T10:55:03Z</time>
</trkpt>
<trkpt lat="53.4719226" lon="18.1599185">
<ele>138</ele>
<time>2017-12-17T10:55:09Z</time>
</trkpt>
<trkpt lat="53.4726355" lon="18.1581798">
<ele>138</ele>
<time>2017-12-17T10:55:15Z</time>
</trkpt>
<trkpt lat="53.4733251" lon="18.1564766">
<ele>136</ele>
<time>2017-12-17T10:55:21Z</time>
</trkpt>
<trkpt lat="53.4740025" lon="18.1548229">
<ele>139</ele>
<time>2017-12-17T10:55:27Z</time>
</trkpt>
<trkpt lat="53.4746248" lon="18.1532314">
<ele>139</ele>
<time>2017-12-17T10:55:33Z</time>
</trkpt>
<trkpt lat="53.4752895" lon="18.1516356">
<ele>141</ele>
<time>2017-12-17T10:55:39Z</time>
</trkpt>
<trkpt lat="53.4759239" lon="18.1500136">
<ele>144</ele>
<time>2017-12-17T10:55:45Z</time>
</trkpt>
<trkpt lat="53.4765500" lon="18.1484051">
<ele>142</ele>
<time>2017-12-17T10:55:51Z</time>
</trkpt>
<trkpt lat="53.4772348" lon="18.1467397">
<ele>143</ele>
<time>2017-12-17T10:55:57Z</time>
</trkpt>
<trkpt lat="53.4778982" lon="18.1450746">
<ele>144</ele>
<time>2017-12-17T10:56:03Z</time>
</trkpt>
<trkpt lat="53.4785481" lon="18.1434384">
<ele>143</ele>
<time>2017-12-17T10:56:09Z</time>
</trkpt>
<trkpt lat="53.4792028" lon="18.1417969">
<ele>142</ele>
<time>2017-12-17T10:56:15Z</time>
</trkpt>
<trkpt lat="53.4798722" lon="18.1401355">
<ele>142</ele>
<time>2017-12-17T10:56:21Z</time>
</trkpt>
<trkpt lat="53.4805500" lon="18.1384574">
<ele>143</ele>
<time>2017-12-17T10:56:27Z</time>
</trkpt>
<trkpt lat="53.4812266" lon="18.1367518">
<ele>145</ele>
<time>2017-12-17T10:56:33Z</time>
</trkpt>
<trkpt lat="53.4824319" lon="18.1336419">
<ele>144</ele>
<time>2017-12-17T10:56:45Z</time>
</trkpt>
<trkpt lat="53.4830502" lon="18.1320675">
<ele>144</ele>
<time>2017-12-17T10:56:51Z</time>
</trkpt>
<trkpt lat="53.4836409" lon="18.1304265">
<ele>143</ele>
<time>2017-12-17T10:56:57Z</time>
</trkpt>
<trkpt lat="53.4843099" lon="18.1287179">
<ele>143</ele>
<time>2017-12-17T10:57:03Z</time>
</trkpt>
<trkpt lat="53.4849602" lon="18.1270393">
<ele>142</ele>
<time>2017-12-17T10:57:09Z</time>
</trkpt>
<trkpt lat="53.4854201" lon="18.1251764">
<ele>143</ele>
<time>2017-12-17T10:57:15Z</time>
</trkpt>
<trkpt lat="53.4857543" lon="18.1232000">
<ele>145</ele>
<time>2017-12-17T10:57:21Z</time>
</trkpt>
<trkpt lat="53.4860816" lon="18.1212081">
<ele>147</ele>
<time>2017-12-17T10:57:27Z</time>
</trkpt>
<trkpt lat="53.4864084" lon="18.1192456">
<ele>149</ele>
<time>2017-12-17T10:57:33Z</time>
</trkpt>
<trkpt lat="53.4867273" lon="18.1173173">
<ele>150</ele>
<time>2017-12-17T10:57:39Z</time>
</trkpt>
<trkpt lat="53.4870208" lon="18.1154314">
<ele>150</ele>
<time>2017-12-17T10:57:45Z</time>
</trkpt>
<trkpt lat="53.4873078" lon="18.1137624">
<ele>147</ele>
<time>2017-12-17T10:57:51Z</time>
</trkpt>
<trkpt lat="53.4875989" lon="18.1119444">
<ele>146</ele>
<time>2017-12-17T10:57:57Z</time>
</trkpt>
<trkpt lat="53.4879176" lon="18.1099698">
<ele>147</ele>
<time>2017-12-17T10:58:03Z</time>
</trkpt>
<trkpt lat="53.4882463" lon="18.1079145">
<ele>147</ele>
<time>2017-12-17T10:58:09Z</time>
</trkpt>
<trkpt lat="53.4885854" lon="18.1058527">
<ele>148</ele>
<time>2017-12-17T10:58:15Z</time>
</trkpt>
<trkpt lat="53.4889182" lon="18.1037453">
<ele>148</ele>
<time>2017-12-17T10:58:21Z</time>
</trkpt>
<trkpt lat="53.4892594" lon="18.1016234">
<ele>149</ele>
<time>2017-12-17T10:58:27Z</time>
</trkpt>
<trkpt lat="53.4896245" lon="18.0994935">
<ele>146</ele>
<time>2017-12-17T10:58:33Z</time>
</trkpt>
<trkpt lat="53.4899711" lon="18.0973866">
<ele>146</ele>
<time>2017-12-17T10:58:39Z</time>
</trkpt>
<trkpt lat="53.4903890" lon="18.0953124">
<ele>148</ele>
<time>2017-12-17T10:58:45Z</time>
</trkpt>
<trkpt lat="53.4909455" lon="18.0933008">
<ele>145</ele>
<time>2017-12-17T10:58:51Z</time>
</trkpt>
<trkpt lat="53.4914791" lon="18.0913019">
<ele>142</ele>
<time>2017-12-17T10:58:57Z</time>
</trkpt>
<trkpt lat="53.4920009" lon="18.0893383">
<ele>142</ele>
<time>2017-12-17T10:59:03Z</time>
</trkpt>
<trkpt lat="53.4925334" lon="18.0873417">
<ele>142</ele>
<time>2017-12-17T10:59:09Z</time>
</trkpt>
<trkpt lat="53.4936379" lon="18.0832537">
<ele>146</ele>
<time>2017-12-17T10:59:21Z</time>
</trkpt>
<trkpt lat="53.4941412" lon="18.0812191">
<ele>146</ele>
<time>2017-12-17T10:59:27Z</time>
</trkpt>
<trkpt lat="53.4951" lon="18.0725">
<ele>149</ele>
<time>2017-12-17T10:59:51Z</time>
</trkpt>
<trkpt lat="53.4953" lon="18.0703">
<ele>149</ele>
<time>2017-12-17T10:59:57Z</time>
</trkpt>
<trkpt lat="53.4955" lon="18.0682">
<ele>149</ele>
<time>2017-12-17T11:00:03Z</time>
</trkpt>
<trkpt lat="53.4957596" lon="18.0661022">
<ele>149</ele>
<time>2017-12-17T11:00:09Z</time>
</trkpt>
<trkpt lat="53.4959803" lon="18.0640110">
<ele>148</ele>
<time>2017-12-17T11:00:15Z</time>
</trkpt>
<trkpt lat="53.4961394" lon="18.0619047">
<ele>145</ele>
<time>2017-12-17T11:00:21Z</time>
</trkpt>
<trkpt lat="53.4962258" lon="18.0597821">
<ele>145</ele>
<time>2017-12-17T11:00:27Z</time>
</trkpt>
<trkpt lat="53.4964194" lon="18.0555769">
<ele>144</ele>
<time>2017-12-17T11:00:39Z</time>
</trkpt>
<trkpt lat="53.4965075" lon="18.0535637">
<ele>144</ele>
<time>2017-12-17T11:00:45Z</time>
</trkpt>
<trkpt lat="53.4966430" lon="18.0515781">
<ele>144</ele>
<time>2017-12-17T11:00:51Z</time>
</trkpt>
<trkpt lat="53.4972254" lon="18.0475609">
<ele>143</ele>
<time>2017-12-17T11:01:03Z</time>
</trkpt>
<trkpt lat="53.4976048" lon="18.0455466">
<ele>142</ele>
<time>2017-12-17T11:01:09Z</time>
</trkpt>
<trkpt lat="53.4979770" lon="18.0435048">
<ele>143</ele>
<time>2017-12-17T11:01:15Z</time>
</trkpt>
<trkpt lat="53.4983558" lon="18.0414498">
<ele>142</ele>
<time>2017-12-17T11:01:21Z</time>
</trkpt>
<trkpt lat="53.4987223" lon="18.0393911">
<ele>142</ele>
<time>2017-12-17T11:01:27Z</time>
</trkpt>
<trkpt lat="53.4990946" lon="18.0373506">
<ele>143</ele>
<time>2017-12-17T11:01:33Z</time>
</trkpt>
<trkpt lat="53.4994809" lon="18.0353082">
<ele>143</ele>
<time>2017-12-17T11:01:39Z</time>
</trkpt>
<trkpt lat="53.4998489" lon="18.0332866">
<ele>144</ele>
<time>2017-12-17T11:01:45Z</time>
</trkpt>
<trkpt lat="53.5002058" lon="18.0313303">
<ele>144</ele>
<time>2017-12-17T11:01:51Z</time>
</trkpt>
<trkpt lat="53.5005657" lon="18.0294150">
<ele>144</ele>
<time>2017-12-17T11:01:57Z</time>
</trkpt>
<trkpt lat="53.5009331" lon="18.0274469">
<ele>142</ele>
<time>2017-12-17T11:02:03Z</time>
</trkpt>
<trkpt lat="53.5012784" lon="18.0254852">
<ele>145</ele>
<time>2017-12-17T11:02:09Z</time>
</trkpt>
<trkpt lat="53.5016504" lon="18.0235609">
<ele>145</ele>
<time>2017-12-17T11:02:15Z</time>
</trkpt>
<trkpt lat="53.5020177" lon="18.0216258">
<ele>146</ele>
<time>2017-12-17T11:02:21Z</time>
</trkpt>
<trkpt lat="53.5023768" lon="18.0196586">
<ele>146</ele>
<time>2017-12-17T11:02:27Z</time>
</trkpt>
<trkpt lat="53.5027569" lon="18.0176958">
<ele>146</ele>
<time>2017-12-17T11:02:33Z</time>
</trkpt>
<trkpt lat="53.5031259" lon="18.0157252">
<ele>146</ele>
<time>2017-12-17T11:02:39Z</time>
</trkpt>
<trkpt lat="53.5034923" lon="18.0137351">
<ele>146</ele>
<time>2017-12-17T11:02:45Z</time>
</trkpt>
<trkpt lat="53.5038377" lon="18.0119091">
<ele>145</ele>
<time>2017-12-17T11:02:51Z</time>
</trkpt>
<trkpt lat="53.5045" lon="18.0083">
<ele>142</ele>
<time>2017-12-17T11:03:09Z</time>
</trkpt>
<trkpt lat="53.5047" lon="18.0072">
<ele>141</ele>
<time>2017-12-17T11:03:15Z</time>
</trkpt>
<trkpt lat="53.5049" lon="18.006">
<ele>139</ele>
<time>2017-12-17T11:03:21Z</time>
</trkpt>
<trkpt lat="53.5051" lon="18.0049">
<ele>137</ele>
<time>2017-12-17T11:03:27Z</time>
</trkpt>
<trkpt lat="53.5053" lon="18.0037">
<ele>135</ele>
<time>2017-12-17T11:03:33Z</time>
</trkpt>
<trkpt lat="53.5055" lon="18.0025">
<ele>137</ele>
<time>2017-12-17T11:03:39Z</time>
</trkpt>
<trkpt lat="53.5057" lon="18.0012">
<ele>135</ele>
<time>2017-12-17T11:03:45Z</time>
</trkpt>
<trkpt lat="53.5059" lon="18">
<ele>134</ele>
<time>2017-12-17T11:03:51Z</time>
</trkpt>
<trkpt lat="53.5061" lon="17.9988">
<ele>135</ele>
<time>2017-12-17T11:03:57Z</time>
</trkpt>
<trkpt lat="53.5062" lon="17.9976">
<ele>136</ele>
<time>2017-12-17T11:04:03Z</time>
</trkpt>
<trkpt lat="53.5065" lon="17.9965">
<ele>137</ele>
<time>2017-12-17T11:04:09Z</time>
</trkpt>
<trkpt lat="53.5073" lon="17.993">
<ele>133</ele>
<time>2017-12-17T11:04:27Z</time>
</trkpt>
<trkpt lat="53.5073" lon="17.9916">
<ele>134</ele>
<time>2017-12-17T11:04:33Z</time>
</trkpt>
<trkpt lat="53.5073" lon="17.9903">
<ele>131</ele>
<time>2017-12-17T11:04:39Z</time>
</trkpt>
<trkpt lat="53.5068" lon="17.9893">
<ele>131</ele>
<time>2017-12-17T11:04:45Z</time>
</trkpt>
<trkpt lat="53.5062" lon="17.9885">
<ele>133</ele>
<time>2017-12-17T11:04:51Z</time>
</trkpt>
<trkpt lat="53.5058" lon="17.9876">
<ele>133</ele>
<time>2017-12-17T11:04:57Z</time>
</trkpt>
<trkpt lat="53.5055" lon="17.9865">
<ele>130</ele>
<time>2017-12-17T11:05:03Z</time>
</trkpt>
<trkpt lat="53.5056" lon="17.9852">
<ele>133</ele>
<time>2017-12-17T11:05:09Z</time>
</trkpt>
<trkpt lat="53.5058920" lon="17.9838794">
<ele>133</ele>
<time>2017-12-17T11:05:15Z</time>
</trkpt>
<trkpt lat="53.5069" lon="17.9795">
<ele>134</ele>
<time>2017-12-17T11:05:33Z</time>
</trkpt>
<trkpt lat="53.5073" lon="17.978">
<ele>134</ele>
<time>2017-12-17T11:05:39Z</time>
</trkpt>
<trkpt lat="53.5079" lon="17.9768">
<ele>133</ele>
<time>2017-12-17T11:05:45Z</time>
</trkpt>
<trkpt lat="53.5087" lon="17.9762">
<ele>132</ele>
<time>2017-12-17T11:05:51Z</time>
</trkpt>
<trkpt lat="53.5096801" lon="17.9755249">
<ele>133</ele>
<time>2017-12-17T11:05:57Z</time>
</trkpt>
<trkpt lat="53.5106127" lon="17.9748794">
<ele>133</ele>
<time>2017-12-17T11:06:03Z</time>
</trkpt>
<trkpt lat="53.5127" lon="17.9712">
<ele>136</ele>
<time>2017-12-17T11:06:21Z</time>
</trkpt>
<trkpt lat="53.5134" lon="17.9696">
<ele>136</ele>
<time>2017-12-17T11:06:27Z</time>
</trkpt>
<trkpt lat="53.5141" lon="17.9681">
<ele>138</ele>
<time>2017-12-17T11:06:33Z</time>
</trkpt>
<trkpt lat="53.5147141" lon="17.9663964">
<ele>139</ele>
<time>2017-12-17T11:06:39Z</time>
</trkpt>
<trkpt lat="53.5150459" lon="17.9644862">
<ele>139</ele>
<time>2017-12-17T11:06:45Z</time>
</trkpt>
<trkpt lat="53.5153849" lon="17.9625758">
<ele>139</ele>
<time>2017-12-17T11:06:51Z</time>
</trkpt>
<trkpt lat="53.5157289" lon="17.9607000">
<ele>139</ele>
<time>2017-12-17T11:06:57Z</time>
</trkpt>
<trkpt lat="53.5160708" lon="17.9588906">
<ele>140</ele>
<time>2017-12-17T11:07:03Z</time>
</trkpt>
<trkpt lat="53.5164248" lon="17.9571297">
<ele>138</ele>
<time>2017-12-17T11:07:09Z</time>
</trkpt>
<trkpt lat="53.5167977" lon="17.9555131">
<ele>137</ele>
<time>2017-12-17T11:07:15Z</time>
</trkpt>
<trkpt lat="53.5173208" lon="17.9541937">
<ele>137</ele>
<time>2017-12-17T11:07:21Z</time>
</trkpt>
<trkpt lat="53.5179767" lon="17.9532150">
<ele>136</ele>
<time>2017-12-17T11:07:27Z</time>
</trkpt>
<trkpt lat="53.5187635" lon="17.9525523">
<ele>137</ele>
<time>2017-12-17T11:07:33Z</time>
</trkpt>
<trkpt lat="53.5195944" lon="17.9520434">
<ele>138</ele>
<time>2017-12-17T11:07:39Z</time>
</trkpt>
<trkpt lat="53.5204904" lon="17.9515104">
<ele>138</ele>
<time>2017-12-17T11:07:45Z</time>
</trkpt>
<trkpt lat="53.5214399" lon="17.9509628">
<ele>138</ele>
<time>2017-12-17T11:07:51Z</time>
</trkpt>
<trkpt lat="53.5224139" lon="17.9503996">
<ele>140</ele>
<time>2017-12-17T11:07:57Z</time>
</trkpt>
<trkpt lat="53.5233947" lon="17.9498250">
<ele>141</ele>
<time>2017-12-17T11:08:03Z</time>
</trkpt>
<trkpt lat="53.5243756" lon="17.9492873">
<ele>139</ele>
<time>2017-12-17T11:08:09Z</time>
</trkpt>
<trkpt lat="53.5253457" lon="17.9487648">
<ele>137</ele>
<time>2017-12-17T11:08:15Z</time>
</trkpt>
<trkpt lat="53.528" lon="17.9473">
<ele>136</ele>
<time>2017-12-17T11:08:33Z</time>
</trkpt>
<trkpt lat="53.5287" lon="17.9469">
<ele>133</ele>
<time>2017-12-17T11:08:39Z</time>
</trkpt>
<trkpt lat="53.5296" lon="17.9464">
<ele>131</ele>
<time>2017-12-17T11:08:45Z</time>
</trkpt>
<trkpt lat="53.5304" lon="17.9458">
<ele>130</ele>
<time>2017-12-17T11:08:51Z</time>
</trkpt>
<trkpt lat="53.5310914" lon="17.9451022">
<ele>129</ele>
<time>2017-12-17T11:08:57Z</time>
</trkpt>
<trkpt lat="53.5332" lon="17.9441">
<ele>130</ele>
<time>2017-12-17T11:09:15Z</time>
</trkpt>
<trkpt lat="53.5338" lon="17.9434">
<ele>131</ele>
<time>2017-12-17T11:09:21Z</time>
</trkpt>
<trkpt lat="53.5344" lon="17.9428">
<ele>132</ele>
<time>2017-12-17T11:09:27Z</time>
</trkpt>
<trkpt lat="53.5351130" lon="17.9425262">
<ele>132</ele>
<time>2017-12-17T11:09:33Z</time>
</trkpt>
<trkpt lat="53.5357559" lon="17.9420028">
<ele>132</ele>
<time>2017-12-17T11:09:39Z</time>
</trkpt>
<trkpt lat="53.5364063" lon="17.9411839">
<ele>131</ele>
<time>2017-12-17T11:09:45Z</time>
</trkpt>
<trkpt lat="53.5370803" lon="17.9403608">
<ele>130</ele>
<time>2017-12-17T11:09:51Z</time>
</trkpt>
<trkpt lat="53.5377739" lon="17.9395322">
<ele>130</ele>
<time>2017-12-17T11:09:57Z</time>
</trkpt>
<trkpt lat="53.5383072" lon="17.9389222">
<ele>130</ele>
<time>2017-12-17T11:10:03Z</time>
</trkpt>
<trkpt lat="53.5389097" lon="17.9382111">
<ele>130</ele>
<time>2017-12-17T11:10:09Z</time>
</trkpt>
<trkpt lat="53.5397140" lon="17.9372652">
<ele>131</ele>
<time>2017-12-17T11:10:15Z</time>
</trkpt>
<trkpt lat="53.5426" lon="17.9337">
<ele>133</ele>
<time>2017-12-17T11:10:33Z</time>
</trkpt>
<trkpt lat="53.5437" lon="17.9326">
<ele>131</ele>
<time>2017-12-17T11:10:39Z</time>
</trkpt>
<trkpt lat="53.5448" lon="17.9313">
<ele>132</ele>
<time>2017-12-17T11:10:45Z</time>
</trkpt>
<trkpt lat="53.5458719" lon="17.9301142">
<ele>133</ele>
<time>2017-12-17T11:10:51Z</time>
</trkpt>
<trkpt lat="53.5469736" lon="17.9288751">
<ele>134</ele>
<time>2017-12-17T11:10:57Z</time>
</trkpt>
<trkpt lat="53.5479558" lon="17.9277601">
<ele>135</ele>
<time>2017-12-17T11:11:03Z</time>
</trkpt>
<trkpt lat="53.5488506" lon="17.9267369">
<ele>130</ele>
<time>2017-12-17T11:11:09Z</time>
</trkpt>
<trkpt lat="53.5497066" lon="17.9257388">
<ele>127</ele>
<time>2017-12-17T11:11:15Z</time>
</trkpt>
<trkpt lat="53.5505780" lon="17.9247065">
<ele>130</ele>
<time>2017-12-17T11:11:21Z</time>
</trkpt>
<trkpt lat="53.5512373" lon="17.9234722">
<ele>132</ele>
<time>2017-12-17T11:11:27Z</time>
</trkpt>
<trkpt lat="53.5516662" lon="17.9218796">
<ele>132</ele>
<time>2017-12-17T11:11:33Z</time>
</trkpt>
<trkpt lat="53.5520338" lon="17.9199316">
<ele>129</ele>
<time>2017-12-17T11:11:39Z</time>
</trkpt>
<trkpt lat="53.5524649" lon="17.9177118">
<ele>127</ele>
<time>2017-12-17T11:11:45Z</time>
</trkpt>
<trkpt lat="53.5529591" lon="17.9153775">
<ele>127</ele>
<time>2017-12-17T11:11:51Z</time>
</trkpt>
<trkpt lat="53.5533873" lon="17.9130762">
<ele>130</ele>
<time>2017-12-17T11:11:57Z</time>
</trkpt>
<trkpt lat="53.5537755" lon="17.9109916">
<ele>130</ele>
<time>2017-12-17T11:12:03Z</time>
</trkpt>
<trkpt lat="53.5541631" lon="17.9089869">
<ele>130</ele>
<time>2017-12-17T11:12:09Z</time>
</trkpt>
<trkpt lat="53.5544210" lon="17.9071893">
<ele>130</ele>
<time>2017-12-17T11:12:15Z</time>
</trkpt>
<trkpt lat="53.5543361" lon="17.9054478">
<ele>124</ele>
<time>2017-12-17T11:12:21Z</time>
</trkpt>
<trkpt lat="53.5542981" lon="17.9037239">
<ele>118</ele>
<time>2017-12-17T11:12:27Z</time>
</trkpt>
<trkpt lat="53.5546929" lon="17.9020247">
<ele>123</ele>
<time>2017-12-17T11:12:33Z</time>
</trkpt>
<trkpt lat="53.5554218" lon="17.9011875">
<ele>122</ele>
<time>2017-12-17T11:12:39Z</time>
</trkpt>
<trkpt lat="53.5562744" lon="17.9012523">
<ele>124</ele>
<time>2017-12-17T11:12:45Z</time>
</trkpt>
<trkpt lat="53.5570785" lon="17.9013729">
<ele>127</ele>
<time>2017-12-17T11:12:51Z</time>
</trkpt>
<trkpt lat="53.5578966" lon="17.9014989">
<ele>130</ele>
<time>2017-12-17T11:12:57Z</time>
</trkpt>
<trkpt lat="53.5587320" lon="17.9016207">
<ele>129</ele>
<time>2017-12-17T11:13:03Z</time>
</trkpt>
<trkpt lat="53.5596135" lon="17.9017241">
<ele>127</ele>
<time>2017-12-17T11:13:09Z</time>
</trkpt>
<trkpt lat="53.5604434" lon="17.9015318">
<ele>123</ele>
<time>2017-12-17T11:13:15Z</time>
</trkpt>
<trkpt lat="53.5612646" lon="17.9012052">
<ele>123</ele>
<time>2017-12-17T11:13:21Z</time>
</trkpt>
<trkpt lat="53.5619886" lon="17.9009944">
<ele>122</ele>
<time>2017-12-17T11:13:27Z</time>
</trkpt>
<trkpt lat="53.5627042" lon="17.9009673">
<ele>120</ele>
<time>2017-12-17T11:13:33Z</time>
</trkpt>
<trkpt lat="53.5633453" lon="17.9006644">
<ele>119</ele>
<time>2017-12-17T11:13:39Z</time>
</trkpt>
<trkpt lat="53.5637387" lon="17.8996924">
<ele>123</ele>
<time>2017-12-17T11:13:45Z</time>
</trkpt>
<trkpt lat="53.5641054" lon="17.8987631">
<ele>123</ele>
<time>2017-12-17T11:13:51Z</time>
</trkpt>
<trkpt lat="53.5646093" lon="17.8979368">
<ele>124</ele>
<time>2017-12-17T11:13:57Z</time>
</trkpt>
<trkpt lat="53.5651750" lon="17.8971213">
<ele>128</ele>
<time>2017-12-17T11:14:03Z</time>
</trkpt>
<trkpt lat="53.5657591" lon="17.8962772">
<ele>130</ele>
<time>2017-12-17T11:14:09Z</time>
</trkpt>
<trkpt lat="53.5663734" lon="17.8953751">
<ele>133</ele>
<time>2017-12-17T11:14:15Z</time>
</trkpt>
<trkpt lat="53.5670110" lon="17.8944459">
<ele>136</ele>
<time>2017-12-17T11:14:21Z</time>
</trkpt>
<trkpt lat="53.5675991" lon="17.8935844">
<ele>139</ele>
<time>2017-12-17T11:14:27Z</time>
</trkpt>
<trkpt lat="53.5681792" lon="17.8927168">
<ele>141</ele>
<time>2017-12-17T11:14:33Z</time>
</trkpt>
<trkpt lat="53.5687873" lon="17.8918240">
<ele>142</ele>
<time>2017-12-17T11:14:39Z</time>
</trkpt>
<trkpt lat="53.5693572" lon="17.8909787">
<ele>142</ele>
<time>2017-12-17T11:14:45Z</time>
</trkpt>
<trkpt lat="53.5699360" lon="17.8901155">
<ele>141</ele>
<time>2017-12-17T11:14:51Z</time>
</trkpt>
<trkpt lat="53.5705246" lon="17.8892505">
<ele>142</ele>
<time>2017-12-17T11:14:57Z</time>
</trkpt>
<trkpt lat="53.5711128" lon="17.8883606">
<ele>142</ele>
<time>2017-12-17T11:15:03Z</time>
</trkpt>
<trkpt lat="53.5716948" lon="17.8874995">
<ele>143</ele>
<time>2017-12-17T11:15:09Z</time>
</trkpt>
<trkpt lat="53.5722851" lon="17.8866210">
<ele>143</ele>
<time>2017-12-17T11:15:15Z</time>
</trkpt>
<trkpt lat="53.5728844" lon="17.8857411">
<ele>143</ele>
<time>2017-12-17T11:15:21Z</time>
</trkpt>
<trkpt lat="53.5735276" lon="17.8847604">
<ele>143</ele>
<time>2017-12-17T11:15:27Z</time>
</trkpt>
<trkpt lat="53.5741722" lon="17.8837692">
<ele>143</ele>
<time>2017-12-17T11:15:33Z</time>
</trkpt>
<trkpt lat="53.5748167" lon="17.8827951">
<ele>144</ele>
<time>2017-12-17T11:15:39Z</time>
</trkpt>
<trkpt lat="53.5754643" lon="17.8818401">
<ele>144</ele>
<time>2017-12-17T11:15:45Z</time>
</trkpt>
<trkpt lat="53.5761166" lon="17.8808785">
<ele>142</ele>
<time>2017-12-17T11:15:51Z</time>
</trkpt>
<trkpt lat="53.5767779" lon="17.8799029">
<ele>142</ele>
<time>2017-12-17T11:15:57Z</time>
</trkpt>
<trkpt lat="53.5774167" lon="17.8789797">
<ele>140</ele>
<time>2017-12-17T11:16:03Z</time>
</trkpt>
<trkpt lat="53.5779662" lon="17.8781732">
<ele>140</ele>
<time>2017-12-17T11:16:09Z</time>
</trkpt>
<trkpt lat="53.5784093" lon="17.8775209">
<ele>138</ele>
<time>2017-12-17T11:16:15Z</time>
</trkpt>
<trkpt lat="53.5787603" lon="17.8768720">
<ele>138</ele>
<time>2017-12-17T11:16:21Z</time>
</trkpt>
<trkpt lat="53.5790736" lon="17.8761586">
<ele>139</ele>
<time>2017-12-17T11:16:27Z</time>
</trkpt>
<trkpt lat="53.5791981" lon="17.8757634">
<ele>141</ele>
<time>2017-12-17T11:16:33Z</time>
</trkpt>
<trkpt lat="53.5790638" lon="17.8755989">
<ele>141</ele>
<time>2017-12-17T11:16:39Z</time>
</trkpt>
<trkpt lat="53.5789150" lon="17.8758897">
<ele>143</ele>
<time>2017-12-17T11:16:45Z</time>
</trkpt>
<trkpt lat="53.5788023" lon="17.8761625">
<ele>142</ele>
<time>2017-12-17T11:16:51Z</time>
</trkpt>
<trkpt lat="53.5788512" lon="17.8762547">
<ele>142</ele>
<time>2017-12-17T11:16:57Z</time>
</trkpt>
<trkpt lat="53.5788512" lon="17.8762547">
<ele>142</ele>
<time>2017-12-17T11:17:03Z</time>
</trkpt>
<trkpt lat="53.5788512" lon="17.8762547">
<ele>142</ele>
<time>2017-12-17T11:17:09Z</time>
</trkpt>
<trkpt lat="53.5788512" lon="17.8762547">
<ele>142</ele>
<time>2017-12-17T11:17:15Z</time>
</trkpt>
<trkpt lat="53.5788512" lon="17.8762547">
<ele>142</ele>
<time>2017-12-17T11:17:21Z</time>
</trkpt>
<trkpt lat="53.5788483" lon="17.8762568">
<ele>142</ele>
<time>2017-12-17T11:17:27Z</time>
</trkpt>
<trkpt lat="53.5788463" lon="17.8762554">
<ele>142</ele>
<time>2017-12-17T11:17:33Z</time>
</trkpt>
<trkpt lat="53.5788463" lon="17.8762554">
<ele>142</ele>
<time>2017-12-17T11:17:39Z</time>
</trkpt>
<trkpt lat="53.5788463" lon="17.8762554">
<ele>142</ele>
<time>2017-12-17T11:17:45Z</time>
</trkpt>
<trkpt lat="53.5788463" lon="17.8762554">
<ele>142</ele>
<time>2017-12-17T11:17:51Z</time>
</trkpt>
<trkpt lat="53.5788463" lon="17.8762554">
<ele>142</ele>
<time>2017-12-17T11:17:57Z</time>
</trkpt>
<trkpt lat="53.5788463" lon="17.8762554">
<ele>142</ele>
<time>2017-12-17T11:18:03Z</time>
</trkpt>
<trkpt lat="53.5788398" lon="17.8762474">
<ele>142</ele>
<time>2017-12-17T11:18:09Z</time>
</trkpt>
<trkpt lat="53.5787996" lon="17.8761925">
<ele>142</ele>
<time>2017-12-17T11:18:15Z</time>
</trkpt>
<trkpt lat="53.5787467" lon="17.8761574">
<ele>141</ele>
<time>2017-12-17T11:18:21Z</time>
</trkpt>
<trkpt lat="53.5787041" lon="17.8761055">
<ele>140</ele>
<time>2017-12-17T11:18:27Z</time>
</trkpt>
<trkpt lat="53.5786934" lon="17.8760933">
<ele>140</ele>
<time>2017-12-17T11:18:33Z</time>
</trkpt>
<trkpt lat="53.5786870" lon="17.8760972">
<ele>140</ele>
<time>2017-12-17T11:18:39Z</time>
</trkpt>
<trkpt lat="53.5786555" lon="17.8761567">
<ele>140</ele>
<time>2017-12-17T11:18:45Z</time>
</trkpt>
<trkpt lat="53.5786678" lon="17.8761856">
<ele>140</ele>
<time>2017-12-17T11:18:51Z</time>
</trkpt>
<trkpt lat="53.5787290" lon="17.8762076">
<ele>140</ele>
<time>2017-12-17T11:18:57Z</time>
</trkpt>
<trkpt lat="53.5787687" lon="17.8761044">
<ele>140</ele>
<time>2017-12-17T11:19:03Z</time>
</trkpt>
<trkpt lat="53.5786887" lon="17.8760811">
<ele>140</ele>
<time>2017-12-17T11:19:15Z</time>
</trkpt>
<trkpt lat="53.5786826" lon="17.8760886">
<ele>140</ele>
<time>2017-12-17T11:19:21Z</time>
</trkpt>
<trkpt lat="53.5786826" lon="17.8760886">
<ele>140</ele>
<time>2017-12-17T11:19:27Z</time>
</trkpt>
<trkpt lat="53.5786" lon="17.8763">
<ele>102</ele>
<time>2017-12-17T11:30:11Z</time>
</trkpt>
<trkpt lat="53.5787917" lon="17.8761891">
<ele>137</ele>
<time>2017-12-17T11:30:17Z</time>
</trkpt>
<trkpt lat="53.5788199" lon="17.8762128">
<ele>139</ele>
<time>2017-12-17T11:30:23Z</time>
</trkpt>
<trkpt lat="53.5788331" lon="17.8762157">
<ele>139</ele>
<time>2017-12-17T11:30:29Z</time>
</trkpt>
<trkpt lat="53.5788331" lon="17.8762157">
<ele>139</ele>
<time>2017-12-17T11:30:35Z</time>
</trkpt>
<trkpt lat="53.5788331" lon="17.8762157">
<ele>139</ele>
<time>2017-12-17T11:30:41Z</time>
</trkpt>
<trkpt lat="53.5788296" lon="17.8761999">
<ele>139</ele>
<time>2017-12-17T11:30:47Z</time>
</trkpt>
<trkpt lat="53.5788296" lon="17.8761999">
<ele>139</ele>
<time>2017-12-17T11:30:53Z</time>
</trkpt>
<trkpt lat="53.5788296" lon="17.8761999">
<ele>139</ele>
<time>2017-12-17T11:30:59Z</time>
</trkpt>
<trkpt lat="53.5788296" lon="17.8761999">
<ele>139</ele>
<time>2017-12-17T11:31:05Z</time>
</trkpt>
<trkpt lat="53.5788296" lon="17.8761999">
<ele>139</ele>
<time>2017-12-17T11:31:11Z</time>
</trkpt>
<trkpt lat="53.5788296" lon="17.8761999">
<ele>139</ele>
<time>2017-12-17T11:31:17Z</time>
</trkpt>
<trkpt lat="53.5788296" lon="17.8761999">
<ele>139</ele>
<time>2017-12-17T11:31:23Z</time>
</trkpt>
<trkpt lat="53.5788296" lon="17.8761999">
<ele>139</ele>
<time>2017-12-17T11:31:29Z</time>
</trkpt>
<trkpt lat="53.5788296" lon="17.8761999">
<ele>139</ele>
<time>2017-12-17T11:31:35Z</time>
</trkpt>
<trkpt lat="53.5788296" lon="17.8761999">
<ele>139</ele>
<time>2017-12-17T11:31:41Z</time>
</trkpt>
<trkpt lat="53.5788296" lon="17.8761999">
<ele>139</ele>
<time>2017-12-17T11:31:47Z</time>
</trkpt>
<trkpt lat="53.5788277" lon="17.8762233">
<ele>139</ele>
<time>2017-12-17T11:31:53Z</time>
</trkpt>
<trkpt lat="53.5788277" lon="17.8762233">
<ele>139</ele>
<time>2017-12-17T11:31:59Z</time>
</trkpt>
<trkpt lat="53.5788277" lon="17.8762233">
<ele>139</ele>
<time>2017-12-17T11:32:05Z</time>
</trkpt>
<trkpt lat="53.5788277" lon="17.8762233">
<ele>139</ele>
<time>2017-12-17T11:32:11Z</time>
</trkpt>
<trkpt lat="53.5788277" lon="17.8762233">
<ele>139</ele>
<time>2017-12-17T11:32:17Z</time>
</trkpt>
<trkpt lat="53.5788277" lon="17.8762233">
<ele>139</ele>
<time>2017-12-17T11:32:23Z</time>
</trkpt>
<trkpt lat="53.5788277" lon="17.8762233">
<ele>139</ele>
<time>2017-12-17T11:32:29Z</time>
</trkpt>
<trkpt lat="53.5788277" lon="17.8762233">
<ele>139</ele>
<time>2017-12-17T11:32:35Z</time>
</trkpt>
<trkpt lat="53.5788277" lon="17.8762233">
<ele>139</ele>
<time>2017-12-17T11:32:41Z</time>
</trkpt>
<trkpt lat="53.5788277" lon="17.8762233">
<ele>139</ele>
<time>2017-12-17T11:32:47Z</time>
</trkpt>
<trkpt lat="53.5788277" lon="17.8762233">
<ele>139</ele>
<time>2017-12-17T11:32:53Z</time>
</trkpt>
<trkpt lat="53.5788277" lon="17.8762233">
<ele>139</ele>
<time>2017-12-17T11:32:59Z</time>
</trkpt>
<trkpt lat="53.5788277" lon="17.8762233">
<ele>139</ele>
<time>2017-12-17T11:33:05Z</time>
</trkpt>
<trkpt lat="53.5788277" lon="17.8762233">
<ele>139</ele>
<time>2017-12-17T11:33:11Z</time>
</trkpt>
<trkpt lat="53.5788277" lon="17.8762233">
<ele>139</ele>
<time>2017-12-17T11:33:17Z</time>
</trkpt>
<trkpt lat="53.5788277" lon="17.8762233">
<ele>139</ele>
<time>2017-12-17T11:33:23Z</time>
</trkpt>
<trkpt lat="53.5788277" lon="17.8762233">
<ele>139</ele>
<time>2017-12-17T11:33:29Z</time>
</trkpt>
<trkpt lat="53.5788277" lon="17.8762233">
<ele>139</ele>
<time>2017-12-17T11:33:35Z</time>
</trkpt>
<trkpt lat="53.5788204" lon="17.8762047">
<ele>140</ele>
<time>2017-12-17T11:33:41Z</time>
</trkpt>
<trkpt lat="53.5788170" lon="17.8761881">
<ele>140</ele>
<time>2017-12-17T11:33:47Z</time>
</trkpt>
<trkpt lat="53.5788198" lon="17.8761925">
<ele>140</ele>
<time>2017-12-17T11:33:53Z</time>
</trkpt>
<trkpt lat="53.5788977" lon="17.8761199">
<ele>140</ele>
<time>2017-12-17T11:33:59Z</time>
</trkpt>
<trkpt lat="53.5789498" lon="17.8759289">
<ele>140</ele>
<time>2017-12-17T11:34:05Z</time>
</trkpt>
<trkpt lat="53.5790212" lon="17.8757331">
<ele>140</ele>
<time>2017-12-17T11:34:11Z</time>
</trkpt>
<trkpt lat="53.5790978" lon="17.8755223">
<ele>139</ele>
<time>2017-12-17T11:34:17Z</time>
</trkpt>
<trkpt lat="53.5792040" lon="17.8755671">
<ele>138</ele>
<time>2017-12-17T11:34:23Z</time>
</trkpt>
<trkpt lat="53.5792485" lon="17.8756123">
<ele>138</ele>
<time>2017-12-17T11:34:29Z</time>
</trkpt>
<trkpt lat="53.5793382" lon="17.8755655">
<ele>139</ele>
<time>2017-12-17T11:34:35Z</time>
</trkpt>
<trkpt lat="53.5794877" lon="17.8752368">
<ele>139</ele>
<time>2017-12-17T11:34:41Z</time>
</trkpt>
<trkpt lat="53.5796541" lon="17.8748220">
<ele>139</ele>
<time>2017-12-17T11:34:47Z</time>
</trkpt>
<trkpt lat="53.5798517" lon="17.8743574">
<ele>139</ele>
<time>2017-12-17T11:34:53Z</time>
</trkpt>
<trkpt lat="53.5800890" lon="17.8738210">
<ele>140</ele>
<time>2017-12-17T11:34:59Z</time>
</trkpt>
<trkpt lat="53.5803456" lon="17.8732357">
<ele>140</ele>
<time>2017-12-17T11:35:05Z</time>
</trkpt>
<trkpt lat="53.5806814" lon="17.8725166">
<ele>140</ele>
<time>2017-12-17T11:35:11Z</time>
</trkpt>
<trkpt lat="53.5810029" lon="17.8718594">
<ele>140</ele>
<time>2017-12-17T11:35:17Z</time>
</trkpt>
<trkpt lat="53.5811993" lon="17.8714804">
<ele>140</ele>
<time>2017-12-17T11:35:23Z</time>
</trkpt>
<trkpt lat="53.5814343" lon="17.8713832">
<ele>142</ele>
<time>2017-12-17T11:35:29Z</time>
</trkpt>
<trkpt lat="53.5817626" lon="17.8717996">
<ele>143</ele>
<time>2017-12-17T11:35:35Z</time>
</trkpt>
<trkpt lat="53.5821821" lon="17.8723395">
<ele>143</ele>
<time>2017-12-17T11:35:41Z</time>
</trkpt>
<trkpt lat="53.5826612" lon="17.8729364">
<ele>146</ele>
<time>2017-12-17T11:35:47Z</time>
</trkpt>
<trkpt lat="53.5831358" lon="17.8735467">
<ele>147</ele>
<time>2017-12-17T11:35:53Z</time>
</trkpt>
<trkpt lat="53.5836220" lon="17.8741613">
<ele>148</ele>
<time>2017-12-17T11:35:59Z</time>
</trkpt>
<trkpt lat="53.5840798" lon="17.8747372">
<ele>149</ele>
<time>2017-12-17T11:36:05Z</time>
</trkpt>
<trkpt lat="53.5845022" lon="17.8752746">
<ele>150</ele>
<time>2017-12-17T11:36:11Z</time>
</trkpt>
<trkpt lat="53.5849066" lon="17.8758118">
<ele>150</ele>
<time>2017-12-17T11:36:17Z</time>
</trkpt>
<trkpt lat="53.5853344" lon="17.8760601">
<ele>151</ele>
<time>2017-12-17T11:36:23Z</time>
</trkpt>
<trkpt lat="53.5856734" lon="17.8753668">
<ele>149</ele>
<time>2017-12-17T11:36:29Z</time>
</trkpt>
<trkpt lat="53.5859341" lon="17.8744876">
<ele>149</ele>
<time>2017-12-17T11:36:35Z</time>
</trkpt>
<trkpt lat="53.5861962" lon="17.8736971">
<ele>149</ele>
<time>2017-12-17T11:36:41Z</time>
</trkpt>
<trkpt lat="53.5864626" lon="17.8728826">
<ele>148</ele>
<time>2017-12-17T11:36:47Z</time>
</trkpt>
<trkpt lat="53.5867290" lon="17.8720628">
<ele>148</ele>
<time>2017-12-17T11:36:53Z</time>
</trkpt>
<trkpt lat="53.5870988" lon="17.8712735">
<ele>148</ele>
<time>2017-12-17T11:36:59Z</time>
</trkpt>
<trkpt lat="53.5875277" lon="17.8704390">
<ele>148</ele>
<time>2017-12-17T11:37:05Z</time>
</trkpt>
<trkpt lat="53.5879687" lon="17.8695236">
<ele>147</ele>
<time>2017-12-17T11:37:11Z</time>
</trkpt>
<trkpt lat="53.5884510" lon="17.8685944">
<ele>145</ele>
<time>2017-12-17T11:37:17Z</time>
</trkpt>
<trkpt lat="53.5889251" lon="17.8677367">
<ele>144</ele>
<time>2017-12-17T11:37:23Z</time>
</trkpt>
<trkpt lat="53.5894043" lon="17.8668578">
<ele>144</ele>
<time>2017-12-17T11:37:29Z</time>
</trkpt>
<trkpt lat="53.5899484" lon="17.8661006">
<ele>143</ele>
<time>2017-12-17T11:37:35Z</time>
</trkpt>
<trkpt lat="53.5904202" lon="17.8654239">
<ele>146</ele>
<time>2017-12-17T11:37:41Z</time>
</trkpt>
<trkpt lat="53.5907750" lon="17.8648281">
<ele>146</ele>
<time>2017-12-17T11:37:47Z</time>
</trkpt>
<trkpt lat="53.5910949" lon="17.8651879">
<ele>146</ele>
<time>2017-12-17T11:37:53Z</time>
</trkpt>
<trkpt lat="53.5915223" lon="17.8656364">
<ele>145</ele>
<time>2017-12-17T11:37:59Z</time>
</trkpt>
<trkpt lat="53.5919853" lon="17.8660702">
<ele>146</ele>
<time>2017-12-17T11:38:05Z</time>
</trkpt>
<trkpt lat="53.5924394" lon="17.8663149">
<ele>146</ele>
<time>2017-12-17T11:38:11Z</time>
</trkpt>
<trkpt lat="53.5928810" lon="17.8657719">
<ele>148</ele>
<time>2017-12-17T11:38:17Z</time>
</trkpt>
<trkpt lat="53.5931072" lon="17.8648586">
<ele>147</ele>
<time>2017-12-17T11:38:23Z</time>
</trkpt>
<trkpt lat="53.5931806" lon="17.8637804">
<ele>146</ele>
<time>2017-12-17T11:38:29Z</time>
</trkpt>
<trkpt lat="53.5931666" lon="17.8627464">
<ele>146</ele>
<time>2017-12-17T11:38:35Z</time>
</trkpt>
<trkpt lat="53.5931811" lon="17.8616721">
<ele>145</ele>
<time>2017-12-17T11:38:41Z</time>
</trkpt>
<trkpt lat="53.5932105" lon="17.8605032">
<ele>146</ele>
<time>2017-12-17T11:38:47Z</time>
</trkpt>
<trkpt lat="53.5932056" lon="17.8593194">
<ele>145</ele>
<time>2017-12-17T11:38:53Z</time>
</trkpt>
<trkpt lat="53.5931779" lon="17.8582044">
<ele>144</ele>
<time>2017-12-17T11:38:59Z</time>
</trkpt>
<trkpt lat="53.5930826" lon="17.8571322">
<ele>143</ele>
<time>2017-12-17T11:39:05Z</time>
</trkpt>
<trkpt lat="53.5931264" lon="17.8559697">
<ele>142</ele>
<time>2017-12-17T11:39:11Z</time>
</trkpt>
<trkpt lat="53.5936121" lon="17.8550943">
<ele>140</ele>
<time>2017-12-17T11:39:17Z</time>
</trkpt>
<trkpt lat="53.5939645" lon="17.8541454">
<ele>141</ele>
<time>2017-12-17T11:39:23Z</time>
</trkpt>
<trkpt lat="53.5943271" lon="17.8530823">
<ele>142</ele>
<time>2017-12-17T11:39:29Z</time>
</trkpt>
<trkpt lat="53.5947378" lon="17.8519129">
<ele>143</ele>
<time>2017-12-17T11:39:35Z</time>
</trkpt>
<trkpt lat="53.5951767" lon="17.8506528">
<ele>145</ele>
<time>2017-12-17T11:39:41Z</time>
</trkpt>
<trkpt lat="53.5956356" lon="17.8493210">
<ele>147</ele>
<time>2017-12-17T11:39:47Z</time>
</trkpt>
<trkpt lat="53.5960873" lon="17.8479650">
<ele>148</ele>
<time>2017-12-17T11:39:53Z</time>
</trkpt>
<trkpt lat="53.5961727" lon="17.8464922">
<ele>151</ele>
<time>2017-12-17T11:39:59Z</time>
</trkpt>
<trkpt lat="53.5961607" lon="17.8449921">
<ele>153</ele>
<time>2017-12-17T11:40:05Z</time>
</trkpt>
<trkpt lat="53.5961435" lon="17.8435077">
<ele>155</ele>
<time>2017-12-17T11:40:11Z</time>
</trkpt>
<trkpt lat="53.5961164" lon="17.8419250">
<ele>154</ele>
<time>2017-12-17T11:40:17Z</time>
</trkpt>
<trkpt lat="53.5960935" lon="17.8401749">
<ele>154</ele>
<time>2017-12-17T11:40:23Z</time>
</trkpt>
<trkpt lat="53.5960699" lon="17.8383296">
<ele>155</ele>
<time>2017-12-17T11:40:29Z</time>
</trkpt>
<trkpt lat="53.5960401" lon="17.8364087">
<ele>156</ele>
<time>2017-12-17T11:40:35Z</time>
</trkpt>
<trkpt lat="53.5959759" lon="17.8344004">
<ele>155</ele>
<time>2017-12-17T11:40:41Z</time>
</trkpt>
<trkpt lat="53.5959078" lon="17.8322984">
<ele>156</ele>
<time>2017-12-17T11:40:47Z</time>
</trkpt>
<trkpt lat="53.5958330" lon="17.8301865">
<ele>158</ele>
<time>2017-12-17T11:40:53Z</time>
</trkpt>
<trkpt lat="53.5957608" lon="17.8281116">
<ele>161</ele>
<time>2017-12-17T11:40:59Z</time>
</trkpt>
<trkpt lat="53.5956807" lon="17.8260466">
<ele>164</ele>
<time>2017-12-17T11:41:05Z</time>
</trkpt>
<trkpt lat="53.5955985" lon="17.8239778">
<ele>165</ele>
<time>2017-12-17T11:41:11Z</time>
</trkpt>
<trkpt lat="53.5955134" lon="17.8219574">
<ele>165</ele>
<time>2017-12-17T11:41:17Z</time>
</trkpt>
<trkpt lat="53.5952594" lon="17.8202012">
<ele>163</ele>
<time>2017-12-17T11:41:23Z</time>
</trkpt>
<trkpt lat="53.5949599" lon="17.8189885">
<ele>162</ele>
<time>2017-12-17T11:41:29Z</time>
</trkpt>
<trkpt lat="53.5952087" lon="17.8180196">
<ele>162</ele>
<time>2017-12-17T11:41:35Z</time>
</trkpt>
<trkpt lat="53.5957759" lon="17.8171622">
<ele>162</ele>
<time>2017-12-17T11:41:41Z</time>
</trkpt>
<trkpt lat="53.5964852" lon="17.8165923">
<ele>164</ele>
<time>2017-12-17T11:41:47Z</time>
</trkpt>
<trkpt lat="53.5971884" lon="17.8159895">
<ele>167</ele>
<time>2017-12-17T11:41:53Z</time>
</trkpt>
<trkpt lat="53.5978730" lon="17.8153672">
<ele>169</ele>
<time>2017-12-17T11:41:59Z</time>
</trkpt>
<trkpt lat="53.5985120" lon="17.8145614">
<ele>172</ele>
<time>2017-12-17T11:42:05Z</time>
</trkpt>
<trkpt lat="53.5991788" lon="17.8136799">
<ele>172</ele>
<time>2017-12-17T11:42:11Z</time>
</trkpt>
<trkpt lat="53.5999266" lon="17.8126359">
<ele>171</ele>
<time>2017-12-17T11:42:17Z</time>
</trkpt>
<trkpt lat="53.6007920" lon="17.8114704">
<ele>173</ele>
<time>2017-12-17T11:42:23Z</time>
</trkpt>
<trkpt lat="53.6016787" lon="17.8102798">
<ele>174</ele>
<time>2017-12-17T11:42:29Z</time>
</trkpt>
<trkpt lat="53.6025682" lon="17.8090750">
<ele>176</ele>
<time>2017-12-17T11:42:35Z</time>
</trkpt>
<trkpt lat="53.6033867" lon="17.8079633">
<ele>175</ele>
<time>2017-12-17T11:42:41Z</time>
</trkpt>
<trkpt lat="53.6041197" lon="17.8068358">
<ele>176</ele>
<time>2017-12-17T11:42:47Z</time>
</trkpt>
<trkpt lat="53.6045283" lon="17.8052451">
<ele>175</ele>
<time>2017-12-17T11:42:53Z</time>
</trkpt>
<trkpt lat="53.6048941" lon="17.8035010">
<ele>177</ele>
<time>2017-12-17T11:42:59Z</time>
</trkpt>
<trkpt lat="53.6052816" lon="17.8016047">
<ele>176</ele>
<time>2017-12-17T11:43:05Z</time>
</trkpt>
<trkpt lat="53.6057106" lon="17.7995759">
<ele>175</ele>
<time>2017-12-17T11:43:11Z</time>
</trkpt>
<trkpt lat="53.6061636" lon="17.7974803">
<ele>175</ele>
<time>2017-12-17T11:43:17Z</time>
</trkpt>
<trkpt lat="53.6067575" lon="17.7954509">
<ele>175</ele>
<time>2017-12-17T11:43:23Z</time>
</trkpt>
<trkpt lat="53.6074256" lon="17.7934104">
<ele>173</ele>
<time>2017-12-17T11:43:29Z</time>
</trkpt>
<trkpt lat="53.6080718" lon="17.7914054">
<ele>171</ele>
<time>2017-12-17T11:43:35Z</time>
</trkpt>
<trkpt lat="53.6087429" lon="17.7893643">
<ele>169</ele>
<time>2017-12-17T11:43:41Z</time>
</trkpt>
<trkpt lat="53.6094138" lon="17.7873152">
<ele>170</ele>
<time>2017-12-17T11:43:47Z</time>
</trkpt>
<trkpt lat="53.6100664" lon="17.7853335">
<ele>170</ele>
<time>2017-12-17T11:43:53Z</time>
</trkpt>
<trkpt lat="53.6106565" lon="17.7835358">
<ele>169</ele>
<time>2017-12-17T11:43:59Z</time>
</trkpt>
<trkpt lat="53.6111791" lon="17.7819643">
<ele>170</ele>
<time>2017-12-17T11:44:05Z</time>
</trkpt>
<trkpt lat="53.6116527" lon="17.7804890">
<ele>169</ele>
<time>2017-12-17T11:44:11Z</time>
</trkpt>
<trkpt lat="53.6121225" lon="17.7790395">
<ele>170</ele>
<time>2017-12-17T11:44:17Z</time>
</trkpt>
<trkpt lat="53.6137" lon="17.7749">
<ele>164</ele>
<time>2017-12-17T11:44:35Z</time>
</trkpt>
<trkpt lat="53.6143" lon="17.7737">
<ele>162</ele>
<time>2017-12-17T11:44:41Z</time>
</trkpt>
<trkpt lat="53.6149" lon="17.7726">
<ele>161</ele>
<time>2017-12-17T11:44:47Z</time>
</trkpt>
<trkpt lat="53.6157" lon="17.7721">
<ele>163</ele>
<time>2017-12-17T11:44:53Z</time>
</trkpt>
<trkpt lat="53.6165422" lon="17.7715228">
<ele>162</ele>
<time>2017-12-17T11:44:59Z</time>
</trkpt>
<trkpt lat="53.6174320" lon="17.7709441">
<ele>162</ele>
<time>2017-12-17T11:45:05Z</time>
</trkpt>
<trkpt lat="53.6183434" lon="17.7703454">
<ele>160</ele>
<time>2017-12-17T11:45:11Z</time>
</trkpt>
<trkpt lat="53.6192661" lon="17.7697748">
<ele>157</ele>
<time>2017-12-17T11:45:17Z</time>
</trkpt>
<trkpt lat="53.6201790" lon="17.7691790">
<ele>156</ele>
<time>2017-12-17T11:45:23Z</time>
</trkpt>
<trkpt lat="53.623" lon="17.7674">
<ele>159</ele>
<time>2017-12-17T11:45:41Z</time>
</trkpt>
<trkpt lat="53.624" lon="17.7667">
<ele>161</ele>
<time>2017-12-17T11:45:47Z</time>
</trkpt>
<trkpt lat="53.6248" lon="17.7655">
<ele>160</ele>
<time>2017-12-17T11:45:53Z</time>
</trkpt>
<trkpt lat="53.6254" lon="17.7638">
<ele>163</ele>
<time>2017-12-17T11:45:59Z</time>
</trkpt>
<trkpt lat="53.6260963" lon="17.7621494">
<ele>167</ele>
<time>2017-12-17T11:46:05Z</time>
</trkpt>
<trkpt lat="53.6267284" lon="17.7604639">
<ele>167</ele>
<time>2017-12-17T11:46:11Z</time>
</trkpt>
<trkpt lat="53.6274157" lon="17.7587078">
<ele>167</ele>
<time>2017-12-17T11:46:17Z</time>
</trkpt>
<trkpt lat="53.6281489" lon="17.7568934">
<ele>166</ele>
<time>2017-12-17T11:46:23Z</time>
</trkpt>
<trkpt lat="53.6289046" lon="17.7550317">
<ele>165</ele>
<time>2017-12-17T11:46:29Z</time>
</trkpt>
<trkpt lat="53.6296710" lon="17.7531210">
<ele>162</ele>
<time>2017-12-17T11:46:35Z</time>
</trkpt>
<trkpt lat="53.6304374" lon="17.7512333">
<ele>161</ele>
<time>2017-12-17T11:46:41Z</time>
</trkpt>
<trkpt lat="53.6312103" lon="17.7493201">
<ele>161</ele>
<time>2017-12-17T11:46:47Z</time>
</trkpt>
<trkpt lat="53.6319797" lon="17.7473906">
<ele>160</ele>
<time>2017-12-17T11:46:53Z</time>
</trkpt>
<trkpt lat="53.6327520" lon="17.7454787">
<ele>160</ele>
<time>2017-12-17T11:46:59Z</time>
</trkpt>
<trkpt lat="53.6351" lon="17.7397">
<ele>160</ele>
<time>2017-12-17T11:47:17Z</time>
</trkpt>
<trkpt lat="53.6358" lon="17.7378">
<ele>159</ele>
<time>2017-12-17T11:47:23Z</time>
</trkpt>
<trkpt lat="53.6365" lon="17.7358">
<ele>157</ele>
<time>2017-12-17T11:47:29Z</time>
</trkpt>
<trkpt lat="53.6372430" lon="17.7338916">
<ele>156</ele>
<time>2017-12-17T11:47:35Z</time>
</trkpt>
<trkpt lat="53.6394" lon="17.7282">
<ele>150</ele>
<time>2017-12-17T11:47:53Z</time>
</trkpt>
<trkpt lat="53.64" lon="17.7263">
<ele>147</ele>
<time>2017-12-17T11:47:59Z</time>
</trkpt>
<trkpt lat="53.6403" lon="17.7243">
<ele>145</ele>
<time>2017-12-17T11:48:05Z</time>
</trkpt>
<trkpt lat="53.6406433" lon="17.7224262">
<ele>145</ele>
<time>2017-12-17T11:48:11Z</time>
</trkpt>
<trkpt lat="53.6426" lon="17.7172">
<ele>156</ele>
<time>2017-12-17T11:48:29Z</time>
</trkpt>
<trkpt lat="53.6434" lon="17.7156">
<ele>157</ele>
<time>2017-12-17T11:48:35Z</time>
</trkpt>
<trkpt lat="53.6442" lon="17.7141">
<ele>156</ele>
<time>2017-12-17T11:48:41Z</time>
</trkpt>
<trkpt lat="53.6450008" lon="17.7125615">
<ele>158</ele>
<time>2017-12-17T11:48:47Z</time>
</trkpt>
<trkpt lat="53.6455817" lon="17.7110990">
<ele>159</ele>
<time>2017-12-17T11:48:53Z</time>
</trkpt>
<trkpt lat="53.6460978" lon="17.7098590">
<ele>158</ele>
<time>2017-12-17T11:48:59Z</time>
</trkpt>
<trkpt lat="53.6466073" lon="17.7086341">
<ele>159</ele>
<time>2017-12-17T11:49:05Z</time>
</trkpt>
<trkpt lat="53.6483" lon="17.7053">
<ele>158</ele>
<time>2017-12-17T11:49:23Z</time>
</trkpt>
<trkpt lat="53.6488" lon="17.7041">
<ele>157</ele>
<time>2017-12-17T11:49:29Z</time>
</trkpt>
<trkpt lat="53.6493" lon="17.7028">
<ele>157</ele>
<time>2017-12-17T11:49:35Z</time>
</trkpt>
<trkpt lat="53.6497199" lon="17.7014948">
<ele>159</ele>
<time>2017-12-17T11:49:41Z</time>
</trkpt>
<trkpt lat="53.6502272" lon="17.7002817">
<ele>161</ele>
<time>2017-12-17T11:49:47Z</time>
</trkpt>
<trkpt lat="53.6507337" lon="17.6991777">
<ele>162</ele>
<time>2017-12-17T11:49:53Z</time>
</trkpt>
<trkpt lat="53.6512553" lon="17.6981089">
<ele>163</ele>
<time>2017-12-17T11:49:59Z</time>
</trkpt>
<trkpt lat="53.6518348" lon="17.6970864">
<ele>163</ele>
<time>2017-12-17T11:50:05Z</time>
</trkpt>
<trkpt lat="53.6524336" lon="17.6960618">
<ele>164</ele>
<time>2017-12-17T11:50:11Z</time>
</trkpt>
<trkpt lat="53.6530377" lon="17.6950102">
<ele>164</ele>
<time>2017-12-17T11:50:17Z</time>
</trkpt>
<trkpt lat="53.6536532" lon="17.6939346">
<ele>166</ele>
<time>2017-12-17T11:50:23Z</time>
</trkpt>
<trkpt lat="53.6542394" lon="17.6929360">
<ele>168</ele>
<time>2017-12-17T11:50:29Z</time>
</trkpt>
<trkpt lat="53.6548101" lon="17.6919477">
<ele>168</ele>
<time>2017-12-17T11:50:35Z</time>
</trkpt>
<trkpt lat="53.6566" lon="17.6889">
<ele>171</ele>
<time>2017-12-17T11:50:53Z</time>
</trkpt>
<trkpt lat="53.6572" lon="17.6877">
<ele>172</ele>
<time>2017-12-17T11:50:59Z</time>
</trkpt>
<trkpt lat="53.658" lon="17.6865">
<ele>173</ele>
<time>2017-12-17T11:51:05Z</time>
</trkpt>
<trkpt lat="53.6587" lon="17.6853">
<ele>174</ele>
<time>2017-12-17T11:51:11Z</time>
</trkpt>
<trkpt lat="53.6594163" lon="17.6840050">
<ele>175</ele>
<time>2017-12-17T11:51:17Z</time>
</trkpt>
<trkpt lat="53.6601720" lon="17.6826883">
<ele>177</ele>
<time>2017-12-17T11:51:23Z</time>
</trkpt>
<trkpt lat="53.6607500" lon="17.6811673">
<ele>177</ele>
<time>2017-12-17T11:51:29Z</time>
</trkpt>
<trkpt lat="53.662" lon="17.6765">
<ele>179</ele>
<time>2017-12-17T11:51:47Z</time>
</trkpt>
<trkpt lat="53.6624" lon="17.6749">
<ele>181</ele>
<time>2017-12-17T11:51:53Z</time>
</trkpt>
<trkpt lat="53.6627" lon="17.6735">
<ele>181</ele>
<time>2017-12-17T11:51:59Z</time>
</trkpt>
<trkpt lat="53.6631260" lon="17.6719562">
<ele>179</ele>
<time>2017-12-17T11:52:05Z</time>
</trkpt>
<trkpt lat="53.6636897" lon="17.6704261">
<ele>177</ele>
<time>2017-12-17T11:52:11Z</time>
</trkpt>
<trkpt lat="53.6644502" lon="17.6690138">
<ele>177</ele>
<time>2017-12-17T11:52:17Z</time>
</trkpt>
<trkpt lat="53.6652143" lon="17.6675535">
<ele>178</ele>
<time>2017-12-17T11:52:23Z</time>
</trkpt>
<trkpt lat="53.6674" lon="17.6633">
<ele>180</ele>
<time>2017-12-17T11:52:41Z</time>
</trkpt>
<trkpt lat="53.6681" lon="17.6622">
<ele>180</ele>
<time>2017-12-17T11:52:47Z</time>
</trkpt>
<trkpt lat="53.6688" lon="17.6609">
<ele>179</ele>
<time>2017-12-17T11:52:53Z</time>
</trkpt>
<trkpt lat="53.6694" lon="17.6597">
<ele>180</ele>
<time>2017-12-17T11:52:59Z</time>
</trkpt>
<trkpt lat="53.6700791" lon="17.6583819">
<ele>181</ele>
<time>2017-12-17T11:53:05Z</time>
</trkpt>
<trkpt lat="53.6708234" lon="17.6569097">
<ele>182</ele>
<time>2017-12-17T11:53:11Z</time>
</trkpt>
<trkpt lat="53.6836579" lon="17.6348571">
<ele>195</ele>
<time>2017-12-17T11:54:47Z</time>
</trkpt>
<trkpt lat="53.6842941" lon="17.6334992">
<ele>196</ele>
<time>2017-12-17T11:54:53Z</time>
</trkpt>
<trkpt lat="53.6851372" lon="17.6324388">
<ele>196</ele>
<time>2017-12-17T11:54:59Z</time>
</trkpt>
<trkpt lat="53.6858836" lon="17.6313258">
<ele>197</ele>
<time>2017-12-17T11:55:05Z</time>
</trkpt>
<trkpt lat="53.6865318" lon="17.6299663">
<ele>200</ele>
<time>2017-12-17T11:55:11Z</time>
</trkpt>
<trkpt lat="53.6870723" lon="17.6284075">
<ele>201</ele>
<time>2017-12-17T11:55:17Z</time>
</trkpt>
<trkpt lat="53.6875569" lon="17.6267614">
<ele>203</ele>
<time>2017-12-17T11:55:23Z</time>
</trkpt>
<trkpt lat="53.6880236" lon="17.6250571">
<ele>205</ele>
<time>2017-12-17T11:55:29Z</time>
</trkpt>
<trkpt lat="53.6884402" lon="17.6233334">
<ele>206</ele>
<time>2017-12-17T11:55:35Z</time>
</trkpt>
<trkpt lat="53.6888712" lon="17.6215930">
<ele>207</ele>
<time>2017-12-17T11:55:41Z</time>
</trkpt>
<trkpt lat="53.6892536" lon="17.6200113">
<ele>210</ele>
<time>2017-12-17T11:55:47Z</time>
</trkpt>
<trkpt lat="53.6895391" lon="17.6188490">
<ele>210</ele>
<time>2017-12-17T11:55:53Z</time>
</trkpt>
<trkpt lat="53.6897805" lon="17.6178912">
<ele>210</ele>
<time>2017-12-17T11:55:59Z</time>
</trkpt>
<trkpt lat="53.6901347" lon="17.6175922">
<ele>207</ele>
<time>2017-12-17T11:56:05Z</time>
</trkpt>
<trkpt lat="53.6905144" lon="17.6179214">
<ele>202</ele>
<time>2017-12-17T11:56:11Z</time>
</trkpt>
<trkpt lat="53.6908185" lon="17.6183975">
<ele>201</ele>
<time>2017-12-17T11:56:17Z</time>
</trkpt>
<trkpt lat="53.6907170" lon="17.6191853">
<ele>202</ele>
<time>2017-12-17T11:56:23Z</time>
</trkpt>
<trkpt lat="53.6902057" lon="17.6193503">
<ele>199</ele>
<time>2017-12-17T11:56:29Z</time>
</trkpt>
<trkpt lat="53.6896953" lon="17.6187362">
<ele>197</ele>
<time>2017-12-17T11:56:35Z</time>
</trkpt>
<trkpt lat="53.6890783" lon="17.6178967">
<ele>197</ele>
<time>2017-12-17T11:56:41Z</time>
</trkpt>
<trkpt lat="53.6883206" lon="17.6166656">
<ele>200</ele>
<time>2017-12-17T11:56:47Z</time>
</trkpt>
<trkpt lat="53.6876343" lon="17.6152516">
<ele>201</ele>
<time>2017-12-17T11:56:53Z</time>
</trkpt>
<trkpt lat="53.6870179" lon="17.6135692">
<ele>203</ele>
<time>2017-12-17T11:56:59Z</time>
</trkpt>
<trkpt lat="53.6863548" lon="17.6117286">
<ele>204</ele>
<time>2017-12-17T11:57:05Z</time>
</trkpt>
<trkpt lat="53.6856565" lon="17.6098059">
<ele>206</ele>
<time>2017-12-17T11:57:11Z</time>
</trkpt>
<trkpt lat="53.6849475" lon="17.6078054">
<ele>206</ele>
<time>2017-12-17T11:57:17Z</time>
</trkpt>
<trkpt lat="53.6842256" lon="17.6057828">
<ele>206</ele>
<time>2017-12-17T11:57:23Z</time>
</trkpt>
<trkpt lat="53.6835048" lon="17.6037700">
<ele>205</ele>
<time>2017-12-17T11:57:29Z</time>
</trkpt>
<trkpt lat="53.6827924" lon="17.6017811">
<ele>204</ele>
<time>2017-12-17T11:57:35Z</time>
</trkpt>
<trkpt lat="53.6820907" lon="17.5998112">
<ele>203</ele>
<time>2017-12-17T11:57:41Z</time>
</trkpt>
<trkpt lat="53.6813999" lon="17.5978310">
<ele>202</ele>
<time>2017-12-17T11:57:47Z</time>
</trkpt>
<trkpt lat="53.6807429" lon="17.5958267">
<ele>201</ele>
<time>2017-12-17T11:57:53Z</time>
</trkpt>
<trkpt lat="53.6801642" lon="17.5937565">
<ele>200</ele>
<time>2017-12-17T11:57:59Z</time>
</trkpt>
<trkpt lat="53.6796900" lon="17.5916044">
<ele>200</ele>
<time>2017-12-17T11:58:05Z</time>
</trkpt>
<trkpt lat="53.6793602" lon="17.5894003">
<ele>199</ele>
<time>2017-12-17T11:58:11Z</time>
</trkpt>
<trkpt lat="53.6791092" lon="17.5871917">
<ele>198</ele>
<time>2017-12-17T11:58:17Z</time>
</trkpt>
<trkpt lat="53.6789677" lon="17.5849270">
<ele>197</ele>
<time>2017-12-17T11:58:23Z</time>
</trkpt>
<trkpt lat="53.6789465" lon="17.5826617">
<ele>197</ele>
<time>2017-12-17T11:58:29Z</time>
</trkpt>
<trkpt lat="53.6790268" lon="17.5804194">
<ele>196</ele>
<time>2017-12-17T11:58:35Z</time>
</trkpt>
<trkpt lat="53.6792118" lon="17.5781547">
<ele>196</ele>
<time>2017-12-17T11:58:41Z</time>
</trkpt>
<trkpt lat="53.6795142" lon="17.5759345">
<ele>194</ele>
<time>2017-12-17T11:58:47Z</time>
</trkpt>
<trkpt lat="53.6798293" lon="17.5737330">
<ele>194</ele>
<time>2017-12-17T11:58:53Z</time>
</trkpt>
<trkpt lat="53.6800975" lon="17.5715501">
<ele>193</ele>
<time>2017-12-17T11:58:59Z</time>
</trkpt>
<trkpt lat="53.6804223" lon="17.5694163">
<ele>191</ele>
<time>2017-12-17T11:59:05Z</time>
</trkpt>
<trkpt lat="53.6806313" lon="17.5672260">
<ele>190</ele>
<time>2017-12-17T11:59:11Z</time>
</trkpt>
<trkpt lat="53.6806774" lon="17.5649491">
<ele>189</ele>
<time>2017-12-17T11:59:17Z</time>
</trkpt>
<trkpt lat="53.6806013" lon="17.5626609">
<ele>186</ele>
<time>2017-12-17T11:59:23Z</time>
</trkpt>
<trkpt lat="53.6804613" lon="17.5603531">
<ele>185</ele>
<time>2017-12-17T11:59:29Z</time>
</trkpt>
<trkpt lat="53.6803566" lon="17.5580379">
<ele>188</ele>
<time>2017-12-17T11:59:35Z</time>
</trkpt>
<trkpt lat="53.6802677" lon="17.5557555">
<ele>190</ele>
<time>2017-12-17T11:59:41Z</time>
</trkpt>
<trkpt lat="53.6802677" lon="17.5534663">
<ele>192</ele>
<time>2017-12-17T11:59:47Z</time>
</trkpt>
<trkpt lat="53.6804137" lon="17.5512087">
<ele>194</ele>
<time>2017-12-17T11:59:53Z</time>
</trkpt>
<trkpt lat="53.6806650" lon="17.5489885">
<ele>197</ele>
<time>2017-12-17T11:59:59Z</time>
</trkpt>
<trkpt lat="53.6809331" lon="17.5467701">
<ele>197</ele>
<time>2017-12-17T12:00:05Z</time>
</trkpt>
<trkpt lat="53.6812011" lon="17.5445243">
<ele>199</ele>
<time>2017-12-17T12:00:11Z</time>
</trkpt>
<trkpt lat="53.6814715" lon="17.5422564">
<ele>200</ele>
<time>2017-12-17T12:00:17Z</time>
</trkpt>
<trkpt lat="53.6817540" lon="17.5400053">
<ele>201</ele>
<time>2017-12-17T12:00:23Z</time>
</trkpt>
<trkpt lat="53.6820468" lon="17.5377126">
<ele>199</ele>
<time>2017-12-17T12:00:29Z</time>
</trkpt>
<trkpt lat="53.6823369" lon="17.5353572">
<ele>198</ele>
<time>2017-12-17T12:00:35Z</time>
</trkpt>
<trkpt lat="53.6826285" lon="17.5330016">
<ele>196</ele>
<time>2017-12-17T12:00:41Z</time>
</trkpt>
<trkpt lat="53.6828967" lon="17.5306018">
<ele>194</ele>
<time>2017-12-17T12:00:47Z</time>
</trkpt>
<trkpt lat="53.6831008" lon="17.5281661">
<ele>194</ele>
<time>2017-12-17T12:00:53Z</time>
</trkpt>
<trkpt lat="53.6832784" lon="17.5257098">
<ele>195</ele>
<time>2017-12-17T12:00:59Z</time>
</trkpt>
<trkpt lat="53.6834118" lon="17.5232673">
<ele>196</ele>
<time>2017-12-17T12:01:05Z</time>
</trkpt>
<trkpt lat="53.6835361" lon="17.5208280">
<ele>196</ele>
<time>2017-12-17T12:01:11Z</time>
</trkpt>
<trkpt lat="53.6836495" lon="17.5183848">
<ele>198</ele>
<time>2017-12-17T12:01:17Z</time>
</trkpt>
<trkpt lat="53.6837706" lon="17.5159453">
<ele>199</ele>
<time>2017-12-17T12:01:23Z</time>
</trkpt>
<trkpt lat="53.6838853" lon="17.5134953">
<ele>199</ele>
<time>2017-12-17T12:01:29Z</time>
</trkpt>
<trkpt lat="53.6840079" lon="17.5110404">
<ele>200</ele>
<time>2017-12-17T12:01:35Z</time>
</trkpt>
<trkpt lat="53.6841410" lon="17.5085897">
<ele>201</ele>
<time>2017-12-17T12:01:41Z</time>
</trkpt>
<trkpt lat="53.6842635" lon="17.5061901">
<ele>202</ele>
<time>2017-12-17T12:01:47Z</time>
</trkpt>
<trkpt lat="53.6843909" lon="17.5037448">
<ele>200</ele>
<time>2017-12-17T12:01:53Z</time>
</trkpt>
<trkpt lat="53.6845062" lon="17.5013207">
<ele>200</ele>
<time>2017-12-17T12:01:59Z</time>
</trkpt>
<trkpt lat="53.6846279" lon="17.4988942">
<ele>198</ele>
<time>2017-12-17T12:02:05Z</time>
</trkpt>
<trkpt lat="53.6847514" lon="17.4964787">
<ele>198</ele>
<time>2017-12-17T12:02:11Z</time>
</trkpt>
<trkpt lat="53.6849168" lon="17.4941032">
<ele>198</ele>
<time>2017-12-17T12:02:17Z</time>
</trkpt>
<trkpt lat="53.6851445" lon="17.4917378">
<ele>199</ele>
<time>2017-12-17T12:02:23Z</time>
</trkpt>
<trkpt lat="53.6854548" lon="17.4893687">
<ele>201</ele>
<time>2017-12-17T12:02:29Z</time>
</trkpt>
<trkpt lat="53.6858377" lon="17.4870935">
<ele>202</ele>
<time>2017-12-17T12:02:35Z</time>
</trkpt>
<trkpt lat="53.6863036" lon="17.4849010">
<ele>204</ele>
<time>2017-12-17T12:02:41Z</time>
</trkpt>
<trkpt lat="53.6879" lon="17.4787">
<ele>205</ele>
<time>2017-12-17T12:02:59Z</time>
</trkpt>
<trkpt lat="53.6883" lon="17.477">
<ele>205</ele>
<time>2017-12-17T12:03:05Z</time>
</trkpt>
<trkpt lat="53.6885" lon="17.4756">
<ele>205</ele>
<time>2017-12-17T12:03:11Z</time>
</trkpt>
<trkpt lat="53.6886" lon="17.4748">
<ele>206</ele>
<time>2017-12-17T12:03:17Z</time>
</trkpt>
<trkpt lat="53.6886523" lon="17.4746418">
<ele>206</ele>
<time>2017-12-17T12:03:23Z</time>
</trkpt>
<trkpt lat="53.6886523" lon="17.4746418">
<ele>206</ele>
<time>2017-12-17T12:03:29Z</time>
</trkpt>
<trkpt lat="53.6886539" lon="17.4746345">
<ele>206</ele>
<time>2017-12-17T12:03:35Z</time>
</trkpt>
<trkpt lat="53.6887104" lon="17.4741536">
<ele>206</ele>
<time>2017-12-17T12:03:41Z</time>
</trkpt>
<trkpt lat="53.6887778" lon="17.4732567">
<ele>206</ele>
<time>2017-12-17T12:03:47Z</time>
</trkpt>
<trkpt lat="53.6888520" lon="17.4720272">
<ele>206</ele>
<time>2017-12-17T12:03:53Z</time>
</trkpt>
<trkpt lat="53.6888715" lon="17.4705874">
<ele>206</ele>
<time>2017-12-17T12:03:59Z</time>
</trkpt>
<trkpt lat="53.6888486" lon="17.4689383">
<ele>205</ele>
<time>2017-12-17T12:04:05Z</time>
</trkpt>
<trkpt lat="53.6887262" lon="17.4671813">
<ele>204</ele>
<time>2017-12-17T12:04:11Z</time>
</trkpt>
<trkpt lat="53.6885409" lon="17.4652765">
<ele>205</ele>
<time>2017-12-17T12:04:17Z</time>
</trkpt>
<trkpt lat="53.6883310" lon="17.4632058">
<ele>206</ele>
<time>2017-12-17T12:04:23Z</time>
</trkpt>
<trkpt lat="53.6881111" lon="17.4609882">
<ele>206</ele>
<time>2017-12-17T12:04:29Z</time>
</trkpt>
<trkpt lat="53.6878999" lon="17.4586651">
<ele>207</ele>
<time>2017-12-17T12:04:35Z</time>
</trkpt>
<trkpt lat="53.6876566" lon="17.4563021">
<ele>210</ele>
<time>2017-12-17T12:04:41Z</time>
</trkpt>
<trkpt lat="53.6874215" lon="17.4539867">
<ele>206</ele>
<time>2017-12-17T12:04:47Z</time>
</trkpt>
<trkpt lat="53.6872028" lon="17.4516720">
<ele>208</ele>
<time>2017-12-17T12:04:53Z</time>
</trkpt>
<trkpt lat="53.6869963" lon="17.4494863">
<ele>210</ele>
<time>2017-12-17T12:04:59Z</time>
</trkpt>
<trkpt lat="53.6867785" lon="17.4472944">
<ele>206</ele>
<time>2017-12-17T12:05:05Z</time>
</trkpt>
<trkpt lat="53.6865435" lon="17.4451012">
<ele>206</ele>
<time>2017-12-17T12:05:11Z</time>
</trkpt>
<trkpt lat="53.6863377" lon="17.4429499">
<ele>206</ele>
<time>2017-12-17T12:05:17Z</time>
</trkpt>
<trkpt lat="53.6861352" lon="17.4407988">
<ele>203</ele>
<time>2017-12-17T12:05:23Z</time>
</trkpt>
<trkpt lat="53.6859350" lon="17.4386765">
<ele>199</ele>
<time>2017-12-17T12:05:29Z</time>
</trkpt>
<trkpt lat="53.6857247" lon="17.4366182">
<ele>199</ele>
<time>2017-12-17T12:05:35Z</time>
</trkpt>
<trkpt lat="53.6855416" lon="17.4347362">
<ele>199</ele>
<time>2017-12-17T12:05:41Z</time>
</trkpt>
<trkpt lat="53.6853741" lon="17.4330414">
<ele>199</ele>
<time>2017-12-17T12:05:47Z</time>
</trkpt>
<trkpt lat="53.6852291" lon="17.4315130">
<ele>200</ele>
<time>2017-12-17T12:05:53Z</time>
</trkpt>
<trkpt lat="53.6851011" lon="17.4302074">
<ele>201</ele>
<time>2017-12-17T12:05:59Z</time>
</trkpt>
<trkpt lat="53.6849942" lon="17.4290295">
<ele>202</ele>
<time>2017-12-17T12:06:05Z</time>
</trkpt>
<trkpt lat="53.6848959" lon="17.4279650">
<ele>202</ele>
<time>2017-12-17T12:06:11Z</time>
</trkpt>
<trkpt lat="53.6847888" lon="17.4268803">
<ele>202</ele>
<time>2017-12-17T12:06:17Z</time>
</trkpt>
<trkpt lat="53.6846499" lon="17.4255621">
<ele>202</ele>
<time>2017-12-17T12:06:23Z</time>
</trkpt>
<trkpt lat="53.6844156" lon="17.4241399">
<ele>204</ele>
<time>2017-12-17T12:06:29Z</time>
</trkpt>
<trkpt lat="53.6841045" lon="17.4225674">
<ele>205</ele>
<time>2017-12-17T12:06:35Z</time>
</trkpt>
<trkpt lat="53.6837335" lon="17.4207848">
<ele>206</ele>
<time>2017-12-17T12:06:41Z</time>
</trkpt>
<trkpt lat="53.6833284" lon="17.4188385">
<ele>210</ele>
<time>2017-12-17T12:06:47Z</time>
</trkpt>
<trkpt lat="53.6829101" lon="17.4168040">
<ele>209</ele>
<time>2017-12-17T12:06:53Z</time>
</trkpt>
<trkpt lat="53.6824859" lon="17.4147029">
<ele>208</ele>
<time>2017-12-17T12:06:59Z</time>
</trkpt>
<trkpt lat="53.6820366" lon="17.4125729">
<ele>205</ele>
<time>2017-12-17T12:07:05Z</time>
</trkpt>
<trkpt lat="53.6815822" lon="17.4103869">
<ele>202</ele>
<time>2017-12-17T12:07:11Z</time>
</trkpt>
<trkpt lat="53.6807565" lon="17.4064142">
<ele>202</ele>
<time>2017-12-17T12:07:23Z</time>
</trkpt>
<trkpt lat="53.6811465" lon="17.4083072">
<ele>201</ele>
<time>2017-12-17T12:07:17Z</time>
</trkpt>
<trkpt lat="53.6803755" lon="17.4046759">
<ele>202</ele>
<time>2017-12-17T12:07:29Z</time>
</trkpt>
<trkpt lat="53.6800263" lon="17.4029214">
<ele>203</ele>
<time>2017-12-17T12:07:35Z</time>
</trkpt>
<trkpt lat="53.6796850" lon="17.4011527">
<ele>198</ele>
<time>2017-12-17T12:07:41Z</time>
</trkpt>
<trkpt lat="53.6793107" lon="17.3992566">
<ele>195</ele>
<time>2017-12-17T12:07:47Z</time>
</trkpt>
<trkpt lat="53.6789292" lon="17.3973301">
<ele>193</ele>
<time>2017-12-17T12:07:53Z</time>
</trkpt>
<trkpt lat="53.6785273" lon="17.3953909">
<ele>192</ele>
<time>2017-12-17T12:07:59Z</time>
</trkpt>
<trkpt lat="53.6781350" lon="17.3934511">
<ele>194</ele>
<time>2017-12-17T12:08:05Z</time>
</trkpt>
<trkpt lat="53.6777655" lon="17.3915821">
<ele>197</ele>
<time>2017-12-17T12:08:11Z</time>
</trkpt>
<trkpt lat="53.6774256" lon="17.3898401">
<ele>200</ele>
<time>2017-12-17T12:08:17Z</time>
</trkpt>
<trkpt lat="53.6770972" lon="17.3882127">
<ele>201</ele>
<time>2017-12-17T12:08:23Z</time>
</trkpt>
<trkpt lat="53.6767656" lon="17.3865626">
<ele>200</ele>
<time>2017-12-17T12:08:29Z</time>
</trkpt>
<trkpt lat="53.6764445" lon="17.3850206">
<ele>199</ele>
<time>2017-12-17T12:08:35Z</time>
</trkpt>
<trkpt lat="53.6761550" lon="17.3836412">
<ele>201</ele>
<time>2017-12-17T12:08:41Z</time>
</trkpt>
<trkpt lat="53.6758977" lon="17.3823024">
<ele>201</ele>
<time>2017-12-17T12:08:47Z</time>
</trkpt>
<trkpt lat="53.6756315" lon="17.3809765">
<ele>200</ele>
<time>2017-12-17T12:08:53Z</time>
</trkpt>
<trkpt lat="53.6753750" lon="17.3796857">
<ele>200</ele>
<time>2017-12-17T12:08:59Z</time>
</trkpt>
<trkpt lat="53.6751250" lon="17.3784896">
<ele>201</ele>
<time>2017-12-17T12:09:05Z</time>
</trkpt>
<trkpt lat="53.6748768" lon="17.3772988">
<ele>199</ele>
<time>2017-12-17T12:09:11Z</time>
</trkpt>
<trkpt lat="53.6746323" lon="17.3760794">
<ele>200</ele>
<time>2017-12-17T12:09:17Z</time>
</trkpt>
<trkpt lat="53.6743873" lon="17.3749920">
<ele>199</ele>
<time>2017-12-17T12:09:23Z</time>
</trkpt>
<trkpt lat="53.6741523" lon="17.3737881">
<ele>198</ele>
<time>2017-12-17T12:09:29Z</time>
</trkpt>
<trkpt lat="53.6739265" lon="17.3726404">
<ele>198</ele>
<time>2017-12-17T12:09:35Z</time>
</trkpt>
<trkpt lat="53.6737102" lon="17.3715839">
<ele>198</ele>
<time>2017-12-17T12:09:41Z</time>
</trkpt>
<trkpt lat="53.6734970" lon="17.3705197">
<ele>198</ele>
<time>2017-12-17T12:09:47Z</time>
</trkpt>
<trkpt lat="53.6733020" lon="17.3695353">
<ele>196</ele>
<time>2017-12-17T12:09:53Z</time>
</trkpt>
<trkpt lat="53.6732207" lon="17.3686620">
<ele>194</ele>
<time>2017-12-17T12:09:59Z</time>
</trkpt>
<trkpt lat="53.6732346" lon="17.3683016">
<ele>193</ele>
<time>2017-12-17T12:10:05Z</time>
</trkpt>
<trkpt lat="53.6732650" lon="17.3681969">
<ele>196</ele>
<time>2017-12-17T12:10:11Z</time>
</trkpt>
<trkpt lat="53.6732801" lon="17.3678348">
<ele>197</ele>
<time>2017-12-17T12:10:17Z</time>
</trkpt>
<trkpt lat="53.6732128" lon="17.3673056">
<ele>197</ele>
<time>2017-12-17T12:10:23Z</time>
</trkpt>
<trkpt lat="53.6732249" lon="17.3665122">
<ele>196</ele>
<time>2017-12-17T12:10:29Z</time>
</trkpt>
<trkpt lat="53.6732709" lon="17.3654455">
<ele>197</ele>
<time>2017-12-17T12:10:35Z</time>
</trkpt>
<trkpt lat="53.6733164" lon="17.3642850">
<ele>197</ele>
<time>2017-12-17T12:10:41Z</time>
</trkpt>
<trkpt lat="53.6733760" lon="17.3630831">
<ele>197</ele>
<time>2017-12-17T12:10:47Z</time>
</trkpt>
<trkpt lat="53.6733593" lon="17.3618235">
<ele>198</ele>
<time>2017-12-17T12:10:53Z</time>
</trkpt>
<trkpt lat="53.6731969" lon="17.3606041">
<ele>197</ele>
<time>2017-12-17T12:10:59Z</time>
</trkpt>
<trkpt lat="53.6729325" lon="17.3594497">
<ele>197</ele>
<time>2017-12-17T12:11:05Z</time>
</trkpt>
<trkpt lat="53.6725186" lon="17.3583171">
<ele>199</ele>
<time>2017-12-17T12:11:11Z</time>
</trkpt>
<trkpt lat="53.6719980" lon="17.3572866">
<ele>199</ele>
<time>2017-12-17T12:11:17Z</time>
</trkpt>
<trkpt lat="53.6714710" lon="17.3562744">
<ele>200</ele>
<time>2017-12-17T12:11:23Z</time>
</trkpt>
<trkpt lat="53.6709367" lon="17.3552310">
<ele>202</ele>
<time>2017-12-17T12:11:29Z</time>
</trkpt>
<trkpt lat="53.6704386" lon="17.3542071">
<ele>203</ele>
<time>2017-12-17T12:11:35Z</time>
</trkpt>
<trkpt lat="53.6700984" lon="17.3532406">
<ele>204</ele>
<time>2017-12-17T12:11:41Z</time>
</trkpt>
<trkpt lat="53.6698722" lon="17.3524584">
<ele>205</ele>
<time>2017-12-17T12:11:47Z</time>
</trkpt>
<trkpt lat="53.6700230" lon="17.3520507">
<ele>205</ele>
<time>2017-12-17T12:11:53Z</time>
</trkpt>
<trkpt lat="53.6703411" lon="17.3516807">
<ele>204</ele>
<time>2017-12-17T12:11:59Z</time>
</trkpt>
<trkpt lat="53.6706957" lon="17.3511706">
<ele>205</ele>
<time>2017-12-17T12:12:05Z</time>
</trkpt>
<trkpt lat="53.6710592" lon="17.3506401">
<ele>205</ele>
<time>2017-12-17T12:12:11Z</time>
</trkpt>
<trkpt lat="53.6714326" lon="17.3500384">
<ele>205</ele>
<time>2017-12-17T12:12:17Z</time>
</trkpt>
<trkpt lat="53.6718803" lon="17.3493964">
<ele>205</ele>
<time>2017-12-17T12:12:23Z</time>
</trkpt>
<trkpt lat="53.6723987" lon="17.3486915">
<ele>205</ele>
<time>2017-12-17T12:12:29Z</time>
</trkpt>
<trkpt lat="53.6729398" lon="17.3479369">
<ele>203</ele>
<time>2017-12-17T12:12:35Z</time>
</trkpt>
<trkpt lat="53.6735309" lon="17.3471782">
<ele>205</ele>
<time>2017-12-17T12:12:41Z</time>
</trkpt>
<trkpt lat="53.6741311" lon="17.3463783">
<ele>205</ele>
<time>2017-12-17T12:12:47Z</time>
</trkpt>
<trkpt lat="53.6747275" lon="17.3455149">
<ele>206</ele>
<time>2017-12-17T12:12:53Z</time>
</trkpt>
<trkpt lat="53.6753254" lon="17.3446636">
<ele>205</ele>
<time>2017-12-17T12:12:59Z</time>
</trkpt>
<trkpt lat="53.6759797" lon="17.3437863">
<ele>203</ele>
<time>2017-12-17T12:13:05Z</time>
</trkpt>
<trkpt lat="53.6766349" lon="17.3428673">
<ele>202</ele>
<time>2017-12-17T12:13:11Z</time>
</trkpt>
<trkpt lat="53.6773018" lon="17.3419454">
<ele>202</ele>
<time>2017-12-17T12:13:17Z</time>
</trkpt>
<trkpt lat="53.6779138" lon="17.3411051">
<ele>201</ele>
<time>2017-12-17T12:13:23Z</time>
</trkpt>
<trkpt lat="53.6782642" lon="17.3406684">
<ele>201</ele>
<time>2017-12-17T12:13:29Z</time>
</trkpt>
<trkpt lat="53.6783466" lon="17.3405491">
<ele>201</ele>
<time>2017-12-17T12:13:35Z</time>
</trkpt>
<trkpt lat="53.6783466" lon="17.3405491">
<ele>201</ele>
<time>2017-12-17T12:13:41Z</time>
</trkpt>
<trkpt lat="53.6783466" lon="17.3405491">
<ele>201</ele>
<time>2017-12-17T12:13:47Z</time>
</trkpt>
<trkpt lat="53.6783466" lon="17.3405491">
<ele>201</ele>
<time>2017-12-17T12:13:53Z</time>
</trkpt>
<trkpt lat="53.6783466" lon="17.3405491">
<ele>201</ele>
<time>2017-12-17T12:13:59Z</time>
</trkpt>
<trkpt lat="53.6783466" lon="17.3405491">
<ele>201</ele>
<time>2017-12-17T12:14:05Z</time>
</trkpt>
<trkpt lat="53.6783466" lon="17.3405491">
<ele>201</ele>
<time>2017-12-17T12:14:11Z</time>
</trkpt>
<trkpt lat="53.6783466" lon="17.3405491">
<ele>201</ele>
<time>2017-12-17T12:14:17Z</time>
</trkpt>
<trkpt lat="53.6783466" lon="17.3405491">
<ele>201</ele>
<time>2017-12-17T12:14:23Z</time>
</trkpt>
<trkpt lat="53.6783466" lon="17.3405491">
<ele>201</ele>
<time>2017-12-17T12:14:29Z</time>
</trkpt>
<trkpt lat="53.6783466" lon="17.3405491">
<ele>201</ele>
<time>2017-12-17T12:14:35Z</time>
</trkpt>
<trkpt lat="53.6783466" lon="17.3405491">
<ele>201</ele>
<time>2017-12-17T12:14:41Z</time>
</trkpt>
<trkpt lat="53.6783466" lon="17.3405491">
<ele>201</ele>
<time>2017-12-17T12:14:47Z</time>
</trkpt>
<trkpt lat="53.6783466" lon="17.3405491">
<ele>201</ele>
<time>2017-12-17T12:14:53Z</time>
</trkpt>
<trkpt lat="53.6783466" lon="17.3405491">
<ele>201</ele>
<time>2017-12-17T12:14:59Z</time>
</trkpt>
<trkpt lat="53.6783466" lon="17.3405491">
<ele>201</ele>
<time>2017-12-17T12:15:05Z</time>
</trkpt>
<trkpt lat="53.6783466" lon="17.3405491">
<ele>201</ele>
<time>2017-12-17T12:15:11Z</time>
</trkpt>
<trkpt lat="53.6783466" lon="17.3405491">
<ele>201</ele>
<time>2017-12-17T12:15:17Z</time>
</trkpt>
<trkpt lat="53.6783466" lon="17.3405491">
<ele>201</ele>
<time>2017-12-17T12:15:23Z</time>
</trkpt>
<trkpt lat="53.6783466" lon="17.3405491">
<ele>201</ele>
<time>2017-12-17T12:15:29Z</time>
</trkpt>
<trkpt lat="53.6783466" lon="17.3405491">
<ele>201</ele>
<time>2017-12-17T12:15:35Z</time>
</trkpt>
<trkpt lat="53.6783757" lon="17.3404795">
<ele>201</ele>
<time>2017-12-17T12:15:41Z</time>
</trkpt>
<trkpt lat="53.6785622" lon="17.3401514">
<ele>201</ele>
<time>2017-12-17T12:15:47Z</time>
</trkpt>
<trkpt lat="53.6789293" lon="17.3396129">
<ele>198</ele>
<time>2017-12-17T12:15:53Z</time>
</trkpt>
<trkpt lat="53.6794601" lon="17.3388683">
<ele>197</ele>
<time>2017-12-17T12:15:59Z</time>
</trkpt>
<trkpt lat="53.6801595" lon="17.3378891">
<ele>194</ele>
<time>2017-12-17T12:16:05Z</time>
</trkpt>
<trkpt lat="53.6809512" lon="17.3367969">
<ele>193</ele>
<time>2017-12-17T12:16:11Z</time>
</trkpt>
<trkpt lat="53.6816851" lon="17.3357757">
<ele>192</ele>
<time>2017-12-17T12:16:17Z</time>
</trkpt>
<trkpt lat="53.6823418" lon="17.3349114">
<ele>195</ele>
<time>2017-12-17T12:16:23Z</time>
</trkpt>
<trkpt lat="53.6828968" lon="17.3341530">
<ele>196</ele>
<time>2017-12-17T12:16:29Z</time>
</trkpt>
<trkpt lat="53.6834452" lon="17.3333969">
<ele>196</ele>
<time>2017-12-17T12:16:35Z</time>
</trkpt>
<trkpt lat="53.6848" lon="17.331">
<ele>197</ele>
<time>2017-12-17T12:16:53Z</time>
</trkpt>
<trkpt lat="53.6853" lon="17.3301">
<ele>197</ele>
<time>2017-12-17T12:16:59Z</time>
</trkpt>
<trkpt lat="53.6857" lon="17.3292">
<ele>195</ele>
<time>2017-12-17T12:17:05Z</time>
</trkpt>
<trkpt lat="53.6862157" lon="17.3282651">
<ele>195</ele>
<time>2017-12-17T12:17:11Z</time>
</trkpt>
<trkpt lat="53.6865885" lon="17.3272665">
<ele>192</ele>
<time>2017-12-17T12:17:17Z</time>
</trkpt>
<trkpt lat="53.6867017" lon="17.3260379">
<ele>194</ele>
<time>2017-12-17T12:17:23Z</time>
</trkpt>
<trkpt lat="53.6867234" lon="17.3247017">
<ele>195</ele>
<time>2017-12-17T12:17:29Z</time>
</trkpt>
<trkpt lat="53.6869089" lon="17.3235081">
<ele>196</ele>
<time>2017-12-17T12:17:35Z</time>
</trkpt>
<trkpt lat="53.6871470" lon="17.3225861">
<ele>197</ele>
<time>2017-12-17T12:17:41Z</time>
</trkpt>
<trkpt lat="53.6874208" lon="17.3213653">
<ele>198</ele>
<time>2017-12-17T12:17:47Z</time>
</trkpt>
<trkpt lat="53.6877402" lon="17.3198773">
<ele>198</ele>
<time>2017-12-17T12:17:53Z</time>
</trkpt>
<trkpt lat="53.6880912" lon="17.3182332">
<ele>199</ele>
<time>2017-12-17T12:17:59Z</time>
</trkpt>
<trkpt lat="53.6884495" lon="17.3166111">
<ele>199</ele>
<time>2017-12-17T12:18:05Z</time>
</trkpt>
<trkpt lat="53.6888053" lon="17.3150016">
<ele>199</ele>
<time>2017-12-17T12:18:11Z</time>
</trkpt>
<trkpt lat="53.6891006" lon="17.3136750">
<ele>199</ele>
<time>2017-12-17T12:18:17Z</time>
</trkpt>
<trkpt lat="53.6893764" lon="17.3124185">
<ele>199</ele>
<time>2017-12-17T12:18:23Z</time>
</trkpt>
<trkpt lat="53.6896584" lon="17.3111284">
<ele>198</ele>
<time>2017-12-17T12:18:29Z</time>
</trkpt>
<trkpt lat="53.6899547" lon="17.3097845">
<ele>197</ele>
<time>2017-12-17T12:18:35Z</time>
</trkpt>
<trkpt lat="53.6902524" lon="17.3084156">
<ele>197</ele>
<time>2017-12-17T12:18:41Z</time>
</trkpt>
<trkpt lat="53.6905544" lon="17.3070321">
<ele>197</ele>
<time>2017-12-17T12:18:47Z</time>
</trkpt>
<trkpt lat="53.6908613" lon="17.3056313">
<ele>197</ele>
<time>2017-12-17T12:18:53Z</time>
</trkpt>
<trkpt lat="53.6911814" lon="17.3041395">
<ele>197</ele>
<time>2017-12-17T12:18:59Z</time>
</trkpt>
<trkpt lat="53.6916734" lon="17.3028416">
<ele>195</ele>
<time>2017-12-17T12:19:05Z</time>
</trkpt>
<trkpt lat="53.6924198" lon="17.3015986">
<ele>193</ele>
<time>2017-12-17T12:19:11Z</time>
</trkpt>
<trkpt lat="53.6932478" lon="17.3001773">
<ele>191</ele>
<time>2017-12-17T12:19:17Z</time>
</trkpt>
<trkpt lat="53.6941485" lon="17.2985387">
<ele>191</ele>
<time>2017-12-17T12:19:23Z</time>
</trkpt>
<trkpt lat="53.6961402" lon="17.2951556">
<ele>189</ele>
<time>2017-12-17T12:19:35Z</time>
</trkpt>
<trkpt lat="53.6951564" lon="17.2968392">
<ele>190</ele>
<time>2017-12-17T12:19:29Z</time>
</trkpt>
<trkpt lat="53.6971125" lon="17.2935083">
<ele>188</ele>
<time>2017-12-17T12:19:41Z</time>
</trkpt>
<trkpt lat="53.6980201" lon="17.2919548">
<ele>188</ele>
<time>2017-12-17T12:19:47Z</time>
</trkpt>
<trkpt lat="53.6986578" lon="17.2904325">
<ele>190</ele>
<time>2017-12-17T12:19:53Z</time>
</trkpt>
<trkpt lat="53.6990542" lon="17.2885970">
<ele>189</ele>
<time>2017-12-17T12:19:59Z</time>
</trkpt>
<trkpt lat="53.6995404" lon="17.2867096">
<ele>191</ele>
<time>2017-12-17T12:20:05Z</time>
</trkpt>
<trkpt lat="53.7000281" lon="17.2847741">
<ele>191</ele>
<time>2017-12-17T12:20:11Z</time>
</trkpt>
<trkpt lat="53.7005313" lon="17.2827872">
<ele>192</ele>
<time>2017-12-17T12:20:17Z</time>
</trkpt>
<trkpt lat="53.7010362" lon="17.2807757">
<ele>193</ele>
<time>2017-12-17T12:20:23Z</time>
</trkpt>
<trkpt lat="53.7015134" lon="17.2787042">
<ele>195</ele>
<time>2017-12-17T12:20:29Z</time>
</trkpt>
<trkpt lat="53.7019995" lon="17.2766269">
<ele>195</ele>
<time>2017-12-17T12:20:35Z</time>
</trkpt>
<trkpt lat="53.7024946" lon="17.2745660">
<ele>195</ele>
<time>2017-12-17T12:20:41Z</time>
</trkpt>
<trkpt lat="53.7027593" lon="17.2724691">
<ele>195</ele>
<time>2017-12-17T12:20:47Z</time>
</trkpt>
<trkpt lat="53.7030301" lon="17.2709441">
<ele>195</ele>
<time>2017-12-17T12:20:53Z</time>
</trkpt>
<trkpt lat="53.7036831" lon="17.2696285">
<ele>195</ele>
<time>2017-12-17T12:20:59Z</time>
</trkpt>
<trkpt lat="53.7044604" lon="17.2681913">
<ele>198</ele>
<time>2017-12-17T12:21:05Z</time>
</trkpt>
<trkpt lat="53.7052799" lon="17.2666083">
<ele>198</ele>
<time>2017-12-17T12:21:11Z</time>
</trkpt>
<trkpt lat="53.7061488" lon="17.2649184">
<ele>199</ele>
<time>2017-12-17T12:21:17Z</time>
</trkpt>
<trkpt lat="53.7070263" lon="17.2631864">
<ele>199</ele>
<time>2017-12-17T12:21:23Z</time>
</trkpt>
<trkpt lat="53.7078211" lon="17.2616433">
<ele>200</ele>
<time>2017-12-17T12:21:29Z</time>
</trkpt>
<trkpt lat="53.7083777" lon="17.2605700">
<ele>200</ele>
<time>2017-12-17T12:21:35Z</time>
</trkpt>
<trkpt lat="53.7088672" lon="17.2596404">
<ele>202</ele>
<time>2017-12-17T12:21:41Z</time>
</trkpt>
<trkpt lat="53.7094210" lon="17.2585675">
<ele>202</ele>
<time>2017-12-17T12:21:47Z</time>
</trkpt>
<trkpt lat="53.7100490" lon="17.2573704">
<ele>203</ele>
<time>2017-12-17T12:21:53Z</time>
</trkpt>
<trkpt lat="53.7107260" lon="17.2560407">
<ele>204</ele>
<time>2017-12-17T12:21:59Z</time>
</trkpt>
<trkpt lat="53.7114467" lon="17.2545406">
<ele>204</ele>
<time>2017-12-17T12:22:05Z</time>
</trkpt>
<trkpt lat="53.7122154" lon="17.2530288">
<ele>206</ele>
<time>2017-12-17T12:22:11Z</time>
</trkpt>
<trkpt lat="53.7129885" lon="17.2515216">
<ele>207</ele>
<time>2017-12-17T12:22:17Z</time>
</trkpt>
<trkpt lat="53.7137744" lon="17.2502141">
<ele>207</ele>
<time>2017-12-17T12:22:23Z</time>
</trkpt>
<trkpt lat="53.7148495" lon="17.2495398">
<ele>205</ele>
<time>2017-12-17T12:22:29Z</time>
</trkpt>
<trkpt lat="53.7159944" lon="17.2488549">
<ele>204</ele>
<time>2017-12-17T12:22:35Z</time>
</trkpt>
<trkpt lat="53.7171735" lon="17.2481132">
<ele>203</ele>
<time>2017-12-17T12:22:41Z</time>
</trkpt>
<trkpt lat="53.7183347" lon="17.2473936">
<ele>202</ele>
<time>2017-12-17T12:22:47Z</time>
</trkpt>
<trkpt lat="53.7193859" lon="17.2465941">
<ele>200</ele>
<time>2017-12-17T12:22:53Z</time>
</trkpt>
<trkpt lat="53.7201708" lon="17.2452280">
<ele>199</ele>
<time>2017-12-17T12:22:59Z</time>
</trkpt>
<trkpt lat="53.7209949" lon="17.2438309">
<ele>197</ele>
<time>2017-12-17T12:23:05Z</time>
</trkpt>
<trkpt lat="53.7218306" lon="17.2424061">
<ele>196</ele>
<time>2017-12-17T12:23:11Z</time>
</trkpt>
<trkpt lat="53.7226065" lon="17.2408662">
<ele>194</ele>
<time>2017-12-17T12:23:17Z</time>
</trkpt>
<trkpt lat="53.7233641" lon="17.2393129">
<ele>195</ele>
<time>2017-12-17T12:23:23Z</time>
</trkpt>
<trkpt lat="53.7241783" lon="17.2378337">
<ele>194</ele>
<time>2017-12-17T12:23:29Z</time>
</trkpt>
<trkpt lat="53.7251070" lon="17.2365879">
<ele>195</ele>
<time>2017-12-17T12:23:35Z</time>
</trkpt>
<trkpt lat="53.7259409" lon="17.2352429">
<ele>194</ele>
<time>2017-12-17T12:23:41Z</time>
</trkpt>
<trkpt lat="53.7266396" lon="17.2335867">
<ele>194</ele>
<time>2017-12-17T12:23:47Z</time>
</trkpt>
<trkpt lat="53.7273586" lon="17.2319064">
<ele>192</ele>
<time>2017-12-17T12:23:53Z</time>
</trkpt>
<trkpt lat="53.7281021" lon="17.2301808">
<ele>192</ele>
<time>2017-12-17T12:23:59Z</time>
</trkpt>
<trkpt lat="53.7288204" lon="17.2285558">
<ele>191</ele>
<time>2017-12-17T12:24:05Z</time>
</trkpt>
<trkpt lat="53.7298840" lon="17.2253272">
<ele>186</ele>
<time>2017-12-17T12:24:17Z</time>
</trkpt>
<trkpt lat="53.7294905" lon="17.2270394">
<ele>189</ele>
<time>2017-12-17T12:24:11Z</time>
</trkpt>
<trkpt lat="53.7300749" lon="17.2234003">
<ele>182</ele>
<time>2017-12-17T12:24:23Z</time>
</trkpt>
<trkpt lat="53.7302882" lon="17.2214898">
<ele>177</ele>
<time>2017-12-17T12:24:29Z</time>
</trkpt>
<trkpt lat="53.7306900" lon="17.2199500">
<ele>173</ele>
<time>2017-12-17T12:24:35Z</time>
</trkpt>
<trkpt lat="53.7313152" lon="17.2185229">
<ele>175</ele>
<time>2017-12-17T12:24:41Z</time>
</trkpt>
<trkpt lat="53.7319038" lon="17.2170862">
<ele>171</ele>
<time>2017-12-17T12:24:47Z</time>
</trkpt>
<trkpt lat="53.7323864" lon="17.2156787">
<ele>170</ele>
<time>2017-12-17T12:24:53Z</time>
</trkpt>
<trkpt lat="53.7323163" lon="17.2139852">
<ele>170</ele>
<time>2017-12-17T12:24:59Z</time>
</trkpt>
<trkpt lat="53.7321161" lon="17.2121074">
<ele>169</ele>
<time>2017-12-17T12:25:05Z</time>
</trkpt>
<trkpt lat="53.7319367" lon="17.2101560">
<ele>171</ele>
<time>2017-12-17T12:25:11Z</time>
</trkpt>
<trkpt lat="53.7317430" lon="17.2083074">
<ele>176</ele>
<time>2017-12-17T12:25:17Z</time>
</trkpt>
<trkpt lat="53.7317031" lon="17.2066943">
<ele>181</ele>
<time>2017-12-17T12:25:23Z</time>
</trkpt>
<trkpt lat="53.7321822" lon="17.2052395">
<ele>184</ele>
<time>2017-12-17T12:25:29Z</time>
</trkpt>
<trkpt lat="53.7326258" lon="17.2037202">
<ele>185</ele>
<time>2017-12-17T12:25:35Z</time>
</trkpt>
<trkpt lat="53.7330251" lon="17.2023141">
<ele>187</ele>
<time>2017-12-17T12:25:41Z</time>
</trkpt>
<trkpt lat="53.7333809" lon="17.2010693">
<ele>189</ele>
<time>2017-12-17T12:25:47Z</time>
</trkpt>
<trkpt lat="53.7337081" lon="17.1999467">
<ele>190</ele>
<time>2017-12-17T12:25:53Z</time>
</trkpt>
<trkpt lat="53.7340492" lon="17.1988679">
<ele>191</ele>
<time>2017-12-17T12:25:59Z</time>
</trkpt>
<trkpt lat="53.7344500" lon="17.1978237">
<ele>190</ele>
<time>2017-12-17T12:26:05Z</time>
</trkpt>
<trkpt lat="53.7347889" lon="17.1967049">
<ele>191</ele>
<time>2017-12-17T12:26:11Z</time>
</trkpt>
<trkpt lat="53.7351472" lon="17.1956068">
<ele>190</ele>
<time>2017-12-17T12:26:17Z</time>
</trkpt>
<trkpt lat="53.7355956" lon="17.1945232">
<ele>192</ele>
<time>2017-12-17T12:26:23Z</time>
</trkpt>
<trkpt lat="53.7360578" lon="17.1934636">
<ele>191</ele>
<time>2017-12-17T12:26:29Z</time>
</trkpt>
<trkpt lat="53.7366333" lon="17.1927008">
<ele>190</ele>
<time>2017-12-17T12:26:35Z</time>
</trkpt>
<trkpt lat="53.7373733" lon="17.1924348">
<ele>189</ele>
<time>2017-12-17T12:26:41Z</time>
</trkpt>
<trkpt lat="53.7380112" lon="17.1916109">
<ele>191</ele>
<time>2017-12-17T12:26:47Z</time>
</trkpt>
<trkpt lat="53.7384253" lon="17.1903707">
<ele>194</ele>
<time>2017-12-17T12:26:53Z</time>
</trkpt>
<trkpt lat="53.7387998" lon="17.1890887">
<ele>196</ele>
<time>2017-12-17T12:26:59Z</time>
</trkpt>
<trkpt lat="53.7392626" lon="17.1877714">
<ele>195</ele>
<time>2017-12-17T12:27:05Z</time>
</trkpt>
<trkpt lat="53.7397459" lon="17.1862642">
<ele>194</ele>
<time>2017-12-17T12:27:11Z</time>
</trkpt>
<trkpt lat="53.7402828" lon="17.1846356">
<ele>192</ele>
<time>2017-12-17T12:27:17Z</time>
</trkpt>
<trkpt lat="53.7408451" lon="17.1828697">
<ele>192</ele>
<time>2017-12-17T12:27:23Z</time>
</trkpt>
<trkpt lat="53.7414342" lon="17.1810224">
<ele>192</ele>
<time>2017-12-17T12:27:29Z</time>
</trkpt>
<trkpt lat="53.7420114" lon="17.1791719">
<ele>191</ele>
<time>2017-12-17T12:27:35Z</time>
</trkpt>
<trkpt lat="53.7428051" lon="17.1775878">
<ele>191</ele>
<time>2017-12-17T12:27:41Z</time>
</trkpt>
<trkpt lat="53.7438130" lon="17.1762310">
<ele>190</ele>
<time>2017-12-17T12:27:47Z</time>
</trkpt>
<trkpt lat="53.7448029" lon="17.1748401">
<ele>190</ele>
<time>2017-12-17T12:27:53Z</time>
</trkpt>
<trkpt lat="53.7457935" lon="17.1734716">
<ele>190</ele>
<time>2017-12-17T12:27:59Z</time>
</trkpt>
<trkpt lat="53.7467464" lon="17.1721200">
<ele>188</ele>
<time>2017-12-17T12:28:05Z</time>
</trkpt>
<trkpt lat="53.7473127" lon="17.1702916">
<ele>189</ele>
<time>2017-12-17T12:28:11Z</time>
</trkpt>
<trkpt lat="53.7476883" lon="17.1682625">
<ele>193</ele>
<time>2017-12-17T12:28:17Z</time>
</trkpt>
<trkpt lat="53.7481142" lon="17.1662575">
<ele>192</ele>
<time>2017-12-17T12:28:23Z</time>
</trkpt>
<trkpt lat="53.7485405" lon="17.1641727">
<ele>191</ele>
<time>2017-12-17T12:28:29Z</time>
</trkpt>
<trkpt lat="53.7489567" lon="17.1621320">
<ele>191</ele>
<time>2017-12-17T12:28:35Z</time>
</trkpt>
<trkpt lat="53.7493858" lon="17.1600621">
<ele>192</ele>
<time>2017-12-17T12:28:41Z</time>
</trkpt>
<trkpt lat="53.7498032" lon="17.1580198">
<ele>193</ele>
<time>2017-12-17T12:28:47Z</time>
</trkpt>
<trkpt lat="53.7500936" lon="17.1559793">
<ele>193</ele>
<time>2017-12-17T12:28:53Z</time>
</trkpt>
<trkpt lat="53.7503507" lon="17.1538306">
<ele>192</ele>
<time>2017-12-17T12:28:59Z</time>
</trkpt>
<trkpt lat="53.7506180" lon="17.1516597">
<ele>191</ele>
<time>2017-12-17T12:29:05Z</time>
</trkpt>
<trkpt lat="53.7508866" lon="17.1494694">
<ele>191</ele>
<time>2017-12-17T12:29:11Z</time>
</trkpt>
<trkpt lat="53.7511481" lon="17.1472643">
<ele>190</ele>
<time>2017-12-17T12:29:17Z</time>
</trkpt>
<trkpt lat="53.7514711" lon="17.1451085">
<ele>190</ele>
<time>2017-12-17T12:29:23Z</time>
</trkpt>
<trkpt lat="53.7518239" lon="17.1429714">
<ele>191</ele>
<time>2017-12-17T12:29:29Z</time>
</trkpt>
<trkpt lat="53.7521859" lon="17.1408323">
<ele>193</ele>
<time>2017-12-17T12:29:35Z</time>
</trkpt>
<trkpt lat="53.7525676" lon="17.1386574">
<ele>192</ele>
<time>2017-12-17T12:29:41Z</time>
</trkpt>
<trkpt lat="53.7529569" lon="17.1364946">
<ele>193</ele>
<time>2017-12-17T12:29:47Z</time>
</trkpt>
<trkpt lat="53.7533237" lon="17.1343564">
<ele>195</ele>
<time>2017-12-17T12:29:53Z</time>
</trkpt>
<trkpt lat="53.7536855" lon="17.1322259">
<ele>194</ele>
<time>2017-12-17T12:29:59Z</time>
</trkpt>
<trkpt lat="53.7540326" lon="17.1301305">
<ele>192</ele>
<time>2017-12-17T12:30:05Z</time>
</trkpt>
<trkpt lat="53.7543605" lon="17.1282364">
<ele>191</ele>
<time>2017-12-17T12:30:11Z</time>
</trkpt>
<trkpt lat="53.7546469" lon="17.1265518">
<ele>190</ele>
<time>2017-12-17T12:30:17Z</time>
</trkpt>
<trkpt lat="53.7549061" lon="17.1250415">
<ele>189</ele>
<time>2017-12-17T12:30:23Z</time>
</trkpt>
<trkpt lat="53.7551291" lon="17.1237106">
<ele>187</ele>
<time>2017-12-17T12:30:29Z</time>
</trkpt>
<trkpt lat="53.7553461" lon="17.1224153">
<ele>188</ele>
<time>2017-12-17T12:30:35Z</time>
</trkpt>
<trkpt lat="53.7555604" lon="17.1211267">
<ele>187</ele>
<time>2017-12-17T12:30:41Z</time>
</trkpt>
<trkpt lat="53.7555929" lon="17.1198212">
<ele>187</ele>
<time>2017-12-17T12:30:47Z</time>
</trkpt>
<trkpt lat="53.7553457" lon="17.1184927">
<ele>186</ele>
<time>2017-12-17T12:30:53Z</time>
</trkpt>
<trkpt lat="53.7551674" lon="17.1172120">
<ele>184</ele>
<time>2017-12-17T12:30:59Z</time>
</trkpt>
<trkpt lat="53.7552887" lon="17.1160342">
<ele>183</ele>
<time>2017-12-17T12:31:05Z</time>
</trkpt>
<trkpt lat="53.7556984" lon="17.1149781">
<ele>185</ele>
<time>2017-12-17T12:31:11Z</time>
</trkpt>
<trkpt lat="53.7561660" lon="17.1139938">
<ele>186</ele>
<time>2017-12-17T12:31:17Z</time>
</trkpt>
<trkpt lat="53.7565105" lon="17.1129268">
<ele>187</ele>
<time>2017-12-17T12:31:23Z</time>
</trkpt>
<trkpt lat="53.7567349" lon="17.1117232">
<ele>187</ele>
<time>2017-12-17T12:31:29Z</time>
</trkpt>
<trkpt lat="53.7569522" lon="17.1105504">
<ele>188</ele>
<time>2017-12-17T12:31:35Z</time>
</trkpt>
<trkpt lat="53.7572680" lon="17.1094560">
<ele>190</ele>
<time>2017-12-17T12:31:41Z</time>
</trkpt>
<trkpt lat="53.7575502" lon="17.1084725">
<ele>191</ele>
<time>2017-12-17T12:31:47Z</time>
</trkpt>
<trkpt lat="53.7577425" lon="17.1079336">
<ele>190</ele>
<time>2017-12-17T12:31:53Z</time>
</trkpt>
<trkpt lat="53.7580790" lon="17.1077864">
<ele>186</ele>
<time>2017-12-17T12:31:59Z</time>
</trkpt>
<trkpt lat="53.7586646" lon="17.1076514">
<ele>184</ele>
<time>2017-12-17T12:32:05Z</time>
</trkpt>
<trkpt lat="53.7594172" lon="17.1075943">
<ele>184</ele>
<time>2017-12-17T12:32:11Z</time>
</trkpt>
<trkpt lat="53.7602441" lon="17.1076028">
<ele>185</ele>
<time>2017-12-17T12:32:17Z</time>
</trkpt>
<trkpt lat="53.7610904" lon="17.1075755">
<ele>186</ele>
<time>2017-12-17T12:32:23Z</time>
</trkpt>
<trkpt lat="53.7618420" lon="17.1072042">
<ele>188</ele>
<time>2017-12-17T12:32:29Z</time>
</trkpt>
<trkpt lat="53.7624591" lon="17.1062983">
<ele>188</ele>
<time>2017-12-17T12:32:35Z</time>
</trkpt>
<trkpt lat="53.7631194" lon="17.1052663">
<ele>187</ele>
<time>2017-12-17T12:32:41Z</time>
</trkpt>
<trkpt lat="53.7638465" lon="17.1040890">
<ele>188</ele>
<time>2017-12-17T12:32:47Z</time>
</trkpt>
<trkpt lat="53.7646717" lon="17.1028103">
<ele>188</ele>
<time>2017-12-17T12:32:53Z</time>
</trkpt>
<trkpt lat="53.7655700" lon="17.1014241">
<ele>188</ele>
<time>2017-12-17T12:32:59Z</time>
</trkpt>
<trkpt lat="53.7665198" lon="17.0999651">
<ele>186</ele>
<time>2017-12-17T12:33:05Z</time>
</trkpt>
<trkpt lat="53.7675348" lon="17.0983956">
<ele>183</ele>
<time>2017-12-17T12:33:11Z</time>
</trkpt>
<trkpt lat="53.7685812" lon="17.0967786">
<ele>182</ele>
<time>2017-12-17T12:33:17Z</time>
</trkpt>
<trkpt lat="53.7696310" lon="17.0951529">
<ele>180</ele>
<time>2017-12-17T12:33:23Z</time>
</trkpt>
<trkpt lat="53.7706753" lon="17.0935056">
<ele>178</ele>
<time>2017-12-17T12:33:29Z</time>
</trkpt>
<trkpt lat="53.7717258" lon="17.0918198">
<ele>175</ele>
<time>2017-12-17T12:33:35Z</time>
</trkpt>
<trkpt lat="53.7727939" lon="17.0901143">
<ele>172</ele>
<time>2017-12-17T12:33:41Z</time>
</trkpt>
<trkpt lat="53.7738628" lon="17.0884182">
<ele>172</ele>
<time>2017-12-17T12:33:47Z</time>
</trkpt>
<trkpt lat="53.7749251" lon="17.0867137">
<ele>171</ele>
<time>2017-12-17T12:33:53Z</time>
</trkpt>
<trkpt lat="53.7759898" lon="17.0850153">
<ele>172</ele>
<time>2017-12-17T12:33:59Z</time>
</trkpt>
<trkpt lat="53.7770603" lon="17.0833115">
<ele>171</ele>
<time>2017-12-17T12:34:05Z</time>
</trkpt>
<trkpt lat="53.7781229" lon="17.0816099">
<ele>171</ele>
<time>2017-12-17T12:34:11Z</time>
</trkpt>
<trkpt lat="53.7791837" lon="17.0799040">
<ele>171</ele>
<time>2017-12-17T12:34:17Z</time>
</trkpt>
<trkpt lat="53.7802376" lon="17.0782184">
<ele>170</ele>
<time>2017-12-17T12:34:23Z</time>
</trkpt>
<trkpt lat="53.7813171" lon="17.0765269">
<ele>169</ele>
<time>2017-12-17T12:34:29Z</time>
</trkpt>
<trkpt lat="53.7823635" lon="17.0748205">
<ele>168</ele>
<time>2017-12-17T12:34:35Z</time>
</trkpt>
<trkpt lat="53.7834334" lon="17.0731115">
<ele>168</ele>
<time>2017-12-17T12:34:41Z</time>
</trkpt>
<trkpt lat="53.7844916" lon="17.0714046">
<ele>168</ele>
<time>2017-12-17T12:34:47Z</time>
</trkpt>
<trkpt lat="53.7855468" lon="17.0697125">
<ele>170</ele>
<time>2017-12-17T12:34:53Z</time>
</trkpt>
<trkpt lat="53.7866013" lon="17.0680306">
<ele>170</ele>
<time>2017-12-17T12:34:59Z</time>
</trkpt>
<trkpt lat="53.7876555" lon="17.0663497">
<ele>171</ele>
<time>2017-12-17T12:35:05Z</time>
</trkpt>
<trkpt lat="53.7887039" lon="17.0646926">
<ele>172</ele>
<time>2017-12-17T12:35:11Z</time>
</trkpt>
<trkpt lat="53.7897429" lon="17.0630263">
<ele>172</ele>
<time>2017-12-17T12:35:17Z</time>
</trkpt>
<trkpt lat="53.7907747" lon="17.0613584">
<ele>171</ele>
<time>2017-12-17T12:35:23Z</time>
</trkpt>
<trkpt lat="53.7917864" lon="17.0597484">
<ele>172</ele>
<time>2017-12-17T12:35:29Z</time>
</trkpt>
<trkpt lat="53.7927075" lon="17.0582078">
<ele>174</ele>
<time>2017-12-17T12:35:35Z</time>
</trkpt>
<trkpt lat="53.7934196" lon="17.0563434">
<ele>175</ele>
<time>2017-12-17T12:35:41Z</time>
</trkpt>
<trkpt lat="53.7940666" lon="17.0543246">
<ele>177</ele>
<time>2017-12-17T12:35:47Z</time>
</trkpt>
<trkpt lat="53.7947259" lon="17.0522917">
<ele>179</ele>
<time>2017-12-17T12:35:53Z</time>
</trkpt>
<trkpt lat="53.7954060" lon="17.0502666">
<ele>182</ele>
<time>2017-12-17T12:35:59Z</time>
</trkpt>
<trkpt lat="53.7960825" lon="17.0482399">
<ele>186</ele>
<time>2017-12-17T12:36:05Z</time>
</trkpt>
<trkpt lat="53.7982" lon="17.0419">
<ele>192</ele>
<time>2017-12-17T12:36:23Z</time>
</trkpt>
<trkpt lat="53.7989" lon="17.0398">
<ele>196</ele>
<time>2017-12-17T12:36:29Z</time>
</trkpt>
<trkpt lat="53.7996" lon="17.0377">
<ele>198</ele>
<time>2017-12-17T12:36:35Z</time>
</trkpt>
<trkpt lat="53.8002584" lon="17.0355174">
<ele>199</ele>
<time>2017-12-17T12:36:41Z</time>
</trkpt>
<trkpt lat="53.8009475" lon="17.0333731">
<ele>202</ele>
<time>2017-12-17T12:36:47Z</time>
</trkpt>
<trkpt lat="53.8016489" lon="17.0312901">
<ele>205</ele>
<time>2017-12-17T12:36:53Z</time>
</trkpt>
<trkpt lat="53.8022717" lon="17.0293765">
<ele>207</ele>
<time>2017-12-17T12:36:59Z</time>
</trkpt>
<trkpt lat="53.8028127" lon="17.0274998">
<ele>209</ele>
<time>2017-12-17T12:37:05Z</time>
</trkpt>
<trkpt lat="53.8030675" lon="17.0253417">
<ele>210</ele>
<time>2017-12-17T12:37:11Z</time>
</trkpt>
<trkpt lat="53.8041516" lon="17.0187446">
<ele>203</ele>
<time>2017-12-17T12:37:29Z</time>
</trkpt>
<trkpt lat="53.8045610" lon="17.0165584">
<ele>201</ele>
<time>2017-12-17T12:37:35Z</time>
</trkpt>
<trkpt lat="53.8049877" lon="17.0143743">
<ele>199</ele>
<time>2017-12-17T12:37:41Z</time>
</trkpt>
<trkpt lat="53.8054124" lon="17.0122058">
<ele>198</ele>
<time>2017-12-17T12:37:47Z</time>
</trkpt>
<trkpt lat="53.8058409" lon="17.0100329">
<ele>199</ele>
<time>2017-12-17T12:37:53Z</time>
</trkpt>
<trkpt lat="53.8062942" lon="17.0078774">
<ele>198</ele>
<time>2017-12-17T12:37:59Z</time>
</trkpt>
<trkpt lat="53.8079060" lon="17.0014839">
<ele>200</ele>
<time>2017-12-17T12:38:17Z</time>
</trkpt>
<trkpt lat="53.8084448" lon="16.9993153">
<ele>199</ele>
<time>2017-12-17T12:38:23Z</time>
</trkpt>
<trkpt lat="53.8090051" lon="16.9971408">
<ele>199</ele>
<time>2017-12-17T12:38:29Z</time>
</trkpt>
<trkpt lat="53.8095541" lon="16.9950086">
<ele>200</ele>
<time>2017-12-17T12:38:35Z</time>
</trkpt>
<trkpt lat="53.8101321" lon="16.9928977">
<ele>200</ele>
<time>2017-12-17T12:38:41Z</time>
</trkpt>
<trkpt lat="53.8118" lon="16.9865">
<ele>198</ele>
<time>2017-12-17T12:38:59Z</time>
</trkpt>
<trkpt lat="53.8124" lon="16.9843">
<ele>198</ele>
<time>2017-12-17T12:39:05Z</time>
</trkpt>
<trkpt lat="53.813" lon="16.9822">
<ele>197</ele>
<time>2017-12-17T12:39:11Z</time>
</trkpt>
<trkpt lat="53.8136" lon="16.98">
<ele>195</ele>
<time>2017-12-17T12:39:17Z</time>
</trkpt>
<trkpt lat="53.8141" lon="16.9778">
<ele>195</ele>
<time>2017-12-17T12:39:23Z</time>
</trkpt>
<trkpt lat="53.8147" lon="16.9757">
<ele>195</ele>
<time>2017-12-17T12:39:29Z</time>
</trkpt>
<trkpt lat="53.8152" lon="16.9735">
<ele>195</ele>
<time>2017-12-17T12:39:35Z</time>
</trkpt>
<trkpt lat="53.8158218" lon="16.9713073">
<ele>194</ele>
<time>2017-12-17T12:39:41Z</time>
</trkpt>
<trkpt lat="53.8163756" lon="16.9692118">
<ele>194</ele>
<time>2017-12-17T12:39:47Z</time>
</trkpt>
<trkpt lat="53.8169077" lon="16.9671645">
<ele>193</ele>
<time>2017-12-17T12:39:53Z</time>
</trkpt>
<trkpt lat="53.8174357" lon="16.9651030">
<ele>191</ele>
<time>2017-12-17T12:39:59Z</time>
</trkpt>
<trkpt lat="53.8179686" lon="16.9630547">
<ele>190</ele>
<time>2017-12-17T12:40:05Z</time>
</trkpt>
<trkpt lat="53.8184895" lon="16.9610584">
<ele>190</ele>
<time>2017-12-17T12:40:11Z</time>
</trkpt>
<trkpt lat="53.8190181" lon="16.9590692">
<ele>189</ele>
<time>2017-12-17T12:40:17Z</time>
</trkpt>
<trkpt lat="53.8195430" lon="16.9570678">
<ele>188</ele>
<time>2017-12-17T12:40:23Z</time>
</trkpt>
<trkpt lat="53.8200541" lon="16.9550885">
<ele>189</ele>
<time>2017-12-17T12:40:29Z</time>
</trkpt>
<trkpt lat="53.8205670" lon="16.9531137">
<ele>188</ele>
<time>2017-12-17T12:40:35Z</time>
</trkpt>
<trkpt lat="53.8210768" lon="16.9511887">
<ele>188</ele>
<time>2017-12-17T12:40:41Z</time>
</trkpt>
<trkpt lat="53.8215765" lon="16.9494475">
<ele>188</ele>
<time>2017-12-17T12:40:47Z</time>
</trkpt>
<trkpt lat="53.8224067" lon="16.9482423">
<ele>189</ele>
<time>2017-12-17T12:40:53Z</time>
</trkpt>
<trkpt lat="53.8233375" lon="16.9470155">
<ele>191</ele>
<time>2017-12-17T12:40:59Z</time>
</trkpt>
<trkpt lat="53.8242978" lon="16.9457096">
<ele>191</ele>
<time>2017-12-17T12:41:05Z</time>
</trkpt>
<trkpt lat="53.8253141" lon="16.9443493">
<ele>191</ele>
<time>2017-12-17T12:41:11Z</time>
</trkpt>
<trkpt lat="53.8263411" lon="16.9429763">
<ele>191</ele>
<time>2017-12-17T12:41:17Z</time>
</trkpt>
<trkpt lat="53.8273490" lon="16.9416242">
<ele>192</ele>
<time>2017-12-17T12:41:23Z</time>
</trkpt>
<trkpt lat="53.8283482" lon="16.9402437">
<ele>191</ele>
<time>2017-12-17T12:41:29Z</time>
</trkpt>
<trkpt lat="53.8293563" lon="16.9388687">
<ele>193</ele>
<time>2017-12-17T12:41:35Z</time>
</trkpt>
<trkpt lat="53.8303352" lon="16.9375375">
<ele>195</ele>
<time>2017-12-17T12:41:41Z</time>
</trkpt>
<trkpt lat="53.8312940" lon="16.9362765">
<ele>193</ele>
<time>2017-12-17T12:41:47Z</time>
</trkpt>
<trkpt lat="53.8322253" lon="16.9349418">
<ele>191</ele>
<time>2017-12-17T12:41:53Z</time>
</trkpt>
<trkpt lat="53.8330948" lon="16.9336107">
<ele>194</ele>
<time>2017-12-17T12:41:59Z</time>
</trkpt>
<trkpt lat="53.8338783" lon="16.9323767">
<ele>195</ele>
<time>2017-12-17T12:42:05Z</time>
</trkpt>
<trkpt lat="53.8345500" lon="16.9311963">
<ele>196</ele>
<time>2017-12-17T12:42:11Z</time>
</trkpt>
<trkpt lat="53.8350357" lon="16.9299122">
<ele>197</ele>
<time>2017-12-17T12:42:17Z</time>
</trkpt>
<trkpt lat="53.8354830" lon="16.9287003">
<ele>196</ele>
<time>2017-12-17T12:42:23Z</time>
</trkpt>
<trkpt lat="53.8358805" lon="16.9275911">
<ele>196</ele>
<time>2017-12-17T12:42:29Z</time>
</trkpt>
<trkpt lat="53.8362635" lon="16.9265710">
<ele>195</ele>
<time>2017-12-17T12:42:35Z</time>
</trkpt>
<trkpt lat="53.8366611" lon="16.9255301">
<ele>195</ele>
<time>2017-12-17T12:42:41Z</time>
</trkpt>
<trkpt lat="53.8370404" lon="16.9244759">
<ele>195</ele>
<time>2017-12-17T12:42:47Z</time>
</trkpt>
<trkpt lat="53.8374749" lon="16.9234292">
<ele>195</ele>
<time>2017-12-17T12:42:53Z</time>
</trkpt>
<trkpt lat="53.8377512" lon="16.9222077">
<ele>194</ele>
<time>2017-12-17T12:42:59Z</time>
</trkpt>
<trkpt lat="53.8380162" lon="16.9209321">
<ele>194</ele>
<time>2017-12-17T12:43:05Z</time>
</trkpt>
<trkpt lat="53.8383243" lon="16.9196389">
<ele>194</ele>
<time>2017-12-17T12:43:11Z</time>
</trkpt>
<trkpt lat="53.8386339" lon="16.9183099">
<ele>195</ele>
<time>2017-12-17T12:43:17Z</time>
</trkpt>
<trkpt lat="53.8389038" lon="16.9169593">
<ele>194</ele>
<time>2017-12-17T12:43:23Z</time>
</trkpt>
<trkpt lat="53.8392018" lon="16.9155120">
<ele>194</ele>
<time>2017-12-17T12:43:29Z</time>
</trkpt>
<trkpt lat="53.8395965" lon="16.9140289">
<ele>194</ele>
<time>2017-12-17T12:43:35Z</time>
</trkpt>
<trkpt lat="53.8401799" lon="16.9125761">
<ele>194</ele>
<time>2017-12-17T12:43:41Z</time>
</trkpt>
<trkpt lat="53.8414919" lon="16.9092641">
<ele>194</ele>
<time>2017-12-17T12:43:53Z</time>
</trkpt>
<trkpt lat="53.8422063" lon="16.9074339">
<ele>194</ele>
<time>2017-12-17T12:43:59Z</time>
</trkpt>
<trkpt lat="53.8429448" lon="16.9055437">
<ele>195</ele>
<time>2017-12-17T12:44:05Z</time>
</trkpt>
<trkpt lat="53.8436997" lon="16.9036345">
<ele>195</ele>
<time>2017-12-17T12:44:11Z</time>
</trkpt>
<trkpt lat="53.8444451" lon="16.9017846">
<ele>196</ele>
<time>2017-12-17T12:44:17Z</time>
</trkpt>
<trkpt lat="53.8451773" lon="16.8999258">
<ele>197</ele>
<time>2017-12-17T12:44:23Z</time>
</trkpt>
<trkpt lat="53.8458970" lon="16.8980887">
<ele>198</ele>
<time>2017-12-17T12:44:29Z</time>
</trkpt>
<trkpt lat="53.8467531" lon="16.8965418">
<ele>196</ele>
<time>2017-12-17T12:44:35Z</time>
</trkpt>
<trkpt lat="53.8478497" lon="16.8953454">
<ele>197</ele>
<time>2017-12-17T12:44:41Z</time>
</trkpt>
<trkpt lat="53.8489775" lon="16.8940899">
<ele>198</ele>
<time>2017-12-17T12:44:47Z</time>
</trkpt>
<trkpt lat="53.8501058" lon="16.8928438">
<ele>198</ele>
<time>2017-12-17T12:44:53Z</time>
</trkpt>
<trkpt lat="53.8512241" lon="16.8915948">
<ele>199</ele>
<time>2017-12-17T12:44:59Z</time>
</trkpt>
<trkpt lat="53.8523355" lon="16.8903421">
<ele>200</ele>
<time>2017-12-17T12:45:05Z</time>
</trkpt>
<trkpt lat="53.8534696" lon="16.8890995">
<ele>200</ele>
<time>2017-12-17T12:45:11Z</time>
</trkpt>
<trkpt lat="53.8546048" lon="16.8878553">
<ele>201</ele>
<time>2017-12-17T12:45:17Z</time>
</trkpt>
<trkpt lat="53.8557218" lon="16.8866142">
<ele>202</ele>
<time>2017-12-17T12:45:23Z</time>
</trkpt>
<trkpt lat="53.8568346" lon="16.8853707">
<ele>202</ele>
<time>2017-12-17T12:45:29Z</time>
</trkpt>
<trkpt lat="53.8579568" lon="16.8841208">
<ele>203</ele>
<time>2017-12-17T12:45:35Z</time>
</trkpt>
<trkpt lat="53.8590862" lon="16.8828780">
<ele>202</ele>
<time>2017-12-17T12:45:41Z</time>
</trkpt>
<trkpt lat="53.8602042" lon="16.8816325">
<ele>202</ele>
<time>2017-12-17T12:45:47Z</time>
</trkpt>
<trkpt lat="53.8613369" lon="16.8803811">
<ele>202</ele>
<time>2017-12-17T12:45:53Z</time>
</trkpt>
<trkpt lat="53.8624638" lon="16.8791096">
<ele>201</ele>
<time>2017-12-17T12:45:59Z</time>
</trkpt>
<trkpt lat="53.8635768" lon="16.8778682">
<ele>202</ele>
<time>2017-12-17T12:46:05Z</time>
</trkpt>
<trkpt lat="53.8646919" lon="16.8766283">
<ele>203</ele>
<time>2017-12-17T12:46:11Z</time>
</trkpt>
<trkpt lat="53.8657623" lon="16.8754407">
<ele>205</ele>
<time>2017-12-17T12:46:17Z</time>
</trkpt>
<trkpt lat="53.8667669" lon="16.8743174">
<ele>206</ele>
<time>2017-12-17T12:46:23Z</time>
</trkpt>
<trkpt lat="53.8677816" lon="16.8731749">
<ele>203</ele>
<time>2017-12-17T12:46:29Z</time>
</trkpt>
<trkpt lat="53.8689465" lon="16.8718332">
<ele>202</ele>
<time>2017-12-17T12:46:35Z</time>
</trkpt>
<trkpt lat="53.8702266" lon="16.8703974">
<ele>204</ele>
<time>2017-12-17T12:46:41Z</time>
</trkpt>
<trkpt lat="53.8715278" lon="16.8689489">
<ele>204</ele>
<time>2017-12-17T12:46:47Z</time>
</trkpt>
<trkpt lat="53.8728193" lon="16.8675418">
<ele>206</ele>
<time>2017-12-17T12:46:53Z</time>
</trkpt>
<trkpt lat="53.8741113" lon="16.8661420">
<ele>207</ele>
<time>2017-12-17T12:46:59Z</time>
</trkpt>
<trkpt lat="53.8753621" lon="16.8647870">
<ele>206</ele>
<time>2017-12-17T12:47:05Z</time>
</trkpt>
<trkpt lat="53.8765957" lon="16.8634658">
<ele>207</ele>
<time>2017-12-17T12:47:11Z</time>
</trkpt>
<trkpt lat="53.8778295" lon="16.8621396">
<ele>207</ele>
<time>2017-12-17T12:47:17Z</time>
</trkpt>
<trkpt lat="53.8790884" lon="16.8607779">
<ele>208</ele>
<time>2017-12-17T12:47:23Z</time>
</trkpt>
<trkpt lat="53.8803294" lon="16.8594323">
<ele>209</ele>
<time>2017-12-17T12:47:29Z</time>
</trkpt>
<trkpt lat="53.8815235" lon="16.8581282">
<ele>208</ele>
<time>2017-12-17T12:47:35Z</time>
</trkpt>
<trkpt lat="53.8826339" lon="16.8569610">
<ele>210</ele>
<time>2017-12-17T12:47:41Z</time>
</trkpt>
<trkpt lat="53.8834617" lon="16.8560827">
<ele>209</ele>
<time>2017-12-17T12:47:47Z</time>
</trkpt>
<trkpt lat="53.8841535" lon="16.8553167">
<ele>209</ele>
<time>2017-12-17T12:47:53Z</time>
</trkpt>
<trkpt lat="53.8848322" lon="16.8545821">
<ele>209</ele>
<time>2017-12-17T12:47:59Z</time>
</trkpt>
<trkpt lat="53.8855565" lon="16.8538146">
<ele>209</ele>
<time>2017-12-17T12:48:05Z</time>
</trkpt>
<trkpt lat="53.8862703" lon="16.8530295">
<ele>208</ele>
<time>2017-12-17T12:48:11Z</time>
</trkpt>
<trkpt lat="53.8870037" lon="16.8522417">
<ele>208</ele>
<time>2017-12-17T12:48:17Z</time>
</trkpt>
<trkpt lat="53.8877627" lon="16.8514205">
<ele>208</ele>
<time>2017-12-17T12:48:23Z</time>
</trkpt>
<trkpt lat="53.8885923" lon="16.8505394">
<ele>209</ele>
<time>2017-12-17T12:48:29Z</time>
</trkpt>
<trkpt lat="53.8894693" lon="16.8495948">
<ele>209</ele>
<time>2017-12-17T12:48:35Z</time>
</trkpt>
<trkpt lat="53.8903939" lon="16.8485780">
<ele>209</ele>
<time>2017-12-17T12:48:41Z</time>
</trkpt>
<trkpt lat="53.8912970" lon="16.8475869">
<ele>208</ele>
<time>2017-12-17T12:48:47Z</time>
</trkpt>
<trkpt lat="53.8921850" lon="16.8466187">
<ele>209</ele>
<time>2017-12-17T12:48:53Z</time>
</trkpt>
<trkpt lat="53.8929994" lon="16.8457384">
<ele>208</ele>
<time>2017-12-17T12:48:59Z</time>
</trkpt>
<trkpt lat="53.8937753" lon="16.8448755">
<ele>207</ele>
<time>2017-12-17T12:49:05Z</time>
</trkpt>
<trkpt lat="53.8945458" lon="16.8440743">
<ele>206</ele>
<time>2017-12-17T12:49:11Z</time>
</trkpt>
<trkpt lat="53.8952062" lon="16.8436027">
<ele>210</ele>
<time>2017-12-17T12:49:17Z</time>
</trkpt>
<trkpt lat="53.8953732" lon="16.8432641">
<ele>209</ele>
<time>2017-12-17T12:49:23Z</time>
</trkpt>
<trkpt lat="53.8954145" lon="16.8423850">
<ele>207</ele>
<time>2017-12-17T12:49:29Z</time>
</trkpt>
<trkpt lat="53.8954584" lon="16.8412674">
<ele>206</ele>
<time>2017-12-17T12:49:35Z</time>
</trkpt>
<trkpt lat="53.8954797" lon="16.8401225">
<ele>205</ele>
<time>2017-12-17T12:49:41Z</time>
</trkpt>
<trkpt lat="53.8954925" lon="16.8390863">
<ele>203</ele>
<time>2017-12-17T12:49:47Z</time>
</trkpt>
<trkpt lat="53.8955885" lon="16.8382624">
<ele>200</ele>
<time>2017-12-17T12:49:53Z</time>
</trkpt>
<trkpt lat="53.8956685" lon="16.8376670">
<ele>197</ele>
<time>2017-12-17T12:49:59Z</time>
</trkpt>
<trkpt lat="53.8957016" lon="16.8374602">
<ele>193</ele>
<time>2017-12-17T12:50:05Z</time>
</trkpt>
<trkpt lat="53.8957912" lon="16.8369667">
<ele>187</ele>
<time>2017-12-17T12:50:11Z</time>
</trkpt>
<trkpt lat="53.8958965" lon="16.8362605">
<ele>186</ele>
<time>2017-12-17T12:50:17Z</time>
</trkpt>
<trkpt lat="53.8959408" lon="16.8356389">
<ele>186</ele>
<time>2017-12-17T12:50:23Z</time>
</trkpt>
<trkpt lat="53.8963456" lon="16.8354690">
<ele>189</ele>
<time>2017-12-17T12:50:29Z</time>
</trkpt>
<trkpt lat="53.8963905" lon="16.8350867">
<ele>187</ele>
<time>2017-12-17T12:50:35Z</time>
</trkpt>
<trkpt lat="53.8961708" lon="16.8344527">
<ele>187</ele>
<time>2017-12-17T12:50:41Z</time>
</trkpt>
<trkpt lat="53.8959594" lon="16.8335842">
<ele>186</ele>
<time>2017-12-17T12:50:47Z</time>
</trkpt>
<trkpt lat="53.8958201" lon="16.8326934">
<ele>184</ele>
<time>2017-12-17T12:50:53Z</time>
</trkpt>
<trkpt lat="53.8960490" lon="16.8318055">
<ele>184</ele>
<time>2017-12-17T12:50:59Z</time>
</trkpt>
<trkpt lat="53.8966342" lon="16.8313185">
<ele>187</ele>
<time>2017-12-17T12:51:05Z</time>
</trkpt>
<trkpt lat="53.8971635" lon="16.8305838">
<ele>189</ele>
<time>2017-12-17T12:51:11Z</time>
</trkpt>
<trkpt lat="53.8974435" lon="16.8294764">
<ele>195</ele>
<time>2017-12-17T12:51:17Z</time>
</trkpt>
<trkpt lat="53.8976367" lon="16.8282360">
<ele>199</ele>
<time>2017-12-17T12:51:23Z</time>
</trkpt>
<trkpt lat="53.8978137" lon="16.8267997">
<ele>201</ele>
<time>2017-12-17T12:51:29Z</time>
</trkpt>
<trkpt lat="53.8980058" lon="16.8251252">
<ele>202</ele>
<time>2017-12-17T12:51:35Z</time>
</trkpt>
<trkpt lat="53.8982069" lon="16.8234422">
<ele>204</ele>
<time>2017-12-17T12:51:41Z</time>
</trkpt>
<trkpt lat="53.8984115" lon="16.8216464">
<ele>205</ele>
<time>2017-12-17T12:51:47Z</time>
</trkpt>
<trkpt lat="53.8986363" lon="16.8197113">
<ele>207</ele>
<time>2017-12-17T12:51:53Z</time>
</trkpt>
<trkpt lat="53.8988879" lon="16.8176340">
<ele>208</ele>
<time>2017-12-17T12:51:59Z</time>
</trkpt>
<trkpt lat="53.8991413" lon="16.8154673">
<ele>209</ele>
<time>2017-12-17T12:52:05Z</time>
</trkpt>
<trkpt lat="53.8994219" lon="16.8132349">
<ele>208</ele>
<time>2017-12-17T12:52:11Z</time>
</trkpt>
<trkpt lat="53.8996734" lon="16.8109690">
<ele>208</ele>
<time>2017-12-17T12:52:17Z</time>
</trkpt>
<trkpt lat="53.8999283" lon="16.8087023">
<ele>209</ele>
<time>2017-12-17T12:52:23Z</time>
</trkpt>
<trkpt lat="53.9001947" lon="16.8064305">
<ele>209</ele>
<time>2017-12-17T12:52:29Z</time>
</trkpt>
<trkpt lat="53.9004735" lon="16.8041587">
<ele>208</ele>
<time>2017-12-17T12:52:35Z</time>
</trkpt>
<trkpt lat="53.9007613" lon="16.8018632">
<ele>208</ele>
<time>2017-12-17T12:52:41Z</time>
</trkpt>
<trkpt lat="53.9010405" lon="16.7995439">
<ele>202</ele>
<time>2017-12-17T12:52:47Z</time>
</trkpt>
<trkpt lat="53.9013199" lon="16.7971437">
<ele>198</ele>
<time>2017-12-17T12:52:53Z</time>
</trkpt>
<trkpt lat="53.9016069" lon="16.7947645">
<ele>197</ele>
<time>2017-12-17T12:52:59Z</time>
</trkpt>
<trkpt lat="53.9018885" lon="16.7924228">
<ele>197</ele>
<time>2017-12-17T12:53:05Z</time>
</trkpt>
<trkpt lat="53.9021694" lon="16.7901239">
<ele>200</ele>
<time>2017-12-17T12:53:11Z</time>
</trkpt>
<trkpt lat="53.9024552" lon="16.7878725">
<ele>203</ele>
<time>2017-12-17T12:53:17Z</time>
</trkpt>
<trkpt lat="53.9027128" lon="16.7855920">
<ele>203</ele>
<time>2017-12-17T12:53:23Z</time>
</trkpt>
<trkpt lat="53.9029861" lon="16.7833194">
<ele>204</ele>
<time>2017-12-17T12:53:29Z</time>
</trkpt>
<trkpt lat="53.9032546" lon="16.7810734">
<ele>204</ele>
<time>2017-12-17T12:53:35Z</time>
</trkpt>
<trkpt lat="53.9035197" lon="16.7788404">
<ele>205</ele>
<time>2017-12-17T12:53:41Z</time>
</trkpt>
<trkpt lat="53.9037907" lon="16.7766172">
<ele>207</ele>
<time>2017-12-17T12:53:47Z</time>
</trkpt>
<trkpt lat="53.9040611" lon="16.7743965">
<ele>206</ele>
<time>2017-12-17T12:53:53Z</time>
</trkpt>
<trkpt lat="53.9043381" lon="16.7721728">
<ele>208</ele>
<time>2017-12-17T12:53:59Z</time>
</trkpt>
<trkpt lat="53.9046005" lon="16.7699260">
<ele>208</ele>
<time>2017-12-17T12:54:05Z</time>
</trkpt>
<trkpt lat="53.9048534" lon="16.7676887">
<ele>208</ele>
<time>2017-12-17T12:54:11Z</time>
</trkpt>
<trkpt lat="53.9051122" lon="16.7654437">
<ele>209</ele>
<time>2017-12-17T12:54:17Z</time>
</trkpt>
<trkpt lat="53.9053872" lon="16.7631891">
<ele>212</ele>
<time>2017-12-17T12:54:23Z</time>
</trkpt>
<trkpt lat="53.9056645" lon="16.7609131">
<ele>214</ele>
<time>2017-12-17T12:54:29Z</time>
</trkpt>
<trkpt lat="53.9059523" lon="16.7586139">
<ele>216</ele>
<time>2017-12-17T12:54:35Z</time>
</trkpt>
<trkpt lat="53.9062296" lon="16.7563053">
<ele>214</ele>
<time>2017-12-17T12:54:41Z</time>
</trkpt>
<trkpt lat="53.9064901" lon="16.7539889">
<ele>212</ele>
<time>2017-12-17T12:54:47Z</time>
</trkpt>
<trkpt lat="53.9067171" lon="16.7519272">
<ele>211</ele>
<time>2017-12-17T12:54:53Z</time>
</trkpt>
<trkpt lat="53.9070292" lon="16.7502117">
<ele>209</ele>
<time>2017-12-17T12:54:59Z</time>
</trkpt>
<trkpt lat="53.9077380" lon="16.7487564">
<ele>208</ele>
<time>2017-12-17T12:55:05Z</time>
</trkpt>
<trkpt lat="53.9086286" lon="16.7472985">
<ele>210</ele>
<time>2017-12-17T12:55:11Z</time>
</trkpt>
<trkpt lat="53.9095589" lon="16.7457060">
<ele>209</ele>
<time>2017-12-17T12:55:17Z</time>
</trkpt>
<trkpt lat="53.9104434" lon="16.7439066">
<ele>211</ele>
<time>2017-12-17T12:55:23Z</time>
</trkpt>
<trkpt lat="53.9111014" lon="16.7418099">
<ele>214</ele>
<time>2017-12-17T12:55:29Z</time>
</trkpt>
<trkpt lat="53.9117786" lon="16.7396763">
<ele>215</ele>
<time>2017-12-17T12:55:35Z</time>
</trkpt>
<trkpt lat="53.9124425" lon="16.7375284">
<ele>216</ele>
<time>2017-12-17T12:55:41Z</time>
</trkpt>
<trkpt lat="53.9131021" lon="16.7353843">
<ele>215</ele>
<time>2017-12-17T12:55:47Z</time>
</trkpt>
<trkpt lat="53.9137417" lon="16.7333095">
<ele>215</ele>
<time>2017-12-17T12:55:53Z</time>
</trkpt>
<trkpt lat="53.9143519" lon="16.7313119">
<ele>217</ele>
<time>2017-12-17T12:55:59Z</time>
</trkpt>
<trkpt lat="53.9149375" lon="16.7293336">
<ele>217</ele>
<time>2017-12-17T12:56:05Z</time>
</trkpt>
<trkpt lat="53.9153857" lon="16.7272280">
<ele>218</ele>
<time>2017-12-17T12:56:11Z</time>
</trkpt>
<trkpt lat="53.9157898" lon="16.7250668">
<ele>217</ele>
<time>2017-12-17T12:56:17Z</time>
</trkpt>
<trkpt lat="53.9162440" lon="16.7228636">
<ele>216</ele>
<time>2017-12-17T12:56:23Z</time>
</trkpt>
<trkpt lat="53.9167038" lon="16.7206778">
<ele>215</ele>
<time>2017-12-17T12:56:29Z</time>
</trkpt>
<trkpt lat="53.9171408" lon="16.7185318">
<ele>216</ele>
<time>2017-12-17T12:56:35Z</time>
</trkpt>
<trkpt lat="53.9175624" lon="16.7164100">
<ele>218</ele>
<time>2017-12-17T12:56:41Z</time>
</trkpt>
<trkpt lat="53.9179942" lon="16.7142676">
<ele>219</ele>
<time>2017-12-17T12:56:47Z</time>
</trkpt>
<trkpt lat="53.9184267" lon="16.7121110">
<ele>216</ele>
<time>2017-12-17T12:56:53Z</time>
</trkpt>
<trkpt lat="53.9188582" lon="16.7099229">
<ele>214</ele>
<time>2017-12-17T12:56:59Z</time>
</trkpt>
<trkpt lat="53.9193104" lon="16.7077156">
<ele>215</ele>
<time>2017-12-17T12:57:05Z</time>
</trkpt>
<trkpt lat="53.9197661" lon="16.7054709">
<ele>216</ele>
<time>2017-12-17T12:57:11Z</time>
</trkpt>
<trkpt lat="53.9202152" lon="16.7032097">
<ele>214</ele>
<time>2017-12-17T12:57:17Z</time>
</trkpt>
<trkpt lat="53.9206808" lon="16.7009224">
<ele>214</ele>
<time>2017-12-17T12:57:23Z</time>
</trkpt>
<trkpt lat="53.9211427" lon="16.6986979">
<ele>210</ele>
<time>2017-12-17T12:57:29Z</time>
</trkpt>
<trkpt lat="53.9215881" lon="16.6964464">
<ele>210</ele>
<time>2017-12-17T12:57:35Z</time>
</trkpt>
<trkpt lat="53.9220429" lon="16.6942066">
<ele>212</ele>
<time>2017-12-17T12:57:41Z</time>
</trkpt>
<trkpt lat="53.9225124" lon="16.6919578">
<ele>215</ele>
<time>2017-12-17T12:57:47Z</time>
</trkpt>
<trkpt lat="53.9229644" lon="16.6897051">
<ele>216</ele>
<time>2017-12-17T12:57:53Z</time>
</trkpt>
<trkpt lat="53.9233743" lon="16.6874741">
<ele>217</ele>
<time>2017-12-17T12:57:59Z</time>
</trkpt>
<trkpt lat="53.9238252" lon="16.6852806">
<ele>218</ele>
<time>2017-12-17T12:58:05Z</time>
</trkpt>
<trkpt lat="53.9242778" lon="16.6831230">
<ele>219</ele>
<time>2017-12-17T12:58:11Z</time>
</trkpt>
<trkpt lat="53.9247403" lon="16.6809609">
<ele>213</ele>
<time>2017-12-17T12:58:17Z</time>
</trkpt>
<trkpt lat="53.9252066" lon="16.6787616">
<ele>208</ele>
<time>2017-12-17T12:58:23Z</time>
</trkpt>
<trkpt lat="53.9256656" lon="16.6765537">
<ele>203</ele>
<time>2017-12-17T12:58:29Z</time>
</trkpt>
<trkpt lat="53.9261138" lon="16.6743493">
<ele>202</ele>
<time>2017-12-17T12:58:35Z</time>
</trkpt>
<trkpt lat="53.9265563" lon="16.6721756">
<ele>201</ele>
<time>2017-12-17T12:58:41Z</time>
</trkpt>
<trkpt lat="53.9269922" lon="16.6700238">
<ele>200</ele>
<time>2017-12-17T12:58:47Z</time>
</trkpt>
<trkpt lat="53.9274034" lon="16.6679484">
<ele>200</ele>
<time>2017-12-17T12:58:53Z</time>
</trkpt>
<trkpt lat="53.9277933" lon="16.6659593">
<ele>199</ele>
<time>2017-12-17T12:58:59Z</time>
</trkpt>
<trkpt lat="53.9281751" lon="16.6640890">
<ele>200</ele>
<time>2017-12-17T12:59:05Z</time>
</trkpt>
<trkpt lat="53.9287738" lon="16.6624794">
<ele>199</ele>
<time>2017-12-17T12:59:11Z</time>
</trkpt>
<trkpt lat="53.9295505" lon="16.6610910">
<ele>200</ele>
<time>2017-12-17T12:59:17Z</time>
</trkpt>
<trkpt lat="53.9302090" lon="16.6595271">
<ele>204</ele>
<time>2017-12-17T12:59:23Z</time>
</trkpt>
<trkpt lat="53.9305304" lon="16.6576439">
<ele>207</ele>
<time>2017-12-17T12:59:29Z</time>
</trkpt>
<trkpt lat="53.9305672" lon="16.6556358">
<ele>207</ele>
<time>2017-12-17T12:59:35Z</time>
</trkpt>
<trkpt lat="53.9305976" lon="16.6536571">
<ele>204</ele>
<time>2017-12-17T12:59:41Z</time>
</trkpt>
<trkpt lat="53.9308451" lon="16.6516568">
<ele>197</ele>
<time>2017-12-17T12:59:47Z</time>
</trkpt>
<trkpt lat="53.9313751" lon="16.6498487">
<ele>198</ele>
<time>2017-12-17T12:59:53Z</time>
</trkpt>
<trkpt lat="53.9320711" lon="16.6482715">
<ele>199</ele>
<time>2017-12-17T12:59:59Z</time>
</trkpt>
<trkpt lat="53.9327064" lon="16.6466716">
<ele>197</ele>
<time>2017-12-17T13:00:05Z</time>
</trkpt>
<trkpt lat="53.9332583" lon="16.6448456">
<ele>192</ele>
<time>2017-12-17T13:00:11Z</time>
</trkpt>
<trkpt lat="53.9338266" lon="16.6429377">
<ele>192</ele>
<time>2017-12-17T13:00:17Z</time>
</trkpt>
<trkpt lat="53.9341194" lon="16.6410687">
<ele>193</ele>
<time>2017-12-17T13:00:23Z</time>
</trkpt>
<trkpt lat="53.9346262" lon="16.6394284">
<ele>189</ele>
<time>2017-12-17T13:00:29Z</time>
</trkpt>
<trkpt lat="53.9364" lon="16.6345">
<ele>181</ele>
<time>2017-12-17T13:00:47Z</time>
</trkpt>
<trkpt lat="53.9369" lon="16.6329">
<ele>178</ele>
<time>2017-12-17T13:00:53Z</time>
</trkpt>
<trkpt lat="53.9372" lon="16.6312">
<ele>176</ele>
<time>2017-12-17T13:00:59Z</time>
</trkpt>
<trkpt lat="53.9374" lon="16.6296">
<ele>175</ele>
<time>2017-12-17T13:01:05Z</time>
</trkpt>
<trkpt lat="53.9378" lon="16.6284">
<ele>172</ele>
<time>2017-12-17T13:01:11Z</time>
</trkpt>
<trkpt lat="53.9384" lon="16.6276">
<ele>168</ele>
<time>2017-12-17T13:01:17Z</time>
</trkpt>
<trkpt lat="53.9392" lon="16.627">
<ele>163</ele>
<time>2017-12-17T13:01:23Z</time>
</trkpt>
<trkpt lat="53.94" lon="16.626">
<ele>165</ele>
<time>2017-12-17T13:01:29Z</time>
</trkpt>
<trkpt lat="53.9404" lon="16.6245">
<ele>167</ele>
<time>2017-12-17T13:01:35Z</time>
</trkpt>
<trkpt lat="53.9406" lon="16.6227">
<ele>165</ele>
<time>2017-12-17T13:01:41Z</time>
</trkpt>
<trkpt lat="53.9407" lon="16.621">
<ele>166</ele>
<time>2017-12-17T13:01:47Z</time>
</trkpt>
<trkpt lat="53.9406425" lon="16.6191793">
<ele>166</ele>
<time>2017-12-17T13:01:53Z</time>
</trkpt>
<trkpt lat="53.9407339" lon="16.6174239">
<ele>166</ele>
<time>2017-12-17T13:01:59Z</time>
</trkpt>
<trkpt lat="53.9409849" lon="16.6157121">
<ele>170</ele>
<time>2017-12-17T13:02:05Z</time>
</trkpt>
<trkpt lat="53.9412445" lon="16.6139749">
<ele>171</ele>
<time>2017-12-17T13:02:11Z</time>
</trkpt>
<trkpt lat="53.9415187" lon="16.6123956">
<ele>172</ele>
<time>2017-12-17T13:02:17Z</time>
</trkpt>
<trkpt lat="53.9421008" lon="16.6111460">
<ele>172</ele>
<time>2017-12-17T13:02:23Z</time>
</trkpt>
<trkpt lat="53.9429283" lon="16.6103135">
<ele>173</ele>
<time>2017-12-17T13:02:29Z</time>
</trkpt>
<trkpt lat="53.9437870" lon="16.6095385">
<ele>172</ele>
<time>2017-12-17T13:02:35Z</time>
</trkpt>
<trkpt lat="53.9446896" lon="16.6087054">
<ele>172</ele>
<time>2017-12-17T13:02:41Z</time>
</trkpt>
<trkpt lat="53.9455840" lon="16.6076227">
<ele>172</ele>
<time>2017-12-17T13:02:47Z</time>
</trkpt>
<trkpt lat="53.9463101" lon="16.6060753">
<ele>173</ele>
<time>2017-12-17T13:02:53Z</time>
</trkpt>
<trkpt lat="53.9469322" lon="16.6044749">
<ele>175</ele>
<time>2017-12-17T13:02:59Z</time>
</trkpt>
<trkpt lat="53.9475699" lon="16.6029071">
<ele>175</ele>
<time>2017-12-17T13:03:05Z</time>
</trkpt>
<trkpt lat="53.9481537" lon="16.6014053">
<ele>174</ele>
<time>2017-12-17T13:03:11Z</time>
</trkpt>
<trkpt lat="53.9485984" lon="16.6001760">
<ele>167</ele>
<time>2017-12-17T13:03:17Z</time>
</trkpt>
<trkpt lat="53.9490322" lon="16.5989306">
<ele>163</ele>
<time>2017-12-17T13:03:23Z</time>
</trkpt>
<trkpt lat="53.9494721" lon="16.5976749">
<ele>158</ele>
<time>2017-12-17T13:03:29Z</time>
</trkpt>
<trkpt lat="53.9498946" lon="16.5964233">
<ele>154</ele>
<time>2017-12-17T13:03:35Z</time>
</trkpt>
<trkpt lat="53.9503117" lon="16.5952289">
<ele>150</ele>
<time>2017-12-17T13:03:41Z</time>
</trkpt>
<trkpt lat="53.9507081" lon="16.5940710">
<ele>148</ele>
<time>2017-12-17T13:03:47Z</time>
</trkpt>
<trkpt lat="53.9510604" lon="16.5929548">
<ele>148</ele>
<time>2017-12-17T13:03:53Z</time>
</trkpt>
<trkpt lat="53.9511719" lon="16.5918135">
<ele>149</ele>
<time>2017-12-17T13:03:59Z</time>
</trkpt>
<trkpt lat="53.9512358" lon="16.5907483">
<ele>149</ele>
<time>2017-12-17T13:04:05Z</time>
</trkpt>
<trkpt lat="53.9516178" lon="16.5898067">
<ele>149</ele>
<time>2017-12-17T13:04:11Z</time>
</trkpt>
<trkpt lat="53.9520336" lon="16.5889086">
<ele>149</ele>
<time>2017-12-17T13:04:17Z</time>
</trkpt>
<trkpt lat="53.9523749" lon="16.5882304">
<ele>150</ele>
<time>2017-12-17T13:04:23Z</time>
</trkpt>
<trkpt lat="53.9525925" lon="16.5879009">
<ele>148</ele>
<time>2017-12-17T13:04:29Z</time>
</trkpt>
<trkpt lat="53.9529680" lon="16.5879465">
<ele>147</ele>
<time>2017-12-17T13:04:35Z</time>
</trkpt>
<trkpt lat="53.9534481" lon="16.5884392">
<ele>147</ele>
<time>2017-12-17T13:04:41Z</time>
</trkpt>
<trkpt lat="53.9539850" lon="16.5886397">
<ele>147</ele>
<time>2017-12-17T13:04:47Z</time>
</trkpt>
<trkpt lat="53.9545165" lon="16.5883671">
<ele>150</ele>
<time>2017-12-17T13:04:53Z</time>
</trkpt>
<trkpt lat="53.9546527" lon="16.5881670">
<ele>151</ele>
<time>2017-12-17T13:04:59Z</time>
</trkpt>
<trkpt lat="53.9548156" lon="16.5880394">
<ele>150</ele>
<time>2017-12-17T13:05:05Z</time>
</trkpt>
<trkpt lat="53.9549550" lon="16.5877079">
<ele>150</ele>
<time>2017-12-17T13:05:11Z</time>
</trkpt>
<trkpt lat="53.9551805" lon="16.5871556">
<ele>148</ele>
<time>2017-12-17T13:05:17Z</time>
</trkpt>
<trkpt lat="53.9555578" lon="16.5864484">
<ele>147</ele>
<time>2017-12-17T13:05:23Z</time>
</trkpt>
<trkpt lat="53.9560093" lon="16.5856762">
<ele>148</ele>
<time>2017-12-17T13:05:29Z</time>
</trkpt>
<trkpt lat="53.9566183" lon="16.5851326">
<ele>149</ele>
<time>2017-12-17T13:05:35Z</time>
</trkpt>
<trkpt lat="53.9571805" lon="16.5849797">
<ele>151</ele>
<time>2017-12-17T13:05:41Z</time>
</trkpt>
<trkpt lat="53.9577402" lon="16.5851731">
<ele>152</ele>
<time>2017-12-17T13:05:47Z</time>
</trkpt>
<trkpt lat="53.9582576" lon="16.5852331">
<ele>153</ele>
<time>2017-12-17T13:05:53Z</time>
</trkpt>
<trkpt lat="53.9587460" lon="16.5848462">
<ele>156</ele>
<time>2017-12-17T13:05:59Z</time>
</trkpt>
<trkpt lat="53.9592990" lon="16.5843570">
<ele>158</ele>
<time>2017-12-17T13:06:05Z</time>
</trkpt>
<trkpt lat="53.9599641" lon="16.5837822">
<ele>158</ele>
<time>2017-12-17T13:06:11Z</time>
</trkpt>
<trkpt lat="53.9606822" lon="16.5831426">
<ele>158</ele>
<time>2017-12-17T13:06:17Z</time>
</trkpt>
<trkpt lat="53.9614265" lon="16.5822787">
<ele>159</ele>
<time>2017-12-17T13:06:23Z</time>
</trkpt>
<trkpt lat="53.9621588" lon="16.5811114">
<ele>158</ele>
<time>2017-12-17T13:06:29Z</time>
</trkpt>
<trkpt lat="53.9629300" lon="16.5798381">
<ele>157</ele>
<time>2017-12-17T13:06:35Z</time>
</trkpt>
<trkpt lat="53.9637343" lon="16.5785366">
<ele>155</ele>
<time>2017-12-17T13:06:41Z</time>
</trkpt>
<trkpt lat="53.9644062" lon="16.5769600">
<ele>150</ele>
<time>2017-12-17T13:06:47Z</time>
</trkpt>
<trkpt lat="53.9650482" lon="16.5751537">
<ele>145</ele>
<time>2017-12-17T13:06:53Z</time>
</trkpt>
<trkpt lat="53.9656883" lon="16.5733738">
<ele>139</ele>
<time>2017-12-17T13:06:59Z</time>
</trkpt>
<trkpt lat="53.9663289" lon="16.5715619">
<ele>135</ele>
<time>2017-12-17T13:07:05Z</time>
</trkpt>
<trkpt lat="53.9669156" lon="16.5698214">
<ele>136</ele>
<time>2017-12-17T13:07:11Z</time>
</trkpt>
<trkpt lat="53.9673365" lon="16.5680538">
<ele>139</ele>
<time>2017-12-17T13:07:17Z</time>
</trkpt>
<trkpt lat="53.9676850" lon="16.5662784">
<ele>142</ele>
<time>2017-12-17T13:07:23Z</time>
</trkpt>
<trkpt lat="53.9680405" lon="16.5645242">
<ele>144</ele>
<time>2017-12-17T13:07:29Z</time>
</trkpt>
<trkpt lat="53.9685592" lon="16.5629800">
<ele>143</ele>
<time>2017-12-17T13:07:35Z</time>
</trkpt>
<trkpt lat="53.9693674" lon="16.5616128">
<ele>140</ele>
<time>2017-12-17T13:07:41Z</time>
</trkpt>
<trkpt lat="53.9702359" lon="16.5601891">
<ele>138</ele>
<time>2017-12-17T13:07:47Z</time>
</trkpt>
<trkpt lat="53.9711135" lon="16.5586931">
<ele>137</ele>
<time>2017-12-17T13:07:53Z</time>
</trkpt>
<trkpt lat="53.9719270" lon="16.5570555">
<ele>138</ele>
<time>2017-12-17T13:07:59Z</time>
</trkpt>
<trkpt lat="53.9726182" lon="16.5553572">
<ele>140</ele>
<time>2017-12-17T13:08:05Z</time>
</trkpt>
<trkpt lat="53.9732769" lon="16.5537801">
<ele>143</ele>
<time>2017-12-17T13:08:11Z</time>
</trkpt>
<trkpt lat="53.9738067" lon="16.5528444">
<ele>146</ele>
<time>2017-12-17T13:08:17Z</time>
</trkpt>
<trkpt lat="53.9739641" lon="16.5522871">
<ele>146</ele>
<time>2017-12-17T13:08:23Z</time>
</trkpt>
<trkpt lat="53.9738549" lon="16.5514180">
<ele>145</ele>
<time>2017-12-17T13:08:29Z</time>
</trkpt>
<trkpt lat="53.9739129" lon="16.5502653">
<ele>144</ele>
<time>2017-12-17T13:08:35Z</time>
</trkpt>
<trkpt lat="53.9739915" lon="16.5489078">
<ele>146</ele>
<time>2017-12-17T13:08:41Z</time>
</trkpt>
<trkpt lat="53.9740461" lon="16.5475221">
<ele>147</ele>
<time>2017-12-17T13:08:47Z</time>
</trkpt>
<trkpt lat="53.9742164" lon="16.5460804">
<ele>147</ele>
<time>2017-12-17T13:08:53Z</time>
</trkpt>
<trkpt lat="53.9746264" lon="16.5445894">
<ele>150</ele>
<time>2017-12-17T13:08:59Z</time>
</trkpt>
<trkpt lat="53.9749504" lon="16.5429321">
<ele>155</ele>
<time>2017-12-17T13:09:05Z</time>
</trkpt>
<trkpt lat="53.9751728" lon="16.5413440">
<ele>159</ele>
<time>2017-12-17T13:09:11Z</time>
</trkpt>
<trkpt lat="53.9755353" lon="16.5402126">
<ele>162</ele>
<time>2017-12-17T13:09:17Z</time>
</trkpt>
<trkpt lat="53.9762969" lon="16.5399172">
<ele>158</ele>
<time>2017-12-17T13:09:23Z</time>
</trkpt>
<trkpt lat="53.9770356" lon="16.5395856">
<ele>155</ele>
<time>2017-12-17T13:09:29Z</time>
</trkpt>
<trkpt lat="53.9777808" lon="16.5392673">
<ele>154</ele>
<time>2017-12-17T13:09:35Z</time>
</trkpt>
<trkpt lat="53.9784953" lon="16.5390722">
<ele>153</ele>
<time>2017-12-17T13:09:41Z</time>
</trkpt>
<trkpt lat="53.9790597" lon="16.5390061">
<ele>152</ele>
<time>2017-12-17T13:09:47Z</time>
</trkpt>
<trkpt lat="53.9793882" lon="16.5388124">
<ele>153</ele>
<time>2017-12-17T13:09:53Z</time>
</trkpt>
<trkpt lat="53.9794316" lon="16.5384184">
<ele>154</ele>
<time>2017-12-17T13:09:59Z</time>
</trkpt>
<trkpt lat="53.9793843" lon="16.5377411">
<ele>155</ele>
<time>2017-12-17T13:10:05Z</time>
</trkpt>
<trkpt lat="53.9794813" lon="16.5368127">
<ele>157</ele>
<time>2017-12-17T13:10:11Z</time>
</trkpt>
<trkpt lat="53.9796283" lon="16.5356196">
<ele>155</ele>
<time>2017-12-17T13:10:17Z</time>
</trkpt>
<trkpt lat="53.9797669" lon="16.5342647">
<ele>156</ele>
<time>2017-12-17T13:10:23Z</time>
</trkpt>
<trkpt lat="53.9799249" lon="16.5327262">
<ele>157</ele>
<time>2017-12-17T13:10:29Z</time>
</trkpt>
<trkpt lat="53.9800856" lon="16.5312029">
<ele>160</ele>
<time>2017-12-17T13:10:35Z</time>
</trkpt>
<trkpt lat="53.9802613" lon="16.5296003">
<ele>162</ele>
<time>2017-12-17T13:10:41Z</time>
</trkpt>
<trkpt lat="53.9804424" lon="16.5278973">
<ele>164</ele>
<time>2017-12-17T13:10:47Z</time>
</trkpt>
<trkpt lat="53.9806286" lon="16.5261461">
<ele>165</ele>
<time>2017-12-17T13:10:53Z</time>
</trkpt>
<trkpt lat="53.9808134" lon="16.5243663">
<ele>167</ele>
<time>2017-12-17T13:10:59Z</time>
</trkpt>
<trkpt lat="53.9810051" lon="16.5225994">
<ele>168</ele>
<time>2017-12-17T13:11:05Z</time>
</trkpt>
<trkpt lat="53.9811830" lon="16.5208915">
<ele>170</ele>
<time>2017-12-17T13:11:11Z</time>
</trkpt>
<trkpt lat="53.9813377" lon="16.5192713">
<ele>171</ele>
<time>2017-12-17T13:11:17Z</time>
</trkpt>
<trkpt lat="53.9816292" lon="16.5177628">
<ele>173</ele>
<time>2017-12-17T13:11:23Z</time>
</trkpt>
<trkpt lat="53.9820645" lon="16.5162614">
<ele>174</ele>
<time>2017-12-17T13:11:29Z</time>
</trkpt>
<trkpt lat="53.9824855" lon="16.5147450">
<ele>175</ele>
<time>2017-12-17T13:11:35Z</time>
</trkpt>
<trkpt lat="53.9828990" lon="16.5132323">
<ele>176</ele>
<time>2017-12-17T13:11:41Z</time>
</trkpt>
<trkpt lat="53.9832895" lon="16.5117350">
<ele>177</ele>
<time>2017-12-17T13:11:47Z</time>
</trkpt>
<trkpt lat="53.9836902" lon="16.5102391">
<ele>176</ele>
<time>2017-12-17T13:11:53Z</time>
</trkpt>
<trkpt lat="53.9841002" lon="16.5086718">
<ele>175</ele>
<time>2017-12-17T13:11:59Z</time>
</trkpt>
<trkpt lat="53.9845116" lon="16.5070361">
<ele>173</ele>
<time>2017-12-17T13:12:05Z</time>
</trkpt>
<trkpt lat="53.9848607" lon="16.5053172">
<ele>171</ele>
<time>2017-12-17T13:12:11Z</time>
</trkpt>
<trkpt lat="53.9852230" lon="16.5035315">
<ele>170</ele>
<time>2017-12-17T13:12:17Z</time>
</trkpt>
<trkpt lat="53.9855846" lon="16.5017107">
<ele>169</ele>
<time>2017-12-17T13:12:23Z</time>
</trkpt>
<trkpt lat="53.9859650" lon="16.4998484">
<ele>169</ele>
<time>2017-12-17T13:12:29Z</time>
</trkpt>
<trkpt lat="53.9863466" lon="16.4979788">
<ele>169</ele>
<time>2017-12-17T13:12:35Z</time>
</trkpt>
<trkpt lat="53.9867277" lon="16.4960375">
<ele>170</ele>
<time>2017-12-17T13:12:41Z</time>
</trkpt>
<trkpt lat="53.9871256" lon="16.4940973">
<ele>170</ele>
<time>2017-12-17T13:12:47Z</time>
</trkpt>
<trkpt lat="53.9875244" lon="16.4921589">
<ele>170</ele>
<time>2017-12-17T13:12:53Z</time>
</trkpt>
<trkpt lat="53.9878997" lon="16.4903137">
<ele>171</ele>
<time>2017-12-17T13:12:59Z</time>
</trkpt>
<trkpt lat="53.9882546" lon="16.4885896">
<ele>168</ele>
<time>2017-12-17T13:13:05Z</time>
</trkpt>
<trkpt lat="53.9884302" lon="16.4869905">
<ele>163</ele>
<time>2017-12-17T13:13:11Z</time>
</trkpt>
<trkpt lat="53.9885489" lon="16.4859043">
<ele>161</ele>
<time>2017-12-17T13:13:17Z</time>
</trkpt>
<trkpt lat="53.9886172" lon="16.4853887">
<ele>160</ele>
<time>2017-12-17T13:13:23Z</time>
</trkpt>
<trkpt lat="53.9887210" lon="16.4854160">
<ele>160</ele>
<time>2017-12-17T13:13:29Z</time>
</trkpt>
<trkpt lat="53.9888020" lon="16.4854797">
<ele>160</ele>
<time>2017-12-17T13:13:35Z</time>
</trkpt>
<trkpt lat="53.9888020" lon="16.4854797">
<ele>160</ele>
<time>2017-12-17T13:13:41Z</time>
</trkpt>
<trkpt lat="53.9888020" lon="16.4854797">
<ele>160</ele>
<time>2017-12-17T13:13:47Z</time>
</trkpt>
<trkpt lat="53.9888020" lon="16.4854797">
<ele>160</ele>
<time>2017-12-17T13:13:53Z</time>
</trkpt>
<trkpt lat="53.9888020" lon="16.4854797">
<ele>160</ele>
<time>2017-12-17T13:13:59Z</time>
</trkpt>
<trkpt lat="53.9888020" lon="16.4854797">
<ele>160</ele>
<time>2017-12-17T13:14:05Z</time>
</trkpt>
<trkpt lat="53.9888020" lon="16.4854797">
<ele>160</ele>
<time>2017-12-17T13:14:11Z</time>
</trkpt>
<trkpt lat="53.9888020" lon="16.4854797">
<ele>160</ele>
<time>2017-12-17T13:14:17Z</time>
</trkpt>
<trkpt lat="53.9888020" lon="16.4854797">
<ele>160</ele>
<time>2017-12-17T13:14:23Z</time>
</trkpt>
<trkpt lat="53.9888020" lon="16.4854797">
<ele>160</ele>
<time>2017-12-17T13:14:29Z</time>
</trkpt>
<trkpt lat="53.9888020" lon="16.4854797">
<ele>160</ele>
<time>2017-12-17T13:14:35Z</time>
</trkpt>
<trkpt lat="53.9888233" lon="16.4854515">
<ele>160</ele>
<time>2017-12-17T13:14:41Z</time>
</trkpt>
<trkpt lat="53.9888603" lon="16.4853634">
<ele>160</ele>
<time>2017-12-17T13:14:47Z</time>
</trkpt>
<trkpt lat="53.9888762" lon="16.4853122">
<ele>160</ele>
<time>2017-12-17T13:14:53Z</time>
</trkpt>
<trkpt lat="53.9888777" lon="16.4853120">
<ele>160</ele>
<time>2017-12-17T13:14:59Z</time>
</trkpt>
<trkpt lat="53.9888777" lon="16.4853120">
<ele>160</ele>
<time>2017-12-17T13:15:05Z</time>
</trkpt>
<trkpt lat="53.9888777" lon="16.4853120">
<ele>160</ele>
<time>2017-12-17T13:15:11Z</time>
</trkpt>
<trkpt lat="53.9888922" lon="16.4853041">
<ele>160</ele>
<time>2017-12-17T13:15:17Z</time>
</trkpt>
<trkpt lat="53.9889073" lon="16.4853093">
<ele>160</ele>
<time>2017-12-17T13:15:23Z</time>
</trkpt>
<trkpt lat="53.9888714" lon="16.4853631">
<ele>159</ele>
<time>2017-12-17T13:15:29Z</time>
</trkpt>
<trkpt lat="53.9888930" lon="16.4853864">
<ele>159</ele>
<time>2017-12-17T13:15:35Z</time>
</trkpt>
<trkpt lat="53.9888930" lon="16.4853864">
<ele>159</ele>
<time>2017-12-17T13:15:41Z</time>
</trkpt>
<trkpt lat="53.9888930" lon="16.4853864">
<ele>159</ele>
<time>2017-12-17T13:15:47Z</time>
</trkpt>
<trkpt lat="53.9888930" lon="16.4853864">
<ele>159</ele>
<time>2017-12-17T13:15:53Z</time>
</trkpt>
<trkpt lat="53.9888930" lon="16.4853864">
<ele>159</ele>
<time>2017-12-17T13:15:59Z</time>
</trkpt>
<trkpt lat="53.9888930" lon="16.4853864">
<ele>159</ele>
<time>2017-12-17T13:16:05Z</time>
</trkpt>
<trkpt lat="53.9888930" lon="16.4853864">
<ele>159</ele>
<time>2017-12-17T13:16:11Z</time>
</trkpt>
<trkpt lat="53.9888930" lon="16.4853864">
<ele>159</ele>
<time>2017-12-17T13:16:17Z</time>
</trkpt>
<trkpt lat="53.9888930" lon="16.4853864">
<ele>159</ele>
<time>2017-12-17T13:16:23Z</time>
</trkpt>
<trkpt lat="53.9888930" lon="16.4853864">
<ele>159</ele>
<time>2017-12-17T13:16:29Z</time>
</trkpt>
<trkpt lat="53.9888930" lon="16.4853864">
<ele>159</ele>
<time>2017-12-17T13:16:35Z</time>
</trkpt>
<trkpt lat="53.9888930" lon="16.4853864">
<ele>159</ele>
<time>2017-12-17T13:16:41Z</time>
</trkpt>
<trkpt lat="53.9888930" lon="16.4853864">
<ele>159</ele>
<time>2017-12-17T13:16:47Z</time>
</trkpt>
<trkpt lat="53.9888930" lon="16.4853864">
<ele>159</ele>
<time>2017-12-17T13:16:53Z</time>
</trkpt>
<trkpt lat="53.9888930" lon="16.4853864">
<ele>159</ele>
<time>2017-12-17T13:16:59Z</time>
</trkpt>
<trkpt lat="53.9888930" lon="16.4853864">
<ele>159</ele>
<time>2017-12-17T13:17:05Z</time>
</trkpt>
<trkpt lat="53.9888763" lon="16.4854073">
<ele>159</ele>
<time>2017-12-17T13:17:11Z</time>
</trkpt>
<trkpt lat="53.9888596" lon="16.4854110">
<ele>159</ele>
<time>2017-12-17T13:17:17Z</time>
</trkpt>
<trkpt lat="53.9888760" lon="16.4853917">
<ele>158</ele>
<time>2017-12-17T13:17:23Z</time>
</trkpt>
<trkpt lat="53.9889596" lon="16.4852605">
<ele>156</ele>
<time>2017-12-17T13:17:29Z</time>
</trkpt>
<trkpt lat="53.9890411" lon="16.4851421">
<ele>154</ele>
<time>2017-12-17T13:17:35Z</time>
</trkpt>
<trkpt lat="53.9890617" lon="16.4851796">
<ele>152</ele>
<time>2017-12-17T13:17:41Z</time>
</trkpt>
<trkpt lat="53.9890140" lon="16.4852587">
<ele>151</ele>
<time>2017-12-17T13:17:47Z</time>
</trkpt>
<trkpt lat="53.9888860" lon="16.4854071">
<ele>150</ele>
<time>2017-12-17T13:17:53Z</time>
</trkpt>
<trkpt lat="53.9885093" lon="16.4858763">
<ele>149</ele>
<time>2017-12-17T13:17:59Z</time>
</trkpt>
<trkpt lat="53.9882671" lon="16.4858971">
<ele>148</ele>
<time>2017-12-17T13:18:05Z</time>
</trkpt>
<trkpt lat="53.9882948" lon="16.4858600">
<ele>147</ele>
<time>2017-12-17T13:18:11Z</time>
</trkpt>
<trkpt lat="53.9880972" lon="16.4859413">
<ele>145</ele>
<time>2017-12-17T13:18:17Z</time>
</trkpt>
<trkpt lat="53.9878978" lon="16.4860067">
<ele>142</ele>
<time>2017-12-17T13:18:29Z</time>
</trkpt>
<trkpt lat="53.9878691" lon="16.4860500">
<ele>142</ele>
<time>2017-12-17T13:18:35Z</time>
</trkpt>
<trkpt lat="53.9885989" lon="16.4852653">
<ele>142</ele>
<time>2017-12-17T13:18:41Z</time>
</trkpt>
<trkpt lat="53.9890380" lon="16.4847610">
<ele>143</ele>
<time>2017-12-17T13:18:47Z</time>
</trkpt>
<trkpt lat="53.9890960" lon="16.4848855">
<ele>146</ele>
<time>2017-12-17T13:18:53Z</time>
</trkpt>
<trkpt lat="53.9889563" lon="16.4852591">
<ele>147</ele>
<time>2017-12-17T13:18:59Z</time>
</trkpt>
<trkpt lat="53.9888997" lon="16.4853639">
<ele>150</ele>
<time>2017-12-17T13:19:05Z</time>
</trkpt>
<trkpt lat="53.9886517" lon="16.4857231">
<ele>152</ele>
<time>2017-12-17T13:19:11Z</time>
</trkpt>
<trkpt lat="53.9885092" lon="16.4859486">
<ele>152</ele>
<time>2017-12-17T13:19:17Z</time>
</trkpt>
<trkpt lat="53.9886151" lon="16.4857178">
<ele>153</ele>
<time>2017-12-17T13:19:23Z</time>
</trkpt>
<trkpt lat="53.9886807" lon="16.4855472">
<ele>153</ele>
<time>2017-12-17T13:19:29Z</time>
</trkpt>
<trkpt lat="53.9886585" lon="16.4855497">
<ele>154</ele>
<time>2017-12-17T13:19:35Z</time>
</trkpt>
<trkpt lat="53.9889" lon="16.4857">
<ele>99</ele>
<time>2017-12-17T13:20:08Z</time>
</trkpt>
<trkpt lat="53.9888913" lon="16.4856708">
<ele>139</ele>
<time>2017-12-17T13:20:14Z</time>
</trkpt>
<trkpt lat="53.9888922" lon="16.4856618">
<ele>142</ele>
<time>2017-12-17T13:20:20Z</time>
</trkpt>
<trkpt lat="53.9888922" lon="16.4856618">
<ele>142</ele>
<time>2017-12-17T13:20:26Z</time>
</trkpt>
<trkpt lat="53.9888922" lon="16.4856618">
<ele>142</ele>
<time>2017-12-17T13:20:32Z</time>
</trkpt>
<trkpt lat="53.989" lon="16.4856">
<ele>189</ele>
<time>2017-12-17T13:24:33Z</time>
</trkpt>
<trkpt lat="53.9889820" lon="16.4855795">
<ele>189</ele>
<time>2017-12-17T13:24:39Z</time>
</trkpt>
<trkpt lat="53.9889820" lon="16.4855795">
<ele>189</ele>
<time>2017-12-17T13:24:45Z</time>
</trkpt>
<trkpt lat="53.9890258" lon="16.4855975">
<ele>185</ele>
<time>2017-12-17T13:24:51Z</time>
</trkpt>
<trkpt lat="53.9890259" lon="16.4857225">
<ele>181</ele>
<time>2017-12-17T13:24:57Z</time>
</trkpt>
<trkpt lat="53.9889620" lon="16.4855765">
<ele>173</ele>
<time>2017-12-17T13:25:03Z</time>
</trkpt>
<trkpt lat="53.9889620" lon="16.4855765">
<ele>173</ele>
<time>2017-12-17T13:25:09Z</time>
</trkpt>
<trkpt lat="53.9889498" lon="16.4855689">
<ele>171</ele>
<time>2017-12-17T13:25:15Z</time>
</trkpt>
<trkpt lat="53.9889380" lon="16.4855625">
<ele>170</ele>
<time>2017-12-17T13:25:21Z</time>
</trkpt>
<trkpt lat="53.9889213" lon="16.4855570">
<ele>167</ele>
<time>2017-12-17T13:25:27Z</time>
</trkpt>
<trkpt lat="53.9889213" lon="16.4855570">
<ele>167</ele>
<time>2017-12-17T13:25:33Z</time>
</trkpt>
<trkpt lat="53.9889213" lon="16.4855570">
<ele>167</ele>
<time>2017-12-17T13:25:39Z</time>
</trkpt>
<trkpt lat="53.9889213" lon="16.4855570">
<ele>167</ele>
<time>2017-12-17T13:25:45Z</time>
</trkpt>
<trkpt lat="53.9889213" lon="16.4855570">
<ele>167</ele>
<time>2017-12-17T13:25:51Z</time>
</trkpt>
<trkpt lat="53.9888528" lon="16.4856200">
<ele>167</ele>
<time>2017-12-17T13:25:57Z</time>
</trkpt>
<trkpt lat="53.9888074" lon="16.4854814">
<ele>167</ele>
<time>2017-12-17T13:26:03Z</time>
</trkpt>
<trkpt lat="53.9888074" lon="16.4854814">
<ele>167</ele>
<time>2017-12-17T13:26:09Z</time>
</trkpt>
<trkpt lat="53.9888074" lon="16.4854814">
<ele>167</ele>
<time>2017-12-17T13:26:15Z</time>
</trkpt>
<trkpt lat="53.9888074" lon="16.4854814">
<ele>167</ele>
<time>2017-12-17T13:26:21Z</time>
</trkpt>
<trkpt lat="53.9888074" lon="16.4854814">
<ele>167</ele>
<time>2017-12-17T13:26:27Z</time>
</trkpt>
<trkpt lat="53.9887822" lon="16.4855357">
<ele>166</ele>
<time>2017-12-17T13:26:33Z</time>
</trkpt>
<trkpt lat="53.9887822" lon="16.4855357">
<ele>166</ele>
<time>2017-12-17T13:26:39Z</time>
</trkpt>
<trkpt lat="53.9887822" lon="16.4855357">
<ele>166</ele>
<time>2017-12-17T13:26:45Z</time>
</trkpt>
<trkpt lat="53.9887822" lon="16.4855357">
<ele>166</ele>
<time>2017-12-17T13:26:51Z</time>
</trkpt>
<trkpt lat="53.9887822" lon="16.4855357">
<ele>166</ele>
<time>2017-12-17T13:26:57Z</time>
</trkpt>
<trkpt lat="53.9887822" lon="16.4855357">
<ele>166</ele>
<time>2017-12-17T13:27:03Z</time>
</trkpt>
<trkpt lat="53.9887822" lon="16.4855357">
<ele>166</ele>
<time>2017-12-17T13:27:09Z</time>
</trkpt>
<trkpt lat="53.9887822" lon="16.4855357">
<ele>166</ele>
<time>2017-12-17T13:27:15Z</time>
</trkpt>
<trkpt lat="53.9887822" lon="16.4855357">
<ele>166</ele>
<time>2017-12-17T13:27:21Z</time>
</trkpt>
<trkpt lat="53.9887822" lon="16.4855357">
<ele>166</ele>
<time>2017-12-17T13:27:27Z</time>
</trkpt>
<trkpt lat="53.9887822" lon="16.4855357">
<ele>166</ele>
<time>2017-12-17T13:27:33Z</time>
</trkpt>
<trkpt lat="53.9887822" lon="16.4855357">
<ele>166</ele>
<time>2017-12-17T13:27:39Z</time>
</trkpt>
<trkpt lat="53.9887822" lon="16.4855357">
<ele>166</ele>
<time>2017-12-17T13:27:45Z</time>
</trkpt>
<trkpt lat="53.9887822" lon="16.4855357">
<ele>166</ele>
<time>2017-12-17T13:27:51Z</time>
</trkpt>
<trkpt lat="53.9887738" lon="16.4855624">
<ele>168</ele>
<time>2017-12-17T13:27:57Z</time>
</trkpt>
<trkpt lat="53.9887738" lon="16.4855624">
<ele>168</ele>
<time>2017-12-17T13:28:03Z</time>
</trkpt>
<trkpt lat="53.9887762" lon="16.4855535">
<ele>169</ele>
<time>2017-12-17T13:28:09Z</time>
</trkpt>
<trkpt lat="53.9887877" lon="16.4855185">
<ele>169</ele>
<time>2017-12-17T13:28:15Z</time>
</trkpt>
<trkpt lat="53.9887877" lon="16.4855185">
<ele>169</ele>
<time>2017-12-17T13:28:21Z</time>
</trkpt>
<trkpt lat="53.9887877" lon="16.4855185">
<ele>169</ele>
<time>2017-12-17T13:28:27Z</time>
</trkpt>
<trkpt lat="53.9887877" lon="16.4855185">
<ele>169</ele>
<time>2017-12-17T13:28:33Z</time>
</trkpt>
<trkpt lat="53.9887877" lon="16.4855185">
<ele>169</ele>
<time>2017-12-17T13:28:39Z</time>
</trkpt>
<trkpt lat="53.9887877" lon="16.4855185">
<ele>169</ele>
<time>2017-12-17T13:28:45Z</time>
</trkpt>
<trkpt lat="53.9887877" lon="16.4855185">
<ele>169</ele>
<time>2017-12-17T13:28:51Z</time>
</trkpt>
<trkpt lat="53.9887877" lon="16.4855185">
<ele>169</ele>
<time>2017-12-17T13:28:57Z</time>
</trkpt>
<trkpt lat="53.9887877" lon="16.4855185">
<ele>169</ele>
<time>2017-12-17T13:29:03Z</time>
</trkpt>
<trkpt lat="53.9887877" lon="16.4855185">
<ele>169</ele>
<time>2017-12-17T13:29:09Z</time>
</trkpt>
<trkpt lat="53.9887877" lon="16.4855185">
<ele>169</ele>
<time>2017-12-17T13:29:15Z</time>
</trkpt>
<trkpt lat="53.9887877" lon="16.4855185">
<ele>169</ele>
<time>2017-12-17T13:29:21Z</time>
</trkpt>
<trkpt lat="53.9887877" lon="16.4855185">
<ele>169</ele>
<time>2017-12-17T13:29:27Z</time>
</trkpt>
<trkpt lat="53.9887877" lon="16.4855185">
<ele>169</ele>
<time>2017-12-17T13:29:33Z</time>
</trkpt>
<trkpt lat="53.9887877" lon="16.4855185">
<ele>169</ele>
<time>2017-12-17T13:29:39Z</time>
</trkpt>
<trkpt lat="53.9887877" lon="16.4855185">
<ele>169</ele>
<time>2017-12-17T13:29:45Z</time>
</trkpt>
<trkpt lat="53.9887877" lon="16.4855185">
<ele>169</ele>
<time>2017-12-17T13:29:51Z</time>
</trkpt>
<trkpt lat="53.9887877" lon="16.4855185">
<ele>169</ele>
<time>2017-12-17T13:29:57Z</time>
</trkpt>
<trkpt lat="53.9887877" lon="16.4855185">
<ele>169</ele>
<time>2017-12-17T13:30:03Z</time>
</trkpt>
<trkpt lat="53.9887877" lon="16.4855185">
<ele>169</ele>
<time>2017-12-17T13:30:09Z</time>
</trkpt>
<trkpt lat="53.9887877" lon="16.4855185">
<ele>169</ele>
<time>2017-12-17T13:30:15Z</time>
</trkpt>
<trkpt lat="53.9887877" lon="16.4855185">
<ele>169</ele>
<time>2017-12-17T13:30:21Z</time>
</trkpt>
<trkpt lat="53.9887877" lon="16.4855185">
<ele>169</ele>
<time>2017-12-17T13:30:27Z</time>
</trkpt>
<trkpt lat="53.9887877" lon="16.4855185">
<ele>169</ele>
<time>2017-12-17T13:30:33Z</time>
</trkpt>
<trkpt lat="53.9887877" lon="16.4855185">
<ele>169</ele>
<time>2017-12-17T13:30:39Z</time>
</trkpt>
<trkpt lat="53.9887877" lon="16.4855185">
<ele>169</ele>
<time>2017-12-17T13:30:45Z</time>
</trkpt>
<trkpt lat="53.9887877" lon="16.4855185">
<ele>169</ele>
<time>2017-12-17T13:30:51Z</time>
</trkpt>
<trkpt lat="53.9887877" lon="16.4855185">
<ele>169</ele>
<time>2017-12-17T13:30:57Z</time>
</trkpt>
<trkpt lat="53.9887877" lon="16.4855185">
<ele>169</ele>
<time>2017-12-17T13:31:03Z</time>
</trkpt>
<trkpt lat="53.9887877" lon="16.4855185">
<ele>169</ele>
<time>2017-12-17T13:31:09Z</time>
</trkpt>
<trkpt lat="53.9887877" lon="16.4855185">
<ele>169</ele>
<time>2017-12-17T13:31:15Z</time>
</trkpt>
<trkpt lat="53.9887877" lon="16.4855185">
<ele>169</ele>
<time>2017-12-17T13:31:21Z</time>
</trkpt>
<trkpt lat="53.9887877" lon="16.4855185">
<ele>169</ele>
<time>2017-12-17T13:31:27Z</time>
</trkpt>
<trkpt lat="53.9887877" lon="16.4855185">
<ele>169</ele>
<time>2017-12-17T13:31:33Z</time>
</trkpt>
<trkpt lat="53.9887877" lon="16.4855185">
<ele>169</ele>
<time>2017-12-17T13:31:39Z</time>
</trkpt>
<trkpt lat="53.9887877" lon="16.4855185">
<ele>169</ele>
<time>2017-12-17T13:31:45Z</time>
</trkpt>
<trkpt lat="53.9887877" lon="16.4855185">
<ele>169</ele>
<time>2017-12-17T13:31:51Z</time>
</trkpt>
<trkpt lat="53.9887877" lon="16.4855185">
<ele>169</ele>
<time>2017-12-17T13:31:57Z</time>
</trkpt>
<trkpt lat="53.9887877" lon="16.4855185">
<ele>169</ele>
<time>2017-12-17T13:32:03Z</time>
</trkpt>
<trkpt lat="53.9887877" lon="16.4855185">
<ele>169</ele>
<time>2017-12-17T13:32:09Z</time>
</trkpt>
<trkpt lat="53.9887877" lon="16.4855185">
<ele>169</ele>
<time>2017-12-17T13:32:15Z</time>
</trkpt>
<trkpt lat="53.9887877" lon="16.4855185">
<ele>169</ele>
<time>2017-12-17T13:32:21Z</time>
</trkpt>
<trkpt lat="53.9887877" lon="16.4855185">
<ele>169</ele>
<time>2017-12-17T13:32:27Z</time>
</trkpt>
<trkpt lat="53.9887877" lon="16.4855185">
<ele>169</ele>
<time>2017-12-17T13:32:33Z</time>
</trkpt>
<trkpt lat="53.9887877" lon="16.4855185">
<ele>169</ele>
<time>2017-12-17T13:32:39Z</time>
</trkpt>
<trkpt lat="53.9887877" lon="16.4855185">
<ele>169</ele>
<time>2017-12-17T13:32:45Z</time>
</trkpt>
<trkpt lat="53.9887877" lon="16.4855185">
<ele>169</ele>
<time>2017-12-17T13:32:51Z</time>
</trkpt>
<trkpt lat="53.9887877" lon="16.4855185">
<ele>169</ele>
<time>2017-12-17T13:32:57Z</time>
</trkpt>
<trkpt lat="53.9887877" lon="16.4855185">
<ele>169</ele>
<time>2017-12-17T13:33:03Z</time>
</trkpt>
<trkpt lat="53.9887877" lon="16.4855185">
<ele>169</ele>
<time>2017-12-17T13:33:09Z</time>
</trkpt>
<trkpt lat="53.9887877" lon="16.4855185">
<ele>169</ele>
<time>2017-12-17T13:33:15Z</time>
</trkpt>
<trkpt lat="53.9887877" lon="16.4855185">
<ele>169</ele>
<time>2017-12-17T13:33:21Z</time>
</trkpt>
<trkpt lat="53.9887877" lon="16.4855185">
<ele>169</ele>
<time>2017-12-17T13:33:27Z</time>
</trkpt>
<trkpt lat="53.9887877" lon="16.4855185">
<ele>169</ele>
<time>2017-12-17T13:33:33Z</time>
</trkpt>
<trkpt lat="53.9887877" lon="16.4855185">
<ele>169</ele>
<time>2017-12-17T13:33:39Z</time>
</trkpt>
<trkpt lat="53.9887877" lon="16.4855185">
<ele>169</ele>
<time>2017-12-17T13:33:45Z</time>
</trkpt>
<trkpt lat="53.9887877" lon="16.4855185">
<ele>169</ele>
<time>2017-12-17T13:33:51Z</time>
</trkpt>
<trkpt lat="53.9887877" lon="16.4855185">
<ele>169</ele>
<time>2017-12-17T13:33:57Z</time>
</trkpt>
<trkpt lat="53.9887877" lon="16.4855185">
<ele>169</ele>
<time>2017-12-17T13:34:03Z</time>
</trkpt>
<trkpt lat="53.9887877" lon="16.4855185">
<ele>169</ele>
<time>2017-12-17T13:34:09Z</time>
</trkpt>
<trkpt lat="53.9887877" lon="16.4855185">
<ele>169</ele>
<time>2017-12-17T13:34:15Z</time>
</trkpt>
<trkpt lat="53.9887877" lon="16.4855185">
<ele>169</ele>
<time>2017-12-17T13:34:21Z</time>
</trkpt>
<trkpt lat="53.9887877" lon="16.4855185">
<ele>169</ele>
<time>2017-12-17T13:34:27Z</time>
</trkpt>
<trkpt lat="53.9887877" lon="16.4855185">
<ele>169</ele>
<time>2017-12-17T13:34:33Z</time>
</trkpt>
<trkpt lat="53.9887877" lon="16.4855185">
<ele>169</ele>
<time>2017-12-17T13:34:39Z</time>
</trkpt>
<trkpt lat="53.9887877" lon="16.4855185">
<ele>169</ele>
<time>2017-12-17T13:34:45Z</time>
</trkpt>
<trkpt lat="53.9887880" lon="16.4855280">
<ele>169</ele>
<time>2017-12-17T13:34:51Z</time>
</trkpt>
<trkpt lat="53.9887848" lon="16.4855351">
<ele>169</ele>
<time>2017-12-17T13:34:57Z</time>
</trkpt>
<trkpt lat="53.9887848" lon="16.4855351">
<ele>169</ele>
<time>2017-12-17T13:35:03Z</time>
</trkpt>
<trkpt lat="53.9887848" lon="16.4855351">
<ele>169</ele>
<time>2017-12-17T13:35:09Z</time>
</trkpt>
<trkpt lat="53.9887848" lon="16.4855351">
<ele>169</ele>
<time>2017-12-17T13:35:15Z</time>
</trkpt>
<trkpt lat="53.9887848" lon="16.4855351">
<ele>169</ele>
<time>2017-12-17T13:35:21Z</time>
</trkpt>
<trkpt lat="53.9887848" lon="16.4855351">
<ele>169</ele>
<time>2017-12-17T13:35:27Z</time>
</trkpt>
<trkpt lat="53.9887848" lon="16.4855351">
<ele>169</ele>
<time>2017-12-17T13:35:33Z</time>
</trkpt>
<trkpt lat="53.9887848" lon="16.4855351">
<ele>169</ele>
<time>2017-12-17T13:35:39Z</time>
</trkpt>
<trkpt lat="53.9887848" lon="16.4855351">
<ele>169</ele>
<time>2017-12-17T13:35:45Z</time>
</trkpt>
<trkpt lat="53.9887848" lon="16.4855351">
<ele>169</ele>
<time>2017-12-17T13:35:51Z</time>
</trkpt>
<trkpt lat="53.9887848" lon="16.4855351">
<ele>169</ele>
<time>2017-12-17T13:35:57Z</time>
</trkpt>
<trkpt lat="53.9887848" lon="16.4855351">
<ele>169</ele>
<time>2017-12-17T13:36:03Z</time>
</trkpt>
<trkpt lat="53.9887848" lon="16.4855351">
<ele>169</ele>
<time>2017-12-17T13:36:09Z</time>
</trkpt>
<trkpt lat="53.9887848" lon="16.4855351">
<ele>169</ele>
<time>2017-12-17T13:36:15Z</time>
</trkpt>
<trkpt lat="53.9887848" lon="16.4855351">
<ele>169</ele>
<time>2017-12-17T13:36:21Z</time>
</trkpt>
<trkpt lat="53.9887848" lon="16.4855351">
<ele>169</ele>
<time>2017-12-17T13:36:27Z</time>
</trkpt>
<trkpt lat="53.9887848" lon="16.4855351">
<ele>169</ele>
<time>2017-12-17T13:36:33Z</time>
</trkpt>
<trkpt lat="53.9887848" lon="16.4855351">
<ele>169</ele>
<time>2017-12-17T13:36:39Z</time>
</trkpt>
<trkpt lat="53.9887848" lon="16.4855351">
<ele>169</ele>
<time>2017-12-17T13:36:45Z</time>
</trkpt>
<trkpt lat="53.9887848" lon="16.4855351">
<ele>169</ele>
<time>2017-12-17T13:36:51Z</time>
</trkpt>
<trkpt lat="53.9887848" lon="16.4855351">
<ele>169</ele>
<time>2017-12-17T13:36:57Z</time>
</trkpt>
<trkpt lat="53.9887848" lon="16.4855351">
<ele>169</ele>
<time>2017-12-17T13:37:03Z</time>
</trkpt>
<trkpt lat="53.9887848" lon="16.4855351">
<ele>169</ele>
<time>2017-12-17T13:37:09Z</time>
</trkpt>
<trkpt lat="53.9887848" lon="16.4855351">
<ele>169</ele>
<time>2017-12-17T13:37:15Z</time>
</trkpt>
<trkpt lat="53.9887848" lon="16.4855351">
<ele>169</ele>
<time>2017-12-17T13:37:21Z</time>
</trkpt>
<trkpt lat="53.9887848" lon="16.4855351">
<ele>169</ele>
<time>2017-12-17T13:37:27Z</time>
</trkpt>
<trkpt lat="53.9887848" lon="16.4855351">
<ele>169</ele>
<time>2017-12-17T13:37:33Z</time>
</trkpt>
<trkpt lat="53.9887848" lon="16.4855351">
<ele>169</ele>
<time>2017-12-17T13:37:39Z</time>
</trkpt>
<trkpt lat="53.9887848" lon="16.4855351">
<ele>169</ele>
<time>2017-12-17T13:37:45Z</time>
</trkpt>
<trkpt lat="53.9887848" lon="16.4855351">
<ele>169</ele>
<time>2017-12-17T13:37:51Z</time>
</trkpt>
<trkpt lat="53.9887848" lon="16.4855351">
<ele>169</ele>
<time>2017-12-17T13:37:57Z</time>
</trkpt>
<trkpt lat="53.9887848" lon="16.4855351">
<ele>169</ele>
<time>2017-12-17T13:38:03Z</time>
</trkpt>
<trkpt lat="53.9887848" lon="16.4855351">
<ele>169</ele>
<time>2017-12-17T13:38:09Z</time>
</trkpt>
<trkpt lat="53.9887848" lon="16.4855351">
<ele>169</ele>
<time>2017-12-17T13:38:15Z</time>
</trkpt>
<trkpt lat="53.9887848" lon="16.4855351">
<ele>169</ele>
<time>2017-12-17T13:38:21Z</time>
</trkpt>
<trkpt lat="53.9887848" lon="16.4855351">
<ele>169</ele>
<time>2017-12-17T13:38:27Z</time>
</trkpt>
<trkpt lat="53.9887848" lon="16.4855351">
<ele>169</ele>
<time>2017-12-17T13:38:33Z</time>
</trkpt>
<trkpt lat="53.9887848" lon="16.4855351">
<ele>169</ele>
<time>2017-12-17T13:38:39Z</time>
</trkpt>
<trkpt lat="53.9887848" lon="16.4855351">
<ele>169</ele>
<time>2017-12-17T13:38:45Z</time>
</trkpt>
<trkpt lat="53.9887848" lon="16.4855351">
<ele>169</ele>
<time>2017-12-17T13:38:51Z</time>
</trkpt>
<trkpt lat="53.9887848" lon="16.4855351">
<ele>169</ele>
<time>2017-12-17T13:38:57Z</time>
</trkpt>
<trkpt lat="53.9887848" lon="16.4855351">
<ele>169</ele>
<time>2017-12-17T13:39:03Z</time>
</trkpt>
<trkpt lat="53.9887848" lon="16.4855351">
<ele>169</ele>
<time>2017-12-17T13:39:09Z</time>
</trkpt>
<trkpt lat="53.9887848" lon="16.4855351">
<ele>169</ele>
<time>2017-12-17T13:39:15Z</time>
</trkpt>
<trkpt lat="53.9887848" lon="16.4855351">
<ele>169</ele>
<time>2017-12-17T13:39:21Z</time>
</trkpt>
<trkpt lat="53.9887848" lon="16.4855351">
<ele>169</ele>
<time>2017-12-17T13:39:27Z</time>
</trkpt>
<trkpt lat="53.9887848" lon="16.4855351">
<ele>169</ele>
<time>2017-12-17T13:39:33Z</time>
</trkpt>
<trkpt lat="53.9887848" lon="16.4855351">
<ele>169</ele>
<time>2017-12-17T13:39:39Z</time>
</trkpt>
<trkpt lat="53.9887848" lon="16.4855351">
<ele>169</ele>
<time>2017-12-17T13:39:45Z</time>
</trkpt>
<trkpt lat="53.9887848" lon="16.4855351">
<ele>169</ele>
<time>2017-12-17T13:39:51Z</time>
</trkpt>
<trkpt lat="53.9887848" lon="16.4855351">
<ele>169</ele>
<time>2017-12-17T13:39:57Z</time>
</trkpt>
<trkpt lat="53.9887848" lon="16.4855351">
<ele>169</ele>
<time>2017-12-17T13:40:03Z</time>
</trkpt>
<trkpt lat="53.9887848" lon="16.4855351">
<ele>169</ele>
<time>2017-12-17T13:40:09Z</time>
</trkpt>
<trkpt lat="53.9887848" lon="16.4855351">
<ele>169</ele>
<time>2017-12-17T13:40:15Z</time>
</trkpt>
<trkpt lat="53.9887848" lon="16.4855351">
<ele>169</ele>
<time>2017-12-17T13:40:21Z</time>
</trkpt>
<trkpt lat="53.9887848" lon="16.4855351">
<ele>169</ele>
<time>2017-12-17T13:40:27Z</time>
</trkpt>
<trkpt lat="53.9887848" lon="16.4855351">
<ele>169</ele>
<time>2017-12-17T13:40:33Z</time>
</trkpt>
<trkpt lat="53.9887848" lon="16.4855351">
<ele>169</ele>
<time>2017-12-17T13:40:39Z</time>
</trkpt>
<trkpt lat="53.9887848" lon="16.4855351">
<ele>169</ele>
<time>2017-12-17T13:40:45Z</time>
</trkpt>
<trkpt lat="53.9887848" lon="16.4855351">
<ele>169</ele>
<time>2017-12-17T13:40:51Z</time>
</trkpt>
<trkpt lat="53.9887848" lon="16.4855351">
<ele>169</ele>
<time>2017-12-17T13:40:57Z</time>
</trkpt>
<trkpt lat="53.9887848" lon="16.4855351">
<ele>169</ele>
<time>2017-12-17T13:41:03Z</time>
</trkpt>
<trkpt lat="53.9887848" lon="16.4855351">
<ele>169</ele>
<time>2017-12-17T13:41:09Z</time>
</trkpt>
<trkpt lat="53.9887848" lon="16.4855351">
<ele>169</ele>
<time>2017-12-17T13:41:15Z</time>
</trkpt>
<trkpt lat="53.9887848" lon="16.4855351">
<ele>169</ele>
<time>2017-12-17T13:41:21Z</time>
</trkpt>
<trkpt lat="53.9887848" lon="16.4855351">
<ele>169</ele>
<time>2017-12-17T13:41:27Z</time>
</trkpt>
<trkpt lat="53.9887848" lon="16.4855351">
<ele>169</ele>
<time>2017-12-17T13:41:33Z</time>
</trkpt>
<trkpt lat="53.9887848" lon="16.4855351">
<ele>169</ele>
<time>2017-12-17T13:41:39Z</time>
</trkpt>
<trkpt lat="53.9887848" lon="16.4855351">
<ele>169</ele>
<time>2017-12-17T13:41:45Z</time>
</trkpt>
<trkpt lat="53.9887848" lon="16.4855351">
<ele>169</ele>
<time>2017-12-17T13:41:51Z</time>
</trkpt>
<trkpt lat="53.9887848" lon="16.4855351">
<ele>169</ele>
<time>2017-12-17T13:41:57Z</time>
</trkpt>
<trkpt lat="53.9887848" lon="16.4855351">
<ele>169</ele>
<time>2017-12-17T13:42:03Z</time>
</trkpt>
<trkpt lat="53.9887848" lon="16.4855351">
<ele>169</ele>
<time>2017-12-17T13:42:09Z</time>
</trkpt>
<trkpt lat="53.9887848" lon="16.4855351">
<ele>169</ele>
<time>2017-12-17T13:42:15Z</time>
</trkpt>
<trkpt lat="53.9887848" lon="16.4855351">
<ele>169</ele>
<time>2017-12-17T13:42:21Z</time>
</trkpt>
<trkpt lat="53.9887848" lon="16.4855351">
<ele>169</ele>
<time>2017-12-17T13:42:27Z</time>
</trkpt>
<trkpt lat="53.9887848" lon="16.4855351">
<ele>169</ele>
<time>2017-12-17T13:42:33Z</time>
</trkpt>
<trkpt lat="53.9887848" lon="16.4855351">
<ele>169</ele>
<time>2017-12-17T13:42:39Z</time>
</trkpt>
<trkpt lat="53.9887845" lon="16.4855103">
<ele>169</ele>
<time>2017-12-17T13:42:45Z</time>
</trkpt>
<trkpt lat="53.9888146" lon="16.4853308">
<ele>168</ele>
<time>2017-12-17T13:42:51Z</time>
</trkpt>
<trkpt lat="53.9888146" lon="16.4853308">
<ele>168</ele>
<time>2017-12-17T13:42:57Z</time>
</trkpt>
<trkpt lat="53.9888146" lon="16.4853308">
<ele>168</ele>
<time>2017-12-17T13:43:03Z</time>
</trkpt>
<trkpt lat="53.9888146" lon="16.4853308">
<ele>168</ele>
<time>2017-12-17T13:43:09Z</time>
</trkpt>
<trkpt lat="53.9888146" lon="16.4853308">
<ele>168</ele>
<time>2017-12-17T13:43:15Z</time>
</trkpt>
<trkpt lat="53.9888022" lon="16.4852753">
<ele>168</ele>
<time>2017-12-17T13:43:21Z</time>
</trkpt>
<trkpt lat="53.9887987" lon="16.4851473">
<ele>164</ele>
<time>2017-12-17T13:43:27Z</time>
</trkpt>
<trkpt lat="53.9887987" lon="16.4851473">
<ele>164</ele>
<time>2017-12-17T13:43:33Z</time>
</trkpt>
<trkpt lat="53.9887987" lon="16.4851473">
<ele>164</ele>
<time>2017-12-17T13:43:39Z</time>
</trkpt>
<trkpt lat="53.9887987" lon="16.4851473">
<ele>164</ele>
<time>2017-12-17T13:43:45Z</time>
</trkpt>
<trkpt lat="53.9887987" lon="16.4851473">
<ele>164</ele>
<time>2017-12-17T13:43:51Z</time>
</trkpt>
<trkpt lat="53.9887987" lon="16.4851473">
<ele>164</ele>
<time>2017-12-17T13:43:57Z</time>
</trkpt>
<trkpt lat="53.9887987" lon="16.4851473">
<ele>164</ele>
<time>2017-12-17T13:44:03Z</time>
</trkpt>
<trkpt lat="53.9887987" lon="16.4851473">
<ele>164</ele>
<time>2017-12-17T13:44:09Z</time>
</trkpt>
<trkpt lat="53.9887987" lon="16.4851473">
<ele>164</ele>
<time>2017-12-17T13:44:15Z</time>
</trkpt>
<trkpt lat="53.9887987" lon="16.4851473">
<ele>164</ele>
<time>2017-12-17T13:44:21Z</time>
</trkpt>
<trkpt lat="53.9887987" lon="16.4851473">
<ele>164</ele>
<time>2017-12-17T13:44:27Z</time>
</trkpt>
<trkpt lat="53.9887987" lon="16.4851473">
<ele>164</ele>
<time>2017-12-17T13:44:33Z</time>
</trkpt>
<trkpt lat="53.9887987" lon="16.4851473">
<ele>164</ele>
<time>2017-12-17T13:44:39Z</time>
</trkpt>
<trkpt lat="53.9887987" lon="16.4851473">
<ele>164</ele>
<time>2017-12-17T13:44:45Z</time>
</trkpt>
<trkpt lat="53.9887987" lon="16.4851473">
<ele>164</ele>
<time>2017-12-17T13:44:51Z</time>
</trkpt>
<trkpt lat="53.9887987" lon="16.4851473">
<ele>164</ele>
<time>2017-12-17T13:44:57Z</time>
</trkpt>
<trkpt lat="53.9887987" lon="16.4851473">
<ele>164</ele>
<time>2017-12-17T13:45:03Z</time>
</trkpt>
<trkpt lat="53.9887987" lon="16.4851473">
<ele>164</ele>
<time>2017-12-17T13:45:09Z</time>
</trkpt>
<trkpt lat="53.9887987" lon="16.4851473">
<ele>164</ele>
<time>2017-12-17T13:45:15Z</time>
</trkpt>
<trkpt lat="53.9887987" lon="16.4851473">
<ele>164</ele>
<time>2017-12-17T13:45:21Z</time>
</trkpt>
<trkpt lat="53.9887987" lon="16.4851473">
<ele>164</ele>
<time>2017-12-17T13:45:27Z</time>
</trkpt>
<trkpt lat="53.9887987" lon="16.4851473">
<ele>164</ele>
<time>2017-12-17T13:45:33Z</time>
</trkpt>
<trkpt lat="53.9887987" lon="16.4851473">
<ele>164</ele>
<time>2017-12-17T13:45:39Z</time>
</trkpt>
<trkpt lat="53.9887987" lon="16.4851473">
<ele>164</ele>
<time>2017-12-17T13:45:45Z</time>
</trkpt>
<trkpt lat="53.9887987" lon="16.4851473">
<ele>164</ele>
<time>2017-12-17T13:45:51Z</time>
</trkpt>
<trkpt lat="53.9887987" lon="16.4851473">
<ele>164</ele>
<time>2017-12-17T13:45:57Z</time>
</trkpt>
<trkpt lat="53.9887987" lon="16.4851473">
<ele>164</ele>
<time>2017-12-17T13:46:03Z</time>
</trkpt>
<trkpt lat="53.9887987" lon="16.4851473">
<ele>164</ele>
<time>2017-12-17T13:46:09Z</time>
</trkpt>
<trkpt lat="53.9887987" lon="16.4851473">
<ele>164</ele>
<time>2017-12-17T13:46:15Z</time>
</trkpt>
<trkpt lat="53.9887987" lon="16.4851473">
<ele>164</ele>
<time>2017-12-17T13:46:21Z</time>
</trkpt>
<trkpt lat="53.9887987" lon="16.4851473">
<ele>164</ele>
<time>2017-12-17T13:46:27Z</time>
</trkpt>
<trkpt lat="53.9887987" lon="16.4851473">
<ele>164</ele>
<time>2017-12-17T13:46:33Z</time>
</trkpt>
<trkpt lat="53.9887987" lon="16.4851473">
<ele>164</ele>
<time>2017-12-17T13:46:39Z</time>
</trkpt>
<trkpt lat="53.9887987" lon="16.4851473">
<ele>164</ele>
<time>2017-12-17T13:46:45Z</time>
</trkpt>
<trkpt lat="53.9887987" lon="16.4851473">
<ele>164</ele>
<time>2017-12-17T13:46:51Z</time>
</trkpt>
<trkpt lat="53.9887987" lon="16.4851473">
<ele>164</ele>
<time>2017-12-17T13:46:57Z</time>
</trkpt>
<trkpt lat="53.9887987" lon="16.4851473">
<ele>164</ele>
<time>2017-12-17T13:47:03Z</time>
</trkpt>
<trkpt lat="53.9887987" lon="16.4851473">
<ele>164</ele>
<time>2017-12-17T13:47:09Z</time>
</trkpt>
<trkpt lat="53.9887987" lon="16.4851473">
<ele>164</ele>
<time>2017-12-17T13:47:15Z</time>
</trkpt>
<trkpt lat="53.9887987" lon="16.4851473">
<ele>164</ele>
<time>2017-12-17T13:47:21Z</time>
</trkpt>
<trkpt lat="53.9887987" lon="16.4851473">
<ele>164</ele>
<time>2017-12-17T13:47:27Z</time>
</trkpt>
<trkpt lat="53.9887987" lon="16.4851473">
<ele>164</ele>
<time>2017-12-17T13:47:33Z</time>
</trkpt>
<trkpt lat="53.9887987" lon="16.4851473">
<ele>164</ele>
<time>2017-12-17T13:47:39Z</time>
</trkpt>
<trkpt lat="53.9887987" lon="16.4851473">
<ele>164</ele>
<time>2017-12-17T13:47:45Z</time>
</trkpt>
<trkpt lat="53.9887987" lon="16.4851473">
<ele>164</ele>
<time>2017-12-17T13:47:51Z</time>
</trkpt>
<trkpt lat="53.9887987" lon="16.4851473">
<ele>164</ele>
<time>2017-12-17T13:47:57Z</time>
</trkpt>
<trkpt lat="53.9887987" lon="16.4851473">
<ele>164</ele>
<time>2017-12-17T13:48:03Z</time>
</trkpt>
<trkpt lat="53.9887987" lon="16.4851473">
<ele>164</ele>
<time>2017-12-17T13:48:09Z</time>
</trkpt>
<trkpt lat="53.9887987" lon="16.4851473">
<ele>164</ele>
<time>2017-12-17T13:48:15Z</time>
</trkpt>
<trkpt lat="53.9887987" lon="16.4851473">
<ele>164</ele>
<time>2017-12-17T13:48:21Z</time>
</trkpt>
<trkpt lat="53.9887987" lon="16.4851473">
<ele>164</ele>
<time>2017-12-17T13:48:27Z</time>
</trkpt>
<trkpt lat="53.9887987" lon="16.4851473">
<ele>164</ele>
<time>2017-12-17T13:48:33Z</time>
</trkpt>
<trkpt lat="53.9887987" lon="16.4851473">
<ele>164</ele>
<time>2017-12-17T13:48:39Z</time>
</trkpt>
<trkpt lat="53.9887987" lon="16.4851473">
<ele>164</ele>
<time>2017-12-17T13:48:45Z</time>
</trkpt>
<trkpt lat="53.9887987" lon="16.4851473">
<ele>164</ele>
<time>2017-12-17T13:48:51Z</time>
</trkpt>
<trkpt lat="53.9887987" lon="16.4851473">
<ele>164</ele>
<time>2017-12-17T13:48:57Z</time>
</trkpt>
<trkpt lat="53.9887987" lon="16.4851473">
<ele>164</ele>
<time>2017-12-17T13:49:03Z</time>
</trkpt>
<trkpt lat="53.9887987" lon="16.4851473">
<ele>164</ele>
<time>2017-12-17T13:49:09Z</time>
</trkpt>
<trkpt lat="53.9887987" lon="16.4851473">
<ele>164</ele>
<time>2017-12-17T13:49:15Z</time>
</trkpt>
<trkpt lat="53.9887987" lon="16.4851473">
<ele>164</ele>
<time>2017-12-17T13:49:21Z</time>
</trkpt>
<trkpt lat="53.9887987" lon="16.4851473">
<ele>164</ele>
<time>2017-12-17T13:49:27Z</time>
</trkpt>
<trkpt lat="53.9887987" lon="16.4851473">
<ele>164</ele>
<time>2017-12-17T13:49:33Z</time>
</trkpt>
<trkpt lat="53.9887987" lon="16.4851473">
<ele>164</ele>
<time>2017-12-17T13:49:39Z</time>
</trkpt>
<trkpt lat="53.9887987" lon="16.4851473">
<ele>164</ele>
<time>2017-12-17T13:49:45Z</time>
</trkpt>
<trkpt lat="53.9887987" lon="16.4851473">
<ele>164</ele>
<time>2017-12-17T13:49:51Z</time>
</trkpt>
<trkpt lat="53.9887987" lon="16.4851473">
<ele>164</ele>
<time>2017-12-17T13:49:57Z</time>
</trkpt>
<trkpt lat="53.9887987" lon="16.4851473">
<ele>164</ele>
<time>2017-12-17T13:50:03Z</time>
</trkpt>
<trkpt lat="53.9887987" lon="16.4851473">
<ele>164</ele>
<time>2017-12-17T13:50:09Z</time>
</trkpt>
<trkpt lat="53.9887987" lon="16.4851473">
<ele>164</ele>
<time>2017-12-17T13:50:15Z</time>
</trkpt>
<trkpt lat="53.9887987" lon="16.4851473">
<ele>164</ele>
<time>2017-12-17T13:50:21Z</time>
</trkpt>
<trkpt lat="53.9887987" lon="16.4851473">
<ele>164</ele>
<time>2017-12-17T13:50:27Z</time>
</trkpt>
<trkpt lat="53.9887987" lon="16.4851473">
<ele>164</ele>
<time>2017-12-17T13:50:33Z</time>
</trkpt>
<trkpt lat="53.9887987" lon="16.4851473">
<ele>164</ele>
<time>2017-12-17T13:50:39Z</time>
</trkpt>
<trkpt lat="53.9887987" lon="16.4851473">
<ele>164</ele>
<time>2017-12-17T13:50:45Z</time>
</trkpt>
<trkpt lat="53.9887987" lon="16.4851473">
<ele>164</ele>
<time>2017-12-17T13:50:51Z</time>
</trkpt>
<trkpt lat="53.9887987" lon="16.4851473">
<ele>164</ele>
<time>2017-12-17T13:50:57Z</time>
</trkpt>
<trkpt lat="53.9887987" lon="16.4851473">
<ele>164</ele>
<time>2017-12-17T13:51:03Z</time>
</trkpt>
<trkpt lat="53.9887987" lon="16.4851473">
<ele>164</ele>
<time>2017-12-17T13:51:09Z</time>
</trkpt>
<trkpt lat="53.9887987" lon="16.4851473">
<ele>164</ele>
<time>2017-12-17T13:51:15Z</time>
</trkpt>
<trkpt lat="53.9887987" lon="16.4851473">
<ele>164</ele>
<time>2017-12-17T13:51:21Z</time>
</trkpt>
<trkpt lat="53.9887987" lon="16.4851473">
<ele>164</ele>
<time>2017-12-17T13:51:27Z</time>
</trkpt>
<trkpt lat="53.9887987" lon="16.4851473">
<ele>164</ele>
<time>2017-12-17T13:51:33Z</time>
</trkpt>
<trkpt lat="53.9887987" lon="16.4851473">
<ele>164</ele>
<time>2017-12-17T13:51:39Z</time>
</trkpt>
<trkpt lat="53.9887987" lon="16.4851473">
<ele>164</ele>
<time>2017-12-17T13:51:45Z</time>
</trkpt>
<trkpt lat="53.9887987" lon="16.4851473">
<ele>164</ele>
<time>2017-12-17T13:51:51Z</time>
</trkpt>
<trkpt lat="53.9887987" lon="16.4851473">
<ele>164</ele>
<time>2017-12-17T13:51:57Z</time>
</trkpt>
<trkpt lat="53.9887987" lon="16.4851473">
<ele>164</ele>
<time>2017-12-17T13:52:03Z</time>
</trkpt>
<trkpt lat="53.9887987" lon="16.4851473">
<ele>164</ele>
<time>2017-12-17T13:52:09Z</time>
</trkpt>
<trkpt lat="53.9887987" lon="16.4851473">
<ele>164</ele>
<time>2017-12-17T13:52:15Z</time>
</trkpt>
<trkpt lat="53.9887987" lon="16.4851473">
<ele>164</ele>
<time>2017-12-17T13:52:21Z</time>
</trkpt>
<trkpt lat="53.9887987" lon="16.4851473">
<ele>164</ele>
<time>2017-12-17T13:52:27Z</time>
</trkpt>
<trkpt lat="53.9887987" lon="16.4851473">
<ele>164</ele>
<time>2017-12-17T13:52:33Z</time>
</trkpt>
<trkpt lat="53.9887987" lon="16.4851473">
<ele>164</ele>
<time>2017-12-17T13:52:39Z</time>
</trkpt>
<trkpt lat="53.9887987" lon="16.4851473">
<ele>164</ele>
<time>2017-12-17T13:52:45Z</time>
</trkpt>
<trkpt lat="53.9887987" lon="16.4851473">
<ele>164</ele>
<time>2017-12-17T13:52:51Z</time>
</trkpt>
<trkpt lat="53.9887987" lon="16.4851473">
<ele>164</ele>
<time>2017-12-17T13:52:57Z</time>
</trkpt>
<trkpt lat="53.9887987" lon="16.4851473">
<ele>164</ele>
<time>2017-12-17T13:53:03Z</time>
</trkpt>
<trkpt lat="53.9887987" lon="16.4851473">
<ele>164</ele>
<time>2017-12-17T13:53:09Z</time>
</trkpt>
<trkpt lat="53.9887987" lon="16.4851473">
<ele>164</ele>
<time>2017-12-17T13:53:15Z</time>
</trkpt>
<trkpt lat="53.9887987" lon="16.4851473">
<ele>164</ele>
<time>2017-12-17T13:53:21Z</time>
</trkpt>
<trkpt lat="53.9887987" lon="16.4851473">
<ele>164</ele>
<time>2017-12-17T13:53:27Z</time>
</trkpt>
<trkpt lat="53.9887987" lon="16.4851473">
<ele>164</ele>
<time>2017-12-17T13:53:33Z</time>
</trkpt>
<trkpt lat="53.9887987" lon="16.4851473">
<ele>164</ele>
<time>2017-12-17T13:53:39Z</time>
</trkpt>
<trkpt lat="53.9887987" lon="16.4851473">
<ele>164</ele>
<time>2017-12-17T13:53:45Z</time>
</trkpt>
<trkpt lat="53.9887987" lon="16.4851473">
<ele>164</ele>
<time>2017-12-17T13:53:51Z</time>
</trkpt>
<trkpt lat="53.9887987" lon="16.4851473">
<ele>164</ele>
<time>2017-12-17T13:53:57Z</time>
</trkpt>
<trkpt lat="53.9887987" lon="16.4851473">
<ele>164</ele>
<time>2017-12-17T13:54:03Z</time>
</trkpt>
<trkpt lat="53.9887987" lon="16.4851473">
<ele>164</ele>
<time>2017-12-17T13:54:09Z</time>
</trkpt>
<trkpt lat="53.9887987" lon="16.4851473">
<ele>164</ele>
<time>2017-12-17T13:54:15Z</time>
</trkpt>
<trkpt lat="53.9887987" lon="16.4851473">
<ele>164</ele>
<time>2017-12-17T13:54:21Z</time>
</trkpt>
<trkpt lat="53.9887987" lon="16.4851473">
<ele>164</ele>
<time>2017-12-17T13:54:27Z</time>
</trkpt>
<trkpt lat="53.9887987" lon="16.4851473">
<ele>164</ele>
<time>2017-12-17T13:54:33Z</time>
</trkpt>
<trkpt lat="53.9887987" lon="16.4851473">
<ele>164</ele>
<time>2017-12-17T13:54:39Z</time>
</trkpt>
<trkpt lat="53.9887987" lon="16.4851473">
<ele>164</ele>
<time>2017-12-17T13:54:45Z</time>
</trkpt>
<trkpt lat="53.9887987" lon="16.4851473">
<ele>164</ele>
<time>2017-12-17T13:54:51Z</time>
</trkpt>
<trkpt lat="53.9887987" lon="16.4851473">
<ele>164</ele>
<time>2017-12-17T13:54:57Z</time>
</trkpt>
<trkpt lat="53.9887987" lon="16.4851473">
<ele>164</ele>
<time>2017-12-17T13:55:03Z</time>
</trkpt>
<trkpt lat="53.9887987" lon="16.4851473">
<ele>164</ele>
<time>2017-12-17T13:55:09Z</time>
</trkpt>
<trkpt lat="53.9887987" lon="16.4851473">
<ele>164</ele>
<time>2017-12-17T13:55:15Z</time>
</trkpt>
<trkpt lat="53.9887987" lon="16.4851473">
<ele>164</ele>
<time>2017-12-17T13:55:21Z</time>
</trkpt>
<trkpt lat="53.9887987" lon="16.4851473">
<ele>164</ele>
<time>2017-12-17T13:55:27Z</time>
</trkpt>
<trkpt lat="53.9887987" lon="16.4851473">
<ele>164</ele>
<time>2017-12-17T13:55:33Z</time>
</trkpt>
<trkpt lat="53.9887987" lon="16.4851473">
<ele>164</ele>
<time>2017-12-17T13:55:39Z</time>
</trkpt>
<trkpt lat="53.9887987" lon="16.4851473">
<ele>164</ele>
<time>2017-12-17T13:55:45Z</time>
</trkpt>
<trkpt lat="53.9887987" lon="16.4851473">
<ele>164</ele>
<time>2017-12-17T13:55:51Z</time>
</trkpt>
<trkpt lat="53.9887987" lon="16.4851473">
<ele>164</ele>
<time>2017-12-17T13:55:57Z</time>
</trkpt>
<trkpt lat="53.9887987" lon="16.4851473">
<ele>164</ele>
<time>2017-12-17T13:56:03Z</time>
</trkpt>
<trkpt lat="53.9887987" lon="16.4851473">
<ele>164</ele>
<time>2017-12-17T13:56:09Z</time>
</trkpt>
<trkpt lat="53.9887987" lon="16.4851473">
<ele>164</ele>
<time>2017-12-17T13:56:15Z</time>
</trkpt>
<trkpt lat="53.9887987" lon="16.4851473">
<ele>164</ele>
<time>2017-12-17T13:56:21Z</time>
</trkpt>
<trkpt lat="53.9887688" lon="16.4851630">
<ele>163</ele>
<time>2017-12-17T13:56:27Z</time>
</trkpt>
<trkpt lat="53.9887688" lon="16.4851630">
<ele>163</ele>
<time>2017-12-17T13:56:33Z</time>
</trkpt>
<trkpt lat="53.9887688" lon="16.4851630">
<ele>163</ele>
<time>2017-12-17T13:56:39Z</time>
</trkpt>
<trkpt lat="53.9887688" lon="16.4851630">
<ele>163</ele>
<time>2017-12-17T13:56:45Z</time>
</trkpt>
<trkpt lat="53.9887688" lon="16.4851630">
<ele>163</ele>
<time>2017-12-17T13:56:51Z</time>
</trkpt>
<trkpt lat="53.9887688" lon="16.4851630">
<ele>163</ele>
<time>2017-12-17T13:56:57Z</time>
</trkpt>
<trkpt lat="53.9887688" lon="16.4851630">
<ele>163</ele>
<time>2017-12-17T13:57:03Z</time>
</trkpt>
<trkpt lat="53.9887688" lon="16.4851630">
<ele>163</ele>
<time>2017-12-17T13:57:09Z</time>
</trkpt>
<trkpt lat="53.9887688" lon="16.4851630">
<ele>163</ele>
<time>2017-12-17T13:57:15Z</time>
</trkpt>
<trkpt lat="53.9887688" lon="16.4851630">
<ele>163</ele>
<time>2017-12-17T13:57:21Z</time>
</trkpt>
<trkpt lat="53.9887688" lon="16.4851630">
<ele>163</ele>
<time>2017-12-17T13:57:27Z</time>
</trkpt>
<trkpt lat="53.9887688" lon="16.4851630">
<ele>163</ele>
<time>2017-12-17T13:57:33Z</time>
</trkpt>
<trkpt lat="53.9887688" lon="16.4851630">
<ele>163</ele>
<time>2017-12-17T13:57:39Z</time>
</trkpt>
<trkpt lat="53.9887688" lon="16.4851630">
<ele>163</ele>
<time>2017-12-17T13:57:45Z</time>
</trkpt>
<trkpt lat="53.9887688" lon="16.4851630">
<ele>163</ele>
<time>2017-12-17T13:57:51Z</time>
</trkpt>
<trkpt lat="53.9887688" lon="16.4851630">
<ele>163</ele>
<time>2017-12-17T13:57:57Z</time>
</trkpt>
<trkpt lat="53.9887688" lon="16.4851630">
<ele>163</ele>
<time>2017-12-17T13:58:03Z</time>
</trkpt>
<trkpt lat="53.9887688" lon="16.4851630">
<ele>163</ele>
<time>2017-12-17T13:58:09Z</time>
</trkpt>
<trkpt lat="53.9887688" lon="16.4851630">
<ele>163</ele>
<time>2017-12-17T13:58:15Z</time>
</trkpt>
<trkpt lat="53.9887688" lon="16.4851630">
<ele>163</ele>
<time>2017-12-17T13:58:21Z</time>
</trkpt>
<trkpt lat="53.9887688" lon="16.4851630">
<ele>163</ele>
<time>2017-12-17T13:58:27Z</time>
</trkpt>
<trkpt lat="53.9887688" lon="16.4851630">
<ele>163</ele>
<time>2017-12-17T13:58:33Z</time>
</trkpt>
<trkpt lat="53.9887688" lon="16.4851630">
<ele>163</ele>
<time>2017-12-17T13:58:39Z</time>
</trkpt>
<trkpt lat="53.9887688" lon="16.4851630">
<ele>163</ele>
<time>2017-12-17T13:58:45Z</time>
</trkpt>
<trkpt lat="53.9887688" lon="16.4851630">
<ele>163</ele>
<time>2017-12-17T13:58:51Z</time>
</trkpt>
<trkpt lat="53.9887688" lon="16.4851630">
<ele>163</ele>
<time>2017-12-17T13:58:57Z</time>
</trkpt>
<trkpt lat="53.9887688" lon="16.4851630">
<ele>163</ele>
<time>2017-12-17T13:59:03Z</time>
</trkpt>
<trkpt lat="53.9887688" lon="16.4851630">
<ele>163</ele>
<time>2017-12-17T13:59:09Z</time>
</trkpt>
<trkpt lat="53.9887688" lon="16.4851630">
<ele>163</ele>
<time>2017-12-17T13:59:15Z</time>
</trkpt>
<trkpt lat="53.9887688" lon="16.4851630">
<ele>163</ele>
<time>2017-12-17T13:59:21Z</time>
</trkpt>
<trkpt lat="53.9887688" lon="16.4851630">
<ele>163</ele>
<time>2017-12-17T13:59:27Z</time>
</trkpt>
<trkpt lat="53.9887688" lon="16.4851630">
<ele>163</ele>
<time>2017-12-17T13:59:33Z</time>
</trkpt>
<trkpt lat="53.9887688" lon="16.4851630">
<ele>163</ele>
<time>2017-12-17T13:59:39Z</time>
</trkpt>
<trkpt lat="53.9887688" lon="16.4851630">
<ele>163</ele>
<time>2017-12-17T13:59:45Z</time>
</trkpt>
<trkpt lat="53.9887688" lon="16.4851630">
<ele>163</ele>
<time>2017-12-17T13:59:51Z</time>
</trkpt>
<trkpt lat="53.9887688" lon="16.4851630">
<ele>163</ele>
<time>2017-12-17T13:59:57Z</time>
</trkpt>
<trkpt lat="53.9887688" lon="16.4851630">
<ele>163</ele>
<time>2017-12-17T14:00:03Z</time>
</trkpt>
<trkpt lat="53.9887688" lon="16.4851630">
<ele>163</ele>
<time>2017-12-17T14:00:09Z</time>
</trkpt>
<trkpt lat="53.9887688" lon="16.4851630">
<ele>163</ele>
<time>2017-12-17T14:00:15Z</time>
</trkpt>
<trkpt lat="53.9887688" lon="16.4851630">
<ele>163</ele>
<time>2017-12-17T14:00:21Z</time>
</trkpt>
<trkpt lat="53.9887688" lon="16.4851630">
<ele>163</ele>
<time>2017-12-17T14:00:27Z</time>
</trkpt>
<trkpt lat="53.9887688" lon="16.4851630">
<ele>163</ele>
<time>2017-12-17T14:00:33Z</time>
</trkpt>
<trkpt lat="53.9887688" lon="16.4851630">
<ele>163</ele>
<time>2017-12-17T14:00:39Z</time>
</trkpt>
<trkpt lat="53.9887688" lon="16.4851630">
<ele>163</ele>
<time>2017-12-17T14:00:45Z</time>
</trkpt>
<trkpt lat="53.9887688" lon="16.4851630">
<ele>163</ele>
<time>2017-12-17T14:00:51Z</time>
</trkpt>
<trkpt lat="53.9887860" lon="16.4852080">
<ele>163</ele>
<time>2017-12-17T14:00:57Z</time>
</trkpt>
<trkpt lat="53.9887893" lon="16.4852186">
<ele>163</ele>
<time>2017-12-17T14:01:03Z</time>
</trkpt>
<trkpt lat="53.9887893" lon="16.4852186">
<ele>163</ele>
<time>2017-12-17T14:01:09Z</time>
</trkpt>
<trkpt lat="53.9887893" lon="16.4852186">
<ele>163</ele>
<time>2017-12-17T14:01:15Z</time>
</trkpt>
<trkpt lat="53.9887893" lon="16.4852186">
<ele>163</ele>
<time>2017-12-17T14:01:21Z</time>
</trkpt>
<trkpt lat="53.9887893" lon="16.4852186">
<ele>163</ele>
<time>2017-12-17T14:01:27Z</time>
</trkpt>
<trkpt lat="53.9887893" lon="16.4852186">
<ele>163</ele>
<time>2017-12-17T14:01:33Z</time>
</trkpt>
<trkpt lat="53.9887893" lon="16.4852186">
<ele>163</ele>
<time>2017-12-17T14:01:39Z</time>
</trkpt>
<trkpt lat="53.9887893" lon="16.4852186">
<ele>163</ele>
<time>2017-12-17T14:01:45Z</time>
</trkpt>
<trkpt lat="53.9887893" lon="16.4852186">
<ele>163</ele>
<time>2017-12-17T14:01:51Z</time>
</trkpt>
<trkpt lat="53.9887893" lon="16.4852186">
<ele>163</ele>
<time>2017-12-17T14:01:57Z</time>
</trkpt>
<trkpt lat="53.9887893" lon="16.4852186">
<ele>163</ele>
<time>2017-12-17T14:02:03Z</time>
</trkpt>
<trkpt lat="53.9887893" lon="16.4852186">
<ele>163</ele>
<time>2017-12-17T14:02:09Z</time>
</trkpt>
<trkpt lat="53.9887893" lon="16.4852186">
<ele>163</ele>
<time>2017-12-17T14:02:15Z</time>
</trkpt>
<trkpt lat="53.9887667" lon="16.4852305">
<ele>163</ele>
<time>2017-12-17T14:02:21Z</time>
</trkpt>
<trkpt lat="53.9887636" lon="16.4852542">
<ele>164</ele>
<time>2017-12-17T14:02:27Z</time>
</trkpt>
<trkpt lat="53.9887109" lon="16.4853738">
<ele>165</ele>
<time>2017-12-17T14:02:33Z</time>
</trkpt>
<trkpt lat="53.9886808" lon="16.4853927">
<ele>165</ele>
<time>2017-12-17T14:02:39Z</time>
</trkpt>
<trkpt lat="53.9886808" lon="16.4853927">
<ele>165</ele>
<time>2017-12-17T14:02:45Z</time>
</trkpt>
<trkpt lat="53.9886808" lon="16.4853927">
<ele>165</ele>
<time>2017-12-17T14:02:51Z</time>
</trkpt>
<trkpt lat="53.9886808" lon="16.4853927">
<ele>165</ele>
<time>2017-12-17T14:02:57Z</time>
</trkpt>
<trkpt lat="53.9886808" lon="16.4853927">
<ele>165</ele>
<time>2017-12-17T14:03:03Z</time>
</trkpt>
<trkpt lat="53.9886808" lon="16.4853927">
<ele>165</ele>
<time>2017-12-17T14:03:09Z</time>
</trkpt>
<trkpt lat="53.9886808" lon="16.4853927">
<ele>165</ele>
<time>2017-12-17T14:03:15Z</time>
</trkpt>
<trkpt lat="53.9886808" lon="16.4853927">
<ele>165</ele>
<time>2017-12-17T14:03:21Z</time>
</trkpt>
<trkpt lat="53.9886808" lon="16.4853927">
<ele>165</ele>
<time>2017-12-17T14:03:27Z</time>
</trkpt>
<trkpt lat="53.9886808" lon="16.4853927">
<ele>165</ele>
<time>2017-12-17T14:03:33Z</time>
</trkpt>
<trkpt lat="53.9886808" lon="16.4853927">
<ele>165</ele>
<time>2017-12-17T14:03:39Z</time>
</trkpt>
<trkpt lat="53.9886808" lon="16.4853927">
<ele>165</ele>
<time>2017-12-17T14:03:45Z</time>
</trkpt>
<trkpt lat="53.9886808" lon="16.4853927">
<ele>165</ele>
<time>2017-12-17T14:03:51Z</time>
</trkpt>
<trkpt lat="53.9886808" lon="16.4853927">
<ele>165</ele>
<time>2017-12-17T14:03:57Z</time>
</trkpt>
<trkpt lat="53.9886808" lon="16.4853927">
<ele>165</ele>
<time>2017-12-17T14:04:03Z</time>
</trkpt>
<trkpt lat="53.9886808" lon="16.4853927">
<ele>165</ele>
<time>2017-12-17T14:04:09Z</time>
</trkpt>
<trkpt lat="53.9886808" lon="16.4853927">
<ele>165</ele>
<time>2017-12-17T14:04:15Z</time>
</trkpt>
<trkpt lat="53.9886808" lon="16.4853927">
<ele>165</ele>
<time>2017-12-17T14:04:21Z</time>
</trkpt>
<trkpt lat="53.9886808" lon="16.4853927">
<ele>165</ele>
<time>2017-12-17T14:04:27Z</time>
</trkpt>
<trkpt lat="53.9886808" lon="16.4853927">
<ele>165</ele>
<time>2017-12-17T14:04:33Z</time>
</trkpt>
<trkpt lat="53.9886808" lon="16.4853927">
<ele>165</ele>
<time>2017-12-17T14:04:39Z</time>
</trkpt>
<trkpt lat="53.9886808" lon="16.4853927">
<ele>165</ele>
<time>2017-12-17T14:04:45Z</time>
</trkpt>
<trkpt lat="53.9886808" lon="16.4853927">
<ele>165</ele>
<time>2017-12-17T14:04:51Z</time>
</trkpt>
<trkpt lat="53.9886808" lon="16.4853927">
<ele>165</ele>
<time>2017-12-17T14:04:57Z</time>
</trkpt>
<trkpt lat="53.9886808" lon="16.4853927">
<ele>165</ele>
<time>2017-12-17T14:05:03Z</time>
</trkpt>
<trkpt lat="53.9886808" lon="16.4853927">
<ele>165</ele>
<time>2017-12-17T14:05:09Z</time>
</trkpt>
<trkpt lat="53.9886964" lon="16.4854179">
<ele>163</ele>
<time>2017-12-17T14:05:15Z</time>
</trkpt>
<trkpt lat="53.9887011" lon="16.4854495">
<ele>161</ele>
<time>2017-12-17T14:05:21Z</time>
</trkpt>
<trkpt lat="53.9887011" lon="16.4854495">
<ele>161</ele>
<time>2017-12-17T14:05:27Z</time>
</trkpt>
<trkpt lat="53.9887011" lon="16.4854495">
<ele>161</ele>
<time>2017-12-17T14:05:33Z</time>
</trkpt>
<trkpt lat="53.9887011" lon="16.4854495">
<ele>161</ele>
<time>2017-12-17T14:05:39Z</time>
</trkpt>
<trkpt lat="53.9887011" lon="16.4854495">
<ele>161</ele>
<time>2017-12-17T14:05:45Z</time>
</trkpt>
<trkpt lat="53.9887491" lon="16.4854666">
<ele>163</ele>
<time>2017-12-17T14:05:51Z</time>
</trkpt>
<trkpt lat="53.9887556" lon="16.4854574">
<ele>166</ele>
<time>2017-12-17T14:05:57Z</time>
</trkpt>
<trkpt lat="53.9887512" lon="16.4854750">
<ele>167</ele>
<time>2017-12-17T14:06:03Z</time>
</trkpt>
<trkpt lat="53.9887512" lon="16.4854750">
<ele>167</ele>
<time>2017-12-17T14:06:09Z</time>
</trkpt>
<trkpt lat="53.9887512" lon="16.4854750">
<ele>167</ele>
<time>2017-12-17T14:06:15Z</time>
</trkpt>
<trkpt lat="53.9887512" lon="16.4854750">
<ele>167</ele>
<time>2017-12-17T14:06:21Z</time>
</trkpt>
<trkpt lat="53.9887512" lon="16.4854750">
<ele>167</ele>
<time>2017-12-17T14:06:27Z</time>
</trkpt>
<trkpt lat="53.9887512" lon="16.4854750">
<ele>167</ele>
<time>2017-12-17T14:06:33Z</time>
</trkpt>
<trkpt lat="53.9887512" lon="16.4854750">
<ele>167</ele>
<time>2017-12-17T14:06:39Z</time>
</trkpt>
<trkpt lat="53.9887512" lon="16.4854750">
<ele>167</ele>
<time>2017-12-17T14:06:45Z</time>
</trkpt>
<trkpt lat="53.9887512" lon="16.4854750">
<ele>167</ele>
<time>2017-12-17T14:06:51Z</time>
</trkpt>
<trkpt lat="53.9887512" lon="16.4854750">
<ele>167</ele>
<time>2017-12-17T14:06:57Z</time>
</trkpt>
<trkpt lat="53.9887512" lon="16.4854750">
<ele>167</ele>
<time>2017-12-17T14:07:03Z</time>
</trkpt>
<trkpt lat="53.9887512" lon="16.4854750">
<ele>167</ele>
<time>2017-12-17T14:07:09Z</time>
</trkpt>
<trkpt lat="53.9887512" lon="16.4854750">
<ele>167</ele>
<time>2017-12-17T14:07:15Z</time>
</trkpt>
<trkpt lat="53.9887512" lon="16.4854750">
<ele>167</ele>
<time>2017-12-17T14:07:21Z</time>
</trkpt>
<trkpt lat="53.9887512" lon="16.4854750">
<ele>167</ele>
<time>2017-12-17T14:07:27Z</time>
</trkpt>
<trkpt lat="53.9887512" lon="16.4854750">
<ele>167</ele>
<time>2017-12-17T14:07:33Z</time>
</trkpt>
<trkpt lat="53.9887512" lon="16.4854750">
<ele>167</ele>
<time>2017-12-17T14:07:39Z</time>
</trkpt>
<trkpt lat="53.9887512" lon="16.4854750">
<ele>167</ele>
<time>2017-12-17T14:07:45Z</time>
</trkpt>
<trkpt lat="53.9887512" lon="16.4854750">
<ele>167</ele>
<time>2017-12-17T14:07:51Z</time>
</trkpt>
<trkpt lat="53.9887512" lon="16.4854750">
<ele>167</ele>
<time>2017-12-17T14:07:57Z</time>
</trkpt>
<trkpt lat="53.9887512" lon="16.4854750">
<ele>167</ele>
<time>2017-12-17T14:08:03Z</time>
</trkpt>
<trkpt lat="53.9887512" lon="16.4854750">
<ele>167</ele>
<time>2017-12-17T14:08:09Z</time>
</trkpt>
<trkpt lat="53.9887512" lon="16.4854750">
<ele>167</ele>
<time>2017-12-17T14:08:15Z</time>
</trkpt>
<trkpt lat="53.9887512" lon="16.4854750">
<ele>167</ele>
<time>2017-12-17T14:08:21Z</time>
</trkpt>
<trkpt lat="53.9887512" lon="16.4854750">
<ele>167</ele>
<time>2017-12-17T14:08:27Z</time>
</trkpt>
<trkpt lat="53.9887512" lon="16.4854750">
<ele>167</ele>
<time>2017-12-17T14:08:33Z</time>
</trkpt>
<trkpt lat="53.9887512" lon="16.4854750">
<ele>167</ele>
<time>2017-12-17T14:08:39Z</time>
</trkpt>
<trkpt lat="53.9887512" lon="16.4854750">
<ele>167</ele>
<time>2017-12-17T14:08:45Z</time>
</trkpt>
<trkpt lat="53.9887512" lon="16.4854750">
<ele>167</ele>
<time>2017-12-17T14:08:51Z</time>
</trkpt>
<trkpt lat="53.9887512" lon="16.4854750">
<ele>167</ele>
<time>2017-12-17T14:08:57Z</time>
</trkpt>
<trkpt lat="53.9887512" lon="16.4854750">
<ele>167</ele>
<time>2017-12-17T14:09:03Z</time>
</trkpt>
<trkpt lat="53.9887512" lon="16.4854750">
<ele>167</ele>
<time>2017-12-17T14:09:09Z</time>
</trkpt>
<trkpt lat="53.9887512" lon="16.4854750">
<ele>167</ele>
<time>2017-12-17T14:09:15Z</time>
</trkpt>
<trkpt lat="53.9887512" lon="16.4854750">
<ele>167</ele>
<time>2017-12-17T14:09:21Z</time>
</trkpt>
<trkpt lat="53.9887512" lon="16.4854750">
<ele>167</ele>
<time>2017-12-17T14:09:27Z</time>
</trkpt>
<trkpt lat="53.9887512" lon="16.4854750">
<ele>167</ele>
<time>2017-12-17T14:09:33Z</time>
</trkpt>
<trkpt lat="53.9887512" lon="16.4854750">
<ele>167</ele>
<time>2017-12-17T14:09:39Z</time>
</trkpt>
<trkpt lat="53.9887512" lon="16.4854750">
<ele>167</ele>
<time>2017-12-17T14:09:45Z</time>
</trkpt>
<trkpt lat="53.9887512" lon="16.4854750">
<ele>167</ele>
<time>2017-12-17T14:09:51Z</time>
</trkpt>
<trkpt lat="53.9887512" lon="16.4854750">
<ele>167</ele>
<time>2017-12-17T14:09:57Z</time>
</trkpt>
<trkpt lat="53.9887512" lon="16.4854750">
<ele>167</ele>
<time>2017-12-17T14:10:03Z</time>
</trkpt>
<trkpt lat="53.9887387" lon="16.4854923">
<ele>167</ele>
<time>2017-12-17T14:10:09Z</time>
</trkpt>
<trkpt lat="53.9887398" lon="16.4854951">
<ele>168</ele>
<time>2017-12-17T14:10:15Z</time>
</trkpt>
<trkpt lat="53.9887398" lon="16.4854951">
<ele>168</ele>
<time>2017-12-17T14:10:21Z</time>
</trkpt>
<trkpt lat="53.9887398" lon="16.4854951">
<ele>168</ele>
<time>2017-12-17T14:10:27Z</time>
</trkpt>
<trkpt lat="53.9887398" lon="16.4854951">
<ele>168</ele>
<time>2017-12-17T14:10:33Z</time>
</trkpt>
<trkpt lat="53.9887398" lon="16.4854951">
<ele>168</ele>
<time>2017-12-17T14:10:39Z</time>
</trkpt>
<trkpt lat="53.9887657" lon="16.4854975">
<ele>168</ele>
<time>2017-12-17T14:10:45Z</time>
</trkpt>
<trkpt lat="53.9887657" lon="16.4854975">
<ele>168</ele>
<time>2017-12-17T14:10:51Z</time>
</trkpt>
<trkpt lat="53.9887793" lon="16.4855175">
<ele>168</ele>
<time>2017-12-17T14:10:57Z</time>
</trkpt>
<trkpt lat="53.9887842" lon="16.4855301">
<ele>168</ele>
<time>2017-12-17T14:11:03Z</time>
</trkpt>
<trkpt lat="53.9887842" lon="16.4855301">
<ele>168</ele>
<time>2017-12-17T14:11:09Z</time>
</trkpt>
<trkpt lat="53.9887803" lon="16.4855256">
<ele>168</ele>
<time>2017-12-17T14:11:15Z</time>
</trkpt>
<trkpt lat="53.989" lon="16.4853">
<ele>125</ele>
<time>2017-12-17T14:15:55Z</time>
</trkpt>
<trkpt lat="53.9889" lon="16.4852">
<ele>145</ele>
<time>2017-12-17T14:16:01Z</time>
</trkpt>
<trkpt lat="53.989" lon="16.4854">
<ele>182</ele>
<time>2017-12-17T14:16:07Z</time>
</trkpt>
<trkpt lat="53.9890009" lon="16.4853864">
<ele>180</ele>
<time>2017-12-17T14:16:13Z</time>
</trkpt>
<trkpt lat="53.9889406" lon="16.4853601">
<ele>172</ele>
<time>2017-12-17T14:16:19Z</time>
</trkpt>
<trkpt lat="53.9888847" lon="16.4853650">
<ele>169</ele>
<time>2017-12-17T14:16:25Z</time>
</trkpt>
<trkpt lat="53.9888811" lon="16.4853695">
<ele>169</ele>
<time>2017-12-17T14:16:31Z</time>
</trkpt>
<trkpt lat="53.9888811" lon="16.4853695">
<ele>169</ele>
<time>2017-12-17T14:16:37Z</time>
</trkpt>
<trkpt lat="53.9888811" lon="16.4853695">
<ele>169</ele>
<time>2017-12-17T14:16:43Z</time>
</trkpt>
<trkpt lat="53.9888811" lon="16.4853695">
<ele>169</ele>
<time>2017-12-17T14:16:49Z</time>
</trkpt>
<trkpt lat="53.9888811" lon="16.4853695">
<ele>169</ele>
<time>2017-12-17T14:16:55Z</time>
</trkpt>
<trkpt lat="53.9888811" lon="16.4853695">
<ele>169</ele>
<time>2017-12-17T14:17:01Z</time>
</trkpt>
<trkpt lat="53.9888811" lon="16.4853695">
<ele>169</ele>
<time>2017-12-17T14:17:07Z</time>
</trkpt>
<trkpt lat="53.9888811" lon="16.4853695">
<ele>169</ele>
<time>2017-12-17T14:17:13Z</time>
</trkpt>
<trkpt lat="53.9888811" lon="16.4853695">
<ele>169</ele>
<time>2017-12-17T14:17:19Z</time>
</trkpt>
<trkpt lat="53.9888811" lon="16.4853695">
<ele>169</ele>
<time>2017-12-17T14:17:25Z</time>
</trkpt>
<trkpt lat="53.9888811" lon="16.4853695">
<ele>169</ele>
<time>2017-12-17T14:17:31Z</time>
</trkpt>
<trkpt lat="53.9888811" lon="16.4853695">
<ele>169</ele>
<time>2017-12-17T14:17:37Z</time>
</trkpt>
<trkpt lat="53.9888811" lon="16.4853695">
<ele>169</ele>
<time>2017-12-17T14:17:43Z</time>
</trkpt>
<trkpt lat="53.9888811" lon="16.4853695">
<ele>169</ele>
<time>2017-12-17T14:17:49Z</time>
</trkpt>
<trkpt lat="53.9888811" lon="16.4853695">
<ele>169</ele>
<time>2017-12-17T14:17:55Z</time>
</trkpt>
<trkpt lat="53.9888811" lon="16.4853695">
<ele>169</ele>
<time>2017-12-17T14:18:01Z</time>
</trkpt>
<trkpt lat="53.9888811" lon="16.4853695">
<ele>169</ele>
<time>2017-12-17T14:18:07Z</time>
</trkpt>
<trkpt lat="53.9888811" lon="16.4853695">
<ele>169</ele>
<time>2017-12-17T14:18:13Z</time>
</trkpt>
<trkpt lat="53.9888811" lon="16.4853695">
<ele>169</ele>
<time>2017-12-17T14:18:19Z</time>
</trkpt>
<trkpt lat="53.9888811" lon="16.4853695">
<ele>169</ele>
<time>2017-12-17T14:18:25Z</time>
</trkpt>
<trkpt lat="53.9888811" lon="16.4853695">
<ele>169</ele>
<time>2017-12-17T14:18:31Z</time>
</trkpt>
<trkpt lat="53.9888811" lon="16.4853695">
<ele>169</ele>
<time>2017-12-17T14:18:37Z</time>
</trkpt>
<trkpt lat="53.9888811" lon="16.4853695">
<ele>169</ele>
<time>2017-12-17T14:18:43Z</time>
</trkpt>
<trkpt lat="53.9888811" lon="16.4853695">
<ele>169</ele>
<time>2017-12-17T14:18:49Z</time>
</trkpt>
<trkpt lat="53.9888811" lon="16.4853695">
<ele>169</ele>
<time>2017-12-17T14:18:55Z</time>
</trkpt>
<trkpt lat="53.9888811" lon="16.4853695">
<ele>169</ele>
<time>2017-12-17T14:19:01Z</time>
</trkpt>
<trkpt lat="53.9888811" lon="16.4853695">
<ele>169</ele>
<time>2017-12-17T14:19:07Z</time>
</trkpt>
<trkpt lat="53.9888811" lon="16.4853695">
<ele>169</ele>
<time>2017-12-17T14:19:13Z</time>
</trkpt>
<trkpt lat="53.9888811" lon="16.4853695">
<ele>169</ele>
<time>2017-12-17T14:19:19Z</time>
</trkpt>
<trkpt lat="53.9888811" lon="16.4853695">
<ele>169</ele>
<time>2017-12-17T14:19:25Z</time>
</trkpt>
<trkpt lat="53.9888811" lon="16.4853695">
<ele>169</ele>
<time>2017-12-17T14:19:31Z</time>
</trkpt>
<trkpt lat="53.9888811" lon="16.4853695">
<ele>169</ele>
<time>2017-12-17T14:19:37Z</time>
</trkpt>
<trkpt lat="53.9888811" lon="16.4853695">
<ele>169</ele>
<time>2017-12-17T14:19:43Z</time>
</trkpt>
<trkpt lat="53.9888811" lon="16.4853695">
<ele>169</ele>
<time>2017-12-17T14:19:49Z</time>
</trkpt>
<trkpt lat="53.9888211" lon="16.4853652">
<ele>168</ele>
<time>2017-12-17T14:19:55Z</time>
</trkpt>
<trkpt lat="53.9888128" lon="16.4853896">
<ele>169</ele>
<time>2017-12-17T14:20:01Z</time>
</trkpt>
<trkpt lat="53.9887935" lon="16.4853393">
<ele>169</ele>
<time>2017-12-17T14:20:07Z</time>
</trkpt>
<trkpt lat="53.9887160" lon="16.4851827">
<ele>167</ele>
<time>2017-12-17T14:20:13Z</time>
</trkpt>
<trkpt lat="53.9887815" lon="16.4847906">
<ele>167</ele>
<time>2017-12-17T14:20:19Z</time>
</trkpt>
<trkpt lat="53.9890534" lon="16.4841807">
<ele>166</ele>
<time>2017-12-17T14:20:25Z</time>
</trkpt>
<trkpt lat="53.9894019" lon="16.4835000">
<ele>165</ele>
<time>2017-12-17T14:20:31Z</time>
</trkpt>
<trkpt lat="53.9898397" lon="16.4826307">
<ele>164</ele>
<time>2017-12-17T14:20:37Z</time>
</trkpt>
<trkpt lat="53.9901618" lon="16.4815157">
<ele>164</ele>
<time>2017-12-17T14:20:43Z</time>
</trkpt>
<trkpt lat="53.9904287" lon="16.4802002">
<ele>163</ele>
<time>2017-12-17T14:20:49Z</time>
</trkpt>
<trkpt lat="53.9907282" lon="16.4788118">
<ele>162</ele>
<time>2017-12-17T14:20:55Z</time>
</trkpt>
<trkpt lat="53.9909923" lon="16.4775658">
<ele>162</ele>
<time>2017-12-17T14:21:01Z</time>
</trkpt>
<trkpt lat="53.9909581" lon="16.4765504">
<ele>166</ele>
<time>2017-12-17T14:21:07Z</time>
</trkpt>
<trkpt lat="53.9906495" lon="16.4754748">
<ele>164</ele>
<time>2017-12-17T14:21:13Z</time>
</trkpt>
<trkpt lat="53.9903287" lon="16.4742277">
<ele>168</ele>
<time>2017-12-17T14:21:19Z</time>
</trkpt>
<trkpt lat="53.9899903" lon="16.4729380">
<ele>170</ele>
<time>2017-12-17T14:21:25Z</time>
</trkpt>
<trkpt lat="53.9896533" lon="16.4716354">
<ele>172</ele>
<time>2017-12-17T14:21:31Z</time>
</trkpt>
<trkpt lat="53.9892860" lon="16.4702192">
<ele>171</ele>
<time>2017-12-17T14:21:37Z</time>
</trkpt>
<trkpt lat="53.9889079" lon="16.4687818">
<ele>173</ele>
<time>2017-12-17T14:21:43Z</time>
</trkpt>
<trkpt lat="53.9885383" lon="16.4673175">
<ele>177</ele>
<time>2017-12-17T14:21:49Z</time>
</trkpt>
<trkpt lat="53.9881660" lon="16.4658302">
<ele>179</ele>
<time>2017-12-17T14:21:55Z</time>
</trkpt>
<trkpt lat="53.9877803" lon="16.4643241">
<ele>181</ele>
<time>2017-12-17T14:22:01Z</time>
</trkpt>
<trkpt lat="53.9865" lon="16.4594">
<ele>186</ele>
<time>2017-12-17T14:22:19Z</time>
</trkpt>
<trkpt lat="53.9861" lon="16.4576">
<ele>189</ele>
<time>2017-12-17T14:22:25Z</time>
</trkpt>
<trkpt lat="53.9856" lon="16.4558">
<ele>192</ele>
<time>2017-12-17T14:22:31Z</time>
</trkpt>
<trkpt lat="53.9851" lon="16.4539">
<ele>192</ele>
<time>2017-12-17T14:22:37Z</time>
</trkpt>
<trkpt lat="53.9845" lon="16.4521">
<ele>196</ele>
<time>2017-12-17T14:22:43Z</time>
</trkpt>
<trkpt lat="53.9838138" lon="16.4505559">
<ele>196</ele>
<time>2017-12-17T14:22:49Z</time>
</trkpt>
<trkpt lat="53.9831314" lon="16.4489452">
<ele>198</ele>
<time>2017-12-17T14:22:55Z</time>
</trkpt>
<trkpt lat="53.9824463" lon="16.4473173">
<ele>202</ele>
<time>2017-12-17T14:23:01Z</time>
</trkpt>
<trkpt lat="53.9816940" lon="16.4456778">
<ele>202</ele>
<time>2017-12-17T14:23:07Z</time>
</trkpt>
<trkpt lat="53.9809942" lon="16.4439289">
<ele>201</ele>
<time>2017-12-17T14:23:13Z</time>
</trkpt>
<trkpt lat="53.9803124" lon="16.4422961">
<ele>198</ele>
<time>2017-12-17T14:23:19Z</time>
</trkpt>
<trkpt lat="53.9796265" lon="16.4406808">
<ele>195</ele>
<time>2017-12-17T14:23:25Z</time>
</trkpt>
<trkpt lat="53.9789090" lon="16.4390910">
<ele>196</ele>
<time>2017-12-17T14:23:31Z</time>
</trkpt>
<trkpt lat="53.9782310" lon="16.4374469">
<ele>196</ele>
<time>2017-12-17T14:23:37Z</time>
</trkpt>
<trkpt lat="53.9775251" lon="16.4357804">
<ele>197</ele>
<time>2017-12-17T14:23:43Z</time>
</trkpt>
<trkpt lat="53.9768653" lon="16.4340858">
<ele>197</ele>
<time>2017-12-17T14:23:49Z</time>
</trkpt>
<trkpt lat="53.9761940" lon="16.4324065">
<ele>195</ele>
<time>2017-12-17T14:23:55Z</time>
</trkpt>
<trkpt lat="53.9755386" lon="16.4307792">
<ele>196</ele>
<time>2017-12-17T14:24:01Z</time>
</trkpt>
<trkpt lat="53.9748629" lon="16.4290559">
<ele>198</ele>
<time>2017-12-17T14:24:07Z</time>
</trkpt>
<trkpt lat="53.9741825" lon="16.4273642">
<ele>200</ele>
<time>2017-12-17T14:24:13Z</time>
</trkpt>
<trkpt lat="53.9735224" lon="16.4256842">
<ele>200</ele>
<time>2017-12-17T14:24:19Z</time>
</trkpt>
<trkpt lat="53.9728464" lon="16.4241864">
<ele>201</ele>
<time>2017-12-17T14:24:25Z</time>
</trkpt>
<trkpt lat="53.9719857" lon="16.4231575">
<ele>200</ele>
<time>2017-12-17T14:24:31Z</time>
</trkpt>
<trkpt lat="53.9711533" lon="16.4221124">
<ele>198</ele>
<time>2017-12-17T14:24:37Z</time>
</trkpt>
<trkpt lat="53.9703485" lon="16.4211099">
<ele>197</ele>
<time>2017-12-17T14:24:43Z</time>
</trkpt>
<trkpt lat="53.9695384" lon="16.4201171">
<ele>194</ele>
<time>2017-12-17T14:24:49Z</time>
</trkpt>
<trkpt lat="53.9687058" lon="16.4191156">
<ele>193</ele>
<time>2017-12-17T14:24:55Z</time>
</trkpt>
<trkpt lat="53.9678424" lon="16.4181467">
<ele>191</ele>
<time>2017-12-17T14:25:01Z</time>
</trkpt>
<trkpt lat="53.9669912" lon="16.4171382">
<ele>189</ele>
<time>2017-12-17T14:25:07Z</time>
</trkpt>
<trkpt lat="53.9661232" lon="16.4161368">
<ele>186</ele>
<time>2017-12-17T14:25:13Z</time>
</trkpt>
<trkpt lat="53.9652886" lon="16.4150815">
<ele>186</ele>
<time>2017-12-17T14:25:19Z</time>
</trkpt>
<trkpt lat="53.9643801" lon="16.4139283">
<ele>186</ele>
<time>2017-12-17T14:25:25Z</time>
</trkpt>
<trkpt lat="53.9634682" lon="16.4127059">
<ele>186</ele>
<time>2017-12-17T14:25:31Z</time>
</trkpt>
<trkpt lat="53.9625732" lon="16.4115210">
<ele>184</ele>
<time>2017-12-17T14:25:37Z</time>
</trkpt>
<trkpt lat="53.9616313" lon="16.4102875">
<ele>181</ele>
<time>2017-12-17T14:25:43Z</time>
</trkpt>
<trkpt lat="53.9606540" lon="16.4089982">
<ele>180</ele>
<time>2017-12-17T14:25:49Z</time>
</trkpt>
<trkpt lat="53.9596507" lon="16.4076830">
<ele>178</ele>
<time>2017-12-17T14:25:55Z</time>
</trkpt>
<trkpt lat="53.9587234" lon="16.4064120">
<ele>176</ele>
<time>2017-12-17T14:26:01Z</time>
</trkpt>
<trkpt lat="53.9579601" lon="16.4050090">
<ele>174</ele>
<time>2017-12-17T14:26:07Z</time>
</trkpt>
<trkpt lat="53.9572972" lon="16.4036800">
<ele>172</ele>
<time>2017-12-17T14:26:13Z</time>
</trkpt>
<trkpt lat="53.9567011" lon="16.4024797">
<ele>171</ele>
<time>2017-12-17T14:26:19Z</time>
</trkpt>
<trkpt lat="53.9561763" lon="16.4014237">
<ele>172</ele>
<time>2017-12-17T14:26:25Z</time>
</trkpt>
<trkpt lat="53.9555969" lon="16.4006492">
<ele>170</ele>
<time>2017-12-17T14:26:31Z</time>
</trkpt>
<trkpt lat="53.9551852" lon="16.3996416">
<ele>169</ele>
<time>2017-12-17T14:26:37Z</time>
</trkpt>
<trkpt lat="53.9547900" lon="16.3985993">
<ele>167</ele>
<time>2017-12-17T14:26:43Z</time>
</trkpt>
<trkpt lat="53.9543548" lon="16.3975108">
<ele>165</ele>
<time>2017-12-17T14:26:49Z</time>
</trkpt>
<trkpt lat="53.9539203" lon="16.3963860">
<ele>164</ele>
<time>2017-12-17T14:26:55Z</time>
</trkpt>
<trkpt lat="53.9536224" lon="16.3951554">
<ele>162</ele>
<time>2017-12-17T14:27:01Z</time>
</trkpt>
<trkpt lat="53.9535779" lon="16.3943044">
<ele>162</ele>
<time>2017-12-17T14:27:07Z</time>
</trkpt>
<trkpt lat="53.9535456" lon="16.3943084">
<ele>162</ele>
<time>2017-12-17T14:27:13Z</time>
</trkpt>
<trkpt lat="53.9535327" lon="16.3943094">
<ele>161</ele>
<time>2017-12-17T14:27:19Z</time>
</trkpt>
<trkpt lat="53.9535327" lon="16.3943094">
<ele>161</ele>
<time>2017-12-17T14:27:25Z</time>
</trkpt>
<trkpt lat="53.9535327" lon="16.3943094">
<ele>161</ele>
<time>2017-12-17T14:27:31Z</time>
</trkpt>
<trkpt lat="53.9535327" lon="16.3943094">
<ele>161</ele>
<time>2017-12-17T14:27:37Z</time>
</trkpt>
<trkpt lat="53.9535327" lon="16.3943094">
<ele>161</ele>
<time>2017-12-17T14:27:43Z</time>
</trkpt>
<trkpt lat="53.9535327" lon="16.3943094">
<ele>161</ele>
<time>2017-12-17T14:27:49Z</time>
</trkpt>
<trkpt lat="53.9535327" lon="16.3943094">
<ele>161</ele>
<time>2017-12-17T14:27:55Z</time>
</trkpt>
<trkpt lat="53.9535327" lon="16.3943094">
<ele>161</ele>
<time>2017-12-17T14:28:01Z</time>
</trkpt>
<trkpt lat="53.9535327" lon="16.3943094">
<ele>161</ele>
<time>2017-12-17T14:28:07Z</time>
</trkpt>
<trkpt lat="53.9535327" lon="16.3943094">
<ele>161</ele>
<time>2017-12-17T14:28:13Z</time>
</trkpt>
<trkpt lat="53.9535327" lon="16.3943094">
<ele>161</ele>
<time>2017-12-17T14:28:19Z</time>
</trkpt>
<trkpt lat="53.9535327" lon="16.3943094">
<ele>161</ele>
<time>2017-12-17T14:28:25Z</time>
</trkpt>
<trkpt lat="53.9535327" lon="16.3943094">
<ele>161</ele>
<time>2017-12-17T14:28:31Z</time>
</trkpt>
<trkpt lat="53.9535327" lon="16.3943094">
<ele>161</ele>
<time>2017-12-17T14:28:37Z</time>
</trkpt>
<trkpt lat="53.9535327" lon="16.3943094">
<ele>161</ele>
<time>2017-12-17T14:28:43Z</time>
</trkpt>
<trkpt lat="53.9535327" lon="16.3943094">
<ele>161</ele>
<time>2017-12-17T14:28:49Z</time>
</trkpt>
<trkpt lat="53.9535327" lon="16.3943094">
<ele>161</ele>
<time>2017-12-17T14:28:55Z</time>
</trkpt>
<trkpt lat="53.9535327" lon="16.3943094">
<ele>161</ele>
<time>2017-12-17T14:29:01Z</time>
</trkpt>
<trkpt lat="53.9535095" lon="16.3942408">
<ele>161</ele>
<time>2017-12-17T14:29:07Z</time>
</trkpt>
<trkpt lat="53.9534361" lon="16.3938812">
<ele>161</ele>
<time>2017-12-17T14:29:13Z</time>
</trkpt>
<trkpt lat="53.9533715" lon="16.3931092">
<ele>162</ele>
<time>2017-12-17T14:29:19Z</time>
</trkpt>
<trkpt lat="53.9532707" lon="16.3919220">
<ele>161</ele>
<time>2017-12-17T14:29:25Z</time>
</trkpt>
<trkpt lat="53.9531489" lon="16.3903762">
<ele>162</ele>
<time>2017-12-17T14:29:31Z</time>
</trkpt>
<trkpt lat="53.9530061" lon="16.3886799">
<ele>162</ele>
<time>2017-12-17T14:29:37Z</time>
</trkpt>
<trkpt lat="53.9528423" lon="16.3867023">
<ele>163</ele>
<time>2017-12-17T14:29:43Z</time>
</trkpt>
<trkpt lat="53.9526827" lon="16.3846127">
<ele>164</ele>
<time>2017-12-17T14:29:49Z</time>
</trkpt>
<trkpt lat="53.9525160" lon="16.3824925">
<ele>166</ele>
<time>2017-12-17T14:29:55Z</time>
</trkpt>
<trkpt lat="53.9523772" lon="16.3803790">
<ele>166</ele>
<time>2017-12-17T14:30:01Z</time>
</trkpt>
<trkpt lat="53.9521977" lon="16.3782828">
<ele>161</ele>
<time>2017-12-17T14:30:07Z</time>
</trkpt>
<trkpt lat="53.9520469" lon="16.3761768">
<ele>164</ele>
<time>2017-12-17T14:30:13Z</time>
</trkpt>
<trkpt lat="53.9518924" lon="16.3741225">
<ele>165</ele>
<time>2017-12-17T14:30:19Z</time>
</trkpt>
<trkpt lat="53.9517178" lon="16.3720819">
<ele>162</ele>
<time>2017-12-17T14:30:25Z</time>
</trkpt>
<trkpt lat="53.9515270" lon="16.3699025">
<ele>159</ele>
<time>2017-12-17T14:30:31Z</time>
</trkpt>
<trkpt lat="53.9512692" lon="16.3676562">
<ele>161</ele>
<time>2017-12-17T14:30:37Z</time>
</trkpt>
<trkpt lat="53.9509821" lon="16.3654520">
<ele>159</ele>
<time>2017-12-17T14:30:43Z</time>
</trkpt>
<trkpt lat="53.9506820" lon="16.3632442">
<ele>157</ele>
<time>2017-12-17T14:30:49Z</time>
</trkpt>
<trkpt lat="53.9503771" lon="16.3610284">
<ele>157</ele>
<time>2017-12-17T14:30:55Z</time>
</trkpt>
<trkpt lat="53.9500819" lon="16.3588211">
<ele>154</ele>
<time>2017-12-17T14:31:01Z</time>
</trkpt>
<trkpt lat="53.9500052" lon="16.3565807">
<ele>155</ele>
<time>2017-12-17T14:31:07Z</time>
</trkpt>
<trkpt lat="53.9499357" lon="16.3544483">
<ele>153</ele>
<time>2017-12-17T14:31:13Z</time>
</trkpt>
<trkpt lat="53.9498788" lon="16.3523737">
<ele>150</ele>
<time>2017-12-17T14:31:19Z</time>
</trkpt>
<trkpt lat="53.9498079" lon="16.3503073">
<ele>146</ele>
<time>2017-12-17T14:31:25Z</time>
</trkpt>
<trkpt lat="53.9497313" lon="16.3483675">
<ele>143</ele>
<time>2017-12-17T14:31:31Z</time>
</trkpt>
<trkpt lat="53.9496440" lon="16.3464862">
<ele>140</ele>
<time>2017-12-17T14:31:37Z</time>
</trkpt>
<trkpt lat="53.9494727" lon="16.3446404">
<ele>139</ele>
<time>2017-12-17T14:31:43Z</time>
</trkpt>
<trkpt lat="53.9493247" lon="16.3428009">
<ele>137</ele>
<time>2017-12-17T14:31:49Z</time>
</trkpt>
<trkpt lat="53.9491553" lon="16.3409808">
<ele>137</ele>
<time>2017-12-17T14:31:55Z</time>
</trkpt>
<trkpt lat="53.9487461" lon="16.3392815">
<ele>137</ele>
<time>2017-12-17T14:32:01Z</time>
</trkpt>
<trkpt lat="53.9481975" lon="16.3376647">
<ele>136</ele>
<time>2017-12-17T14:32:07Z</time>
</trkpt>
<trkpt lat="53.9476239" lon="16.3359441">
<ele>135</ele>
<time>2017-12-17T14:32:13Z</time>
</trkpt>
<trkpt lat="53.9470493" lon="16.3341603">
<ele>134</ele>
<time>2017-12-17T14:32:19Z</time>
</trkpt>
<trkpt lat="53.9465262" lon="16.3322617">
<ele>133</ele>
<time>2017-12-17T14:32:25Z</time>
</trkpt>
<trkpt lat="53.9462577" lon="16.3301281">
<ele>132</ele>
<time>2017-12-17T14:32:31Z</time>
</trkpt>
<trkpt lat="53.9459904" lon="16.3279122">
<ele>133</ele>
<time>2017-12-17T14:32:37Z</time>
</trkpt>
<trkpt lat="53.9457473" lon="16.3257060">
<ele>131</ele>
<time>2017-12-17T14:32:43Z</time>
</trkpt>
<trkpt lat="53.9455026" lon="16.3234827">
<ele>131</ele>
<time>2017-12-17T14:32:49Z</time>
</trkpt>
<trkpt lat="53.9452019" lon="16.3212777">
<ele>128</ele>
<time>2017-12-17T14:32:55Z</time>
</trkpt>
<trkpt lat="53.9447737" lon="16.3191598">
<ele>129</ele>
<time>2017-12-17T14:33:01Z</time>
</trkpt>
<trkpt lat="53.9443143" lon="16.3171014">
<ele>131</ele>
<time>2017-12-17T14:33:07Z</time>
</trkpt>
<trkpt lat="53.9438896" lon="16.3151094">
<ele>133</ele>
<time>2017-12-17T14:33:13Z</time>
</trkpt>
<trkpt lat="53.9434941" lon="16.3130745">
<ele>132</ele>
<time>2017-12-17T14:33:19Z</time>
</trkpt>
<trkpt lat="53.9430780" lon="16.3110057">
<ele>131</ele>
<time>2017-12-17T14:33:25Z</time>
</trkpt>
<trkpt lat="53.9426534" lon="16.3089016">
<ele>130</ele>
<time>2017-12-17T14:33:31Z</time>
</trkpt>
<trkpt lat="53.9422209" lon="16.3068124">
<ele>129</ele>
<time>2017-12-17T14:33:37Z</time>
</trkpt>
<trkpt lat="53.9417980" lon="16.3047750">
<ele>130</ele>
<time>2017-12-17T14:33:43Z</time>
</trkpt>
<trkpt lat="53.9413491" lon="16.3027428">
<ele>130</ele>
<time>2017-12-17T14:33:49Z</time>
</trkpt>
<trkpt lat="53.9409300" lon="16.3006993">
<ele>131</ele>
<time>2017-12-17T14:33:55Z</time>
</trkpt>
<trkpt lat="53.9404879" lon="16.2986620">
<ele>129</ele>
<time>2017-12-17T14:34:01Z</time>
</trkpt>
<trkpt lat="53.9400383" lon="16.2965992">
<ele>133</ele>
<time>2017-12-17T14:34:07Z</time>
</trkpt>
<trkpt lat="53.9395981" lon="16.2945356">
<ele>134</ele>
<time>2017-12-17T14:34:13Z</time>
</trkpt>
<trkpt lat="53.9391656" lon="16.2924098">
<ele>135</ele>
<time>2017-12-17T14:34:19Z</time>
</trkpt>
<trkpt lat="53.9387269" lon="16.2902982">
<ele>137</ele>
<time>2017-12-17T14:34:25Z</time>
</trkpt>
<trkpt lat="53.9382802" lon="16.2882209">
<ele>141</ele>
<time>2017-12-17T14:34:31Z</time>
</trkpt>
<trkpt lat="53.9378413" lon="16.2861345">
<ele>142</ele>
<time>2017-12-17T14:34:37Z</time>
</trkpt>
<trkpt lat="53.9374033" lon="16.2840779">
<ele>142</ele>
<time>2017-12-17T14:34:43Z</time>
</trkpt>
<trkpt lat="53.9369679" lon="16.2819995">
<ele>142</ele>
<time>2017-12-17T14:34:49Z</time>
</trkpt>
<trkpt lat="53.9365314" lon="16.2799634">
<ele>142</ele>
<time>2017-12-17T14:34:55Z</time>
</trkpt>
<trkpt lat="53.9360665" lon="16.2780749">
<ele>142</ele>
<time>2017-12-17T14:35:01Z</time>
</trkpt>
<trkpt lat="53.9355204" lon="16.2765149">
<ele>138</ele>
<time>2017-12-17T14:35:07Z</time>
</trkpt>
<trkpt lat="53.9350628" lon="16.2751113">
<ele>136</ele>
<time>2017-12-17T14:35:13Z</time>
</trkpt>
<trkpt lat="53.9346555" lon="16.2738803">
<ele>135</ele>
<time>2017-12-17T14:35:19Z</time>
</trkpt>
<trkpt lat="53.9343054" lon="16.2727978">
<ele>132</ele>
<time>2017-12-17T14:35:25Z</time>
</trkpt>
<trkpt lat="53.9339438" lon="16.2717223">
<ele>131</ele>
<time>2017-12-17T14:35:31Z</time>
</trkpt>
<trkpt lat="53.9335925" lon="16.2706058">
<ele>131</ele>
<time>2017-12-17T14:35:37Z</time>
</trkpt>
<trkpt lat="53.9332111" lon="16.2694489">
<ele>129</ele>
<time>2017-12-17T14:35:43Z</time>
</trkpt>
<trkpt lat="53.9328157" lon="16.2682462">
<ele>128</ele>
<time>2017-12-17T14:35:49Z</time>
</trkpt>
<trkpt lat="53.9324311" lon="16.2670251">
<ele>128</ele>
<time>2017-12-17T14:35:55Z</time>
</trkpt>
<trkpt lat="53.9320516" lon="16.2658686">
<ele>129</ele>
<time>2017-12-17T14:36:01Z</time>
</trkpt>
<trkpt lat="53.9314642" lon="16.2649883">
<ele>126</ele>
<time>2017-12-17T14:36:07Z</time>
</trkpt>
<trkpt lat="53.9309732" lon="16.2639872">
<ele>123</ele>
<time>2017-12-17T14:36:13Z</time>
</trkpt>
<trkpt lat="53.9308271" lon="16.2627543">
<ele>122</ele>
<time>2017-12-17T14:36:19Z</time>
</trkpt>
<trkpt lat="53.9307448" lon="16.2615597">
<ele>121</ele>
<time>2017-12-17T14:36:25Z</time>
</trkpt>
<trkpt lat="53.9306479" lon="16.2604848">
<ele>120</ele>
<time>2017-12-17T14:36:31Z</time>
</trkpt>
<trkpt lat="53.9302999" lon="16.2597336">
<ele>121</ele>
<time>2017-12-17T14:36:37Z</time>
</trkpt>
<trkpt lat="53.9297683" lon="16.2592150">
<ele>117</ele>
<time>2017-12-17T14:36:43Z</time>
</trkpt>
<trkpt lat="53.9291625" lon="16.2587182">
<ele>115</ele>
<time>2017-12-17T14:36:49Z</time>
</trkpt>
<trkpt lat="53.9285341" lon="16.2582864">
<ele>115</ele>
<time>2017-12-17T14:36:55Z</time>
</trkpt>
<trkpt lat="53.9279117" lon="16.2577467">
<ele>113</ele>
<time>2017-12-17T14:37:01Z</time>
</trkpt>
<trkpt lat="53.9273737" lon="16.2569797">
<ele>111</ele>
<time>2017-12-17T14:37:07Z</time>
</trkpt>
<trkpt lat="53.9269730" lon="16.2559015">
<ele>110</ele>
<time>2017-12-17T14:37:13Z</time>
</trkpt>
<trkpt lat="53.9265822" lon="16.2547992">
<ele>110</ele>
<time>2017-12-17T14:37:19Z</time>
</trkpt>
<trkpt lat="53.9261710" lon="16.2536805">
<ele>110</ele>
<time>2017-12-17T14:37:25Z</time>
</trkpt>
<trkpt lat="53.9259266" lon="16.2527879">
<ele>111</ele>
<time>2017-12-17T14:37:31Z</time>
</trkpt>
<trkpt lat="53.9259163" lon="16.2522726">
<ele>111</ele>
<time>2017-12-17T14:37:37Z</time>
</trkpt>
<trkpt lat="53.9260546" lon="16.2517487">
<ele>109</ele>
<time>2017-12-17T14:37:43Z</time>
</trkpt>
<trkpt lat="53.9261579" lon="16.2508315">
<ele>110</ele>
<time>2017-12-17T14:37:49Z</time>
</trkpt>
<trkpt lat="53.9263090" lon="16.2496058">
<ele>109</ele>
<time>2017-12-17T14:37:55Z</time>
</trkpt>
<trkpt lat="53.9264720" lon="16.2482629">
<ele>109</ele>
<time>2017-12-17T14:38:01Z</time>
</trkpt>
<trkpt lat="53.9266593" lon="16.2468066">
<ele>110</ele>
<time>2017-12-17T14:38:07Z</time>
</trkpt>
<trkpt lat="53.9268663" lon="16.2451106">
<ele>109</ele>
<time>2017-12-17T14:38:13Z</time>
</trkpt>
<trkpt lat="53.9271018" lon="16.2431764">
<ele>108</ele>
<time>2017-12-17T14:38:19Z</time>
</trkpt>
<trkpt lat="53.9273720" lon="16.2410665">
<ele>107</ele>
<time>2017-12-17T14:38:25Z</time>
</trkpt>
<trkpt lat="53.9276487" lon="16.2388459">
<ele>105</ele>
<time>2017-12-17T14:38:31Z</time>
</trkpt>
<trkpt lat="53.9279187" lon="16.2366296">
<ele>104</ele>
<time>2017-12-17T14:38:37Z</time>
</trkpt>
<trkpt lat="53.9281959" lon="16.2344253">
<ele>106</ele>
<time>2017-12-17T14:38:43Z</time>
</trkpt>
<trkpt lat="53.9284732" lon="16.2322339">
<ele>109</ele>
<time>2017-12-17T14:38:49Z</time>
</trkpt>
<trkpt lat="53.9287595" lon="16.2300588">
<ele>110</ele>
<time>2017-12-17T14:38:55Z</time>
</trkpt>
<trkpt lat="53.9290294" lon="16.2278737">
<ele>111</ele>
<time>2017-12-17T14:39:01Z</time>
</trkpt>
<trkpt lat="53.9292773" lon="16.2257495">
<ele>108</ele>
<time>2017-12-17T14:39:07Z</time>
</trkpt>
<trkpt lat="53.9293385" lon="16.2235255">
<ele>106</ele>
<time>2017-12-17T14:39:13Z</time>
</trkpt>
<trkpt lat="53.9293165" lon="16.2213170">
<ele>107</ele>
<time>2017-12-17T14:39:19Z</time>
</trkpt>
<trkpt lat="53.9293075" lon="16.2191739">
<ele>105</ele>
<time>2017-12-17T14:39:25Z</time>
</trkpt>
<trkpt lat="53.9291120" lon="16.2171699">
<ele>106</ele>
<time>2017-12-17T14:39:31Z</time>
</trkpt>
<trkpt lat="53.9287141" lon="16.2151560">
<ele>105</ele>
<time>2017-12-17T14:39:37Z</time>
</trkpt>
<trkpt lat="53.9283077" lon="16.2132106">
<ele>104</ele>
<time>2017-12-17T14:39:43Z</time>
</trkpt>
<trkpt lat="53.9279486" lon="16.2112336">
<ele>106</ele>
<time>2017-12-17T14:39:49Z</time>
</trkpt>
<trkpt lat="53.9275942" lon="16.2092713">
<ele>111</ele>
<time>2017-12-17T14:39:55Z</time>
</trkpt>
<trkpt lat="53.9272694" lon="16.2074448">
<ele>113</ele>
<time>2017-12-17T14:40:01Z</time>
</trkpt>
<trkpt lat="53.9269503" lon="16.2057621">
<ele>112</ele>
<time>2017-12-17T14:40:07Z</time>
</trkpt>
<trkpt lat="53.9266664" lon="16.2041890">
<ele>111</ele>
<time>2017-12-17T14:40:13Z</time>
</trkpt>
<trkpt lat="53.9267676" lon="16.2028403">
<ele>110</ele>
<time>2017-12-17T14:40:19Z</time>
</trkpt>
<trkpt lat="53.9269706" lon="16.2015041">
<ele>112</ele>
<time>2017-12-17T14:40:25Z</time>
</trkpt>
<trkpt lat="53.9271405" lon="16.2001968">
<ele>113</ele>
<time>2017-12-17T14:40:31Z</time>
</trkpt>
<trkpt lat="53.9271505" lon="16.1988712">
<ele>107</ele>
<time>2017-12-17T14:40:37Z</time>
</trkpt>
<trkpt lat="53.9274951" lon="16.1975089">
<ele>108</ele>
<time>2017-12-17T14:40:43Z</time>
</trkpt>
<trkpt lat="53.9278712" lon="16.1959242">
<ele>106</ele>
<time>2017-12-17T14:40:49Z</time>
</trkpt>
<trkpt lat="53.9282914" lon="16.1940868">
<ele>104</ele>
<time>2017-12-17T14:40:55Z</time>
</trkpt>
<trkpt lat="53.9287357" lon="16.1921345">
<ele>103</ele>
<time>2017-12-17T14:41:01Z</time>
</trkpt>
<trkpt lat="53.9292045" lon="16.1901131">
<ele>103</ele>
<time>2017-12-17T14:41:07Z</time>
</trkpt>
<trkpt lat="53.9296761" lon="16.1880514">
<ele>102</ele>
<time>2017-12-17T14:41:13Z</time>
</trkpt>
<trkpt lat="53.9301609" lon="16.1859503">
<ele>101</ele>
<time>2017-12-17T14:41:19Z</time>
</trkpt>
<trkpt lat="53.9306485" lon="16.1838286">
<ele>102</ele>
<time>2017-12-17T14:41:25Z</time>
</trkpt>
<trkpt lat="53.9311450" lon="16.1816843">
<ele>101</ele>
<time>2017-12-17T14:41:31Z</time>
</trkpt>
<trkpt lat="53.9316428" lon="16.1795277">
<ele>101</ele>
<time>2017-12-17T14:41:37Z</time>
</trkpt>
<trkpt lat="53.9321363" lon="16.1773806">
<ele>101</ele>
<time>2017-12-17T14:41:43Z</time>
</trkpt>
<trkpt lat="53.9325553" lon="16.1752386">
<ele>101</ele>
<time>2017-12-17T14:41:49Z</time>
</trkpt>
<trkpt lat="53.9326561" lon="16.1730320">
<ele>102</ele>
<time>2017-12-17T14:41:55Z</time>
</trkpt>
<trkpt lat="53.9327129" lon="16.1707569">
<ele>102</ele>
<time>2017-12-17T14:42:01Z</time>
</trkpt>
<trkpt lat="53.9327544" lon="16.1684528">
<ele>102</ele>
<time>2017-12-17T14:42:07Z</time>
</trkpt>
<trkpt lat="53.9328190" lon="16.1661519">
<ele>102</ele>
<time>2017-12-17T14:42:13Z</time>
</trkpt>
<trkpt lat="53.9329068" lon="16.1638746">
<ele>103</ele>
<time>2017-12-17T14:42:19Z</time>
</trkpt>
<trkpt lat="53.9329665" lon="16.1616043">
<ele>104</ele>
<time>2017-12-17T14:42:25Z</time>
</trkpt>
<trkpt lat="53.9330179" lon="16.1593473">
<ele>105</ele>
<time>2017-12-17T14:42:31Z</time>
</trkpt>
<trkpt lat="53.9330745" lon="16.1570757">
<ele>106</ele>
<time>2017-12-17T14:42:37Z</time>
</trkpt>
<trkpt lat="53.9331252" lon="16.1547933">
<ele>103</ele>
<time>2017-12-17T14:42:43Z</time>
</trkpt>
<trkpt lat="53.9331861" lon="16.1525088">
<ele>103</ele>
<time>2017-12-17T14:42:49Z</time>
</trkpt>
<trkpt lat="53.9332486" lon="16.1502224">
<ele>104</ele>
<time>2017-12-17T14:42:55Z</time>
</trkpt>
<trkpt lat="53.9333002" lon="16.1480763">
<ele>104</ele>
<time>2017-12-17T14:43:01Z</time>
</trkpt>
<trkpt lat="53.9333315" lon="16.1462814">
<ele>105</ele>
<time>2017-12-17T14:43:07Z</time>
</trkpt>
<trkpt lat="53.9334545" lon="16.1450570">
<ele>104</ele>
<time>2017-12-17T14:43:13Z</time>
</trkpt>
<trkpt lat="53.9334518" lon="16.1442190">
<ele>107</ele>
<time>2017-12-17T14:43:19Z</time>
</trkpt>
<trkpt lat="53.9333934" lon="16.1434693">
<ele>104</ele>
<time>2017-12-17T14:43:25Z</time>
</trkpt>
<trkpt lat="53.9334419" lon="16.1422208">
<ele>103</ele>
<time>2017-12-17T14:43:31Z</time>
</trkpt>
<trkpt lat="53.9334801" lon="16.1407778">
<ele>103</ele>
<time>2017-12-17T14:43:37Z</time>
</trkpt>
<trkpt lat="53.9335245" lon="16.1390203">
<ele>104</ele>
<time>2017-12-17T14:43:43Z</time>
</trkpt>
<trkpt lat="53.9335770" lon="16.1371063">
<ele>104</ele>
<time>2017-12-17T14:43:49Z</time>
</trkpt>
<trkpt lat="53.9336288" lon="16.1352310">
<ele>102</ele>
<time>2017-12-17T14:43:55Z</time>
</trkpt>
<trkpt lat="53.9336815" lon="16.1332371">
<ele>100</ele>
<time>2017-12-17T14:44:01Z</time>
</trkpt>
<trkpt lat="53.9337116" lon="16.1311643">
<ele>100</ele>
<time>2017-12-17T14:44:07Z</time>
</trkpt>
<trkpt lat="53.9337634" lon="16.1289703">
<ele>99</ele>
<time>2017-12-17T14:44:13Z</time>
</trkpt>
<trkpt lat="53.9338264" lon="16.1267335">
<ele>99</ele>
<time>2017-12-17T14:44:19Z</time>
</trkpt>
<trkpt lat="53.9338719" lon="16.1244974">
<ele>100</ele>
<time>2017-12-17T14:44:25Z</time>
</trkpt>
<trkpt lat="53.9339263" lon="16.1222818">
<ele>100</ele>
<time>2017-12-17T14:44:31Z</time>
</trkpt>
<trkpt lat="53.9339998" lon="16.1200463">
<ele>100</ele>
<time>2017-12-17T14:44:37Z</time>
</trkpt>
<trkpt lat="53.9340627" lon="16.1177887">
<ele>100</ele>
<time>2017-12-17T14:44:43Z</time>
</trkpt>
<trkpt lat="53.9341232" lon="16.1155549">
<ele>99</ele>
<time>2017-12-17T14:44:49Z</time>
</trkpt>
<trkpt lat="53.9340924" lon="16.1134386">
<ele>99</ele>
<time>2017-12-17T14:44:55Z</time>
</trkpt>
<trkpt lat="53.9336581" lon="16.1115270">
<ele>100</ele>
<time>2017-12-17T14:45:01Z</time>
</trkpt>
<trkpt lat="53.9335620" lon="16.1095546">
<ele>100</ele>
<time>2017-12-17T14:45:07Z</time>
</trkpt>
<trkpt lat="53.9336148" lon="16.1074225">
<ele>104</ele>
<time>2017-12-17T14:45:13Z</time>
</trkpt>
<trkpt lat="53.9336608" lon="16.1053293">
<ele>105</ele>
<time>2017-12-17T14:45:19Z</time>
</trkpt>
<trkpt lat="53.9337072" lon="16.1033113">
<ele>105</ele>
<time>2017-12-17T14:45:25Z</time>
</trkpt>
<trkpt lat="53.9337506" lon="16.1013689">
<ele>103</ele>
<time>2017-12-17T14:45:31Z</time>
</trkpt>
<trkpt lat="53.9337907" lon="16.0994595">
<ele>101</ele>
<time>2017-12-17T14:45:37Z</time>
</trkpt>
<trkpt lat="53.9338385" lon="16.0976441">
<ele>99</ele>
<time>2017-12-17T14:45:43Z</time>
</trkpt>
<trkpt lat="53.9339637" lon="16.0958726">
<ele>98</ele>
<time>2017-12-17T14:45:49Z</time>
</trkpt>
<trkpt lat="53.9342327" lon="16.0941795">
<ele>99</ele>
<time>2017-12-17T14:45:55Z</time>
</trkpt>
<trkpt lat="53.9346152" lon="16.0926000">
<ele>99</ele>
<time>2017-12-17T14:46:01Z</time>
</trkpt>
<trkpt lat="53.9350952" lon="16.0911812">
<ele>100</ele>
<time>2017-12-17T14:46:07Z</time>
</trkpt>
<trkpt lat="53.9356503" lon="16.0898791">
<ele>99</ele>
<time>2017-12-17T14:46:13Z</time>
</trkpt>
<trkpt lat="53.9362415" lon="16.0885298">
<ele>101</ele>
<time>2017-12-17T14:46:19Z</time>
</trkpt>
<trkpt lat="53.9368686" lon="16.0871229">
<ele>101</ele>
<time>2017-12-17T14:46:25Z</time>
</trkpt>
<trkpt lat="53.9375023" lon="16.0856574">
<ele>102</ele>
<time>2017-12-17T14:46:31Z</time>
</trkpt>
<trkpt lat="53.9381543" lon="16.0841430">
<ele>98</ele>
<time>2017-12-17T14:46:37Z</time>
</trkpt>
<trkpt lat="53.9388451" lon="16.0825765">
<ele>98</ele>
<time>2017-12-17T14:46:43Z</time>
</trkpt>
<trkpt lat="53.9395186" lon="16.0809757">
<ele>101</ele>
<time>2017-12-17T14:46:49Z</time>
</trkpt>
<trkpt lat="53.9402186" lon="16.0793784">
<ele>105</ele>
<time>2017-12-17T14:46:55Z</time>
</trkpt>
<trkpt lat="53.9409451" lon="16.0777577">
<ele>108</ele>
<time>2017-12-17T14:47:01Z</time>
</trkpt>
<trkpt lat="53.9416711" lon="16.0761044">
<ele>110</ele>
<time>2017-12-17T14:47:07Z</time>
</trkpt>
<trkpt lat="53.9423670" lon="16.0745122">
<ele>112</ele>
<time>2017-12-17T14:47:13Z</time>
</trkpt>
<trkpt lat="53.9430576" lon="16.0729472">
<ele>114</ele>
<time>2017-12-17T14:47:19Z</time>
</trkpt>
<trkpt lat="53.9437144" lon="16.0714612">
<ele>112</ele>
<time>2017-12-17T14:47:25Z</time>
</trkpt>
<trkpt lat="53.9443477" lon="16.0700099">
<ele>109</ele>
<time>2017-12-17T14:47:31Z</time>
</trkpt>
<trkpt lat="53.9449362" lon="16.0686495">
<ele>109</ele>
<time>2017-12-17T14:47:37Z</time>
</trkpt>
<trkpt lat="53.9454839" lon="16.0674079">
<ele>107</ele>
<time>2017-12-17T14:47:43Z</time>
</trkpt>
<trkpt lat="53.9460288" lon="16.0661900">
<ele>102</ele>
<time>2017-12-17T14:47:49Z</time>
</trkpt>
<trkpt lat="53.9465835" lon="16.0649041">
<ele>101</ele>
<time>2017-12-17T14:47:55Z</time>
</trkpt>
<trkpt lat="53.9469473" lon="16.0636089">
<ele>100</ele>
<time>2017-12-17T14:48:01Z</time>
</trkpt>
<trkpt lat="53.9471566" lon="16.0624593">
<ele>98</ele>
<time>2017-12-17T14:48:07Z</time>
</trkpt>
<trkpt lat="53.9473309" lon="16.0615943">
<ele>93</ele>
<time>2017-12-17T14:48:13Z</time>
</trkpt>
<trkpt lat="53.9474182" lon="16.0612388">
<ele>89</ele>
<time>2017-12-17T14:48:19Z</time>
</trkpt>
<trkpt lat="53.9474891" lon="16.0610961">
<ele>87</ele>
<time>2017-12-17T14:48:25Z</time>
</trkpt>
<trkpt lat="53.9474891" lon="16.0610961">
<ele>87</ele>
<time>2017-12-17T14:48:31Z</time>
</trkpt>
<trkpt lat="53.9475277" lon="16.0608500">
<ele>85</ele>
<time>2017-12-17T14:48:37Z</time>
</trkpt>
<trkpt lat="53.9476633" lon="16.0603292">
<ele>85</ele>
<time>2017-12-17T14:48:43Z</time>
</trkpt>
<trkpt lat="53.9478499" lon="16.0595962">
<ele>85</ele>
<time>2017-12-17T14:48:49Z</time>
</trkpt>
<trkpt lat="53.9479409" lon="16.0585676">
<ele>84</ele>
<time>2017-12-17T14:48:55Z</time>
</trkpt>
<trkpt lat="53.9479245" lon="16.0575216">
<ele>83</ele>
<time>2017-12-17T14:49:01Z</time>
</trkpt>
<trkpt lat="53.9481295" lon="16.0564682">
<ele>81</ele>
<time>2017-12-17T14:49:07Z</time>
</trkpt>
<trkpt lat="53.9483904" lon="16.0552611">
<ele>82</ele>
<time>2017-12-17T14:49:13Z</time>
</trkpt>
<trkpt lat="53.9485764" lon="16.0539299">
<ele>80</ele>
<time>2017-12-17T14:49:19Z</time>
</trkpt>
<trkpt lat="53.9485933" lon="16.0525852">
<ele>77</ele>
<time>2017-12-17T14:49:25Z</time>
</trkpt>
<trkpt lat="53.9485914" lon="16.0513183">
<ele>75</ele>
<time>2017-12-17T14:49:31Z</time>
</trkpt>
<trkpt lat="53.9486350" lon="16.0501155">
<ele>73</ele>
<time>2017-12-17T14:49:37Z</time>
</trkpt>
<trkpt lat="53.9487725" lon="16.0490507">
<ele>72</ele>
<time>2017-12-17T14:49:43Z</time>
</trkpt>
<trkpt lat="53.9487658" lon="16.0480621">
<ele>71</ele>
<time>2017-12-17T14:49:49Z</time>
</trkpt>
<trkpt lat="53.9485026" lon="16.0472354">
<ele>73</ele>
<time>2017-12-17T14:49:55Z</time>
</trkpt>
<trkpt lat="53.9485080" lon="16.0462955">
<ele>75</ele>
<time>2017-12-17T14:50:01Z</time>
</trkpt>
<trkpt lat="53.9487506" lon="16.0453603">
<ele>75</ele>
<time>2017-12-17T14:50:07Z</time>
</trkpt>
<trkpt lat="53.9487738" lon="16.0443155">
<ele>75</ele>
<time>2017-12-17T14:50:13Z</time>
</trkpt>
<trkpt lat="53.9487020" lon="16.0432656">
<ele>77</ele>
<time>2017-12-17T14:50:19Z</time>
</trkpt>
<trkpt lat="53.9487445" lon="16.0421698">
<ele>79</ele>
<time>2017-12-17T14:50:25Z</time>
</trkpt>
<trkpt lat="53.9488129" lon="16.0410584">
<ele>81</ele>
<time>2017-12-17T14:50:31Z</time>
</trkpt>
<trkpt lat="53.9485409" lon="16.0400038">
<ele>84</ele>
<time>2017-12-17T14:50:37Z</time>
</trkpt>
<trkpt lat="53.9480464" lon="16.0390417">
<ele>84</ele>
<time>2017-12-17T14:50:43Z</time>
</trkpt>
<trkpt lat="53.9474965" lon="16.0378937">
<ele>83</ele>
<time>2017-12-17T14:50:49Z</time>
</trkpt>
<trkpt lat="53.9469389" lon="16.0366611">
<ele>83</ele>
<time>2017-12-17T14:50:55Z</time>
</trkpt>
<trkpt lat="53.9465586" lon="16.0351599">
<ele>83</ele>
<time>2017-12-17T14:51:01Z</time>
</trkpt>
<trkpt lat="53.9462869" lon="16.0335590">
<ele>83</ele>
<time>2017-12-17T14:51:07Z</time>
</trkpt>
<trkpt lat="53.9462644" lon="16.0319008">
<ele>83</ele>
<time>2017-12-17T14:51:13Z</time>
</trkpt>
<trkpt lat="53.9462088" lon="16.0302428">
<ele>85</ele>
<time>2017-12-17T14:51:19Z</time>
</trkpt>
<trkpt lat="53.9460118" lon="16.0285895">
<ele>87</ele>
<time>2017-12-17T14:51:25Z</time>
</trkpt>
<trkpt lat="53.9457474" lon="16.0269571">
<ele>87</ele>
<time>2017-12-17T14:51:31Z</time>
</trkpt>
<trkpt lat="53.9455147" lon="16.0254540">
<ele>89</ele>
<time>2017-12-17T14:51:37Z</time>
</trkpt>
<trkpt lat="53.9452736" lon="16.0243997">
<ele>91</ele>
<time>2017-12-17T14:51:43Z</time>
</trkpt>
<trkpt lat="53.9446777" lon="16.0237561">
<ele>91</ele>
<time>2017-12-17T14:51:49Z</time>
</trkpt>
<trkpt lat="53.9440091" lon="16.0230057">
<ele>90</ele>
<time>2017-12-17T14:51:55Z</time>
</trkpt>
<trkpt lat="53.9433730" lon="16.0221478">
<ele>89</ele>
<time>2017-12-17T14:52:01Z</time>
</trkpt>
<trkpt lat="53.9427651" lon="16.0212396">
<ele>90</ele>
<time>2017-12-17T14:52:07Z</time>
</trkpt>
<trkpt lat="53.9421600" lon="16.0203435">
<ele>91</ele>
<time>2017-12-17T14:52:13Z</time>
</trkpt>
<trkpt lat="53.9415523" lon="16.0194126">
<ele>95</ele>
<time>2017-12-17T14:52:19Z</time>
</trkpt>
<trkpt lat="53.9409484" lon="16.0185127">
<ele>97</ele>
<time>2017-12-17T14:52:25Z</time>
</trkpt>
<trkpt lat="53.9405318" lon="16.0174551">
<ele>97</ele>
<time>2017-12-17T14:52:31Z</time>
</trkpt>
<trkpt lat="53.9405230" lon="16.0161248">
<ele>99</ele>
<time>2017-12-17T14:52:37Z</time>
</trkpt>
<trkpt lat="53.9405439" lon="16.0146587">
<ele>101</ele>
<time>2017-12-17T14:52:43Z</time>
</trkpt>
<trkpt lat="53.9405178" lon="16.0130740">
<ele>100</ele>
<time>2017-12-17T14:52:49Z</time>
</trkpt>
<trkpt lat="53.9405097" lon="16.0114290">
<ele>100</ele>
<time>2017-12-17T14:52:55Z</time>
</trkpt>
<trkpt lat="53.9405098" lon="16.0098522">
<ele>99</ele>
<time>2017-12-17T14:53:01Z</time>
</trkpt>
<trkpt lat="53.9404862" lon="16.0086430">
<ele>100</ele>
<time>2017-12-17T14:53:07Z</time>
</trkpt>
<trkpt lat="53.9399636" lon="16.0081803">
<ele>97</ele>
<time>2017-12-17T14:53:13Z</time>
</trkpt>
<trkpt lat="53.9392708" lon="16.0079517">
<ele>93</ele>
<time>2017-12-17T14:53:19Z</time>
</trkpt>
<trkpt lat="53.9386424" lon="16.0072528">
<ele>91</ele>
<time>2017-12-17T14:53:25Z</time>
</trkpt>
<trkpt lat="53.9380000" lon="16.0066025">
<ele>88</ele>
<time>2017-12-17T14:53:31Z</time>
</trkpt>
<trkpt lat="53.9373771" lon="16.0064188">
<ele>85</ele>
<time>2017-12-17T14:53:37Z</time>
</trkpt>
<trkpt lat="53.9369364" lon="16.0057275">
<ele>87</ele>
<time>2017-12-17T14:53:43Z</time>
</trkpt>
<trkpt lat="53.9364723" lon="16.0048267">
<ele>88</ele>
<time>2017-12-17T14:53:49Z</time>
</trkpt>
<trkpt lat="53.9359380" lon="16.0039672">
<ele>90</ele>
<time>2017-12-17T14:53:55Z</time>
</trkpt>
<trkpt lat="53.9354596" lon="16.0030769">
<ele>91</ele>
<time>2017-12-17T14:54:01Z</time>
</trkpt>
<trkpt lat="53.9351422" lon="16.0021968">
<ele>87</ele>
<time>2017-12-17T14:54:07Z</time>
</trkpt>
<trkpt lat="53.9354566" lon="16.0013471">
<ele>83</ele>
<time>2017-12-17T14:54:13Z</time>
</trkpt>
<trkpt lat="53.9360276" lon="16.0006505">
<ele>84</ele>
<time>2017-12-17T14:54:19Z</time>
</trkpt>
<trkpt lat="53.9365060" lon="15.9996746">
<ele>85</ele>
<time>2017-12-17T14:54:25Z</time>
</trkpt>
<trkpt lat="53.9364622" lon="15.9983620">
<ele>85</ele>
<time>2017-12-17T14:54:31Z</time>
</trkpt>
<trkpt lat="53.9361782" lon="15.9970832">
<ele>83</ele>
<time>2017-12-17T14:54:37Z</time>
</trkpt>
<trkpt lat="53.9359748" lon="15.9956989">
<ele>84</ele>
<time>2017-12-17T14:54:43Z</time>
</trkpt>
<trkpt lat="53.9357563" lon="15.9942784">
<ele>84</ele>
<time>2017-12-17T14:54:49Z</time>
</trkpt>
<trkpt lat="53.9356059" lon="15.9929299">
<ele>85</ele>
<time>2017-12-17T14:54:55Z</time>
</trkpt>
<trkpt lat="53.9356885" lon="15.9918210">
<ele>85</ele>
<time>2017-12-17T14:55:01Z</time>
</trkpt>
<trkpt lat="53.9360861" lon="15.9908776">
<ele>92</ele>
<time>2017-12-17T14:55:07Z</time>
</trkpt>
<trkpt lat="53.9364935" lon="15.9900233">
<ele>100</ele>
<time>2017-12-17T14:55:13Z</time>
</trkpt>
<trkpt lat="53.9368671" lon="15.9891631">
<ele>99</ele>
<time>2017-12-17T14:55:19Z</time>
</trkpt>
<trkpt lat="53.9372427" lon="15.9882648">
<ele>100</ele>
<time>2017-12-17T14:55:25Z</time>
</trkpt>
<trkpt lat="53.9376421" lon="15.9872773">
<ele>99</ele>
<time>2017-12-17T14:55:31Z</time>
</trkpt>
<trkpt lat="53.9380632" lon="15.9862172">
<ele>98</ele>
<time>2017-12-17T14:55:37Z</time>
</trkpt>
<trkpt lat="53.9384736" lon="15.9851683">
<ele>97</ele>
<time>2017-12-17T14:55:43Z</time>
</trkpt>
<trkpt lat="53.9388505" lon="15.9842184">
<ele>96</ele>
<time>2017-12-17T14:55:49Z</time>
</trkpt>
<trkpt lat="53.9389770" lon="15.9833178">
<ele>92</ele>
<time>2017-12-17T14:55:55Z</time>
</trkpt>
<trkpt lat="53.9389372" lon="15.9824905">
<ele>89</ele>
<time>2017-12-17T14:56:01Z</time>
</trkpt>
<trkpt lat="53.9389188" lon="15.9818289">
<ele>88</ele>
<time>2017-12-17T14:56:07Z</time>
</trkpt>
<trkpt lat="53.9389741" lon="15.9811422">
<ele>88</ele>
<time>2017-12-17T14:56:13Z</time>
</trkpt>
<trkpt lat="53.9391320" lon="15.9802452">
<ele>87</ele>
<time>2017-12-17T14:56:19Z</time>
</trkpt>
<trkpt lat="53.9393463" lon="15.9791019">
<ele>86</ele>
<time>2017-12-17T14:56:25Z</time>
</trkpt>
<trkpt lat="53.9395940" lon="15.9776137">
<ele>85</ele>
<time>2017-12-17T14:56:31Z</time>
</trkpt>
<trkpt lat="53.9398235" lon="15.9762106">
<ele>86</ele>
<time>2017-12-17T14:56:37Z</time>
</trkpt>
<trkpt lat="53.9399930" lon="15.9747068">
<ele>87</ele>
<time>2017-12-17T14:56:43Z</time>
</trkpt>
<trkpt lat="53.9402422" lon="15.9732088">
<ele>88</ele>
<time>2017-12-17T14:56:49Z</time>
</trkpt>
<trkpt lat="53.9405895" lon="15.9717505">
<ele>90</ele>
<time>2017-12-17T14:56:55Z</time>
</trkpt>
<trkpt lat="53.9408456" lon="15.9702550">
<ele>92</ele>
<time>2017-12-17T14:57:01Z</time>
</trkpt>
<trkpt lat="53.9411827" lon="15.9687640">
<ele>93</ele>
<time>2017-12-17T14:57:07Z</time>
</trkpt>
<trkpt lat="53.9415664" lon="15.9672841">
<ele>95</ele>
<time>2017-12-17T14:57:13Z</time>
</trkpt>
<trkpt lat="53.9418808" lon="15.9659071">
<ele>96</ele>
<time>2017-12-17T14:57:19Z</time>
</trkpt>
<trkpt lat="53.9418564" lon="15.9644794">
<ele>98</ele>
<time>2017-12-17T14:57:25Z</time>
</trkpt>
<trkpt lat="53.9416049" lon="15.9631718">
<ele>100</ele>
<time>2017-12-17T14:57:31Z</time>
</trkpt>
<trkpt lat="53.9413590" lon="15.9621060">
<ele>102</ele>
<time>2017-12-17T14:57:37Z</time>
</trkpt>
<trkpt lat="53.9411573" lon="15.9610590">
<ele>103</ele>
<time>2017-12-17T14:57:43Z</time>
</trkpt>
<trkpt lat="53.9411066" lon="15.9599543">
<ele>103</ele>
<time>2017-12-17T14:57:49Z</time>
</trkpt>
<trkpt lat="53.9411861" lon="15.9589170">
<ele>103</ele>
<time>2017-12-17T14:57:55Z</time>
</trkpt>
<trkpt lat="53.9412207" lon="15.9582507">
<ele>104</ele>
<time>2017-12-17T14:58:01Z</time>
</trkpt>
<trkpt lat="53.9412238" lon="15.9579166">
<ele>107</ele>
<time>2017-12-17T14:58:07Z</time>
</trkpt>
<trkpt lat="53.9412496" lon="15.9575667">
<ele>107</ele>
<time>2017-12-17T14:58:13Z</time>
</trkpt>
<trkpt lat="53.9412185" lon="15.9568912">
<ele>104</ele>
<time>2017-12-17T14:58:19Z</time>
</trkpt>
<trkpt lat="53.9412141" lon="15.9560784">
<ele>104</ele>
<time>2017-12-17T14:58:25Z</time>
</trkpt>
<trkpt lat="53.9412037" lon="15.9549849">
<ele>101</ele>
<time>2017-12-17T14:58:31Z</time>
</trkpt>
<trkpt lat="53.9411860" lon="15.9536693">
<ele>100</ele>
<time>2017-12-17T14:58:37Z</time>
</trkpt>
<trkpt lat="53.9411892" lon="15.9524035">
<ele>98</ele>
<time>2017-12-17T14:58:43Z</time>
</trkpt>
<trkpt lat="53.9411951" lon="15.9510224">
<ele>95</ele>
<time>2017-12-17T14:58:49Z</time>
</trkpt>
<trkpt lat="53.9411106" lon="15.9494969">
<ele>92</ele>
<time>2017-12-17T14:58:55Z</time>
</trkpt>
<trkpt lat="53.9409970" lon="15.9479137">
<ele>90</ele>
<time>2017-12-17T14:59:01Z</time>
</trkpt>
<trkpt lat="53.9408042" lon="15.9463240">
<ele>88</ele>
<time>2017-12-17T14:59:07Z</time>
</trkpt>
<trkpt lat="53.9405056" lon="15.9447571">
<ele>86</ele>
<time>2017-12-17T14:59:13Z</time>
</trkpt>
<trkpt lat="53.9401495" lon="15.9432225">
<ele>85</ele>
<time>2017-12-17T14:59:19Z</time>
</trkpt>
<trkpt lat="53.9399821" lon="15.9417231">
<ele>84</ele>
<time>2017-12-17T14:59:25Z</time>
</trkpt>
<trkpt lat="53.9402884" lon="15.9402564">
<ele>84</ele>
<time>2017-12-17T14:59:31Z</time>
</trkpt>
<trkpt lat="53.9408105" lon="15.9388724">
<ele>84</ele>
<time>2017-12-17T14:59:37Z</time>
</trkpt>
<trkpt lat="53.9412831" lon="15.9375010">
<ele>84</ele>
<time>2017-12-17T14:59:43Z</time>
</trkpt>
<trkpt lat="53.9417105" lon="15.9361245">
<ele>87</ele>
<time>2017-12-17T14:59:49Z</time>
</trkpt>
<trkpt lat="53.9420184" lon="15.9347396">
<ele>87</ele>
<time>2017-12-17T14:59:55Z</time>
</trkpt>
<trkpt lat="53.9423354" lon="15.9334203">
<ele>91</ele>
<time>2017-12-17T15:00:01Z</time>
</trkpt>
<trkpt lat="53.9426482" lon="15.9321181">
<ele>95</ele>
<time>2017-12-17T15:00:07Z</time>
</trkpt>
<trkpt lat="53.9429567" lon="15.9308207">
<ele>98</ele>
<time>2017-12-17T15:00:13Z</time>
</trkpt>
<trkpt lat="53.9432721" lon="15.9295323">
<ele>102</ele>
<time>2017-12-17T15:00:19Z</time>
</trkpt>
<trkpt lat="53.9435691" lon="15.9282253">
<ele>105</ele>
<time>2017-12-17T15:00:25Z</time>
</trkpt>
<trkpt lat="53.9437915" lon="15.9268442">
<ele>106</ele>
<time>2017-12-17T15:00:31Z</time>
</trkpt>
<trkpt lat="53.9439662" lon="15.9255055">
<ele>106</ele>
<time>2017-12-17T15:00:37Z</time>
</trkpt>
<trkpt lat="53.9441409" lon="15.9241833">
<ele>108</ele>
<time>2017-12-17T15:00:43Z</time>
</trkpt>
<trkpt lat="53.9443138" lon="15.9228799">
<ele>106</ele>
<time>2017-12-17T15:00:49Z</time>
</trkpt>
<trkpt lat="53.9444301" lon="15.9216942">
<ele>104</ele>
<time>2017-12-17T15:00:55Z</time>
</trkpt>
<trkpt lat="53.9444984" lon="15.9208533">
<ele>104</ele>
<time>2017-12-17T15:01:01Z</time>
</trkpt>
<trkpt lat="53.9447848" lon="15.9205629">
<ele>98</ele>
<time>2017-12-17T15:01:07Z</time>
</trkpt>
<trkpt lat="53.9453104" lon="15.9205136">
<ele>97</ele>
<time>2017-12-17T15:01:13Z</time>
</trkpt>
<trkpt lat="53.9458788" lon="15.9203755">
<ele>97</ele>
<time>2017-12-17T15:01:19Z</time>
</trkpt>
<trkpt lat="53.9463017" lon="15.9201683">
<ele>98</ele>
<time>2017-12-17T15:01:25Z</time>
</trkpt>
<trkpt lat="53.9463405" lon="15.9194152">
<ele>95</ele>
<time>2017-12-17T15:01:31Z</time>
</trkpt>
<trkpt lat="53.9463922" lon="15.9184617">
<ele>94</ele>
<time>2017-12-17T15:01:37Z</time>
</trkpt>
<trkpt lat="53.9467268" lon="15.9175097">
<ele>91</ele>
<time>2017-12-17T15:01:43Z</time>
</trkpt>
<trkpt lat="53.9471219" lon="15.9163736">
<ele>89</ele>
<time>2017-12-17T15:01:49Z</time>
</trkpt>
<trkpt lat="53.9475683" lon="15.9150803">
<ele>86</ele>
<time>2017-12-17T15:01:55Z</time>
</trkpt>
<trkpt lat="53.9480085" lon="15.9137828">
<ele>84</ele>
<time>2017-12-17T15:02:01Z</time>
</trkpt>
<trkpt lat="53.9484311" lon="15.9125279">
<ele>84</ele>
<time>2017-12-17T15:02:07Z</time>
</trkpt>
<trkpt lat="53.9488592" lon="15.9112828">
<ele>83</ele>
<time>2017-12-17T15:02:13Z</time>
</trkpt>
<trkpt lat="53.9493018" lon="15.9100728">
<ele>81</ele>
<time>2017-12-17T15:02:19Z</time>
</trkpt>
<trkpt lat="53.9497582" lon="15.9089528">
<ele>79</ele>
<time>2017-12-17T15:02:25Z</time>
</trkpt>
<trkpt lat="53.9502149" lon="15.9078136">
<ele>77</ele>
<time>2017-12-17T15:02:31Z</time>
</trkpt>
<trkpt lat="53.9506750" lon="15.9066889">
<ele>75</ele>
<time>2017-12-17T15:02:37Z</time>
</trkpt>
<trkpt lat="53.9511447" lon="15.9055798">
<ele>74</ele>
<time>2017-12-17T15:02:43Z</time>
</trkpt>
<trkpt lat="53.9516871" lon="15.9046412">
<ele>73</ele>
<time>2017-12-17T15:02:49Z</time>
</trkpt>
<trkpt lat="53.9522623" lon="15.9036992">
<ele>73</ele>
<time>2017-12-17T15:02:55Z</time>
</trkpt>
<trkpt lat="53.9526810" lon="15.9026151">
<ele>73</ele>
<time>2017-12-17T15:03:01Z</time>
</trkpt>
<trkpt lat="53.9529070" lon="15.9013332">
<ele>72</ele>
<time>2017-12-17T15:03:07Z</time>
</trkpt>
<trkpt lat="53.9531492" lon="15.9000734">
<ele>73</ele>
<time>2017-12-17T15:03:13Z</time>
</trkpt>
<trkpt lat="53.9533735" lon="15.8989778">
<ele>74</ele>
<time>2017-12-17T15:03:19Z</time>
</trkpt>
<trkpt lat="53.9534878" lon="15.8984185">
<ele>76</ele>
<time>2017-12-17T15:03:25Z</time>
</trkpt>
<trkpt lat="53.9537276" lon="15.8983692">
<ele>75</ele>
<time>2017-12-17T15:03:31Z</time>
</trkpt>
<trkpt lat="53.9542102" lon="15.8983925">
<ele>76</ele>
<time>2017-12-17T15:03:37Z</time>
</trkpt>
<trkpt lat="53.9547300" lon="15.8984470">
<ele>76</ele>
<time>2017-12-17T15:03:43Z</time>
</trkpt>
<trkpt lat="53.9551947" lon="15.8985737">
<ele>76</ele>
<time>2017-12-17T15:03:49Z</time>
</trkpt>
<trkpt lat="53.9557730" lon="15.8986112">
<ele>76</ele>
<time>2017-12-17T15:03:55Z</time>
</trkpt>
<trkpt lat="53.9563928" lon="15.8986861">
<ele>75</ele>
<time>2017-12-17T15:04:01Z</time>
</trkpt>
<trkpt lat="53.9569469" lon="15.8987150">
<ele>78</ele>
<time>2017-12-17T15:04:07Z</time>
</trkpt>
<trkpt lat="53.9574604" lon="15.8988923">
<ele>76</ele>
<time>2017-12-17T15:04:13Z</time>
</trkpt>
<trkpt lat="53.9579037" lon="15.8990340">
<ele>79</ele>
<time>2017-12-17T15:04:19Z</time>
</trkpt>
<trkpt lat="53.9580802" lon="15.8990134">
<ele>81</ele>
<time>2017-12-17T15:04:25Z</time>
</trkpt>
<trkpt lat="53.9581264" lon="15.8988142">
<ele>81</ele>
<time>2017-12-17T15:04:31Z</time>
</trkpt>
<trkpt lat="53.9580783" lon="15.8981775">
<ele>81</ele>
<time>2017-12-17T15:04:37Z</time>
</trkpt>
<trkpt lat="53.9580268" lon="15.8972589">
<ele>80</ele>
<time>2017-12-17T15:04:43Z</time>
</trkpt>
<trkpt lat="53.9579625" lon="15.8961681">
<ele>80</ele>
<time>2017-12-17T15:04:49Z</time>
</trkpt>
<trkpt lat="53.9578989" lon="15.8949896">
<ele>79</ele>
<time>2017-12-17T15:04:55Z</time>
</trkpt>
<trkpt lat="53.9578423" lon="15.8936889">
<ele>79</ele>
<time>2017-12-17T15:05:01Z</time>
</trkpt>
<trkpt lat="53.9577534" lon="15.8923602">
<ele>76</ele>
<time>2017-12-17T15:05:07Z</time>
</trkpt>
<trkpt lat="53.9576820" lon="15.8909399">
<ele>75</ele>
<time>2017-12-17T15:05:13Z</time>
</trkpt>
<trkpt lat="53.9574670" lon="15.8894429">
<ele>75</ele>
<time>2017-12-17T15:05:19Z</time>
</trkpt>
<trkpt lat="53.9571500" lon="15.8878749">
<ele>75</ele>
<time>2017-12-17T15:05:25Z</time>
</trkpt>
<trkpt lat="53.9568174" lon="15.8862194">
<ele>74</ele>
<time>2017-12-17T15:05:31Z</time>
</trkpt>
<trkpt lat="53.9564733" lon="15.8845176">
<ele>76</ele>
<time>2017-12-17T15:05:37Z</time>
</trkpt>
<trkpt lat="53.9561261" lon="15.8827816">
<ele>77</ele>
<time>2017-12-17T15:05:43Z</time>
</trkpt>
<trkpt lat="53.9557754" lon="15.8810249">
<ele>79</ele>
<time>2017-12-17T15:05:49Z</time>
</trkpt>
<trkpt lat="53.9554111" lon="15.8792403">
<ele>80</ele>
<time>2017-12-17T15:05:55Z</time>
</trkpt>
<trkpt lat="53.9550376" lon="15.8774391">
<ele>82</ele>
<time>2017-12-17T15:06:01Z</time>
</trkpt>
<trkpt lat="53.9546812" lon="15.8756545">
<ele>84</ele>
<time>2017-12-17T15:06:07Z</time>
</trkpt>
<trkpt lat="53.9543305" lon="15.8738888">
<ele>87</ele>
<time>2017-12-17T15:06:13Z</time>
</trkpt>
<trkpt lat="53.9539775" lon="15.8721216">
<ele>87</ele>
<time>2017-12-17T15:06:19Z</time>
</trkpt>
<trkpt lat="53.9536102" lon="15.8703235">
<ele>85</ele>
<time>2017-12-17T15:06:25Z</time>
</trkpt>
<trkpt lat="53.9530611" lon="15.8686339">
<ele>82</ele>
<time>2017-12-17T15:06:31Z</time>
</trkpt>
<trkpt lat="53.9523292" lon="15.8671660">
<ele>81</ele>
<time>2017-12-17T15:06:37Z</time>
</trkpt>
<trkpt lat="53.9516347" lon="15.8656650">
<ele>80</ele>
<time>2017-12-17T15:06:43Z</time>
</trkpt>
<trkpt lat="53.9509206" lon="15.8641336">
<ele>81</ele>
<time>2017-12-17T15:06:49Z</time>
</trkpt>
<trkpt lat="53.9502050" lon="15.8626270">
<ele>82</ele>
<time>2017-12-17T15:06:55Z</time>
</trkpt>
<trkpt lat="53.9495157" lon="15.8611523">
<ele>82</ele>
<time>2017-12-17T15:07:01Z</time>
</trkpt>
<trkpt lat="53.9488051" lon="15.8596651">
<ele>82</ele>
<time>2017-12-17T15:07:07Z</time>
</trkpt>
<trkpt lat="53.9480824" lon="15.8582132">
<ele>81</ele>
<time>2017-12-17T15:07:13Z</time>
</trkpt>
<trkpt lat="53.9473726" lon="15.8567263">
<ele>82</ele>
<time>2017-12-17T15:07:19Z</time>
</trkpt>
<trkpt lat="53.9466695" lon="15.8552310">
<ele>87</ele>
<time>2017-12-17T15:07:25Z</time>
</trkpt>
<trkpt lat="53.9459766" lon="15.8537461">
<ele>91</ele>
<time>2017-12-17T15:07:31Z</time>
</trkpt>
<trkpt lat="53.9452931" lon="15.8522736">
<ele>93</ele>
<time>2017-12-17T15:07:37Z</time>
</trkpt>
<trkpt lat="53.9445972" lon="15.8508449">
<ele>94</ele>
<time>2017-12-17T15:07:43Z</time>
</trkpt>
<trkpt lat="53.9438790" lon="15.8494067">
<ele>92</ele>
<time>2017-12-17T15:07:49Z</time>
</trkpt>
<trkpt lat="53.9431421" lon="15.8479147">
<ele>92</ele>
<time>2017-12-17T15:07:55Z</time>
</trkpt>
<trkpt lat="53.9424244" lon="15.8463741">
<ele>93</ele>
<time>2017-12-17T15:08:01Z</time>
</trkpt>
<trkpt lat="53.9418152" lon="15.8447046">
<ele>95</ele>
<time>2017-12-17T15:08:07Z</time>
</trkpt>
<trkpt lat="53.9412245" lon="15.8429769">
<ele>98</ele>
<time>2017-12-17T15:08:13Z</time>
</trkpt>
<trkpt lat="53.9406243" lon="15.8412640">
<ele>98</ele>
<time>2017-12-17T15:08:19Z</time>
</trkpt>
<trkpt lat="53.9400108" lon="15.8395438">
<ele>100</ele>
<time>2017-12-17T15:08:25Z</time>
</trkpt>
<trkpt lat="53.9393875" lon="15.8378260">
<ele>102</ele>
<time>2017-12-17T15:08:31Z</time>
</trkpt>
<trkpt lat="53.9387539" lon="15.8361191">
<ele>101</ele>
<time>2017-12-17T15:08:37Z</time>
</trkpt>
<trkpt lat="53.9381688" lon="15.8345345">
<ele>101</ele>
<time>2017-12-17T15:08:43Z</time>
</trkpt>
<trkpt lat="53.9376345" lon="15.8330830">
<ele>100</ele>
<time>2017-12-17T15:08:49Z</time>
</trkpt>
<trkpt lat="53.9371389" lon="15.8317466">
<ele>100</ele>
<time>2017-12-17T15:08:55Z</time>
</trkpt>
<trkpt lat="53.9366873" lon="15.8305129">
<ele>99</ele>
<time>2017-12-17T15:09:01Z</time>
</trkpt>
<trkpt lat="53.9362889" lon="15.8293795">
<ele>98</ele>
<time>2017-12-17T15:09:07Z</time>
</trkpt>
<trkpt lat="53.9358779" lon="15.8283650">
<ele>98</ele>
<time>2017-12-17T15:09:13Z</time>
</trkpt>
<trkpt lat="53.9352643" lon="15.8278433">
<ele>98</ele>
<time>2017-12-17T15:09:19Z</time>
</trkpt>
<trkpt lat="53.9346826" lon="15.8275198">
<ele>96</ele>
<time>2017-12-17T15:09:25Z</time>
</trkpt>
<trkpt lat="53.9344068" lon="15.8270878">
<ele>96</ele>
<time>2017-12-17T15:09:31Z</time>
</trkpt>
<trkpt lat="53.9346045" lon="15.8264483">
<ele>95</ele>
<time>2017-12-17T15:09:37Z</time>
</trkpt>
<trkpt lat="53.9350750" lon="15.8246821">
<ele>96</ele>
<time>2017-12-17T15:09:49Z</time>
</trkpt>
<trkpt lat="53.9353708" lon="15.8236468">
<ele>95</ele>
<time>2017-12-17T15:09:55Z</time>
</trkpt>
<trkpt lat="53.9355187" lon="15.8224721">
<ele>95</ele>
<time>2017-12-17T15:10:01Z</time>
</trkpt>
<trkpt lat="53.9353688" lon="15.8212565">
<ele>94</ele>
<time>2017-12-17T15:10:07Z</time>
</trkpt>
<trkpt lat="53.9347957" lon="15.8201722">
<ele>93</ele>
<time>2017-12-17T15:10:13Z</time>
</trkpt>
<trkpt lat="53.9341826" lon="15.8190738">
<ele>92</ele>
<time>2017-12-17T15:10:19Z</time>
</trkpt>
<trkpt lat="53.9335570" lon="15.8178605">
<ele>91</ele>
<time>2017-12-17T15:10:25Z</time>
</trkpt>
<trkpt lat="53.9329122" lon="15.8165681">
<ele>90</ele>
<time>2017-12-17T15:10:31Z</time>
</trkpt>
<trkpt lat="53.9322020" lon="15.8152299">
<ele>88</ele>
<time>2017-12-17T15:10:37Z</time>
</trkpt>
<trkpt lat="53.9314127" lon="15.8139501">
<ele>88</ele>
<time>2017-12-17T15:10:43Z</time>
</trkpt>
<trkpt lat="53.9306033" lon="15.8127299">
<ele>88</ele>
<time>2017-12-17T15:10:49Z</time>
</trkpt>
<trkpt lat="53.9298152" lon="15.8114695">
<ele>87</ele>
<time>2017-12-17T15:10:55Z</time>
</trkpt>
<trkpt lat="53.9290327" lon="15.8102090">
<ele>88</ele>
<time>2017-12-17T15:11:01Z</time>
</trkpt>
<trkpt lat="53.9282837" lon="15.8089226">
<ele>88</ele>
<time>2017-12-17T15:11:07Z</time>
</trkpt>
<trkpt lat="53.9276442" lon="15.8074272">
<ele>87</ele>
<time>2017-12-17T15:11:13Z</time>
</trkpt>
<trkpt lat="53.9269874" lon="15.8059137">
<ele>87</ele>
<time>2017-12-17T15:11:19Z</time>
</trkpt>
<trkpt lat="53.9263364" lon="15.8044244">
<ele>86</ele>
<time>2017-12-17T15:11:25Z</time>
</trkpt>
<trkpt lat="53.9256899" lon="15.8029684">
<ele>85</ele>
<time>2017-12-17T15:11:31Z</time>
</trkpt>
<trkpt lat="53.9250438" lon="15.8015439">
<ele>84</ele>
<time>2017-12-17T15:11:37Z</time>
</trkpt>
<trkpt lat="53.9243956" lon="15.8000859">
<ele>84</ele>
<time>2017-12-17T15:11:43Z</time>
</trkpt>
<trkpt lat="53.9237239" lon="15.7986545">
<ele>84</ele>
<time>2017-12-17T15:11:49Z</time>
</trkpt>
<trkpt lat="53.9230775" lon="15.7972001">
<ele>84</ele>
<time>2017-12-17T15:11:55Z</time>
</trkpt>
<trkpt lat="53.9224255" lon="15.7957313">
<ele>85</ele>
<time>2017-12-17T15:12:01Z</time>
</trkpt>
<trkpt lat="53.9217664" lon="15.7942388">
<ele>86</ele>
<time>2017-12-17T15:12:07Z</time>
</trkpt>
<trkpt lat="53.9209701" lon="15.7928208">
<ele>85</ele>
<time>2017-12-17T15:12:13Z</time>
</trkpt>
<trkpt lat="53.9201394" lon="15.7913949">
<ele>85</ele>
<time>2017-12-17T15:12:19Z</time>
</trkpt>
<trkpt lat="53.9192839" lon="15.7899994">
<ele>85</ele>
<time>2017-12-17T15:12:25Z</time>
</trkpt>
<trkpt lat="53.9185035" lon="15.7885597">
<ele>88</ele>
<time>2017-12-17T15:12:31Z</time>
</trkpt>
<trkpt lat="53.9177657" lon="15.7871619">
<ele>90</ele>
<time>2017-12-17T15:12:37Z</time>
</trkpt>
<trkpt lat="53.9170329" lon="15.7857186">
<ele>88</ele>
<time>2017-12-17T15:12:43Z</time>
</trkpt>
<trkpt lat="53.9163330" lon="15.7842588">
<ele>85</ele>
<time>2017-12-17T15:12:49Z</time>
</trkpt>
<trkpt lat="53.9156592" lon="15.7828596">
<ele>86</ele>
<time>2017-12-17T15:12:55Z</time>
</trkpt>
<trkpt lat="53.9149878" lon="15.7814638">
<ele>84</ele>
<time>2017-12-17T15:13:01Z</time>
</trkpt>
<trkpt lat="53.9143367" lon="15.7800530">
<ele>87</ele>
<time>2017-12-17T15:13:07Z</time>
</trkpt>
<trkpt lat="53.9136515" lon="15.7786100">
<ele>90</ele>
<time>2017-12-17T15:13:13Z</time>
</trkpt>
<trkpt lat="53.9123057" lon="15.7757935">
<ele>89</ele>
<time>2017-12-17T15:13:25Z</time>
</trkpt>
<trkpt lat="53.9116884" lon="15.7745096">
<ele>93</ele>
<time>2017-12-17T15:13:31Z</time>
</trkpt>
<trkpt lat="53.9110725" lon="15.7735577">
<ele>97</ele>
<time>2017-12-17T15:13:37Z</time>
</trkpt>
<trkpt lat="53.9103613" lon="15.7731990">
<ele>103</ele>
<time>2017-12-17T15:13:43Z</time>
</trkpt>
<trkpt lat="53.9096401" lon="15.7729312">
<ele>105</ele>
<time>2017-12-17T15:13:49Z</time>
</trkpt>
<trkpt lat="53.9090720" lon="15.7722382">
<ele>103</ele>
<time>2017-12-17T15:13:55Z</time>
</trkpt>
<trkpt lat="53.9089244" lon="15.7710162">
<ele>98</ele>
<time>2017-12-17T15:14:01Z</time>
</trkpt>
<trkpt lat="53.9087493" lon="15.7698214">
<ele>97</ele>
<time>2017-12-17T15:14:07Z</time>
</trkpt>
<trkpt lat="53.9085483" lon="15.7685564">
<ele>94</ele>
<time>2017-12-17T15:14:13Z</time>
</trkpt>
<trkpt lat="53.9083239" lon="15.7672955">
<ele>92</ele>
<time>2017-12-17T15:14:19Z</time>
</trkpt>
<trkpt lat="53.9080631" lon="15.7660767">
<ele>93</ele>
<time>2017-12-17T15:14:25Z</time>
</trkpt>
<trkpt lat="53.9078044" lon="15.7648636">
<ele>97</ele>
<time>2017-12-17T15:14:31Z</time>
</trkpt>
<trkpt lat="53.9076927" lon="15.7635679">
<ele>98</ele>
<time>2017-12-17T15:14:37Z</time>
</trkpt>
<trkpt lat="53.9077093" lon="15.7621853">
<ele>97</ele>
<time>2017-12-17T15:14:43Z</time>
</trkpt>
<trkpt lat="53.9080201" lon="15.7608195">
<ele>97</ele>
<time>2017-12-17T15:14:49Z</time>
</trkpt>
<trkpt lat="53.9083132" lon="15.7593860">
<ele>96</ele>
<time>2017-12-17T15:14:55Z</time>
</trkpt>
<trkpt lat="53.9085023" lon="15.7578577">
<ele>97</ele>
<time>2017-12-17T15:15:01Z</time>
</trkpt>
<trkpt lat="53.9083826" lon="15.7562555">
<ele>97</ele>
<time>2017-12-17T15:15:07Z</time>
</trkpt>
<trkpt lat="53.9082808" lon="15.7545630">
<ele>98</ele>
<time>2017-12-17T15:15:13Z</time>
</trkpt>
<trkpt lat="53.9081900" lon="15.7528246">
<ele>99</ele>
<time>2017-12-17T15:15:19Z</time>
</trkpt>
<trkpt lat="53.9080363" lon="15.7511547">
<ele>99</ele>
<time>2017-12-17T15:15:25Z</time>
</trkpt>
<trkpt lat="53.9076246" lon="15.7496438">
<ele>99</ele>
<time>2017-12-17T15:15:31Z</time>
</trkpt>
<trkpt lat="53.9071719" lon="15.7481693">
<ele>99</ele>
<time>2017-12-17T15:15:37Z</time>
</trkpt>
<trkpt lat="53.9066098" lon="15.7467578">
<ele>100</ele>
<time>2017-12-17T15:15:43Z</time>
</trkpt>
<trkpt lat="53.9058876" lon="15.7455256">
<ele>100</ele>
<time>2017-12-17T15:15:49Z</time>
</trkpt>
<trkpt lat="53.9051198" lon="15.7443137">
<ele>99</ele>
<time>2017-12-17T15:15:55Z</time>
</trkpt>
<trkpt lat="53.9043528" lon="15.7430337">
<ele>100</ele>
<time>2017-12-17T15:16:01Z</time>
</trkpt>
<trkpt lat="53.9035839" lon="15.7417929">
<ele>100</ele>
<time>2017-12-17T15:16:07Z</time>
</trkpt>
<trkpt lat="53.9028506" lon="15.7405596">
<ele>99</ele>
<time>2017-12-17T15:16:13Z</time>
</trkpt>
<trkpt lat="53.9022334" lon="15.7391155">
<ele>98</ele>
<time>2017-12-17T15:16:19Z</time>
</trkpt>
<trkpt lat="53.9016432" lon="15.7376335">
<ele>97</ele>
<time>2017-12-17T15:16:25Z</time>
</trkpt>
<trkpt lat="53.9010438" lon="15.7362067">
<ele>96</ele>
<time>2017-12-17T15:16:31Z</time>
</trkpt>
<trkpt lat="53.9004658" lon="15.7348001">
<ele>94</ele>
<time>2017-12-17T15:16:37Z</time>
</trkpt>
<trkpt lat="53.8999237" lon="15.7333638">
<ele>94</ele>
<time>2017-12-17T15:16:43Z</time>
</trkpt>
<trkpt lat="53.8993641" lon="15.7319052">
<ele>95</ele>
<time>2017-12-17T15:16:49Z</time>
</trkpt>
<trkpt lat="53.8987965" lon="15.7304146">
<ele>95</ele>
<time>2017-12-17T15:16:55Z</time>
</trkpt>
<trkpt lat="53.8982063" lon="15.7288813">
<ele>95</ele>
<time>2017-12-17T15:17:01Z</time>
</trkpt>
<trkpt lat="53.8976151" lon="15.7273628">
<ele>96</ele>
<time>2017-12-17T15:17:07Z</time>
</trkpt>
<trkpt lat="53.8970316" lon="15.7258320">
<ele>98</ele>
<time>2017-12-17T15:17:13Z</time>
</trkpt>
<trkpt lat="53.8964546" lon="15.7243001">
<ele>99</ele>
<time>2017-12-17T15:17:19Z</time>
</trkpt>
<trkpt lat="53.8958783" lon="15.7227695">
<ele>100</ele>
<time>2017-12-17T15:17:25Z</time>
</trkpt>
<trkpt lat="53.8953311" lon="15.7213222">
<ele>100</ele>
<time>2017-12-17T15:17:31Z</time>
</trkpt>
<trkpt lat="53.8948210" lon="15.7199494">
<ele>99</ele>
<time>2017-12-17T15:17:37Z</time>
</trkpt>
<trkpt lat="53.8943305" lon="15.7185942">
<ele>96</ele>
<time>2017-12-17T15:17:43Z</time>
</trkpt>
<trkpt lat="53.8938610" lon="15.7173458">
<ele>97</ele>
<time>2017-12-17T15:17:49Z</time>
</trkpt>
<trkpt lat="53.8934371" lon="15.7162371">
<ele>96</ele>
<time>2017-12-17T15:17:55Z</time>
</trkpt>
<trkpt lat="53.8930573" lon="15.7152224">
<ele>97</ele>
<time>2017-12-17T15:18:01Z</time>
</trkpt>
<trkpt lat="53.8926802" lon="15.7143169">
<ele>96</ele>
<time>2017-12-17T15:18:07Z</time>
</trkpt>
<trkpt lat="53.8923519" lon="15.7135014">
<ele>95</ele>
<time>2017-12-17T15:18:13Z</time>
</trkpt>
<trkpt lat="53.8920586" lon="15.7127442">
<ele>95</ele>
<time>2017-12-17T15:18:19Z</time>
</trkpt>
<trkpt lat="53.8917944" lon="15.7121094">
<ele>94</ele>
<time>2017-12-17T15:18:25Z</time>
</trkpt>
<trkpt lat="53.8917019" lon="15.7118105">
<ele>94</ele>
<time>2017-12-17T15:18:31Z</time>
</trkpt>
<trkpt lat="53.8917059" lon="15.7117210">
<ele>95</ele>
<time>2017-12-17T15:18:37Z</time>
</trkpt>
<trkpt lat="53.8915718" lon="15.7116508">
<ele>95</ele>
<time>2017-12-17T15:18:43Z</time>
</trkpt>
<trkpt lat="53.8913400" lon="15.7120091">
<ele>95</ele>
<time>2017-12-17T15:18:49Z</time>
</trkpt>
<trkpt lat="53.8909324" lon="15.7124446">
<ele>94</ele>
<time>2017-12-17T15:18:55Z</time>
</trkpt>
<trkpt lat="53.8904296" lon="15.7130141">
<ele>94</ele>
<time>2017-12-17T15:19:01Z</time>
</trkpt>
<trkpt lat="53.8899810" lon="15.7135011">
<ele>94</ele>
<time>2017-12-17T15:19:07Z</time>
</trkpt>
<trkpt lat="53.8897645" lon="15.7137454">
<ele>94</ele>
<time>2017-12-17T15:19:13Z</time>
</trkpt>
<trkpt lat="53.8897345" lon="15.7138863">
<ele>91</ele>
<time>2017-12-17T15:19:19Z</time>
</trkpt>
<trkpt lat="53.8897963" lon="15.7140713">
<ele>89</ele>
<time>2017-12-17T15:19:25Z</time>
</trkpt>
<trkpt lat="53.8898398" lon="15.7141572">
<ele>89</ele>
<time>2017-12-17T15:19:31Z</time>
</trkpt>
<trkpt lat="53.8898100" lon="15.7141493">
<ele>88</ele>
<time>2017-12-17T15:19:37Z</time>
</trkpt>
<trkpt lat="53.8898100" lon="15.7141493">
<ele>88</ele>
<time>2017-12-17T15:19:43Z</time>
</trkpt>
<trkpt lat="53.8898100" lon="15.7141493">
<ele>88</ele>
<time>2017-12-17T15:19:49Z</time>
</trkpt>
<trkpt lat="53.8898066" lon="15.7141493">
<ele>89</ele>
<time>2017-12-17T15:19:55Z</time>
</trkpt>
<trkpt lat="53.8898066" lon="15.7141493">
<ele>89</ele>
<time>2017-12-17T15:20:01Z</time>
</trkpt>
<trkpt lat="53.8898066" lon="15.7141493">
<ele>89</ele>
<time>2017-12-17T15:20:07Z</time>
</trkpt>
<trkpt lat="53.8898066" lon="15.7141493">
<ele>89</ele>
<time>2017-12-17T15:20:13Z</time>
</trkpt>
<trkpt lat="53.8898066" lon="15.7141493">
<ele>89</ele>
<time>2017-12-17T15:20:19Z</time>
</trkpt>
<trkpt lat="" lon="">
<ele></ele>
<time>2017-12-17TZ</time>
</trkpt>
</trkseg>
</trk>
<wpt lat="" lon="">
	<name></name>
	<desc></desc>
	<cmt></cmt>
	<photoid></photoid>
	<type></type>
</wpt>
</gpx>
